<?xml version="1.0" encoding="UTF-8" standalone="no" ?>
<gpx xmlns="http://www.topografix.com/GPX/1/1" xmlns:xsi="http://www.w3.org/2001/XMLSchema-instance" xsi:schemaLocation="http://www.topografix.com/GPX/1/1 http://www.topografix.com/GPX/1/1/gpx.xsd" version="1.1" creator="VisuGPX - https://www.visugpx.com">
  <metadata>
    <name>Le Thoronet-St Antonin</name>
    <desc><![CDATA[Le Thoronet-St Antonin-]]></desc>
  </metadata>
  <trk>
    <name><![CDATA[02-12-12 08-45-29]]></name>
    <trkseg>
      <trkpt lat="43.48626" lon="6.37375">
        <ele>167</ele>
        <time>2012-12-02T07:45:29Z</time>
      </trkpt>
      <trkpt lat="43.48626" lon="6.37375">
        <ele>167</ele>
        <time>2012-12-02T07:45:30Z</time>
      </trkpt>
      <trkpt lat="43.48626" lon="6.3737">
        <ele>168</ele>
        <time>2012-12-02T07:46:06Z</time>
      </trkpt>
      <trkpt lat="43.48627" lon="6.37365">
        <ele>168</ele>
        <time>2012-12-02T07:46:08Z</time>
      </trkpt>
      <trkpt lat="43.48627" lon="6.37361">
        <ele>168</ele>
        <time>2012-12-02T07:46:09Z</time>
      </trkpt>
      <trkpt lat="43.48623" lon="6.37344">
        <ele>168</ele>
        <time>2012-12-02T07:46:14Z</time>
      </trkpt>
      <trkpt lat="43.48616" lon="6.3734">
        <ele>168</ele>
        <time>2012-12-02T07:46:16Z</time>
      </trkpt>
      <trkpt lat="43.4861" lon="6.3734">
        <ele>168</ele>
        <time>2012-12-02T07:46:18Z</time>
      </trkpt>
      <trkpt lat="43.48594" lon="6.37333">
        <ele>168</ele>
        <time>2012-12-02T07:46:23Z</time>
      </trkpt>
      <trkpt lat="43.4857" lon="6.37323">
        <ele>168</ele>
        <time>2012-12-02T07:46:30Z</time>
      </trkpt>
      <trkpt lat="43.4855" lon="6.37319">
        <ele>168</ele>
        <time>2012-12-02T07:46:36Z</time>
      </trkpt>
      <trkpt lat="43.48533" lon="6.37326">
        <ele>168</ele>
        <time>2012-12-02T07:46:41Z</time>
      </trkpt>
      <trkpt lat="43.48532" lon="6.3733">
        <ele>168</ele>
        <time>2012-12-02T07:46:42Z</time>
      </trkpt>
      <trkpt lat="43.4853" lon="6.37344">
        <ele>168</ele>
        <time>2012-12-02T07:46:45Z</time>
      </trkpt>
      <trkpt lat="43.48529" lon="6.37356">
        <ele>168</ele>
        <time>2012-12-02T07:46:47Z</time>
      </trkpt>
      <trkpt lat="43.48521" lon="6.37396">
        <ele>168</ele>
        <time>2012-12-02T07:46:54Z</time>
      </trkpt>
      <trkpt lat="43.48518" lon="6.37406">
        <ele>168</ele>
        <time>2012-12-02T07:46:56Z</time>
      </trkpt>
      <trkpt lat="43.48509" lon="6.37413">
        <ele>168</ele>
        <time>2012-12-02T07:46:59Z</time>
      </trkpt>
      <trkpt lat="43.48506" lon="6.37413">
        <ele>167</ele>
        <time>2012-12-02T07:47:00Z</time>
      </trkpt>
      <trkpt lat="43.48503" lon="6.37411">
        <ele>167</ele>
        <time>2012-12-02T07:47:01Z</time>
      </trkpt>
      <trkpt lat="43.48499" lon="6.37408">
        <ele>166</ele>
        <time>2012-12-02T07:47:02Z</time>
      </trkpt>
      <trkpt lat="43.48495" lon="6.37405">
        <ele>166</ele>
        <time>2012-12-02T07:47:03Z</time>
      </trkpt>
      <trkpt lat="43.4849" lon="6.37402">
        <ele>166</ele>
        <time>2012-12-02T07:47:04Z</time>
      </trkpt>
      <trkpt lat="43.48486" lon="6.37399">
        <ele>166</ele>
        <time>2012-12-02T07:47:05Z</time>
      </trkpt>
      <trkpt lat="43.4847" lon="6.37388">
        <ele>166</ele>
        <time>2012-12-02T07:47:09Z</time>
      </trkpt>
      <trkpt lat="43.4844" lon="6.37366">
        <ele>166</ele>
        <time>2012-12-02T07:47:17Z</time>
      </trkpt>
      <trkpt lat="43.48424" lon="6.37355">
        <ele>166</ele>
        <time>2012-12-02T07:47:22Z</time>
      </trkpt>
      <trkpt lat="43.48414" lon="6.37344">
        <ele>166</ele>
        <time>2012-12-02T07:47:27Z</time>
      </trkpt>
      <trkpt lat="43.48411" lon="6.37345">
        <ele>166</ele>
        <time>2012-12-02T07:47:31Z</time>
      </trkpt>
      <trkpt lat="43.48414" lon="6.37348">
        <ele>166</ele>
        <time>2012-12-02T07:47:36Z</time>
      </trkpt>
      <trkpt lat="43.4841" lon="6.37341">
        <ele>166</ele>
        <time>2012-12-02T07:48:16Z</time>
      </trkpt>
      <trkpt lat="43.48411" lon="6.37335">
        <ele>166</ele>
        <time>2012-12-02T07:48:18Z</time>
      </trkpt>
      <trkpt lat="43.48415" lon="6.37329">
        <ele>166</ele>
        <time>2012-12-02T07:48:20Z</time>
      </trkpt>
      <trkpt lat="43.48424" lon="6.37315">
        <ele>166</ele>
        <time>2012-12-02T07:48:24Z</time>
      </trkpt>
      <trkpt lat="43.48427" lon="6.37307">
        <ele>166</ele>
        <time>2012-12-02T07:48:26Z</time>
      </trkpt>
      <trkpt lat="43.4843" lon="6.37303">
        <ele>166</ele>
        <time>2012-12-02T07:48:27Z</time>
      </trkpt>
      <trkpt lat="43.48432" lon="6.37299">
        <ele>167</ele>
        <time>2012-12-02T07:48:28Z</time>
      </trkpt>
      <trkpt lat="43.48434" lon="6.37296">
        <ele>168</ele>
        <time>2012-12-02T07:48:29Z</time>
      </trkpt>
      <trkpt lat="43.48445" lon="6.37282">
        <ele>168</ele>
        <time>2012-12-02T07:48:33Z</time>
      </trkpt>
      <trkpt lat="43.48463" lon="6.37261">
        <ele>168</ele>
        <time>2012-12-02T07:48:40Z</time>
      </trkpt>
      <trkpt lat="43.48467" lon="6.37252">
        <ele>168</ele>
        <time>2012-12-02T07:48:42Z</time>
      </trkpt>
      <trkpt lat="43.4847" lon="6.37248">
        <ele>169</ele>
        <time>2012-12-02T07:48:43Z</time>
      </trkpt>
      <trkpt lat="43.48472" lon="6.37244">
        <ele>169</ele>
        <time>2012-12-02T07:48:44Z</time>
      </trkpt>
      <trkpt lat="43.48474" lon="6.3724">
        <ele>169</ele>
        <time>2012-12-02T07:48:45Z</time>
      </trkpt>
      <trkpt lat="43.48477" lon="6.37236">
        <ele>170</ele>
        <time>2012-12-02T07:48:46Z</time>
      </trkpt>
      <trkpt lat="43.48479" lon="6.37232">
        <ele>170</ele>
        <time>2012-12-02T07:48:47Z</time>
      </trkpt>
      <trkpt lat="43.48484" lon="6.37225">
        <ele>170</ele>
        <time>2012-12-02T07:48:49Z</time>
      </trkpt>
      <trkpt lat="43.48486" lon="6.3722">
        <ele>171</ele>
        <time>2012-12-02T07:48:50Z</time>
      </trkpt>
      <trkpt lat="43.48489" lon="6.37216">
        <ele>171</ele>
        <time>2012-12-02T07:48:51Z</time>
      </trkpt>
      <trkpt lat="43.48492" lon="6.37211">
        <ele>171</ele>
        <time>2012-12-02T07:48:52Z</time>
      </trkpt>
      <trkpt lat="43.48495" lon="6.37207">
        <ele>172</ele>
        <time>2012-12-02T07:48:53Z</time>
      </trkpt>
      <trkpt lat="43.48513" lon="6.37175">
        <ele>172</ele>
        <time>2012-12-02T07:48:59Z</time>
      </trkpt>
      <trkpt lat="43.48529" lon="6.37143">
        <ele>172</ele>
        <time>2012-12-02T07:49:05Z</time>
      </trkpt>
      <trkpt lat="43.48536" lon="6.37133">
        <ele>172</ele>
        <time>2012-12-02T07:49:07Z</time>
      </trkpt>
      <trkpt lat="43.48547" lon="6.37113">
        <ele>172</ele>
        <time>2012-12-02T07:49:11Z</time>
      </trkpt>
      <trkpt lat="43.48549" lon="6.37092">
        <ele>172</ele>
        <time>2012-12-02T07:49:15Z</time>
      </trkpt>
      <trkpt lat="43.4855" lon="6.3706">
        <ele>172</ele>
        <time>2012-12-02T07:49:21Z</time>
      </trkpt>
      <trkpt lat="43.4855" lon="6.37055">
        <ele>173</ele>
        <time>2012-12-02T07:49:22Z</time>
      </trkpt>
      <trkpt lat="43.48551" lon="6.37051">
        <ele>173</ele>
        <time>2012-12-02T07:49:23Z</time>
      </trkpt>
      <trkpt lat="43.48551" lon="6.37046">
        <ele>174</ele>
        <time>2012-12-02T07:49:24Z</time>
      </trkpt>
      <trkpt lat="43.48551" lon="6.37042">
        <ele>174</ele>
        <time>2012-12-02T07:49:25Z</time>
      </trkpt>
      <trkpt lat="43.48551" lon="6.37034">
        <ele>174</ele>
        <time>2012-12-02T07:49:27Z</time>
      </trkpt>
      <trkpt lat="43.4855" lon="6.37026">
        <ele>174</ele>
        <time>2012-12-02T07:49:29Z</time>
      </trkpt>
      <trkpt lat="43.4855" lon="6.37023">
        <ele>175</ele>
        <time>2012-12-02T07:49:30Z</time>
      </trkpt>
      <trkpt lat="43.48549" lon="6.37019">
        <ele>175</ele>
        <time>2012-12-02T07:49:31Z</time>
      </trkpt>
      <trkpt lat="43.48548" lon="6.37016">
        <ele>176</ele>
        <time>2012-12-02T07:49:32Z</time>
      </trkpt>
      <trkpt lat="43.48547" lon="6.37013">
        <ele>176</ele>
        <time>2012-12-02T07:49:33Z</time>
      </trkpt>
      <trkpt lat="43.48545" lon="6.3701">
        <ele>176</ele>
        <time>2012-12-02T07:49:34Z</time>
      </trkpt>
      <trkpt lat="43.48543" lon="6.37003">
        <ele>177</ele>
        <time>2012-12-02T07:49:36Z</time>
      </trkpt>
      <trkpt lat="43.48541" lon="6.36999">
        <ele>177</ele>
        <time>2012-12-02T07:49:37Z</time>
      </trkpt>
      <trkpt lat="43.48539" lon="6.36996">
        <ele>178</ele>
        <time>2012-12-02T07:49:38Z</time>
      </trkpt>
      <trkpt lat="43.48538" lon="6.36992">
        <ele>178</ele>
        <time>2012-12-02T07:49:39Z</time>
      </trkpt>
      <trkpt lat="43.48537" lon="6.36988">
        <ele>179</ele>
        <time>2012-12-02T07:49:40Z</time>
      </trkpt>
      <trkpt lat="43.48533" lon="6.36963">
        <ele>179</ele>
        <time>2012-12-02T07:49:46Z</time>
      </trkpt>
      <trkpt lat="43.48533" lon="6.36959">
        <ele>179</ele>
        <time>2012-12-02T07:49:47Z</time>
      </trkpt>
      <trkpt lat="43.48534" lon="6.36954">
        <ele>180</ele>
        <time>2012-12-02T07:49:48Z</time>
      </trkpt>
      <trkpt lat="43.48535" lon="6.36949">
        <ele>180</ele>
        <time>2012-12-02T07:49:49Z</time>
      </trkpt>
      <trkpt lat="43.48536" lon="6.36945">
        <ele>181</ele>
        <time>2012-12-02T07:49:50Z</time>
      </trkpt>
      <trkpt lat="43.48541" lon="6.36936">
        <ele>181</ele>
        <time>2012-12-02T07:49:52Z</time>
      </trkpt>
      <trkpt lat="43.48557" lon="6.36912">
        <ele>181</ele>
        <time>2012-12-02T07:49:58Z</time>
      </trkpt>
      <trkpt lat="43.48576" lon="6.36884">
        <ele>181</ele>
        <time>2012-12-02T07:50:06Z</time>
      </trkpt>
      <trkpt lat="43.48579" lon="6.36881">
        <ele>181</ele>
        <time>2012-12-02T07:50:07Z</time>
      </trkpt>
      <trkpt lat="43.48598" lon="6.36857">
        <ele>181</ele>
        <time>2012-12-02T07:50:14Z</time>
      </trkpt>
      <trkpt lat="43.4861" lon="6.36829">
        <ele>181</ele>
        <time>2012-12-02T07:50:20Z</time>
      </trkpt>
      <trkpt lat="43.48622" lon="6.3681">
        <ele>181</ele>
        <time>2012-12-02T07:50:24Z</time>
      </trkpt>
      <trkpt lat="43.48629" lon="6.36801">
        <ele>181</ele>
        <time>2012-12-02T07:50:26Z</time>
      </trkpt>
      <trkpt lat="43.48645" lon="6.36785">
        <ele>181</ele>
        <time>2012-12-02T07:50:30Z</time>
      </trkpt>
      <trkpt lat="43.4866" lon="6.36767">
        <ele>181</ele>
        <time>2012-12-02T07:50:34Z</time>
      </trkpt>
      <trkpt lat="43.48663" lon="6.36762">
        <ele>181</ele>
        <time>2012-12-02T07:50:35Z</time>
      </trkpt>
      <trkpt lat="43.48678" lon="6.36736">
        <ele>181</ele>
        <time>2012-12-02T07:50:40Z</time>
      </trkpt>
      <trkpt lat="43.48704" lon="6.36693">
        <ele>181</ele>
        <time>2012-12-02T07:50:49Z</time>
      </trkpt>
      <trkpt lat="43.48708" lon="6.36689">
        <ele>181</ele>
        <time>2012-12-02T07:50:50Z</time>
      </trkpt>
      <trkpt lat="43.48711" lon="6.36685">
        <ele>182</ele>
        <time>2012-12-02T07:50:51Z</time>
      </trkpt>
      <trkpt lat="43.48714" lon="6.36682">
        <ele>182</ele>
        <time>2012-12-02T07:50:52Z</time>
      </trkpt>
      <trkpt lat="43.48718" lon="6.36679">
        <ele>183</ele>
        <time>2012-12-02T07:50:53Z</time>
      </trkpt>
      <trkpt lat="43.48722" lon="6.36676">
        <ele>183</ele>
        <time>2012-12-02T07:50:54Z</time>
      </trkpt>
      <trkpt lat="43.48748" lon="6.36657">
        <ele>183</ele>
        <time>2012-12-02T07:51:01Z</time>
      </trkpt>
      <trkpt lat="43.48751" lon="6.36654">
        <ele>183</ele>
        <time>2012-12-02T07:51:02Z</time>
      </trkpt>
      <trkpt lat="43.48754" lon="6.36651">
        <ele>184</ele>
        <time>2012-12-02T07:51:03Z</time>
      </trkpt>
      <trkpt lat="43.48757" lon="6.36647">
        <ele>184</ele>
        <time>2012-12-02T07:51:04Z</time>
      </trkpt>
      <trkpt lat="43.4876" lon="6.36644">
        <ele>185</ele>
        <time>2012-12-02T07:51:05Z</time>
      </trkpt>
      <trkpt lat="43.48763" lon="6.36641">
        <ele>185</ele>
        <time>2012-12-02T07:51:06Z</time>
      </trkpt>
      <trkpt lat="43.48772" lon="6.36632">
        <ele>185</ele>
        <time>2012-12-02T07:51:09Z</time>
      </trkpt>
      <trkpt lat="43.48778" lon="6.36612">
        <ele>185</ele>
        <time>2012-12-02T07:51:14Z</time>
      </trkpt>
      <trkpt lat="43.48777" lon="6.36607">
        <ele>185</ele>
        <time>2012-12-02T07:51:15Z</time>
      </trkpt>
      <trkpt lat="43.48775" lon="6.36601">
        <ele>186</ele>
        <time>2012-12-02T07:51:16Z</time>
      </trkpt>
      <trkpt lat="43.48775" lon="6.36595">
        <ele>186</ele>
        <time>2012-12-02T07:51:17Z</time>
      </trkpt>
      <trkpt lat="43.48776" lon="6.36589">
        <ele>187</ele>
        <time>2012-12-02T07:51:18Z</time>
      </trkpt>
      <trkpt lat="43.48778" lon="6.36582">
        <ele>187</ele>
        <time>2012-12-02T07:51:19Z</time>
      </trkpt>
      <trkpt lat="43.48788" lon="6.36567">
        <ele>187</ele>
        <time>2012-12-02T07:51:22Z</time>
      </trkpt>
      <trkpt lat="43.48796" lon="6.36559">
        <ele>187</ele>
        <time>2012-12-02T07:51:24Z</time>
      </trkpt>
      <trkpt lat="43.48804" lon="6.36553">
        <ele>187</ele>
        <time>2012-12-02T07:51:26Z</time>
      </trkpt>
      <trkpt lat="43.48808" lon="6.36553">
        <ele>187</ele>
        <time>2012-12-02T07:51:27Z</time>
      </trkpt>
      <trkpt lat="43.48834" lon="6.36547">
        <ele>187</ele>
        <time>2012-12-02T07:51:33Z</time>
      </trkpt>
      <trkpt lat="43.48839" lon="6.36544">
        <ele>187</ele>
        <time>2012-12-02T07:51:34Z</time>
      </trkpt>
      <trkpt lat="43.48854" lon="6.36529">
        <ele>187</ele>
        <time>2012-12-02T07:51:38Z</time>
      </trkpt>
      <trkpt lat="43.48857" lon="6.36524">
        <ele>187</ele>
        <time>2012-12-02T07:51:39Z</time>
      </trkpt>
      <trkpt lat="43.48861" lon="6.36506">
        <ele>187</ele>
        <time>2012-12-02T07:51:43Z</time>
      </trkpt>
      <trkpt lat="43.48863" lon="6.36501">
        <ele>187</ele>
        <time>2012-12-02T07:51:45Z</time>
      </trkpt>
      <trkpt lat="43.48869" lon="6.36496">
        <ele>187</ele>
        <time>2012-12-02T07:51:47Z</time>
      </trkpt>
      <trkpt lat="43.48876" lon="6.36492">
        <ele>187</ele>
        <time>2012-12-02T07:51:49Z</time>
      </trkpt>
      <trkpt lat="43.48889" lon="6.36486">
        <ele>187</ele>
        <time>2012-12-02T07:51:52Z</time>
      </trkpt>
      <trkpt lat="43.48921" lon="6.36467">
        <ele>187</ele>
        <time>2012-12-02T07:51:59Z</time>
      </trkpt>
      <trkpt lat="43.48959" lon="6.36445">
        <ele>187</ele>
        <time>2012-12-02T07:52:07Z</time>
      </trkpt>
      <trkpt lat="43.4899" lon="6.36425">
        <ele>187</ele>
        <time>2012-12-02T07:52:14Z</time>
      </trkpt>
      <trkpt lat="43.48994" lon="6.36425">
        <ele>187</ele>
        <time>2012-12-02T07:52:15Z</time>
      </trkpt>
      <trkpt lat="43.49007" lon="6.36426">
        <ele>187</ele>
        <time>2012-12-02T07:52:18Z</time>
      </trkpt>
      <trkpt lat="43.49016" lon="6.36424">
        <ele>188</ele>
        <time>2012-12-02T07:52:20Z</time>
      </trkpt>
      <trkpt lat="43.4902" lon="6.3642">
        <ele>188</ele>
        <time>2012-12-02T07:52:21Z</time>
      </trkpt>
      <trkpt lat="43.49024" lon="6.36416">
        <ele>188</ele>
        <time>2012-12-02T07:52:22Z</time>
      </trkpt>
      <trkpt lat="43.49026" lon="6.3641">
        <ele>189</ele>
        <time>2012-12-02T07:52:23Z</time>
      </trkpt>
      <trkpt lat="43.49028" lon="6.36405">
        <ele>189</ele>
        <time>2012-12-02T07:52:24Z</time>
      </trkpt>
      <trkpt lat="43.49029" lon="6.36398">
        <ele>189</ele>
        <time>2012-12-02T07:52:25Z</time>
      </trkpt>
      <trkpt lat="43.49028" lon="6.36378">
        <ele>189</ele>
        <time>2012-12-02T07:52:28Z</time>
      </trkpt>
      <trkpt lat="43.49027" lon="6.36371">
        <ele>189</ele>
        <time>2012-12-02T07:52:29Z</time>
      </trkpt>
      <trkpt lat="43.49027" lon="6.36332">
        <ele>189</ele>
        <time>2012-12-02T07:52:35Z</time>
      </trkpt>
      <trkpt lat="43.49028" lon="6.36275">
        <ele>189</ele>
        <time>2012-12-02T07:52:44Z</time>
      </trkpt>
      <trkpt lat="43.49028" lon="6.36239">
        <ele>190</ele>
        <time>2012-12-02T07:52:50Z</time>
      </trkpt>
      <trkpt lat="43.49029" lon="6.36233">
        <ele>190</ele>
        <time>2012-12-02T07:52:51Z</time>
      </trkpt>
      <trkpt lat="43.49029" lon="6.36227">
        <ele>190</ele>
        <time>2012-12-02T07:52:52Z</time>
      </trkpt>
      <trkpt lat="43.49028" lon="6.36221">
        <ele>191</ele>
        <time>2012-12-02T07:52:53Z</time>
      </trkpt>
      <trkpt lat="43.49029" lon="6.36215">
        <ele>191</ele>
        <time>2012-12-02T07:52:54Z</time>
      </trkpt>
      <trkpt lat="43.49028" lon="6.36188">
        <ele>191</ele>
        <time>2012-12-02T07:52:59Z</time>
      </trkpt>
      <trkpt lat="43.4903" lon="6.3615">
        <ele>191</ele>
        <time>2012-12-02T07:53:06Z</time>
      </trkpt>
      <trkpt lat="43.49032" lon="6.36118">
        <ele>191</ele>
        <time>2012-12-02T07:53:12Z</time>
      </trkpt>
      <trkpt lat="43.49032" lon="6.36112">
        <ele>192</ele>
        <time>2012-12-02T07:53:13Z</time>
      </trkpt>
      <trkpt lat="43.49033" lon="6.36106">
        <ele>192</ele>
        <time>2012-12-02T07:53:14Z</time>
      </trkpt>
      <trkpt lat="43.49033" lon="6.36101">
        <ele>193</ele>
        <time>2012-12-02T07:53:15Z</time>
      </trkpt>
      <trkpt lat="43.49033" lon="6.36095">
        <ele>193</ele>
        <time>2012-12-02T07:53:16Z</time>
      </trkpt>
      <trkpt lat="43.49034" lon="6.3609">
        <ele>193</ele>
        <time>2012-12-02T07:53:17Z</time>
      </trkpt>
      <trkpt lat="43.49036" lon="6.36067">
        <ele>193</ele>
        <time>2012-12-02T07:53:21Z</time>
      </trkpt>
      <trkpt lat="43.49046" lon="6.3604">
        <ele>193</ele>
        <time>2012-12-02T07:53:27Z</time>
      </trkpt>
      <trkpt lat="43.49049" lon="6.36037">
        <ele>194</ele>
        <time>2012-12-02T07:53:28Z</time>
      </trkpt>
      <trkpt lat="43.49051" lon="6.36035">
        <ele>194</ele>
        <time>2012-12-02T07:53:29Z</time>
      </trkpt>
      <trkpt lat="43.49054" lon="6.36032">
        <ele>195</ele>
        <time>2012-12-02T07:53:30Z</time>
      </trkpt>
      <trkpt lat="43.49056" lon="6.3603">
        <ele>195</ele>
        <time>2012-12-02T07:53:31Z</time>
      </trkpt>
      <trkpt lat="43.49059" lon="6.36028">
        <ele>195</ele>
        <time>2012-12-02T07:53:32Z</time>
      </trkpt>
      <trkpt lat="43.4907" lon="6.36017">
        <ele>195</ele>
        <time>2012-12-02T07:53:36Z</time>
      </trkpt>
      <trkpt lat="43.49078" lon="6.3601">
        <ele>196</ele>
        <time>2012-12-02T07:53:39Z</time>
      </trkpt>
      <trkpt lat="43.49081" lon="6.36007">
        <ele>196</ele>
        <time>2012-12-02T07:53:40Z</time>
      </trkpt>
      <trkpt lat="43.49084" lon="6.36004">
        <ele>197</ele>
        <time>2012-12-02T07:53:41Z</time>
      </trkpt>
      <trkpt lat="43.49087" lon="6.36001">
        <ele>197</ele>
        <time>2012-12-02T07:53:42Z</time>
      </trkpt>
      <trkpt lat="43.49089" lon="6.35999">
        <ele>198</ele>
        <time>2012-12-02T07:53:43Z</time>
      </trkpt>
      <trkpt lat="43.49095" lon="6.35993">
        <ele>198</ele>
        <time>2012-12-02T07:53:45Z</time>
      </trkpt>
      <trkpt lat="43.49104" lon="6.35989">
        <ele>198</ele>
        <time>2012-12-02T07:53:48Z</time>
      </trkpt>
      <trkpt lat="43.49111" lon="6.35988">
        <ele>198</ele>
        <time>2012-12-02T07:53:50Z</time>
      </trkpt>
      <trkpt lat="43.49114" lon="6.35988">
        <ele>198</ele>
        <time>2012-12-02T07:53:51Z</time>
      </trkpt>
      <trkpt lat="43.49117" lon="6.35988">
        <ele>198</ele>
        <time>2012-12-02T07:53:52Z</time>
      </trkpt>
      <trkpt lat="43.49119" lon="6.35988">
        <ele>199</ele>
        <time>2012-12-02T07:53:53Z</time>
      </trkpt>
      <trkpt lat="43.49121" lon="6.35988">
        <ele>199</ele>
        <time>2012-12-02T07:53:54Z</time>
      </trkpt>
      <trkpt lat="43.49124" lon="6.35988">
        <ele>200</ele>
        <time>2012-12-02T07:53:55Z</time>
      </trkpt>
      <trkpt lat="43.49126" lon="6.35988">
        <ele>200</ele>
        <time>2012-12-02T07:53:56Z</time>
      </trkpt>
      <trkpt lat="43.4914" lon="6.3599">
        <ele>200</ele>
        <time>2012-12-02T07:54:01Z</time>
      </trkpt>
      <trkpt lat="43.49153" lon="6.3599">
        <ele>200</ele>
        <time>2012-12-02T07:54:05Z</time>
      </trkpt>
      <trkpt lat="43.49156" lon="6.35991">
        <ele>200</ele>
        <time>2012-12-02T07:54:06Z</time>
      </trkpt>
      <trkpt lat="43.49159" lon="6.35991">
        <ele>201</ele>
        <time>2012-12-02T07:54:07Z</time>
      </trkpt>
      <trkpt lat="43.49162" lon="6.35992">
        <ele>201</ele>
        <time>2012-12-02T07:54:08Z</time>
      </trkpt>
      <trkpt lat="43.49164" lon="6.35992">
        <ele>202</ele>
        <time>2012-12-02T07:54:09Z</time>
      </trkpt>
      <trkpt lat="43.49182" lon="6.35993">
        <ele>202</ele>
        <time>2012-12-02T07:54:15Z</time>
      </trkpt>
      <trkpt lat="43.49186" lon="6.35992">
        <ele>202</ele>
        <time>2012-12-02T07:54:16Z</time>
      </trkpt>
      <trkpt lat="43.49189" lon="6.35992">
        <ele>202</ele>
        <time>2012-12-02T07:54:17Z</time>
      </trkpt>
      <trkpt lat="43.49191" lon="6.35992">
        <ele>203</ele>
        <time>2012-12-02T07:54:18Z</time>
      </trkpt>
      <trkpt lat="43.49194" lon="6.35993">
        <ele>203</ele>
        <time>2012-12-02T07:54:19Z</time>
      </trkpt>
      <trkpt lat="43.49197" lon="6.35994">
        <ele>204</ele>
        <time>2012-12-02T07:54:20Z</time>
      </trkpt>
      <trkpt lat="43.49203" lon="6.35994">
        <ele>204</ele>
        <time>2012-12-02T07:54:22Z</time>
      </trkpt>
      <trkpt lat="43.49215" lon="6.35995">
        <ele>204</ele>
        <time>2012-12-02T07:54:27Z</time>
      </trkpt>
      <trkpt lat="43.49218" lon="6.35995">
        <ele>205</ele>
        <time>2012-12-02T07:54:28Z</time>
      </trkpt>
      <trkpt lat="43.49221" lon="6.35994">
        <ele>205</ele>
        <time>2012-12-02T07:54:29Z</time>
      </trkpt>
      <trkpt lat="43.49223" lon="6.35994">
        <ele>205</ele>
        <time>2012-12-02T07:54:30Z</time>
      </trkpt>
      <trkpt lat="43.49226" lon="6.35995">
        <ele>206</ele>
        <time>2012-12-02T07:54:31Z</time>
      </trkpt>
      <trkpt lat="43.49231" lon="6.35995">
        <ele>206</ele>
        <time>2012-12-02T07:54:33Z</time>
      </trkpt>
      <trkpt lat="43.49238" lon="6.35995">
        <ele>206</ele>
        <time>2012-12-02T07:54:36Z</time>
      </trkpt>
      <trkpt lat="43.4924" lon="6.35996">
        <ele>207</ele>
        <time>2012-12-02T07:54:37Z</time>
      </trkpt>
      <trkpt lat="43.49243" lon="6.35996">
        <ele>207</ele>
        <time>2012-12-02T07:54:38Z</time>
      </trkpt>
      <trkpt lat="43.49245" lon="6.35996">
        <ele>208</ele>
        <time>2012-12-02T07:54:39Z</time>
      </trkpt>
      <trkpt lat="43.49263" lon="6.35998">
        <ele>208</ele>
        <time>2012-12-02T07:54:46Z</time>
      </trkpt>
      <trkpt lat="43.49265" lon="6.35999">
        <ele>208</ele>
        <time>2012-12-02T07:54:47Z</time>
      </trkpt>
      <trkpt lat="43.49268" lon="6.35999">
        <ele>209</ele>
        <time>2012-12-02T07:54:48Z</time>
      </trkpt>
      <trkpt lat="43.4927" lon="6.35999">
        <ele>209</ele>
        <time>2012-12-02T07:54:49Z</time>
      </trkpt>
      <trkpt lat="43.49272" lon="6.35999">
        <ele>210</ele>
        <time>2012-12-02T07:54:50Z</time>
      </trkpt>
      <trkpt lat="43.49275" lon="6.35999">
        <ele>210</ele>
        <time>2012-12-02T07:54:51Z</time>
      </trkpt>
      <trkpt lat="43.49277" lon="6.36">
        <ele>210</ele>
        <time>2012-12-02T07:54:52Z</time>
      </trkpt>
      <trkpt lat="43.49284" lon="6.36004">
        <ele>210</ele>
        <time>2012-12-02T07:54:55Z</time>
      </trkpt>
      <trkpt lat="43.49286" lon="6.36005">
        <ele>211</ele>
        <time>2012-12-02T07:54:56Z</time>
      </trkpt>
      <trkpt lat="43.49288" lon="6.36006">
        <ele>211</ele>
        <time>2012-12-02T07:54:57Z</time>
      </trkpt>
      <trkpt lat="43.4929" lon="6.36007">
        <ele>212</ele>
        <time>2012-12-02T07:54:58Z</time>
      </trkpt>
      <trkpt lat="43.49292" lon="6.36011">
        <ele>212</ele>
        <time>2012-12-02T07:54:59Z</time>
      </trkpt>
      <trkpt lat="43.49294" lon="6.36019">
        <ele>212</ele>
        <time>2012-12-02T07:55:01Z</time>
      </trkpt>
      <trkpt lat="43.49297" lon="6.36026">
        <ele>212</ele>
        <time>2012-12-02T07:55:03Z</time>
      </trkpt>
      <trkpt lat="43.49298" lon="6.36033">
        <ele>212</ele>
        <time>2012-12-02T07:55:05Z</time>
      </trkpt>
      <trkpt lat="43.49299" lon="6.36037">
        <ele>213</ele>
        <time>2012-12-02T07:55:06Z</time>
      </trkpt>
      <trkpt lat="43.493" lon="6.3604">
        <ele>213</ele>
        <time>2012-12-02T07:55:07Z</time>
      </trkpt>
      <trkpt lat="43.49301" lon="6.36044">
        <ele>214</ele>
        <time>2012-12-02T07:55:08Z</time>
      </trkpt>
      <trkpt lat="43.49302" lon="6.36046">
        <ele>214</ele>
        <time>2012-12-02T07:55:09Z</time>
      </trkpt>
      <trkpt lat="43.49303" lon="6.36048">
        <ele>214</ele>
        <time>2012-12-02T07:55:10Z</time>
      </trkpt>
      <trkpt lat="43.49309" lon="6.36049">
        <ele>214</ele>
        <time>2012-12-02T07:55:13Z</time>
      </trkpt>
      <trkpt lat="43.49313" lon="6.36038">
        <ele>214</ele>
        <time>2012-12-02T07:55:17Z</time>
      </trkpt>
      <trkpt lat="43.49312" lon="6.36034">
        <ele>214</ele>
        <time>2012-12-02T07:55:18Z</time>
      </trkpt>
      <trkpt lat="43.49313" lon="6.3602">
        <ele>214</ele>
        <time>2012-12-02T07:55:22Z</time>
      </trkpt>
      <trkpt lat="43.49312" lon="6.36004">
        <ele>214</ele>
        <time>2012-12-02T07:55:27Z</time>
      </trkpt>
      <trkpt lat="43.49311" lon="6.36002">
        <ele>214</ele>
        <time>2012-12-02T07:55:28Z</time>
      </trkpt>
      <trkpt lat="43.49311" lon="6.35999">
        <ele>214</ele>
        <time>2012-12-02T07:55:31Z</time>
      </trkpt>
      <trkpt lat="43.49314" lon="6.35993">
        <ele>216</ele>
        <time>2012-12-02T08:04:25Z</time>
      </trkpt>
      <trkpt lat="43.49314" lon="6.35987">
        <ele>216</ele>
        <time>2012-12-02T08:04:28Z</time>
      </trkpt>
      <trkpt lat="43.49318" lon="6.35974">
        <ele>216</ele>
        <time>2012-12-02T08:04:32Z</time>
      </trkpt>
      <trkpt lat="43.4932" lon="6.35966">
        <ele>216</ele>
        <time>2012-12-02T08:04:34Z</time>
      </trkpt>
      <trkpt lat="43.49321" lon="6.35951">
        <ele>216</ele>
        <time>2012-12-02T08:04:37Z</time>
      </trkpt>
      <trkpt lat="43.49321" lon="6.35946">
        <ele>216</ele>
        <time>2012-12-02T08:04:38Z</time>
      </trkpt>
      <trkpt lat="43.49323" lon="6.35928">
        <ele>216</ele>
        <time>2012-12-02T08:04:41Z</time>
      </trkpt>
      <trkpt lat="43.49323" lon="6.35917">
        <ele>216</ele>
        <time>2012-12-02T08:04:43Z</time>
      </trkpt>
      <trkpt lat="43.49324" lon="6.35883">
        <ele>216</ele>
        <time>2012-12-02T08:04:49Z</time>
      </trkpt>
      <trkpt lat="43.49321" lon="6.35858">
        <ele>216</ele>
        <time>2012-12-02T08:04:53Z</time>
      </trkpt>
      <trkpt lat="43.49318" lon="6.35831">
        <ele>217</ele>
        <time>2012-12-02T08:04:58Z</time>
      </trkpt>
      <trkpt lat="43.49319" lon="6.35827">
        <ele>217</ele>
        <time>2012-12-02T08:04:59Z</time>
      </trkpt>
      <trkpt lat="43.49319" lon="6.35823">
        <ele>217</ele>
        <time>2012-12-02T08:05:00Z</time>
      </trkpt>
      <trkpt lat="43.49319" lon="6.35819">
        <ele>218</ele>
        <time>2012-12-02T08:05:01Z</time>
      </trkpt>
      <trkpt lat="43.49319" lon="6.35815">
        <ele>218</ele>
        <time>2012-12-02T08:05:02Z</time>
      </trkpt>
      <trkpt lat="43.4932" lon="6.35806">
        <ele>218</ele>
        <time>2012-12-02T08:05:05Z</time>
      </trkpt>
      <trkpt lat="43.49321" lon="6.3579">
        <ele>218</ele>
        <time>2012-12-02T08:05:10Z</time>
      </trkpt>
      <trkpt lat="43.49321" lon="6.35786">
        <ele>219</ele>
        <time>2012-12-02T08:05:11Z</time>
      </trkpt>
      <trkpt lat="43.49322" lon="6.35782">
        <ele>219</ele>
        <time>2012-12-02T08:05:12Z</time>
      </trkpt>
      <trkpt lat="43.49322" lon="6.35779">
        <ele>219</ele>
        <time>2012-12-02T08:05:13Z</time>
      </trkpt>
      <trkpt lat="43.49323" lon="6.35776">
        <ele>220</ele>
        <time>2012-12-02T08:05:14Z</time>
      </trkpt>
      <trkpt lat="43.49324" lon="6.35773">
        <ele>220</ele>
        <time>2012-12-02T08:05:15Z</time>
      </trkpt>
      <trkpt lat="43.49326" lon="6.35771">
        <ele>220</ele>
        <time>2012-12-02T08:05:16Z</time>
      </trkpt>
      <trkpt lat="43.4933" lon="6.35759">
        <ele>220</ele>
        <time>2012-12-02T08:05:20Z</time>
      </trkpt>
      <trkpt lat="43.49331" lon="6.35756">
        <ele>221</ele>
        <time>2012-12-02T08:05:21Z</time>
      </trkpt>
      <trkpt lat="43.49331" lon="6.35753">
        <ele>222</ele>
        <time>2012-12-02T08:05:22Z</time>
      </trkpt>
      <trkpt lat="43.49332" lon="6.3575">
        <ele>222</ele>
        <time>2012-12-02T08:05:23Z</time>
      </trkpt>
      <trkpt lat="43.49333" lon="6.35746">
        <ele>222</ele>
        <time>2012-12-02T08:05:24Z</time>
      </trkpt>
      <trkpt lat="43.49334" lon="6.35738">
        <ele>222</ele>
        <time>2012-12-02T08:05:26Z</time>
      </trkpt>
      <trkpt lat="43.49339" lon="6.35726">
        <ele>223</ele>
        <time>2012-12-02T08:05:30Z</time>
      </trkpt>
      <trkpt lat="43.49342" lon="6.35723">
        <ele>223</ele>
        <time>2012-12-02T08:05:31Z</time>
      </trkpt>
      <trkpt lat="43.49343" lon="6.35716">
        <ele>224</ele>
        <time>2012-12-02T08:05:32Z</time>
      </trkpt>
      <trkpt lat="43.49345" lon="6.35713">
        <ele>224</ele>
        <time>2012-12-02T08:05:33Z</time>
      </trkpt>
      <trkpt lat="43.49347" lon="6.3571">
        <ele>224</ele>
        <time>2012-12-02T08:05:34Z</time>
      </trkpt>
      <trkpt lat="43.49353" lon="6.35705">
        <ele>224</ele>
        <time>2012-12-02T08:05:37Z</time>
      </trkpt>
      <trkpt lat="43.49363" lon="6.35688">
        <ele>225</ele>
        <time>2012-12-02T08:05:42Z</time>
      </trkpt>
      <trkpt lat="43.49365" lon="6.35684">
        <ele>225</ele>
        <time>2012-12-02T08:05:43Z</time>
      </trkpt>
      <trkpt lat="43.49367" lon="6.35681">
        <ele>226</ele>
        <time>2012-12-02T08:05:44Z</time>
      </trkpt>
      <trkpt lat="43.49369" lon="6.35678">
        <ele>227</ele>
        <time>2012-12-02T08:05:45Z</time>
      </trkpt>
      <trkpt lat="43.49385" lon="6.3566">
        <ele>227</ele>
        <time>2012-12-02T08:05:52Z</time>
      </trkpt>
      <trkpt lat="43.49389" lon="6.35654">
        <ele>227</ele>
        <time>2012-12-02T08:05:54Z</time>
      </trkpt>
      <trkpt lat="43.49391" lon="6.35652">
        <ele>227</ele>
        <time>2012-12-02T08:05:55Z</time>
      </trkpt>
      <trkpt lat="43.49394" lon="6.35649">
        <ele>228</ele>
        <time>2012-12-02T08:05:56Z</time>
      </trkpt>
      <trkpt lat="43.49396" lon="6.35646">
        <ele>228</ele>
        <time>2012-12-02T08:05:57Z</time>
      </trkpt>
      <trkpt lat="43.49398" lon="6.35644">
        <ele>229</ele>
        <time>2012-12-02T08:05:58Z</time>
      </trkpt>
      <trkpt lat="43.49401" lon="6.35639">
        <ele>229</ele>
        <time>2012-12-02T08:06:00Z</time>
      </trkpt>
      <trkpt lat="43.49418" lon="6.35616">
        <ele>229</ele>
        <time>2012-12-02T08:06:08Z</time>
      </trkpt>
      <trkpt lat="43.4942" lon="6.35613">
        <ele>229</ele>
        <time>2012-12-02T08:06:09Z</time>
      </trkpt>
      <trkpt lat="43.49423" lon="6.3561">
        <ele>230</ele>
        <time>2012-12-02T08:06:10Z</time>
      </trkpt>
      <trkpt lat="43.49425" lon="6.35607">
        <ele>230</ele>
        <time>2012-12-02T08:06:11Z</time>
      </trkpt>
      <trkpt lat="43.49427" lon="6.35604">
        <ele>231</ele>
        <time>2012-12-02T08:06:12Z</time>
      </trkpt>
      <trkpt lat="43.49432" lon="6.35599">
        <ele>231</ele>
        <time>2012-12-02T08:06:14Z</time>
      </trkpt>
      <trkpt lat="43.49448" lon="6.35579">
        <ele>231</ele>
        <time>2012-12-02T08:06:21Z</time>
      </trkpt>
      <trkpt lat="43.49458" lon="6.35569">
        <ele>231</ele>
        <time>2012-12-02T08:06:25Z</time>
      </trkpt>
      <trkpt lat="43.4946" lon="6.35566">
        <ele>232</ele>
        <time>2012-12-02T08:06:26Z</time>
      </trkpt>
      <trkpt lat="43.49462" lon="6.35563">
        <ele>232</ele>
        <time>2012-12-02T08:06:27Z</time>
      </trkpt>
      <trkpt lat="43.49464" lon="6.3556">
        <ele>232</ele>
        <time>2012-12-02T08:06:28Z</time>
      </trkpt>
      <trkpt lat="43.49467" lon="6.35557">
        <ele>233</ele>
        <time>2012-12-02T08:06:29Z</time>
      </trkpt>
      <trkpt lat="43.49478" lon="6.35543">
        <ele>233</ele>
        <time>2012-12-02T08:06:34Z</time>
      </trkpt>
      <trkpt lat="43.49496" lon="6.3552">
        <ele>233</ele>
        <time>2012-12-02T08:06:42Z</time>
      </trkpt>
      <trkpt lat="43.49498" lon="6.35517">
        <ele>234</ele>
        <time>2012-12-02T08:06:43Z</time>
      </trkpt>
      <trkpt lat="43.49499" lon="6.35513">
        <ele>234</ele>
        <time>2012-12-02T08:06:44Z</time>
      </trkpt>
      <trkpt lat="43.49501" lon="6.3551">
        <ele>234</ele>
        <time>2012-12-02T08:06:45Z</time>
      </trkpt>
      <trkpt lat="43.49503" lon="6.35507">
        <ele>235</ele>
        <time>2012-12-02T08:06:46Z</time>
      </trkpt>
      <trkpt lat="43.49511" lon="6.35494">
        <ele>235</ele>
        <time>2012-12-02T08:06:50Z</time>
      </trkpt>
      <trkpt lat="43.49521" lon="6.3549">
        <ele>235</ele>
        <time>2012-12-02T08:06:54Z</time>
      </trkpt>
      <trkpt lat="43.49538" lon="6.35484">
        <ele>235</ele>
        <time>2012-12-02T08:07:00Z</time>
      </trkpt>
      <trkpt lat="43.49546" lon="6.35466">
        <ele>235</ele>
        <time>2012-12-02T08:07:05Z</time>
      </trkpt>
      <trkpt lat="43.49558" lon="6.35449">
        <ele>235</ele>
        <time>2012-12-02T08:07:10Z</time>
      </trkpt>
      <trkpt lat="43.49574" lon="6.35434">
        <ele>235</ele>
        <time>2012-12-02T08:07:15Z</time>
      </trkpt>
      <trkpt lat="43.4958" lon="6.35427">
        <ele>235</ele>
        <time>2012-12-02T08:07:17Z</time>
      </trkpt>
      <trkpt lat="43.49583" lon="6.35423">
        <ele>236</ele>
        <time>2012-12-02T08:07:18Z</time>
      </trkpt>
      <trkpt lat="43.49587" lon="6.35419">
        <ele>236</ele>
        <time>2012-12-02T08:07:19Z</time>
      </trkpt>
      <trkpt lat="43.4959" lon="6.35415">
        <ele>237</ele>
        <time>2012-12-02T08:07:20Z</time>
      </trkpt>
      <trkpt lat="43.49594" lon="6.35413">
        <ele>237</ele>
        <time>2012-12-02T08:07:21Z</time>
      </trkpt>
      <trkpt lat="43.49598" lon="6.3541">
        <ele>237</ele>
        <time>2012-12-02T08:07:22Z</time>
      </trkpt>
      <trkpt lat="43.49631" lon="6.35396">
        <ele>237</ele>
        <time>2012-12-02T08:07:30Z</time>
      </trkpt>
      <trkpt lat="43.49659" lon="6.35383">
        <ele>237</ele>
        <time>2012-12-02T08:07:37Z</time>
      </trkpt>
      <trkpt lat="43.49663" lon="6.35381">
        <ele>238</ele>
        <time>2012-12-02T08:07:38Z</time>
      </trkpt>
      <trkpt lat="43.49666" lon="6.35379">
        <ele>238</ele>
        <time>2012-12-02T08:07:39Z</time>
      </trkpt>
      <trkpt lat="43.4967" lon="6.35377">
        <ele>239</ele>
        <time>2012-12-02T08:07:40Z</time>
      </trkpt>
      <trkpt lat="43.49673" lon="6.35375">
        <ele>239</ele>
        <time>2012-12-02T08:07:41Z</time>
      </trkpt>
      <trkpt lat="43.49698" lon="6.35363">
        <ele>239</ele>
        <time>2012-12-02T08:07:48Z</time>
      </trkpt>
      <trkpt lat="43.49702" lon="6.35361">
        <ele>239</ele>
        <time>2012-12-02T08:07:49Z</time>
      </trkpt>
      <trkpt lat="43.49706" lon="6.35359">
        <ele>240</ele>
        <time>2012-12-02T08:07:50Z</time>
      </trkpt>
      <trkpt lat="43.49709" lon="6.35358">
        <ele>240</ele>
        <time>2012-12-02T08:07:51Z</time>
      </trkpt>
      <trkpt lat="43.49714" lon="6.35356">
        <ele>241</ele>
        <time>2012-12-02T08:07:52Z</time>
      </trkpt>
      <trkpt lat="43.49718" lon="6.35354">
        <ele>241</ele>
        <time>2012-12-02T08:07:53Z</time>
      </trkpt>
      <trkpt lat="43.49726" lon="6.3535">
        <ele>241</ele>
        <time>2012-12-02T08:07:55Z</time>
      </trkpt>
      <trkpt lat="43.49759" lon="6.35335">
        <ele>242</ele>
        <time>2012-12-02T08:08:02Z</time>
      </trkpt>
      <trkpt lat="43.49764" lon="6.35333">
        <ele>242</ele>
        <time>2012-12-02T08:08:03Z</time>
      </trkpt>
      <trkpt lat="43.49769" lon="6.35331">
        <ele>243</ele>
        <time>2012-12-02T08:08:04Z</time>
      </trkpt>
      <trkpt lat="43.49774" lon="6.35329">
        <ele>243</ele>
        <time>2012-12-02T08:08:05Z</time>
      </trkpt>
      <trkpt lat="43.4978" lon="6.35326">
        <ele>243</ele>
        <time>2012-12-02T08:08:06Z</time>
      </trkpt>
      <trkpt lat="43.49801" lon="6.35316">
        <ele>243</ele>
        <time>2012-12-02T08:08:10Z</time>
      </trkpt>
      <trkpt lat="43.49818" lon="6.35312">
        <ele>244</ele>
        <time>2012-12-02T08:08:14Z</time>
      </trkpt>
      <trkpt lat="43.49822" lon="6.35313">
        <ele>245</ele>
        <time>2012-12-02T08:08:15Z</time>
      </trkpt>
      <trkpt lat="43.49826" lon="6.35315">
        <ele>245</ele>
        <time>2012-12-02T08:08:16Z</time>
      </trkpt>
      <trkpt lat="43.4983" lon="6.35317">
        <ele>246</ele>
        <time>2012-12-02T08:08:17Z</time>
      </trkpt>
      <trkpt lat="43.49838" lon="6.35317">
        <ele>246</ele>
        <time>2012-12-02T08:08:19Z</time>
      </trkpt>
      <trkpt lat="43.49846" lon="6.35306">
        <ele>246</ele>
        <time>2012-12-02T08:08:22Z</time>
      </trkpt>
      <trkpt lat="43.49852" lon="6.35284">
        <ele>246</ele>
        <time>2012-12-02T08:08:26Z</time>
      </trkpt>
      <trkpt lat="43.49855" lon="6.35279">
        <ele>246</ele>
        <time>2012-12-02T08:08:27Z</time>
      </trkpt>
      <trkpt lat="43.49872" lon="6.35241">
        <ele>246</ele>
        <time>2012-12-02T08:08:35Z</time>
      </trkpt>
      <trkpt lat="43.49875" lon="6.35236">
        <ele>246</ele>
        <time>2012-12-02T08:08:36Z</time>
      </trkpt>
      <trkpt lat="43.49877" lon="6.35231">
        <ele>246</ele>
        <time>2012-12-02T08:08:37Z</time>
      </trkpt>
      <trkpt lat="43.49879" lon="6.35226">
        <ele>247</ele>
        <time>2012-12-02T08:08:38Z</time>
      </trkpt>
      <trkpt lat="43.49881" lon="6.35221">
        <ele>248</ele>
        <time>2012-12-02T08:08:39Z</time>
      </trkpt>
      <trkpt lat="43.49883" lon="6.35215">
        <ele>248</ele>
        <time>2012-12-02T08:08:40Z</time>
      </trkpt>
      <trkpt lat="43.49884" lon="6.35204">
        <ele>248</ele>
        <time>2012-12-02T08:08:42Z</time>
      </trkpt>
      <trkpt lat="43.49885" lon="6.35186">
        <ele>248</ele>
        <time>2012-12-02T08:08:45Z</time>
      </trkpt>
      <trkpt lat="43.49885" lon="6.35174">
        <ele>248</ele>
        <time>2012-12-02T08:08:47Z</time>
      </trkpt>
      <trkpt lat="43.49886" lon="6.35156">
        <ele>248</ele>
        <time>2012-12-02T08:08:50Z</time>
      </trkpt>
      <trkpt lat="43.49886" lon="6.35137">
        <ele>248</ele>
        <time>2012-12-02T08:08:53Z</time>
      </trkpt>
      <trkpt lat="43.49888" lon="6.35093">
        <ele>248</ele>
        <time>2012-12-02T08:09:00Z</time>
      </trkpt>
      <trkpt lat="43.49889" lon="6.35068">
        <ele>248</ele>
        <time>2012-12-02T08:09:04Z</time>
      </trkpt>
      <trkpt lat="43.4989" lon="6.3505">
        <ele>248</ele>
        <time>2012-12-02T08:09:07Z</time>
      </trkpt>
      <trkpt lat="43.4989" lon="6.35038">
        <ele>248</ele>
        <time>2012-12-02T08:09:09Z</time>
      </trkpt>
      <trkpt lat="43.49888" lon="6.35015">
        <ele>248</ele>
        <time>2012-12-02T08:09:13Z</time>
      </trkpt>
      <trkpt lat="43.49885" lon="6.34973">
        <ele>248</ele>
        <time>2012-12-02T08:09:20Z</time>
      </trkpt>
      <trkpt lat="43.49881" lon="6.3493">
        <ele>248</ele>
        <time>2012-12-02T08:09:27Z</time>
      </trkpt>
      <trkpt lat="43.49877" lon="6.34876">
        <ele>248</ele>
        <time>2012-12-02T08:09:36Z</time>
      </trkpt>
      <trkpt lat="43.49876" lon="6.34864">
        <ele>248</ele>
        <time>2012-12-02T08:09:38Z</time>
      </trkpt>
      <trkpt lat="43.49875" lon="6.34859">
        <ele>248</ele>
        <time>2012-12-02T08:09:39Z</time>
      </trkpt>
      <trkpt lat="43.49875" lon="6.34853">
        <ele>249</ele>
        <time>2012-12-02T08:09:40Z</time>
      </trkpt>
      <trkpt lat="43.49874" lon="6.34847">
        <ele>249</ele>
        <time>2012-12-02T08:09:41Z</time>
      </trkpt>
      <trkpt lat="43.49874" lon="6.34841">
        <ele>250</ele>
        <time>2012-12-02T08:09:42Z</time>
      </trkpt>
      <trkpt lat="43.49873" lon="6.34835">
        <ele>250</ele>
        <time>2012-12-02T08:09:43Z</time>
      </trkpt>
      <trkpt lat="43.49873" lon="6.3483">
        <ele>250</ele>
        <time>2012-12-02T08:09:44Z</time>
      </trkpt>
      <trkpt lat="43.49871" lon="6.34802">
        <ele>250</ele>
        <time>2012-12-02T08:09:49Z</time>
      </trkpt>
      <trkpt lat="43.4987" lon="6.34758">
        <ele>250</ele>
        <time>2012-12-02T08:09:57Z</time>
      </trkpt>
      <trkpt lat="43.49871" lon="6.34719">
        <ele>250</ele>
        <time>2012-12-02T08:10:04Z</time>
      </trkpt>
      <trkpt lat="43.49876" lon="6.34682">
        <ele>250</ele>
        <time>2012-12-02T08:10:11Z</time>
      </trkpt>
      <trkpt lat="43.49884" lon="6.34643">
        <ele>250</ele>
        <time>2012-12-02T08:10:18Z</time>
      </trkpt>
      <trkpt lat="43.49896" lon="6.34607">
        <ele>250</ele>
        <time>2012-12-02T08:10:24Z</time>
      </trkpt>
      <trkpt lat="43.49899" lon="6.34601">
        <ele>250</ele>
        <time>2012-12-02T08:10:25Z</time>
      </trkpt>
      <trkpt lat="43.49901" lon="6.34596">
        <ele>250</ele>
        <time>2012-12-02T08:10:26Z</time>
      </trkpt>
      <trkpt lat="43.49906" lon="6.34586">
        <ele>250</ele>
        <time>2012-12-02T08:10:28Z</time>
      </trkpt>
      <trkpt lat="43.49912" lon="6.34574">
        <ele>250</ele>
        <time>2012-12-02T08:10:30Z</time>
      </trkpt>
      <trkpt lat="43.49928" lon="6.34541">
        <ele>250</ele>
        <time>2012-12-02T08:10:36Z</time>
      </trkpt>
      <trkpt lat="43.49946" lon="6.34513">
        <ele>250</ele>
        <time>2012-12-02T08:10:42Z</time>
      </trkpt>
      <trkpt lat="43.49949" lon="6.34508">
        <ele>251</ele>
        <time>2012-12-02T08:10:43Z</time>
      </trkpt>
      <trkpt lat="43.49952" lon="6.34505">
        <ele>251</ele>
        <time>2012-12-02T08:10:44Z</time>
      </trkpt>
      <trkpt lat="43.49956" lon="6.345">
        <ele>252</ele>
        <time>2012-12-02T08:10:45Z</time>
      </trkpt>
      <trkpt lat="43.49976" lon="6.34477">
        <ele>252</ele>
        <time>2012-12-02T08:10:51Z</time>
      </trkpt>
      <trkpt lat="43.50004" lon="6.34445">
        <ele>252</ele>
        <time>2012-12-02T08:10:59Z</time>
      </trkpt>
      <trkpt lat="43.5003" lon="6.34411">
        <ele>252</ele>
        <time>2012-12-02T08:11:07Z</time>
      </trkpt>
      <trkpt lat="43.50042" lon="6.34393">
        <ele>252</ele>
        <time>2012-12-02T08:11:12Z</time>
      </trkpt>
      <trkpt lat="43.50058" lon="6.34363">
        <ele>252</ele>
        <time>2012-12-02T08:11:19Z</time>
      </trkpt>
      <trkpt lat="43.50063" lon="6.34353">
        <ele>252</ele>
        <time>2012-12-02T08:11:21Z</time>
      </trkpt>
      <trkpt lat="43.5007" lon="6.34337">
        <ele>252</ele>
        <time>2012-12-02T08:11:24Z</time>
      </trkpt>
      <trkpt lat="43.50082" lon="6.34305">
        <ele>252</ele>
        <time>2012-12-02T08:11:29Z</time>
      </trkpt>
      <trkpt lat="43.50088" lon="6.3428">
        <ele>252</ele>
        <time>2012-12-02T08:11:33Z</time>
      </trkpt>
      <trkpt lat="43.50089" lon="6.34274">
        <ele>252</ele>
        <time>2012-12-02T08:11:34Z</time>
      </trkpt>
      <trkpt lat="43.50091" lon="6.34269">
        <ele>252</ele>
        <time>2012-12-02T08:11:35Z</time>
      </trkpt>
      <trkpt lat="43.50094" lon="6.34251">
        <ele>252</ele>
        <time>2012-12-02T08:11:39Z</time>
      </trkpt>
      <trkpt lat="43.50099" lon="6.34221">
        <ele>252</ele>
        <time>2012-12-02T08:11:45Z</time>
      </trkpt>
      <trkpt lat="43.50103" lon="6.34174">
        <ele>252</ele>
        <time>2012-12-02T08:11:53Z</time>
      </trkpt>
      <trkpt lat="43.50105" lon="6.34127">
        <ele>252</ele>
        <time>2012-12-02T08:12:01Z</time>
      </trkpt>
      <trkpt lat="43.50107" lon="6.34091">
        <ele>252</ele>
        <time>2012-12-02T08:12:07Z</time>
      </trkpt>
      <trkpt lat="43.50108" lon="6.34055">
        <ele>252</ele>
        <time>2012-12-02T08:12:13Z</time>
      </trkpt>
      <trkpt lat="43.5011" lon="6.3403">
        <ele>252</ele>
        <time>2012-12-02T08:12:18Z</time>
      </trkpt>
      <trkpt lat="43.50109" lon="6.33992">
        <ele>252</ele>
        <time>2012-12-02T08:12:24Z</time>
      </trkpt>
      <trkpt lat="43.5011" lon="6.33968">
        <ele>252</ele>
        <time>2012-12-02T08:12:28Z</time>
      </trkpt>
      <trkpt lat="43.5011" lon="6.33962">
        <ele>253</ele>
        <time>2012-12-02T08:12:29Z</time>
      </trkpt>
      <trkpt lat="43.5011" lon="6.33956">
        <ele>253</ele>
        <time>2012-12-02T08:12:30Z</time>
      </trkpt>
      <trkpt lat="43.5011" lon="6.33951">
        <ele>253</ele>
        <time>2012-12-02T08:12:31Z</time>
      </trkpt>
      <trkpt lat="43.5011" lon="6.33945">
        <ele>254</ele>
        <time>2012-12-02T08:12:32Z</time>
      </trkpt>
      <trkpt lat="43.50109" lon="6.3392">
        <ele>254</ele>
        <time>2012-12-02T08:12:36Z</time>
      </trkpt>
      <trkpt lat="43.50108" lon="6.33878">
        <ele>254</ele>
        <time>2012-12-02T08:12:43Z</time>
      </trkpt>
      <trkpt lat="43.50109" lon="6.3385">
        <ele>254</ele>
        <time>2012-12-02T08:12:48Z</time>
      </trkpt>
      <trkpt lat="43.5011" lon="6.33813">
        <ele>254</ele>
        <time>2012-12-02T08:12:56Z</time>
      </trkpt>
      <trkpt lat="43.50115" lon="6.3377">
        <ele>254</ele>
        <time>2012-12-02T08:13:03Z</time>
      </trkpt>
      <trkpt lat="43.50121" lon="6.3373">
        <ele>254</ele>
        <time>2012-12-02T08:13:10Z</time>
      </trkpt>
      <trkpt lat="43.50128" lon="6.3368">
        <ele>254</ele>
        <time>2012-12-02T08:13:18Z</time>
      </trkpt>
      <trkpt lat="43.50138" lon="6.33638">
        <ele>254</ele>
        <time>2012-12-02T08:13:25Z</time>
      </trkpt>
      <trkpt lat="43.50144" lon="6.33623">
        <ele>254</ele>
        <time>2012-12-02T08:13:28Z</time>
      </trkpt>
      <trkpt lat="43.50148" lon="6.33612">
        <ele>254</ele>
        <time>2012-12-02T08:13:30Z</time>
      </trkpt>
      <trkpt lat="43.50159" lon="6.3357">
        <ele>254</ele>
        <time>2012-12-02T08:13:37Z</time>
      </trkpt>
      <trkpt lat="43.50175" lon="6.33517">
        <ele>254</ele>
        <time>2012-12-02T08:13:46Z</time>
      </trkpt>
      <trkpt lat="43.50187" lon="6.33479">
        <ele>254</ele>
        <time>2012-12-02T08:13:53Z</time>
      </trkpt>
      <trkpt lat="43.50196" lon="6.3344">
        <ele>254</ele>
        <time>2012-12-02T08:14:00Z</time>
      </trkpt>
      <trkpt lat="43.50197" lon="6.33434">
        <ele>254</ele>
        <time>2012-12-02T08:14:01Z</time>
      </trkpt>
      <trkpt lat="43.50199" lon="6.33412">
        <ele>254</ele>
        <time>2012-12-02T08:14:04Z</time>
      </trkpt>
      <trkpt lat="43.50199" lon="6.33405">
        <ele>254</ele>
        <time>2012-12-02T08:14:05Z</time>
      </trkpt>
      <trkpt lat="43.50198" lon="6.33358">
        <ele>254</ele>
        <time>2012-12-02T08:14:12Z</time>
      </trkpt>
      <trkpt lat="43.50193" lon="6.33317">
        <ele>254</ele>
        <time>2012-12-02T08:14:19Z</time>
      </trkpt>
      <trkpt lat="43.50189" lon="6.33293">
        <ele>254</ele>
        <time>2012-12-02T08:14:23Z</time>
      </trkpt>
      <trkpt lat="43.50188" lon="6.33287">
        <ele>254</ele>
        <time>2012-12-02T08:14:24Z</time>
      </trkpt>
      <trkpt lat="43.50187" lon="6.33282">
        <ele>254</ele>
        <time>2012-12-02T08:14:25Z</time>
      </trkpt>
      <trkpt lat="43.5018" lon="6.3325">
        <ele>254</ele>
        <time>2012-12-02T08:14:30Z</time>
      </trkpt>
      <trkpt lat="43.50179" lon="6.33243">
        <ele>255</ele>
        <time>2012-12-02T08:14:31Z</time>
      </trkpt>
      <trkpt lat="43.50177" lon="6.33237">
        <ele>255</ele>
        <time>2012-12-02T08:14:32Z</time>
      </trkpt>
      <trkpt lat="43.50176" lon="6.33231">
        <ele>255</ele>
        <time>2012-12-02T08:14:33Z</time>
      </trkpt>
      <trkpt lat="43.50175" lon="6.33225">
        <ele>256</ele>
        <time>2012-12-02T08:14:34Z</time>
      </trkpt>
      <trkpt lat="43.50171" lon="6.33208">
        <ele>256</ele>
        <time>2012-12-02T08:14:37Z</time>
      </trkpt>
      <trkpt lat="43.50166" lon="6.33176">
        <ele>256</ele>
        <time>2012-12-02T08:14:42Z</time>
      </trkpt>
      <trkpt lat="43.50166" lon="6.3317">
        <ele>256</ele>
        <time>2012-12-02T08:14:43Z</time>
      </trkpt>
      <trkpt lat="43.50167" lon="6.33131">
        <ele>256</ele>
        <time>2012-12-02T08:14:49Z</time>
      </trkpt>
      <trkpt lat="43.50167" lon="6.33125">
        <ele>256</ele>
        <time>2012-12-02T08:14:50Z</time>
      </trkpt>
      <trkpt lat="43.50171" lon="6.33094">
        <ele>256</ele>
        <time>2012-12-02T08:14:55Z</time>
      </trkpt>
      <trkpt lat="43.50179" lon="6.33044">
        <ele>256</ele>
        <time>2012-12-02T08:15:03Z</time>
      </trkpt>
      <trkpt lat="43.50187" lon="6.32995">
        <ele>256</ele>
        <time>2012-12-02T08:15:11Z</time>
      </trkpt>
      <trkpt lat="43.50191" lon="6.32972">
        <ele>256</ele>
        <time>2012-12-02T08:15:15Z</time>
      </trkpt>
      <trkpt lat="43.50194" lon="6.32961">
        <ele>256</ele>
        <time>2012-12-02T08:15:17Z</time>
      </trkpt>
      <trkpt lat="43.502" lon="6.32921">
        <ele>256</ele>
        <time>2012-12-02T08:15:24Z</time>
      </trkpt>
      <trkpt lat="43.50206" lon="6.32884">
        <ele>256</ele>
        <time>2012-12-02T08:15:31Z</time>
      </trkpt>
      <trkpt lat="43.50211" lon="6.32856">
        <ele>256</ele>
        <time>2012-12-02T08:15:36Z</time>
      </trkpt>
      <trkpt lat="43.50212" lon="6.32844">
        <ele>256</ele>
        <time>2012-12-02T08:15:38Z</time>
      </trkpt>
      <trkpt lat="43.50213" lon="6.32838">
        <ele>256</ele>
        <time>2012-12-02T08:15:39Z</time>
      </trkpt>
      <trkpt lat="43.50215" lon="6.32815">
        <ele>256</ele>
        <time>2012-12-02T08:15:42Z</time>
      </trkpt>
      <trkpt lat="43.50218" lon="6.32782">
        <ele>256</ele>
        <time>2012-12-02T08:15:47Z</time>
      </trkpt>
      <trkpt lat="43.50219" lon="6.32744">
        <ele>256</ele>
        <time>2012-12-02T08:15:54Z</time>
      </trkpt>
      <trkpt lat="43.50219" lon="6.32733">
        <ele>256</ele>
        <time>2012-12-02T08:15:56Z</time>
      </trkpt>
      <trkpt lat="43.5022" lon="6.32722">
        <ele>256</ele>
        <time>2012-12-02T08:15:58Z</time>
      </trkpt>
      <trkpt lat="43.5022" lon="6.32711">
        <ele>256</ele>
        <time>2012-12-02T08:16:00Z</time>
      </trkpt>
      <trkpt lat="43.50222" lon="6.32682">
        <ele>256</ele>
        <time>2012-12-02T08:16:06Z</time>
      </trkpt>
      <trkpt lat="43.50223" lon="6.32649">
        <ele>256</ele>
        <time>2012-12-02T08:16:12Z</time>
      </trkpt>
      <trkpt lat="43.50227" lon="6.3261">
        <ele>256</ele>
        <time>2012-12-02T08:16:19Z</time>
      </trkpt>
      <trkpt lat="43.5023" lon="6.32596">
        <ele>256</ele>
        <time>2012-12-02T08:16:22Z</time>
      </trkpt>
      <trkpt lat="43.50232" lon="6.32592">
        <ele>256</ele>
        <time>2012-12-02T08:16:23Z</time>
      </trkpt>
      <trkpt lat="43.50241" lon="6.32561">
        <ele>256</ele>
        <time>2012-12-02T08:16:29Z</time>
      </trkpt>
      <trkpt lat="43.50245" lon="6.3255">
        <ele>256</ele>
        <time>2012-12-02T08:16:31Z</time>
      </trkpt>
      <trkpt lat="43.50248" lon="6.32545">
        <ele>257</ele>
        <time>2012-12-02T08:16:32Z</time>
      </trkpt>
      <trkpt lat="43.5025" lon="6.32539">
        <ele>257</ele>
        <time>2012-12-02T08:16:33Z</time>
      </trkpt>
      <trkpt lat="43.50252" lon="6.32533">
        <ele>258</ele>
        <time>2012-12-02T08:16:34Z</time>
      </trkpt>
      <trkpt lat="43.50254" lon="6.32527">
        <ele>258</ele>
        <time>2012-12-02T08:16:35Z</time>
      </trkpt>
      <trkpt lat="43.50256" lon="6.32522">
        <ele>258</ele>
        <time>2012-12-02T08:16:36Z</time>
      </trkpt>
      <trkpt lat="43.50273" lon="6.32482">
        <ele>258</ele>
        <time>2012-12-02T08:16:43Z</time>
      </trkpt>
      <trkpt lat="43.5028" lon="6.32466">
        <ele>258</ele>
        <time>2012-12-02T08:16:46Z</time>
      </trkpt>
      <trkpt lat="43.50286" lon="6.32449">
        <ele>258</ele>
        <time>2012-12-02T08:16:49Z</time>
      </trkpt>
      <trkpt lat="43.50296" lon="6.32419">
        <ele>258</ele>
        <time>2012-12-02T08:16:55Z</time>
      </trkpt>
      <trkpt lat="43.50312" lon="6.32384">
        <ele>258</ele>
        <time>2012-12-02T08:17:01Z</time>
      </trkpt>
      <trkpt lat="43.50326" lon="6.32352">
        <ele>258</ele>
        <time>2012-12-02T08:17:07Z</time>
      </trkpt>
      <trkpt lat="43.50343" lon="6.32314">
        <ele>258</ele>
        <time>2012-12-02T08:17:14Z</time>
      </trkpt>
      <trkpt lat="43.50358" lon="6.32278">
        <ele>258</ele>
        <time>2012-12-02T08:17:21Z</time>
      </trkpt>
      <trkpt lat="43.50367" lon="6.32252">
        <ele>258</ele>
        <time>2012-12-02T08:17:26Z</time>
      </trkpt>
      <trkpt lat="43.50369" lon="6.32239">
        <ele>258</ele>
        <time>2012-12-02T08:17:28Z</time>
      </trkpt>
      <trkpt lat="43.50371" lon="6.32202">
        <ele>258</ele>
        <time>2012-12-02T08:17:34Z</time>
      </trkpt>
      <trkpt lat="43.5037" lon="6.32196">
        <ele>258</ele>
        <time>2012-12-02T08:17:35Z</time>
      </trkpt>
      <trkpt lat="43.5037" lon="6.32174">
        <ele>258</ele>
        <time>2012-12-02T08:17:39Z</time>
      </trkpt>
      <trkpt lat="43.50369" lon="6.32169">
        <ele>258</ele>
        <time>2012-12-02T08:17:40Z</time>
      </trkpt>
      <trkpt lat="43.50369" lon="6.32156">
        <ele>258</ele>
        <time>2012-12-02T08:17:43Z</time>
      </trkpt>
      <trkpt lat="43.50365" lon="6.32126">
        <ele>258</ele>
        <time>2012-12-02T08:17:48Z</time>
      </trkpt>
      <trkpt lat="43.5036" lon="6.32089">
        <ele>258</ele>
        <time>2012-12-02T08:17:54Z</time>
      </trkpt>
      <trkpt lat="43.50358" lon="6.32053">
        <ele>258</ele>
        <time>2012-12-02T08:18:00Z</time>
      </trkpt>
      <trkpt lat="43.50358" lon="6.32009">
        <ele>258</ele>
        <time>2012-12-02T08:18:06Z</time>
      </trkpt>
      <trkpt lat="43.50363" lon="6.31968">
        <ele>258</ele>
        <time>2012-12-02T08:18:12Z</time>
      </trkpt>
      <trkpt lat="43.50364" lon="6.31961">
        <ele>258</ele>
        <time>2012-12-02T08:18:13Z</time>
      </trkpt>
      <trkpt lat="43.50373" lon="6.3193">
        <ele>258</ele>
        <time>2012-12-02T08:18:18Z</time>
      </trkpt>
      <trkpt lat="43.5038" lon="6.31907">
        <ele>258</ele>
        <time>2012-12-02T08:18:22Z</time>
      </trkpt>
      <trkpt lat="43.50385" lon="6.31897">
        <ele>258</ele>
        <time>2012-12-02T08:18:24Z</time>
      </trkpt>
      <trkpt lat="43.50409" lon="6.31852">
        <ele>258</ele>
        <time>2012-12-02T08:18:33Z</time>
      </trkpt>
      <trkpt lat="43.50427" lon="6.31827">
        <ele>258</ele>
        <time>2012-12-02T08:18:39Z</time>
      </trkpt>
      <trkpt lat="43.50436" lon="6.31814">
        <ele>258</ele>
        <time>2012-12-02T08:18:42Z</time>
      </trkpt>
      <trkpt lat="43.50445" lon="6.31803">
        <ele>258</ele>
        <time>2012-12-02T08:18:45Z</time>
      </trkpt>
      <trkpt lat="43.5046" lon="6.31782">
        <ele>258</ele>
        <time>2012-12-02T08:18:51Z</time>
      </trkpt>
      <trkpt lat="43.50478" lon="6.3176">
        <ele>258</ele>
        <time>2012-12-02T08:18:58Z</time>
      </trkpt>
      <trkpt lat="43.50497" lon="6.31736">
        <ele>258</ele>
        <time>2012-12-02T08:19:06Z</time>
      </trkpt>
      <trkpt lat="43.50505" lon="6.31731">
        <ele>258</ele>
        <time>2012-12-02T08:19:11Z</time>
      </trkpt>
      <trkpt lat="43.50512" lon="6.31734">
        <ele>258</ele>
        <time>2012-12-02T08:19:15Z</time>
      </trkpt>
      <trkpt lat="43.50514" lon="6.31733">
        <ele>258</ele>
        <time>2012-12-02T08:19:16Z</time>
      </trkpt>
      <trkpt lat="43.5052" lon="6.31729">
        <ele>258</ele>
        <time>2012-12-02T08:19:19Z</time>
      </trkpt>
      <trkpt lat="43.50521" lon="6.31727">
        <ele>259</ele>
        <time>2012-12-02T08:19:20Z</time>
      </trkpt>
      <trkpt lat="43.50523" lon="6.31725">
        <ele>260</ele>
        <time>2012-12-02T08:19:21Z</time>
      </trkpt>
      <trkpt lat="43.50524" lon="6.31723">
        <ele>260</ele>
        <time>2012-12-02T08:19:22Z</time>
      </trkpt>
      <trkpt lat="43.50531" lon="6.31709">
        <ele>260</ele>
        <time>2012-12-02T08:19:28Z</time>
      </trkpt>
      <trkpt lat="43.50535" lon="6.31704">
        <ele>260</ele>
        <time>2012-12-02T08:19:31Z</time>
      </trkpt>
      <trkpt lat="43.50536" lon="6.31702">
        <ele>261</ele>
        <time>2012-12-02T08:19:32Z</time>
      </trkpt>
      <trkpt lat="43.50536" lon="6.317">
        <ele>261</ele>
        <time>2012-12-02T08:19:33Z</time>
      </trkpt>
      <trkpt lat="43.50538" lon="6.31699">
        <ele>262</ele>
        <time>2012-12-02T08:19:34Z</time>
      </trkpt>
      <trkpt lat="43.50539" lon="6.31698">
        <ele>262</ele>
        <time>2012-12-02T08:19:35Z</time>
      </trkpt>
      <trkpt lat="43.50545" lon="6.31699">
        <ele>262</ele>
        <time>2012-12-02T08:19:39Z</time>
      </trkpt>
      <trkpt lat="43.50547" lon="6.317">
        <ele>263</ele>
        <time>2012-12-02T08:19:40Z</time>
      </trkpt>
      <trkpt lat="43.50548" lon="6.31701">
        <ele>263</ele>
        <time>2012-12-02T08:19:41Z</time>
      </trkpt>
      <trkpt lat="43.5055" lon="6.31702">
        <ele>263</ele>
        <time>2012-12-02T08:19:42Z</time>
      </trkpt>
      <trkpt lat="43.50552" lon="6.31703">
        <ele>264</ele>
        <time>2012-12-02T08:19:43Z</time>
      </trkpt>
      <trkpt lat="43.50554" lon="6.31703">
        <ele>264</ele>
        <time>2012-12-02T08:19:44Z</time>
      </trkpt>
      <trkpt lat="43.50558" lon="6.31704">
        <ele>265</ele>
        <time>2012-12-02T08:19:46Z</time>
      </trkpt>
      <trkpt lat="43.5056" lon="6.31704">
        <ele>265</ele>
        <time>2012-12-02T08:19:47Z</time>
      </trkpt>
      <trkpt lat="43.50562" lon="6.31706">
        <ele>265</ele>
        <time>2012-12-02T08:19:48Z</time>
      </trkpt>
      <trkpt lat="43.50563" lon="6.31707">
        <ele>266</ele>
        <time>2012-12-02T08:19:49Z</time>
      </trkpt>
      <trkpt lat="43.50565" lon="6.31707">
        <ele>266</ele>
        <time>2012-12-02T08:19:50Z</time>
      </trkpt>
      <trkpt lat="43.50566" lon="6.31706">
        <ele>266</ele>
        <time>2012-12-02T08:19:51Z</time>
      </trkpt>
      <trkpt lat="43.50567" lon="6.31705">
        <ele>267</ele>
        <time>2012-12-02T08:19:52Z</time>
      </trkpt>
      <trkpt lat="43.50569" lon="6.31703">
        <ele>267</ele>
        <time>2012-12-02T08:19:53Z</time>
      </trkpt>
      <trkpt lat="43.5057" lon="6.31701">
        <ele>268</ele>
        <time>2012-12-02T08:19:54Z</time>
      </trkpt>
      <trkpt lat="43.50571" lon="6.317">
        <ele>268</ele>
        <time>2012-12-02T08:19:55Z</time>
      </trkpt>
      <trkpt lat="43.50573" lon="6.31699">
        <ele>269</ele>
        <time>2012-12-02T08:19:56Z</time>
      </trkpt>
      <trkpt lat="43.50575" lon="6.31698">
        <ele>269</ele>
        <time>2012-12-02T08:19:58Z</time>
      </trkpt>
      <trkpt lat="43.50578" lon="6.31696">
        <ele>269</ele>
        <time>2012-12-02T08:20:00Z</time>
      </trkpt>
      <trkpt lat="43.5058" lon="6.31696">
        <ele>269</ele>
        <time>2012-12-02T08:20:01Z</time>
      </trkpt>
      <trkpt lat="43.50581" lon="6.31695">
        <ele>270</ele>
        <time>2012-12-02T08:20:02Z</time>
      </trkpt>
      <trkpt lat="43.50583" lon="6.31694">
        <ele>270</ele>
        <time>2012-12-02T08:20:03Z</time>
      </trkpt>
      <trkpt lat="43.50585" lon="6.31692">
        <ele>271</ele>
        <time>2012-12-02T08:20:04Z</time>
      </trkpt>
      <trkpt lat="43.50586" lon="6.3169">
        <ele>271</ele>
        <time>2012-12-02T08:20:05Z</time>
      </trkpt>
      <trkpt lat="43.50597" lon="6.31675">
        <ele>271</ele>
        <time>2012-12-02T08:20:11Z</time>
      </trkpt>
      <trkpt lat="43.50599" lon="6.31673">
        <ele>271</ele>
        <time>2012-12-02T08:20:12Z</time>
      </trkpt>
      <trkpt lat="43.50601" lon="6.3167">
        <ele>271</ele>
        <time>2012-12-02T08:20:13Z</time>
      </trkpt>
      <trkpt lat="43.50603" lon="6.31668">
        <ele>272</ele>
        <time>2012-12-02T08:20:14Z</time>
      </trkpt>
      <trkpt lat="43.50604" lon="6.31666">
        <ele>272</ele>
        <time>2012-12-02T08:20:15Z</time>
      </trkpt>
      <trkpt lat="43.50605" lon="6.31665">
        <ele>273</ele>
        <time>2012-12-02T08:20:16Z</time>
      </trkpt>
      <trkpt lat="43.50607" lon="6.31665">
        <ele>273</ele>
        <time>2012-12-02T08:20:17Z</time>
      </trkpt>
      <trkpt lat="43.5061" lon="6.31666">
        <ele>273</ele>
        <time>2012-12-02T08:20:22Z</time>
      </trkpt>
      <trkpt lat="43.5061" lon="6.31666">
        <ele>273</ele>
        <time>2012-12-02T08:20:23Z</time>
      </trkpt>
      <trkpt lat="43.50609" lon="6.31648">
        <ele>273</ele>
        <time>2012-12-02T08:20:47Z</time>
      </trkpt>
      <trkpt lat="43.5061" lon="6.31641">
        <ele>273</ele>
        <time>2012-12-02T08:20:49Z</time>
      </trkpt>
      <trkpt lat="43.50614" lon="6.31617">
        <ele>273</ele>
        <time>2012-12-02T08:20:54Z</time>
      </trkpt>
      <trkpt lat="43.50622" lon="6.31589">
        <ele>272</ele>
        <time>2012-12-02T08:21:00Z</time>
      </trkpt>
      <trkpt lat="43.50622" lon="6.31583">
        <ele>271</ele>
        <time>2012-12-02T08:21:01Z</time>
      </trkpt>
      <trkpt lat="43.50623" lon="6.31577">
        <ele>271</ele>
        <time>2012-12-02T08:21:02Z</time>
      </trkpt>
      <trkpt lat="43.50623" lon="6.31571">
        <ele>270</ele>
        <time>2012-12-02T08:21:03Z</time>
      </trkpt>
      <trkpt lat="43.50623" lon="6.31566">
        <ele>269</ele>
        <time>2012-12-02T08:21:04Z</time>
      </trkpt>
      <trkpt lat="43.50623" lon="6.3156">
        <ele>269</ele>
        <time>2012-12-02T08:21:05Z</time>
      </trkpt>
      <trkpt lat="43.50622" lon="6.31554">
        <ele>268</ele>
        <time>2012-12-02T08:21:06Z</time>
      </trkpt>
      <trkpt lat="43.5062" lon="6.31548">
        <ele>268</ele>
        <time>2012-12-02T08:21:07Z</time>
      </trkpt>
      <trkpt lat="43.5062" lon="6.31543">
        <ele>267</ele>
        <time>2012-12-02T08:21:08Z</time>
      </trkpt>
      <trkpt lat="43.5062" lon="6.31537">
        <ele>267</ele>
        <time>2012-12-02T08:21:09Z</time>
      </trkpt>
      <trkpt lat="43.50622" lon="6.31532">
        <ele>266</ele>
        <time>2012-12-02T08:21:10Z</time>
      </trkpt>
      <trkpt lat="43.50623" lon="6.31526">
        <ele>266</ele>
        <time>2012-12-02T08:21:11Z</time>
      </trkpt>
      <trkpt lat="43.50624" lon="6.31522">
        <ele>266</ele>
        <time>2012-12-02T08:21:12Z</time>
      </trkpt>
      <trkpt lat="43.50628" lon="6.31507">
        <ele>265</ele>
        <time>2012-12-02T08:21:15Z</time>
      </trkpt>
      <trkpt lat="43.50629" lon="6.31501">
        <ele>265</ele>
        <time>2012-12-02T08:21:16Z</time>
      </trkpt>
      <trkpt lat="43.50632" lon="6.31496">
        <ele>264</ele>
        <time>2012-12-02T08:21:17Z</time>
      </trkpt>
      <trkpt lat="43.50632" lon="6.31486">
        <ele>264</ele>
        <time>2012-12-02T08:21:18Z</time>
      </trkpt>
      <trkpt lat="43.50633" lon="6.31475">
        <ele>263</ele>
        <time>2012-12-02T08:21:19Z</time>
      </trkpt>
      <trkpt lat="43.50633" lon="6.31465">
        <ele>263</ele>
        <time>2012-12-02T08:21:20Z</time>
      </trkpt>
      <trkpt lat="43.50633" lon="6.31455">
        <ele>262</ele>
        <time>2012-12-02T08:21:21Z</time>
      </trkpt>
      <trkpt lat="43.50633" lon="6.31447">
        <ele>262</ele>
        <time>2012-12-02T08:21:22Z</time>
      </trkpt>
      <trkpt lat="43.50634" lon="6.31441">
        <ele>261</ele>
        <time>2012-12-02T08:21:23Z</time>
      </trkpt>
      <trkpt lat="43.50635" lon="6.31435">
        <ele>261</ele>
        <time>2012-12-02T08:21:25Z</time>
      </trkpt>
      <trkpt lat="43.50634" lon="6.31431">
        <ele>261</ele>
        <time>2012-12-02T08:21:28Z</time>
      </trkpt>
      <trkpt lat="43.50635" lon="6.31424">
        <ele>261</ele>
        <time>2012-12-02T08:22:41Z</time>
      </trkpt>
      <trkpt lat="43.50635" lon="6.31421">
        <ele>261</ele>
        <time>2012-12-02T08:22:42Z</time>
      </trkpt>
      <trkpt lat="43.50635" lon="6.31414">
        <ele>261</ele>
        <time>2012-12-02T08:22:45Z</time>
      </trkpt>
      <trkpt lat="43.50636" lon="6.31412">
        <ele>260</ele>
        <time>2012-12-02T08:22:46Z</time>
      </trkpt>
      <trkpt lat="43.50637" lon="6.3141">
        <ele>260</ele>
        <time>2012-12-02T08:22:47Z</time>
      </trkpt>
      <trkpt lat="43.50638" lon="6.31407">
        <ele>259</ele>
        <time>2012-12-02T08:22:48Z</time>
      </trkpt>
      <trkpt lat="43.50639" lon="6.31403">
        <ele>259</ele>
        <time>2012-12-02T08:22:49Z</time>
      </trkpt>
      <trkpt lat="43.5064" lon="6.31388">
        <ele>259</ele>
        <time>2012-12-02T08:22:53Z</time>
      </trkpt>
      <trkpt lat="43.50644" lon="6.31356">
        <ele>259</ele>
        <time>2012-12-02T08:22:59Z</time>
      </trkpt>
      <trkpt lat="43.50652" lon="6.31323">
        <ele>259</ele>
        <time>2012-12-02T08:23:05Z</time>
      </trkpt>
      <trkpt lat="43.50663" lon="6.31298">
        <ele>259</ele>
        <time>2012-12-02T08:23:10Z</time>
      </trkpt>
      <trkpt lat="43.50679" lon="6.31271">
        <ele>259</ele>
        <time>2012-12-02T08:23:16Z</time>
      </trkpt>
      <trkpt lat="43.50694" lon="6.31249">
        <ele>259</ele>
        <time>2012-12-02T08:23:22Z</time>
      </trkpt>
      <trkpt lat="43.50707" lon="6.31228">
        <ele>259</ele>
        <time>2012-12-02T08:23:28Z</time>
      </trkpt>
      <trkpt lat="43.5071" lon="6.31221">
        <ele>259</ele>
        <time>2012-12-02T08:23:31Z</time>
      </trkpt>
      <trkpt lat="43.5071" lon="6.31217">
        <ele>259</ele>
        <time>2012-12-02T08:23:32Z</time>
      </trkpt>
      <trkpt lat="43.5071" lon="6.31207">
        <ele>259</ele>
        <time>2012-12-02T08:23:37Z</time>
      </trkpt>
      <trkpt lat="43.50715" lon="6.31194">
        <ele>259</ele>
        <time>2012-12-02T08:23:40Z</time>
      </trkpt>
      <trkpt lat="43.50722" lon="6.31184">
        <ele>259</ele>
        <time>2012-12-02T08:23:42Z</time>
      </trkpt>
      <trkpt lat="43.50729" lon="6.31175">
        <ele>259</ele>
        <time>2012-12-02T08:23:44Z</time>
      </trkpt>
      <trkpt lat="43.50731" lon="6.3117">
        <ele>259</ele>
        <time>2012-12-02T08:23:45Z</time>
      </trkpt>
      <trkpt lat="43.50751" lon="6.31137">
        <ele>259</ele>
        <time>2012-12-02T08:23:51Z</time>
      </trkpt>
      <trkpt lat="43.50757" lon="6.31124">
        <ele>259</ele>
        <time>2012-12-02T08:23:53Z</time>
      </trkpt>
      <trkpt lat="43.50763" lon="6.31111">
        <ele>259</ele>
        <time>2012-12-02T08:23:56Z</time>
      </trkpt>
      <trkpt lat="43.50769" lon="6.31115">
        <ele>259</ele>
        <time>2012-12-02T08:23:59Z</time>
      </trkpt>
      <trkpt lat="43.50771" lon="6.31115">
        <ele>259</ele>
        <time>2012-12-02T08:24:00Z</time>
      </trkpt>
      <trkpt lat="43.50782" lon="6.31119">
        <ele>259</ele>
        <time>2012-12-02T08:24:06Z</time>
      </trkpt>
      <trkpt lat="43.50784" lon="6.31119">
        <ele>259</ele>
        <time>2012-12-02T08:24:07Z</time>
      </trkpt>
      <trkpt lat="43.50786" lon="6.31118">
        <ele>260</ele>
        <time>2012-12-02T08:24:08Z</time>
      </trkpt>
      <trkpt lat="43.50788" lon="6.31118">
        <ele>260</ele>
        <time>2012-12-02T08:24:09Z</time>
      </trkpt>
      <trkpt lat="43.50789" lon="6.31116">
        <ele>260</ele>
        <time>2012-12-02T08:24:10Z</time>
      </trkpt>
      <trkpt lat="43.50791" lon="6.31115">
        <ele>261</ele>
        <time>2012-12-02T08:24:11Z</time>
      </trkpt>
      <trkpt lat="43.50792" lon="6.31113">
        <ele>261</ele>
        <time>2012-12-02T08:24:12Z</time>
      </trkpt>
      <trkpt lat="43.50801" lon="6.31098">
        <ele>261</ele>
        <time>2012-12-02T08:24:19Z</time>
      </trkpt>
      <trkpt lat="43.50802" lon="6.31096">
        <ele>262</ele>
        <time>2012-12-02T08:24:20Z</time>
      </trkpt>
      <trkpt lat="43.50803" lon="6.31093">
        <ele>262</ele>
        <time>2012-12-02T08:24:21Z</time>
      </trkpt>
      <trkpt lat="43.50804" lon="6.3109">
        <ele>263</ele>
        <time>2012-12-02T08:24:22Z</time>
      </trkpt>
      <trkpt lat="43.50805" lon="6.31088">
        <ele>263</ele>
        <time>2012-12-02T08:24:23Z</time>
      </trkpt>
      <trkpt lat="43.5081" lon="6.3108">
        <ele>263</ele>
        <time>2012-12-02T08:24:26Z</time>
      </trkpt>
      <trkpt lat="43.50821" lon="6.3106">
        <ele>263</ele>
        <time>2012-12-02T08:24:33Z</time>
      </trkpt>
      <trkpt lat="43.50822" lon="6.31058">
        <ele>263</ele>
        <time>2012-12-02T08:24:34Z</time>
      </trkpt>
      <trkpt lat="43.50823" lon="6.31055">
        <ele>264</ele>
        <time>2012-12-02T08:24:35Z</time>
      </trkpt>
      <trkpt lat="43.50825" lon="6.31052">
        <ele>265</ele>
        <time>2012-12-02T08:24:36Z</time>
      </trkpt>
      <trkpt lat="43.50827" lon="6.31049">
        <ele>265</ele>
        <time>2012-12-02T08:24:37Z</time>
      </trkpt>
      <trkpt lat="43.50834" lon="6.31037">
        <ele>265</ele>
        <time>2012-12-02T08:24:41Z</time>
      </trkpt>
      <trkpt lat="43.50843" lon="6.31024">
        <ele>265</ele>
        <time>2012-12-02T08:24:46Z</time>
      </trkpt>
      <trkpt lat="43.50844" lon="6.31022">
        <ele>266</ele>
        <time>2012-12-02T08:24:47Z</time>
      </trkpt>
      <trkpt lat="43.50846" lon="6.31019">
        <ele>266</ele>
        <time>2012-12-02T08:24:48Z</time>
      </trkpt>
      <trkpt lat="43.50848" lon="6.31017">
        <ele>267</ele>
        <time>2012-12-02T08:24:49Z</time>
      </trkpt>
      <trkpt lat="43.5085" lon="6.31014">
        <ele>267</ele>
        <time>2012-12-02T08:24:50Z</time>
      </trkpt>
      <trkpt lat="43.50858" lon="6.31004">
        <ele>267</ele>
        <time>2012-12-02T08:24:54Z</time>
      </trkpt>
      <trkpt lat="43.50869" lon="6.30986">
        <ele>268</ele>
        <time>2012-12-02T08:24:59Z</time>
      </trkpt>
      <trkpt lat="43.50872" lon="6.30983">
        <ele>268</ele>
        <time>2012-12-02T08:25:00Z</time>
      </trkpt>
      <trkpt lat="43.50875" lon="6.3098">
        <ele>269</ele>
        <time>2012-12-02T08:25:01Z</time>
      </trkpt>
      <trkpt lat="43.50877" lon="6.30977">
        <ele>269</ele>
        <time>2012-12-02T08:25:02Z</time>
      </trkpt>
      <trkpt lat="43.50888" lon="6.3096">
        <ele>269</ele>
        <time>2012-12-02T08:25:08Z</time>
      </trkpt>
      <trkpt lat="43.5089" lon="6.30956">
        <ele>270</ele>
        <time>2012-12-02T08:25:09Z</time>
      </trkpt>
      <trkpt lat="43.50892" lon="6.30953">
        <ele>270</ele>
        <time>2012-12-02T08:25:10Z</time>
      </trkpt>
      <trkpt lat="43.50893" lon="6.30949">
        <ele>270</ele>
        <time>2012-12-02T08:25:11Z</time>
      </trkpt>
      <trkpt lat="43.50894" lon="6.30946">
        <ele>271</ele>
        <time>2012-12-02T08:25:12Z</time>
      </trkpt>
      <trkpt lat="43.50895" lon="6.30942">
        <ele>271</ele>
        <time>2012-12-02T08:25:13Z</time>
      </trkpt>
      <trkpt lat="43.50897" lon="6.30938">
        <ele>271</ele>
        <time>2012-12-02T08:25:14Z</time>
      </trkpt>
      <trkpt lat="43.50905" lon="6.30919">
        <ele>271</ele>
        <time>2012-12-02T08:25:20Z</time>
      </trkpt>
      <trkpt lat="43.50908" lon="6.3091">
        <ele>272</ele>
        <time>2012-12-02T08:25:23Z</time>
      </trkpt>
      <trkpt lat="43.50909" lon="6.30906">
        <ele>272</ele>
        <time>2012-12-02T08:25:24Z</time>
      </trkpt>
      <trkpt lat="43.50911" lon="6.30902">
        <ele>273</ele>
        <time>2012-12-02T08:25:25Z</time>
      </trkpt>
      <trkpt lat="43.50911" lon="6.30899">
        <ele>273</ele>
        <time>2012-12-02T08:25:26Z</time>
      </trkpt>
      <trkpt lat="43.50912" lon="6.30896">
        <ele>273</ele>
        <time>2012-12-02T08:25:27Z</time>
      </trkpt>
      <trkpt lat="43.50919" lon="6.30879">
        <ele>273</ele>
        <time>2012-12-02T08:25:33Z</time>
      </trkpt>
      <trkpt lat="43.50921" lon="6.30874">
        <ele>274</ele>
        <time>2012-12-02T08:25:35Z</time>
      </trkpt>
      <trkpt lat="43.50922" lon="6.30871">
        <ele>274</ele>
        <time>2012-12-02T08:25:36Z</time>
      </trkpt>
      <trkpt lat="43.50924" lon="6.30868">
        <ele>275</ele>
        <time>2012-12-02T08:25:37Z</time>
      </trkpt>
      <trkpt lat="43.50925" lon="6.30865">
        <ele>275</ele>
        <time>2012-12-02T08:25:38Z</time>
      </trkpt>
      <trkpt lat="43.50926" lon="6.30861">
        <ele>276</ele>
        <time>2012-12-02T08:25:39Z</time>
      </trkpt>
      <trkpt lat="43.50928" lon="6.30858">
        <ele>276</ele>
        <time>2012-12-02T08:25:40Z</time>
      </trkpt>
      <trkpt lat="43.50937" lon="6.30847">
        <ele>276</ele>
        <time>2012-12-02T08:25:45Z</time>
      </trkpt>
      <trkpt lat="43.5095" lon="6.30846">
        <ele>276</ele>
        <time>2012-12-02T08:25:50Z</time>
      </trkpt>
      <trkpt lat="43.50961" lon="6.3085">
        <ele>276</ele>
        <time>2012-12-02T08:25:55Z</time>
      </trkpt>
      <trkpt lat="43.50963" lon="6.30851">
        <ele>276</ele>
        <time>2012-12-02T08:25:56Z</time>
      </trkpt>
      <trkpt lat="43.50965" lon="6.30851">
        <ele>277</ele>
        <time>2012-12-02T08:25:57Z</time>
      </trkpt>
      <trkpt lat="43.50967" lon="6.30852">
        <ele>277</ele>
        <time>2012-12-02T08:25:58Z</time>
      </trkpt>
      <trkpt lat="43.50969" lon="6.30853">
        <ele>278</ele>
        <time>2012-12-02T08:25:59Z</time>
      </trkpt>
      <trkpt lat="43.50977" lon="6.30857">
        <ele>278</ele>
        <time>2012-12-02T08:26:02Z</time>
      </trkpt>
      <trkpt lat="43.50988" lon="6.30862">
        <ele>278</ele>
        <time>2012-12-02T08:26:07Z</time>
      </trkpt>
      <trkpt lat="43.5099" lon="6.30864">
        <ele>279</ele>
        <time>2012-12-02T08:26:08Z</time>
      </trkpt>
      <trkpt lat="43.50992" lon="6.30864">
        <ele>279</ele>
        <time>2012-12-02T08:26:09Z</time>
      </trkpt>
      <trkpt lat="43.50993" lon="6.30865">
        <ele>279</ele>
        <time>2012-12-02T08:26:10Z</time>
      </trkpt>
      <trkpt lat="43.50995" lon="6.30865">
        <ele>280</ele>
        <time>2012-12-02T08:26:11Z</time>
      </trkpt>
      <trkpt lat="43.51001" lon="6.30868">
        <ele>280</ele>
        <time>2012-12-02T08:26:14Z</time>
      </trkpt>
      <trkpt lat="43.51018" lon="6.30877">
        <ele>280</ele>
        <time>2012-12-02T08:26:20Z</time>
      </trkpt>
      <trkpt lat="43.51024" lon="6.30881">
        <ele>280</ele>
        <time>2012-12-02T08:26:23Z</time>
      </trkpt>
      <trkpt lat="43.51026" lon="6.30883">
        <ele>281</ele>
        <time>2012-12-02T08:26:24Z</time>
      </trkpt>
      <trkpt lat="43.51028" lon="6.30886">
        <ele>281</ele>
        <time>2012-12-02T08:26:25Z</time>
      </trkpt>
      <trkpt lat="43.5103" lon="6.30889">
        <ele>282</ele>
        <time>2012-12-02T08:26:26Z</time>
      </trkpt>
      <trkpt lat="43.51031" lon="6.30893">
        <ele>282</ele>
        <time>2012-12-02T08:26:27Z</time>
      </trkpt>
      <trkpt lat="43.51034" lon="6.30908">
        <ele>282</ele>
        <time>2012-12-02T08:26:32Z</time>
      </trkpt>
      <trkpt lat="43.51034" lon="6.30925">
        <ele>283</ele>
        <time>2012-12-02T08:26:37Z</time>
      </trkpt>
      <trkpt lat="43.51034" lon="6.30928">
        <ele>283</ele>
        <time>2012-12-02T08:26:38Z</time>
      </trkpt>
      <trkpt lat="43.51034" lon="6.30931">
        <ele>283</ele>
        <time>2012-12-02T08:26:39Z</time>
      </trkpt>
      <trkpt lat="43.51035" lon="6.30934">
        <ele>284</ele>
        <time>2012-12-02T08:26:40Z</time>
      </trkpt>
      <trkpt lat="43.51036" lon="6.30954">
        <ele>284</ele>
        <time>2012-12-02T08:26:46Z</time>
      </trkpt>
      <trkpt lat="43.51039" lon="6.30962">
        <ele>285</ele>
        <time>2012-12-02T08:26:49Z</time>
      </trkpt>
      <trkpt lat="43.51041" lon="6.30966">
        <ele>285</ele>
        <time>2012-12-02T08:26:50Z</time>
      </trkpt>
      <trkpt lat="43.51042" lon="6.30969">
        <ele>286</ele>
        <time>2012-12-02T08:26:51Z</time>
      </trkpt>
      <trkpt lat="43.51043" lon="6.30972">
        <ele>286</ele>
        <time>2012-12-02T08:26:52Z</time>
      </trkpt>
      <trkpt lat="43.51044" lon="6.30975">
        <ele>286</ele>
        <time>2012-12-02T08:26:53Z</time>
      </trkpt>
      <trkpt lat="43.51049" lon="6.3099">
        <ele>286</ele>
        <time>2012-12-02T08:26:58Z</time>
      </trkpt>
      <trkpt lat="43.51059" lon="6.3101">
        <ele>286</ele>
        <time>2012-12-02T08:27:05Z</time>
      </trkpt>
      <trkpt lat="43.51068" lon="6.3103">
        <ele>286</ele>
        <time>2012-12-02T08:27:12Z</time>
      </trkpt>
      <trkpt lat="43.5107" lon="6.31039">
        <ele>287</ele>
        <time>2012-12-02T08:27:16Z</time>
      </trkpt>
      <trkpt lat="43.5107" lon="6.31042">
        <ele>287</ele>
        <time>2012-12-02T08:27:17Z</time>
      </trkpt>
      <trkpt lat="43.5107" lon="6.31044">
        <ele>288</ele>
        <time>2012-12-02T08:27:18Z</time>
      </trkpt>
      <trkpt lat="43.5107" lon="6.31047">
        <ele>288</ele>
        <time>2012-12-02T08:27:19Z</time>
      </trkpt>
      <trkpt lat="43.5107" lon="6.31051">
        <ele>289</ele>
        <time>2012-12-02T08:27:20Z</time>
      </trkpt>
      <trkpt lat="43.51073" lon="6.3106">
        <ele>289</ele>
        <time>2012-12-02T08:27:23Z</time>
      </trkpt>
      <trkpt lat="43.51074" lon="6.31064">
        <ele>290</ele>
        <time>2012-12-02T08:27:24Z</time>
      </trkpt>
      <trkpt lat="43.51074" lon="6.31067">
        <ele>290</ele>
        <time>2012-12-02T08:27:25Z</time>
      </trkpt>
      <trkpt lat="43.51075" lon="6.3107">
        <ele>290</ele>
        <time>2012-12-02T08:27:26Z</time>
      </trkpt>
      <trkpt lat="43.51075" lon="6.31074">
        <ele>291</ele>
        <time>2012-12-02T08:27:27Z</time>
      </trkpt>
      <trkpt lat="43.51076" lon="6.3108">
        <ele>291</ele>
        <time>2012-12-02T08:27:29Z</time>
      </trkpt>
      <trkpt lat="43.51077" lon="6.31084">
        <ele>291</ele>
        <time>2012-12-02T08:27:31Z</time>
      </trkpt>
      <trkpt lat="43.51078" lon="6.31087">
        <ele>292</ele>
        <time>2012-12-02T08:27:32Z</time>
      </trkpt>
      <trkpt lat="43.51078" lon="6.31089">
        <ele>292</ele>
        <time>2012-12-02T08:27:33Z</time>
      </trkpt>
      <trkpt lat="43.51079" lon="6.31092">
        <ele>293</ele>
        <time>2012-12-02T08:27:34Z</time>
      </trkpt>
      <trkpt lat="43.5108" lon="6.31095">
        <ele>293</ele>
        <time>2012-12-02T08:27:35Z</time>
      </trkpt>
      <trkpt lat="43.51083" lon="6.31114">
        <ele>293</ele>
        <time>2012-12-02T08:27:42Z</time>
      </trkpt>
      <trkpt lat="43.51085" lon="6.3112">
        <ele>293</ele>
        <time>2012-12-02T08:27:44Z</time>
      </trkpt>
      <trkpt lat="43.51085" lon="6.31122">
        <ele>294</ele>
        <time>2012-12-02T08:27:45Z</time>
      </trkpt>
      <trkpt lat="43.51086" lon="6.31125">
        <ele>294</ele>
        <time>2012-12-02T08:27:46Z</time>
      </trkpt>
      <trkpt lat="43.51086" lon="6.31128">
        <ele>295</ele>
        <time>2012-12-02T08:27:47Z</time>
      </trkpt>
      <trkpt lat="43.51087" lon="6.3113">
        <ele>295</ele>
        <time>2012-12-02T08:27:48Z</time>
      </trkpt>
      <trkpt lat="43.51087" lon="6.31133">
        <ele>295</ele>
        <time>2012-12-02T08:27:49Z</time>
      </trkpt>
      <trkpt lat="43.5109" lon="6.31144">
        <ele>295</ele>
        <time>2012-12-02T08:27:54Z</time>
      </trkpt>
      <trkpt lat="43.51095" lon="6.3116">
        <ele>295</ele>
        <time>2012-12-02T08:28:00Z</time>
      </trkpt>
      <trkpt lat="43.51096" lon="6.31168">
        <ele>296</ele>
        <time>2012-12-02T08:28:03Z</time>
      </trkpt>
      <trkpt lat="43.51096" lon="6.31171">
        <ele>296</ele>
        <time>2012-12-02T08:28:04Z</time>
      </trkpt>
      <trkpt lat="43.51096" lon="6.31173">
        <ele>296</ele>
        <time>2012-12-02T08:28:05Z</time>
      </trkpt>
      <trkpt lat="43.51096" lon="6.31176">
        <ele>297</ele>
        <time>2012-12-02T08:28:06Z</time>
      </trkpt>
      <trkpt lat="43.51096" lon="6.31179">
        <ele>297</ele>
        <time>2012-12-02T08:28:07Z</time>
      </trkpt>
      <trkpt lat="43.51099" lon="6.31196">
        <ele>297</ele>
        <time>2012-12-02T08:28:12Z</time>
      </trkpt>
      <trkpt lat="43.51104" lon="6.31216">
        <ele>297</ele>
        <time>2012-12-02T08:28:18Z</time>
      </trkpt>
      <trkpt lat="43.51107" lon="6.31237">
        <ele>297</ele>
        <time>2012-12-02T08:28:24Z</time>
      </trkpt>
      <trkpt lat="43.51109" lon="6.31258">
        <ele>297</ele>
        <time>2012-12-02T08:28:30Z</time>
      </trkpt>
      <trkpt lat="43.51114" lon="6.31283">
        <ele>297</ele>
        <time>2012-12-02T08:28:36Z</time>
      </trkpt>
      <trkpt lat="43.51119" lon="6.31311">
        <ele>297</ele>
        <time>2012-12-02T08:28:43Z</time>
      </trkpt>
      <trkpt lat="43.51121" lon="6.31319">
        <ele>298</ele>
        <time>2012-12-02T08:28:45Z</time>
      </trkpt>
      <trkpt lat="43.51122" lon="6.31323">
        <ele>298</ele>
        <time>2012-12-02T08:28:46Z</time>
      </trkpt>
      <trkpt lat="43.51122" lon="6.31327">
        <ele>299</ele>
        <time>2012-12-02T08:28:47Z</time>
      </trkpt>
      <trkpt lat="43.51123" lon="6.31331">
        <ele>299</ele>
        <time>2012-12-02T08:28:48Z</time>
      </trkpt>
      <trkpt lat="43.51124" lon="6.31334">
        <ele>300</ele>
        <time>2012-12-02T08:28:49Z</time>
      </trkpt>
      <trkpt lat="43.51124" lon="6.31341">
        <ele>300</ele>
        <time>2012-12-02T08:28:51Z</time>
      </trkpt>
      <trkpt lat="43.51131" lon="6.31369">
        <ele>300</ele>
        <time>2012-12-02T08:28:58Z</time>
      </trkpt>
      <trkpt lat="43.51134" lon="6.31382">
        <ele>300</ele>
        <time>2012-12-02T08:29:01Z</time>
      </trkpt>
      <trkpt lat="43.51135" lon="6.31386">
        <ele>300</ele>
        <time>2012-12-02T08:29:02Z</time>
      </trkpt>
      <trkpt lat="43.51136" lon="6.3139">
        <ele>301</ele>
        <time>2012-12-02T08:29:03Z</time>
      </trkpt>
      <trkpt lat="43.51137" lon="6.31394">
        <ele>301</ele>
        <time>2012-12-02T08:29:04Z</time>
      </trkpt>
      <trkpt lat="43.51137" lon="6.31399">
        <ele>302</ele>
        <time>2012-12-02T08:29:05Z</time>
      </trkpt>
      <trkpt lat="43.51144" lon="6.31423">
        <ele>302</ele>
        <time>2012-12-02T08:29:11Z</time>
      </trkpt>
      <trkpt lat="43.51148" lon="6.31448">
        <ele>302</ele>
        <time>2012-12-02T08:29:18Z</time>
      </trkpt>
      <trkpt lat="43.51149" lon="6.31452">
        <ele>302</ele>
        <time>2012-12-02T08:29:20Z</time>
      </trkpt>
      <trkpt lat="43.51152" lon="6.31462">
        <ele>302</ele>
        <time>2012-12-02T08:31:27Z</time>
      </trkpt>
      <trkpt lat="43.51152" lon="6.31464">
        <ele>302</ele>
        <time>2012-12-02T08:31:28Z</time>
      </trkpt>
      <trkpt lat="43.51155" lon="6.31479">
        <ele>302</ele>
        <time>2012-12-02T08:31:33Z</time>
      </trkpt>
      <trkpt lat="43.51157" lon="6.31488">
        <ele>302</ele>
        <time>2012-12-02T08:31:36Z</time>
      </trkpt>
      <trkpt lat="43.51157" lon="6.31491">
        <ele>302</ele>
        <time>2012-12-02T08:31:37Z</time>
      </trkpt>
      <trkpt lat="43.51158" lon="6.31494">
        <ele>303</ele>
        <time>2012-12-02T08:31:38Z</time>
      </trkpt>
      <trkpt lat="43.51159" lon="6.31497">
        <ele>303</ele>
        <time>2012-12-02T08:31:39Z</time>
      </trkpt>
      <trkpt lat="43.51159" lon="6.315">
        <ele>304</ele>
        <time>2012-12-02T08:31:40Z</time>
      </trkpt>
      <trkpt lat="43.5116" lon="6.31507">
        <ele>304</ele>
        <time>2012-12-02T08:31:44Z</time>
      </trkpt>
      <trkpt lat="43.51161" lon="6.31508">
        <ele>304</ele>
        <time>2012-12-02T08:31:46Z</time>
      </trkpt>
      <trkpt lat="43.51163" lon="6.31513">
        <ele>304</ele>
        <time>2012-12-02T08:36:00Z</time>
      </trkpt>
      <trkpt lat="43.51164" lon="6.31517">
        <ele>304</ele>
        <time>2012-12-02T08:36:02Z</time>
      </trkpt>
      <trkpt lat="43.51168" lon="6.31538">
        <ele>304</ele>
        <time>2012-12-02T08:36:07Z</time>
      </trkpt>
      <trkpt lat="43.51173" lon="6.31565">
        <ele>304</ele>
        <time>2012-12-02T08:36:13Z</time>
      </trkpt>
      <trkpt lat="43.51182" lon="6.31608">
        <ele>304</ele>
        <time>2012-12-02T08:36:22Z</time>
      </trkpt>
      <trkpt lat="43.51191" lon="6.31653">
        <ele>304</ele>
        <time>2012-12-02T08:36:31Z</time>
      </trkpt>
      <trkpt lat="43.51192" lon="6.31658">
        <ele>305</ele>
        <time>2012-12-02T08:36:32Z</time>
      </trkpt>
      <trkpt lat="43.51193" lon="6.31664">
        <ele>305</ele>
        <time>2012-12-02T08:36:33Z</time>
      </trkpt>
      <trkpt lat="43.51195" lon="6.31669">
        <ele>306</ele>
        <time>2012-12-02T08:36:34Z</time>
      </trkpt>
      <trkpt lat="43.51201" lon="6.31697">
        <ele>306</ele>
        <time>2012-12-02T08:36:40Z</time>
      </trkpt>
      <trkpt lat="43.51208" lon="6.31731">
        <ele>306</ele>
        <time>2012-12-02T08:36:47Z</time>
      </trkpt>
      <trkpt lat="43.5121" lon="6.31735">
        <ele>306</ele>
        <time>2012-12-02T08:36:48Z</time>
      </trkpt>
      <trkpt lat="43.51211" lon="6.3174">
        <ele>307</ele>
        <time>2012-12-02T08:36:49Z</time>
      </trkpt>
      <trkpt lat="43.51212" lon="6.31744">
        <ele>307</ele>
        <time>2012-12-02T08:36:50Z</time>
      </trkpt>
      <trkpt lat="43.51214" lon="6.31747">
        <ele>307</ele>
        <time>2012-12-02T08:36:51Z</time>
      </trkpt>
      <trkpt lat="43.51215" lon="6.31751">
        <ele>308</ele>
        <time>2012-12-02T08:36:52Z</time>
      </trkpt>
      <trkpt lat="43.51219" lon="6.3177">
        <ele>308</ele>
        <time>2012-12-02T08:36:57Z</time>
      </trkpt>
      <trkpt lat="43.5122" lon="6.31774">
        <ele>308</ele>
        <time>2012-12-02T08:36:58Z</time>
      </trkpt>
      <trkpt lat="43.5122" lon="6.31778">
        <ele>309</ele>
        <time>2012-12-02T08:36:59Z</time>
      </trkpt>
      <trkpt lat="43.51222" lon="6.31783">
        <ele>309</ele>
        <time>2012-12-02T08:37:00Z</time>
      </trkpt>
      <trkpt lat="43.51223" lon="6.31788">
        <ele>309</ele>
        <time>2012-12-02T08:37:01Z</time>
      </trkpt>
      <trkpt lat="43.51223" lon="6.31792">
        <ele>310</ele>
        <time>2012-12-02T08:37:02Z</time>
      </trkpt>
      <trkpt lat="43.51224" lon="6.31796">
        <ele>310</ele>
        <time>2012-12-02T08:37:03Z</time>
      </trkpt>
      <trkpt lat="43.51227" lon="6.31809">
        <ele>310</ele>
        <time>2012-12-02T08:37:07Z</time>
      </trkpt>
      <trkpt lat="43.51227" lon="6.31812">
        <ele>311</ele>
        <time>2012-12-02T08:37:08Z</time>
      </trkpt>
      <trkpt lat="43.51227" lon="6.31815">
        <ele>311</ele>
        <time>2012-12-02T08:37:09Z</time>
      </trkpt>
      <trkpt lat="43.51227" lon="6.31818">
        <ele>311</ele>
        <time>2012-12-02T08:37:10Z</time>
      </trkpt>
      <trkpt lat="43.51228" lon="6.3182">
        <ele>312</ele>
        <time>2012-12-02T08:37:11Z</time>
      </trkpt>
      <trkpt lat="43.51229" lon="6.31826">
        <ele>312</ele>
        <time>2012-12-02T08:37:13Z</time>
      </trkpt>
      <trkpt lat="43.51229" lon="6.31829">
        <ele>313</ele>
        <time>2012-12-02T08:37:14Z</time>
      </trkpt>
      <trkpt lat="43.5123" lon="6.31832">
        <ele>313</ele>
        <time>2012-12-02T08:37:15Z</time>
      </trkpt>
      <trkpt lat="43.51231" lon="6.31835">
        <ele>314</ele>
        <time>2012-12-02T08:37:16Z</time>
      </trkpt>
      <trkpt lat="43.51232" lon="6.31838">
        <ele>314</ele>
        <time>2012-12-02T08:37:17Z</time>
      </trkpt>
      <trkpt lat="43.51232" lon="6.31845">
        <ele>314</ele>
        <time>2012-12-02T08:37:19Z</time>
      </trkpt>
      <trkpt lat="43.51238" lon="6.3187">
        <ele>314</ele>
        <time>2012-12-02T08:37:25Z</time>
      </trkpt>
      <trkpt lat="43.51243" lon="6.31897">
        <ele>314</ele>
        <time>2012-12-02T08:37:31Z</time>
      </trkpt>
      <trkpt lat="43.51248" lon="6.31924">
        <ele>314</ele>
        <time>2012-12-02T08:37:37Z</time>
      </trkpt>
      <trkpt lat="43.51254" lon="6.31952">
        <ele>314</ele>
        <time>2012-12-02T08:37:43Z</time>
      </trkpt>
      <trkpt lat="43.51259" lon="6.31978">
        <ele>314</ele>
        <time>2012-12-02T08:37:49Z</time>
      </trkpt>
      <trkpt lat="43.51263" lon="6.32007">
        <ele>314</ele>
        <time>2012-12-02T08:37:56Z</time>
      </trkpt>
      <trkpt lat="43.51265" lon="6.32029">
        <ele>314</ele>
        <time>2012-12-02T08:38:01Z</time>
      </trkpt>
      <trkpt lat="43.5127" lon="6.32059">
        <ele>314</ele>
        <time>2012-12-02T08:38:07Z</time>
      </trkpt>
      <trkpt lat="43.51271" lon="6.32065">
        <ele>315</ele>
        <time>2012-12-02T08:38:08Z</time>
      </trkpt>
      <trkpt lat="43.51272" lon="6.32071">
        <ele>315</ele>
        <time>2012-12-02T08:38:09Z</time>
      </trkpt>
      <trkpt lat="43.51273" lon="6.32076">
        <ele>316</ele>
        <time>2012-12-02T08:38:10Z</time>
      </trkpt>
      <trkpt lat="43.51273" lon="6.32081">
        <ele>316</ele>
        <time>2012-12-02T08:38:11Z</time>
      </trkpt>
      <trkpt lat="43.51276" lon="6.32096">
        <ele>316</ele>
        <time>2012-12-02T08:38:14Z</time>
      </trkpt>
      <trkpt lat="43.51279" lon="6.32119">
        <ele>316</ele>
        <time>2012-12-02T08:38:20Z</time>
      </trkpt>
      <trkpt lat="43.51281" lon="6.32136">
        <ele>316</ele>
        <time>2012-12-02T08:38:25Z</time>
      </trkpt>
      <trkpt lat="43.51285" lon="6.32147">
        <ele>316</ele>
        <time>2012-12-02T08:38:30Z</time>
      </trkpt>
      <trkpt lat="43.51286" lon="6.32155">
        <ele>316</ele>
        <time>2012-12-02T08:38:35Z</time>
      </trkpt>
      <trkpt lat="43.51286" lon="6.32156">
        <ele>316</ele>
        <time>2012-12-02T08:38:43Z</time>
      </trkpt>
      <trkpt lat="43.51286" lon="6.32161">
        <ele>316</ele>
        <time>2012-12-02T08:38:45Z</time>
      </trkpt>
      <trkpt lat="43.51287" lon="6.32171">
        <ele>316</ele>
        <time>2012-12-02T08:38:48Z</time>
      </trkpt>
      <trkpt lat="43.51289" lon="6.32196">
        <ele>316</ele>
        <time>2012-12-02T08:38:54Z</time>
      </trkpt>
      <trkpt lat="43.51293" lon="6.3223">
        <ele>316</ele>
        <time>2012-12-02T08:39:00Z</time>
      </trkpt>
      <trkpt lat="43.51295" lon="6.32243">
        <ele>316</ele>
        <time>2012-12-02T08:39:02Z</time>
      </trkpt>
      <trkpt lat="43.51298" lon="6.32263">
        <ele>316</ele>
        <time>2012-12-02T08:39:05Z</time>
      </trkpt>
      <trkpt lat="43.51303" lon="6.32289">
        <ele>316</ele>
        <time>2012-12-02T08:39:10Z</time>
      </trkpt>
      <trkpt lat="43.51309" lon="6.32327">
        <ele>316</ele>
        <time>2012-12-02T08:39:17Z</time>
      </trkpt>
      <trkpt lat="43.51311" lon="6.32338">
        <ele>316</ele>
        <time>2012-12-02T08:39:19Z</time>
      </trkpt>
      <trkpt lat="43.51312" lon="6.32344">
        <ele>315</ele>
        <time>2012-12-02T08:39:20Z</time>
      </trkpt>
      <trkpt lat="43.51314" lon="6.3235">
        <ele>315</ele>
        <time>2012-12-02T08:39:21Z</time>
      </trkpt>
      <trkpt lat="43.51315" lon="6.32356">
        <ele>314</ele>
        <time>2012-12-02T08:39:22Z</time>
      </trkpt>
      <trkpt lat="43.51316" lon="6.32362">
        <ele>314</ele>
        <time>2012-12-02T08:39:23Z</time>
      </trkpt>
      <trkpt lat="43.51323" lon="6.32392">
        <ele>314</ele>
        <time>2012-12-02T08:39:28Z</time>
      </trkpt>
      <trkpt lat="43.51326" lon="6.32415">
        <ele>313</ele>
        <time>2012-12-02T08:39:32Z</time>
      </trkpt>
      <trkpt lat="43.51327" lon="6.32422">
        <ele>313</ele>
        <time>2012-12-02T08:39:33Z</time>
      </trkpt>
      <trkpt lat="43.51328" lon="6.32427">
        <ele>312</ele>
        <time>2012-12-02T08:39:34Z</time>
      </trkpt>
      <trkpt lat="43.5133" lon="6.32433">
        <ele>312</ele>
        <time>2012-12-02T08:39:35Z</time>
      </trkpt>
      <trkpt lat="43.51331" lon="6.32438">
        <ele>312</ele>
        <time>2012-12-02T08:39:36Z</time>
      </trkpt>
      <trkpt lat="43.51333" lon="6.32444">
        <ele>312</ele>
        <time>2012-12-02T08:39:37Z</time>
      </trkpt>
      <trkpt lat="43.51335" lon="6.32457">
        <ele>312</ele>
        <time>2012-12-02T08:39:40Z</time>
      </trkpt>
      <trkpt lat="43.51339" lon="6.32478">
        <ele>312</ele>
        <time>2012-12-02T08:39:45Z</time>
      </trkpt>
      <trkpt lat="43.51341" lon="6.32499">
        <ele>312</ele>
        <time>2012-12-02T08:39:51Z</time>
      </trkpt>
      <trkpt lat="43.51342" lon="6.32502">
        <ele>312</ele>
        <time>2012-12-02T08:39:52Z</time>
      </trkpt>
      <trkpt lat="43.51343" lon="6.32505">
        <ele>312</ele>
        <time>2012-12-02T08:39:53Z</time>
      </trkpt>
      <trkpt lat="43.51343" lon="6.32509">
        <ele>313</ele>
        <time>2012-12-02T08:39:54Z</time>
      </trkpt>
      <trkpt lat="43.51345" lon="6.32512">
        <ele>313</ele>
        <time>2012-12-02T08:39:55Z</time>
      </trkpt>
      <trkpt lat="43.51347" lon="6.32515">
        <ele>314</ele>
        <time>2012-12-02T08:39:56Z</time>
      </trkpt>
      <trkpt lat="43.51349" lon="6.32517">
        <ele>314</ele>
        <time>2012-12-02T08:39:57Z</time>
      </trkpt>
      <trkpt lat="43.51363" lon="6.32526">
        <ele>314</ele>
        <time>2012-12-02T08:40:02Z</time>
      </trkpt>
      <trkpt lat="43.51371" lon="6.3253">
        <ele>314</ele>
        <time>2012-12-02T08:40:06Z</time>
      </trkpt>
      <trkpt lat="43.51373" lon="6.3253">
        <ele>315</ele>
        <time>2012-12-02T08:40:07Z</time>
      </trkpt>
      <trkpt lat="43.51374" lon="6.3253">
        <ele>315</ele>
        <time>2012-12-02T08:40:08Z</time>
      </trkpt>
      <trkpt lat="43.51375" lon="6.3253">
        <ele>315</ele>
        <time>2012-12-02T08:40:09Z</time>
      </trkpt>
      <trkpt lat="43.51375" lon="6.32531">
        <ele>316</ele>
        <time>2012-12-02T08:40:10Z</time>
      </trkpt>
      <trkpt lat="43.51376" lon="6.32535">
        <ele>316</ele>
        <time>2012-12-02T08:42:20Z</time>
      </trkpt>
      <trkpt lat="43.51378" lon="6.32536">
        <ele>316</ele>
        <time>2012-12-02T08:42:21Z</time>
      </trkpt>
      <trkpt lat="43.51391" lon="6.32539">
        <ele>316</ele>
        <time>2012-12-02T08:42:28Z</time>
      </trkpt>
      <trkpt lat="43.51402" lon="6.32542">
        <ele>316</ele>
        <time>2012-12-02T08:42:34Z</time>
      </trkpt>
      <trkpt lat="43.51417" lon="6.32545">
        <ele>316</ele>
        <time>2012-12-02T08:42:42Z</time>
      </trkpt>
      <trkpt lat="43.51419" lon="6.32545">
        <ele>316</ele>
        <time>2012-12-02T08:42:43Z</time>
      </trkpt>
      <trkpt lat="43.51422" lon="6.32546">
        <ele>317</ele>
        <time>2012-12-02T08:42:44Z</time>
      </trkpt>
      <trkpt lat="43.51424" lon="6.32546">
        <ele>317</ele>
        <time>2012-12-02T08:42:45Z</time>
      </trkpt>
      <trkpt lat="43.51426" lon="6.32547">
        <ele>317</ele>
        <time>2012-12-02T08:42:46Z</time>
      </trkpt>
      <trkpt lat="43.51428" lon="6.32547">
        <ele>318</ele>
        <time>2012-12-02T08:42:47Z</time>
      </trkpt>
      <trkpt lat="43.51433" lon="6.32547">
        <ele>318</ele>
        <time>2012-12-02T08:42:50Z</time>
      </trkpt>
      <trkpt lat="43.51444" lon="6.32552">
        <ele>318</ele>
        <time>2012-12-02T08:42:56Z</time>
      </trkpt>
      <trkpt lat="43.51448" lon="6.32553">
        <ele>318</ele>
        <time>2012-12-02T08:42:58Z</time>
      </trkpt>
      <trkpt lat="43.5145" lon="6.32553">
        <ele>319</ele>
        <time>2012-12-02T08:42:59Z</time>
      </trkpt>
      <trkpt lat="43.51452" lon="6.32555">
        <ele>319</ele>
        <time>2012-12-02T08:43:00Z</time>
      </trkpt>
      <trkpt lat="43.51454" lon="6.32557">
        <ele>320</ele>
        <time>2012-12-02T08:43:01Z</time>
      </trkpt>
      <trkpt lat="43.51455" lon="6.32561">
        <ele>320</ele>
        <time>2012-12-02T08:43:02Z</time>
      </trkpt>
      <trkpt lat="43.51458" lon="6.32572">
        <ele>320</ele>
        <time>2012-12-02T08:43:05Z</time>
      </trkpt>
      <trkpt lat="43.51458" lon="6.32576">
        <ele>320</ele>
        <time>2012-12-02T08:43:06Z</time>
      </trkpt>
      <trkpt lat="43.51461" lon="6.32594">
        <ele>320</ele>
        <time>2012-12-02T08:43:11Z</time>
      </trkpt>
      <trkpt lat="43.51462" lon="6.32606">
        <ele>320</ele>
        <time>2012-12-02T08:43:14Z</time>
      </trkpt>
      <trkpt lat="43.51462" lon="6.32609">
        <ele>321</ele>
        <time>2012-12-02T08:43:15Z</time>
      </trkpt>
      <trkpt lat="43.51463" lon="6.32612">
        <ele>321</ele>
        <time>2012-12-02T08:43:16Z</time>
      </trkpt>
      <trkpt lat="43.51463" lon="6.32617">
        <ele>322</ele>
        <time>2012-12-02T08:43:17Z</time>
      </trkpt>
      <trkpt lat="43.51463" lon="6.32622">
        <ele>322</ele>
        <time>2012-12-02T08:43:18Z</time>
      </trkpt>
      <trkpt lat="43.51465" lon="6.32635">
        <ele>322</ele>
        <time>2012-12-02T08:43:21Z</time>
      </trkpt>
      <trkpt lat="43.51465" lon="6.32655">
        <ele>322</ele>
        <time>2012-12-02T08:43:25Z</time>
      </trkpt>
      <trkpt lat="43.51465" lon="6.3266">
        <ele>322</ele>
        <time>2012-12-02T08:43:26Z</time>
      </trkpt>
      <trkpt lat="43.51469" lon="6.3268">
        <ele>322</ele>
        <time>2012-12-02T08:43:31Z</time>
      </trkpt>
      <trkpt lat="43.51471" lon="6.32681">
        <ele>322</ele>
        <time>2012-12-02T08:43:32Z</time>
      </trkpt>
      <trkpt lat="43.51477" lon="6.32682">
        <ele>322</ele>
        <time>2012-12-02T08:43:35Z</time>
      </trkpt>
      <trkpt lat="43.5148" lon="6.32683">
        <ele>322</ele>
        <time>2012-12-02T08:43:37Z</time>
      </trkpt>
      <trkpt lat="43.51487" lon="6.32682">
        <ele>322</ele>
        <time>2012-12-02T08:43:40Z</time>
      </trkpt>
      <trkpt lat="43.51489" lon="6.32683">
        <ele>323</ele>
        <time>2012-12-02T08:43:41Z</time>
      </trkpt>
      <trkpt lat="43.51492" lon="6.32682">
        <ele>323</ele>
        <time>2012-12-02T08:43:42Z</time>
      </trkpt>
      <trkpt lat="43.51495" lon="6.32682">
        <ele>324</ele>
        <time>2012-12-02T08:43:43Z</time>
      </trkpt>
      <trkpt lat="43.51498" lon="6.32683">
        <ele>324</ele>
        <time>2012-12-02T08:43:44Z</time>
      </trkpt>
      <trkpt lat="43.51509" lon="6.32683">
        <ele>324</ele>
        <time>2012-12-02T08:43:48Z</time>
      </trkpt>
      <trkpt lat="43.51513" lon="6.32683">
        <ele>325</ele>
        <time>2012-12-02T08:43:50Z</time>
      </trkpt>
      <trkpt lat="43.51515" lon="6.32683">
        <ele>325</ele>
        <time>2012-12-02T08:43:51Z</time>
      </trkpt>
      <trkpt lat="43.51517" lon="6.32683">
        <ele>325</ele>
        <time>2012-12-02T08:43:52Z</time>
      </trkpt>
      <trkpt lat="43.5152" lon="6.32683">
        <ele>326</ele>
        <time>2012-12-02T08:43:53Z</time>
      </trkpt>
      <trkpt lat="43.51523" lon="6.32683">
        <ele>326</ele>
        <time>2012-12-02T08:43:54Z</time>
      </trkpt>
      <trkpt lat="43.51525" lon="6.32683">
        <ele>326</ele>
        <time>2012-12-02T08:43:55Z</time>
      </trkpt>
      <trkpt lat="43.51539" lon="6.32681">
        <ele>326</ele>
        <time>2012-12-02T08:44:01Z</time>
      </trkpt>
      <trkpt lat="43.51544" lon="6.32681">
        <ele>327</ele>
        <time>2012-12-02T08:44:03Z</time>
      </trkpt>
      <trkpt lat="43.51546" lon="6.32681">
        <ele>327</ele>
        <time>2012-12-02T08:44:04Z</time>
      </trkpt>
      <trkpt lat="43.51549" lon="6.32681">
        <ele>328</ele>
        <time>2012-12-02T08:44:05Z</time>
      </trkpt>
      <trkpt lat="43.51551" lon="6.3268">
        <ele>328</ele>
        <time>2012-12-02T08:44:06Z</time>
      </trkpt>
      <trkpt lat="43.51554" lon="6.3268">
        <ele>328</ele>
        <time>2012-12-02T08:44:07Z</time>
      </trkpt>
      <trkpt lat="43.51556" lon="6.32679">
        <ele>328</ele>
        <time>2012-12-02T08:44:08Z</time>
      </trkpt>
      <trkpt lat="43.51568" lon="6.32681">
        <ele>329</ele>
        <time>2012-12-02T08:44:13Z</time>
      </trkpt>
      <trkpt lat="43.51571" lon="6.32681">
        <ele>329</ele>
        <time>2012-12-02T08:44:14Z</time>
      </trkpt>
      <trkpt lat="43.51574" lon="6.32681">
        <ele>330</ele>
        <time>2012-12-02T08:44:15Z</time>
      </trkpt>
      <trkpt lat="43.51577" lon="6.32681">
        <ele>330</ele>
        <time>2012-12-02T08:44:16Z</time>
      </trkpt>
      <trkpt lat="43.5158" lon="6.32681">
        <ele>330</ele>
        <time>2012-12-02T08:44:17Z</time>
      </trkpt>
      <trkpt lat="43.51584" lon="6.32679">
        <ele>330</ele>
        <time>2012-12-02T08:44:19Z</time>
      </trkpt>
      <trkpt lat="43.51593" lon="6.32678">
        <ele>331</ele>
        <time>2012-12-02T08:44:23Z</time>
      </trkpt>
      <trkpt lat="43.51596" lon="6.32678">
        <ele>331</ele>
        <time>2012-12-02T08:44:24Z</time>
      </trkpt>
      <trkpt lat="43.51599" lon="6.32678">
        <ele>332</ele>
        <time>2012-12-02T08:44:25Z</time>
      </trkpt>
      <trkpt lat="43.51601" lon="6.32678">
        <ele>332</ele>
        <time>2012-12-02T08:44:26Z</time>
      </trkpt>
      <trkpt lat="43.51604" lon="6.32678">
        <ele>333</ele>
        <time>2012-12-02T08:44:27Z</time>
      </trkpt>
      <trkpt lat="43.51613" lon="6.32677">
        <ele>333</ele>
        <time>2012-12-02T08:44:31Z</time>
      </trkpt>
      <trkpt lat="43.51615" lon="6.32677">
        <ele>333</ele>
        <time>2012-12-02T08:44:32Z</time>
      </trkpt>
      <trkpt lat="43.51617" lon="6.32677">
        <ele>334</ele>
        <time>2012-12-02T08:44:33Z</time>
      </trkpt>
      <trkpt lat="43.5162" lon="6.32677">
        <ele>334</ele>
        <time>2012-12-02T08:44:34Z</time>
      </trkpt>
      <trkpt lat="43.51622" lon="6.32677">
        <ele>335</ele>
        <time>2012-12-02T08:44:35Z</time>
      </trkpt>
      <trkpt lat="43.51626" lon="6.32678">
        <ele>335</ele>
        <time>2012-12-02T08:44:38Z</time>
      </trkpt>
      <trkpt lat="43.51633" lon="6.32679">
        <ele>335</ele>
        <time>2012-12-02T08:44:42Z</time>
      </trkpt>
      <trkpt lat="43.51636" lon="6.3268">
        <ele>335</ele>
        <time>2012-12-02T08:44:44Z</time>
      </trkpt>
      <trkpt lat="43.51641" lon="6.3268">
        <ele>335</ele>
        <time>2012-12-02T08:44:49Z</time>
      </trkpt>
      <trkpt lat="43.5165" lon="6.32683">
        <ele>337</ele>
        <time>2012-12-02T08:46:21Z</time>
      </trkpt>
      <trkpt lat="43.5166" lon="6.32686">
        <ele>337</ele>
        <time>2012-12-02T08:46:26Z</time>
      </trkpt>
      <trkpt lat="43.51673" lon="6.32688">
        <ele>337</ele>
        <time>2012-12-02T08:46:33Z</time>
      </trkpt>
      <trkpt lat="43.51682" lon="6.32692">
        <ele>337</ele>
        <time>2012-12-02T08:46:39Z</time>
      </trkpt>
      <trkpt lat="43.51689" lon="6.32693">
        <ele>337</ele>
        <time>2012-12-02T08:46:44Z</time>
      </trkpt>
      <trkpt lat="43.51692" lon="6.32692">
        <ele>337</ele>
        <time>2012-12-02T08:46:46Z</time>
      </trkpt>
      <trkpt lat="43.51697" lon="6.32687">
        <ele>337</ele>
        <time>2012-12-02T08:46:49Z</time>
      </trkpt>
      <trkpt lat="43.51704" lon="6.32679">
        <ele>337</ele>
        <time>2012-12-02T08:46:52Z</time>
      </trkpt>
      <trkpt lat="43.5172" lon="6.32656">
        <ele>337</ele>
        <time>2012-12-02T08:46:59Z</time>
      </trkpt>
      <trkpt lat="43.51729" lon="6.32633">
        <ele>337</ele>
        <time>2012-12-02T08:47:05Z</time>
      </trkpt>
      <trkpt lat="43.51736" lon="6.32604">
        <ele>337</ele>
        <time>2012-12-02T08:47:12Z</time>
      </trkpt>
      <trkpt lat="43.51743" lon="6.32584">
        <ele>337</ele>
        <time>2012-12-02T08:47:18Z</time>
      </trkpt>
      <trkpt lat="43.5175" lon="6.32557">
        <ele>337</ele>
        <time>2012-12-02T08:47:25Z</time>
      </trkpt>
      <trkpt lat="43.51753" lon="6.32529">
        <ele>337</ele>
        <time>2012-12-02T08:47:32Z</time>
      </trkpt>
      <trkpt lat="43.51752" lon="6.32507">
        <ele>337</ele>
        <time>2012-12-02T08:47:38Z</time>
      </trkpt>
      <trkpt lat="43.51751" lon="6.32505">
        <ele>337</ele>
        <time>2012-12-02T08:47:39Z</time>
      </trkpt>
      <trkpt lat="43.51751" lon="6.32503">
        <ele>337</ele>
        <time>2012-12-02T08:47:40Z</time>
      </trkpt>
      <trkpt lat="43.5175" lon="6.325">
        <ele>338</ele>
        <time>2012-12-02T08:47:41Z</time>
      </trkpt>
      <trkpt lat="43.51749" lon="6.32497">
        <ele>339</ele>
        <time>2012-12-02T08:47:42Z</time>
      </trkpt>
      <trkpt lat="43.51746" lon="6.32489">
        <ele>339</ele>
        <time>2012-12-02T08:47:44Z</time>
      </trkpt>
      <trkpt lat="43.51739" lon="6.32461">
        <ele>339</ele>
        <time>2012-12-02T08:47:50Z</time>
      </trkpt>
      <trkpt lat="43.51741" lon="6.32452">
        <ele>339</ele>
        <time>2012-12-02T08:47:52Z</time>
      </trkpt>
      <trkpt lat="43.51743" lon="6.32448">
        <ele>339</ele>
        <time>2012-12-02T08:47:53Z</time>
      </trkpt>
      <trkpt lat="43.51748" lon="6.32422">
        <ele>339</ele>
        <time>2012-12-02T08:47:58Z</time>
      </trkpt>
      <trkpt lat="43.51753" lon="6.32405">
        <ele>338</ele>
        <time>2012-12-02T08:48:02Z</time>
      </trkpt>
      <trkpt lat="43.51754" lon="6.32403">
        <ele>338</ele>
        <time>2012-12-02T08:48:03Z</time>
      </trkpt>
      <trkpt lat="43.51755" lon="6.32401">
        <ele>337</ele>
        <time>2012-12-02T08:48:04Z</time>
      </trkpt>
      <trkpt lat="43.51756" lon="6.32398">
        <ele>337</ele>
        <time>2012-12-02T08:48:05Z</time>
      </trkpt>
      <trkpt lat="43.51761" lon="6.32387">
        <ele>337</ele>
        <time>2012-12-02T08:48:09Z</time>
      </trkpt>
      <trkpt lat="43.51769" lon="6.32366">
        <ele>336</ele>
        <time>2012-12-02T08:48:15Z</time>
      </trkpt>
      <trkpt lat="43.5177" lon="6.32362">
        <ele>336</ele>
        <time>2012-12-02T08:48:16Z</time>
      </trkpt>
      <trkpt lat="43.51771" lon="6.32357">
        <ele>335</ele>
        <time>2012-12-02T08:48:17Z</time>
      </trkpt>
      <trkpt lat="43.51772" lon="6.32353">
        <ele>335</ele>
        <time>2012-12-02T08:48:18Z</time>
      </trkpt>
      <trkpt lat="43.51772" lon="6.32348">
        <ele>335</ele>
        <time>2012-12-02T08:48:19Z</time>
      </trkpt>
      <trkpt lat="43.51773" lon="6.32335">
        <ele>335</ele>
        <time>2012-12-02T08:48:22Z</time>
      </trkpt>
      <trkpt lat="43.51772" lon="6.32331">
        <ele>335</ele>
        <time>2012-12-02T08:48:24Z</time>
      </trkpt>
      <trkpt lat="43.51771" lon="6.3233">
        <ele>335</ele>
        <time>2012-12-02T08:48:26Z</time>
      </trkpt>
      <trkpt lat="43.51769" lon="6.3233">
        <ele>335</ele>
        <time>2012-12-02T08:48:34Z</time>
      </trkpt>
      <trkpt lat="43.51762" lon="6.32325">
        <ele>335</ele>
        <time>2012-12-02T08:48:36Z</time>
      </trkpt>
      <trkpt lat="43.51754" lon="6.32321">
        <ele>335</ele>
        <time>2012-12-02T08:48:38Z</time>
      </trkpt>
      <trkpt lat="43.51744" lon="6.32312">
        <ele>335</ele>
        <time>2012-12-02T08:48:41Z</time>
      </trkpt>
      <trkpt lat="43.5174" lon="6.32308">
        <ele>335</ele>
        <time>2012-12-02T08:48:42Z</time>
      </trkpt>
      <trkpt lat="43.51731" lon="6.32295">
        <ele>335</ele>
        <time>2012-12-02T08:48:45Z</time>
      </trkpt>
      <trkpt lat="43.51728" lon="6.32291">
        <ele>335</ele>
        <time>2012-12-02T08:48:46Z</time>
      </trkpt>
      <trkpt lat="43.51707" lon="6.32267">
        <ele>335</ele>
        <time>2012-12-02T08:48:52Z</time>
      </trkpt>
      <trkpt lat="43.51705" lon="6.32262">
        <ele>334</ele>
        <time>2012-12-02T08:48:53Z</time>
      </trkpt>
      <trkpt lat="43.51702" lon="6.32256">
        <ele>333</ele>
        <time>2012-12-02T08:48:54Z</time>
      </trkpt>
      <trkpt lat="43.517" lon="6.3225">
        <ele>332</ele>
        <time>2012-12-02T08:48:55Z</time>
      </trkpt>
      <trkpt lat="43.51698" lon="6.32245">
        <ele>332</ele>
        <time>2012-12-02T08:48:56Z</time>
      </trkpt>
      <trkpt lat="43.51695" lon="6.32233">
        <ele>332</ele>
        <time>2012-12-02T08:48:58Z</time>
      </trkpt>
      <trkpt lat="43.51692" lon="6.32226">
        <ele>331</ele>
        <time>2012-12-02T08:48:59Z</time>
      </trkpt>
      <trkpt lat="43.51691" lon="6.3222">
        <ele>331</ele>
        <time>2012-12-02T08:49:00Z</time>
      </trkpt>
      <trkpt lat="43.51689" lon="6.32214">
        <ele>330</ele>
        <time>2012-12-02T08:49:01Z</time>
      </trkpt>
      <trkpt lat="43.51687" lon="6.32208">
        <ele>330</ele>
        <time>2012-12-02T08:49:02Z</time>
      </trkpt>
      <trkpt lat="43.51686" lon="6.322">
        <ele>330</ele>
        <time>2012-12-02T08:49:03Z</time>
      </trkpt>
      <trkpt lat="43.51683" lon="6.32185">
        <ele>329</ele>
        <time>2012-12-02T08:49:05Z</time>
      </trkpt>
      <trkpt lat="43.51682" lon="6.32176">
        <ele>329</ele>
        <time>2012-12-02T08:49:06Z</time>
      </trkpt>
      <trkpt lat="43.51682" lon="6.32169">
        <ele>328</ele>
        <time>2012-12-02T08:49:07Z</time>
      </trkpt>
      <trkpt lat="43.51682" lon="6.32161">
        <ele>328</ele>
        <time>2012-12-02T08:49:08Z</time>
      </trkpt>
      <trkpt lat="43.51681" lon="6.32154">
        <ele>328</ele>
        <time>2012-12-02T08:49:09Z</time>
      </trkpt>
      <trkpt lat="43.5168" lon="6.32118">
        <ele>327</ele>
        <time>2012-12-02T08:49:14Z</time>
      </trkpt>
      <trkpt lat="43.51681" lon="6.32112">
        <ele>327</ele>
        <time>2012-12-02T08:49:15Z</time>
      </trkpt>
      <trkpt lat="43.51682" lon="6.32104">
        <ele>326</ele>
        <time>2012-12-02T08:49:16Z</time>
      </trkpt>
      <trkpt lat="43.51684" lon="6.32098">
        <ele>326</ele>
        <time>2012-12-02T08:49:17Z</time>
      </trkpt>
      <trkpt lat="43.51685" lon="6.32092">
        <ele>325</ele>
        <time>2012-12-02T08:49:18Z</time>
      </trkpt>
      <trkpt lat="43.51687" lon="6.32079">
        <ele>325</ele>
        <time>2012-12-02T08:49:20Z</time>
      </trkpt>
      <trkpt lat="43.51687" lon="6.32073">
        <ele>325</ele>
        <time>2012-12-02T08:49:21Z</time>
      </trkpt>
      <trkpt lat="43.51688" lon="6.3206">
        <ele>325</ele>
        <time>2012-12-02T08:49:23Z</time>
      </trkpt>
      <trkpt lat="43.51687" lon="6.32049">
        <ele>325</ele>
        <time>2012-12-02T08:49:25Z</time>
      </trkpt>
      <trkpt lat="43.51687" lon="6.32042">
        <ele>325</ele>
        <time>2012-12-02T08:49:26Z</time>
      </trkpt>
      <trkpt lat="43.51687" lon="6.32036">
        <ele>325</ele>
        <time>2012-12-02T08:49:27Z</time>
      </trkpt>
      <trkpt lat="43.51687" lon="6.32029">
        <ele>324</ele>
        <time>2012-12-02T08:49:28Z</time>
      </trkpt>
      <trkpt lat="43.51687" lon="6.32022">
        <ele>324</ele>
        <time>2012-12-02T08:49:29Z</time>
      </trkpt>
      <trkpt lat="43.51687" lon="6.32014">
        <ele>323</ele>
        <time>2012-12-02T08:49:30Z</time>
      </trkpt>
      <trkpt lat="43.51688" lon="6.32006">
        <ele>323</ele>
        <time>2012-12-02T08:49:31Z</time>
      </trkpt>
      <trkpt lat="43.51689" lon="6.31998">
        <ele>322</ele>
        <time>2012-12-02T08:49:32Z</time>
      </trkpt>
      <trkpt lat="43.5169" lon="6.31989">
        <ele>322</ele>
        <time>2012-12-02T08:49:33Z</time>
      </trkpt>
      <trkpt lat="43.51691" lon="6.3198">
        <ele>322</ele>
        <time>2012-12-02T08:49:34Z</time>
      </trkpt>
      <trkpt lat="43.51693" lon="6.31969">
        <ele>321</ele>
        <time>2012-12-02T08:49:35Z</time>
      </trkpt>
      <trkpt lat="43.51695" lon="6.31957">
        <ele>320</ele>
        <time>2012-12-02T08:49:36Z</time>
      </trkpt>
      <trkpt lat="43.51698" lon="6.31946">
        <ele>320</ele>
        <time>2012-12-02T08:49:37Z</time>
      </trkpt>
      <trkpt lat="43.51701" lon="6.31934">
        <ele>319</ele>
        <time>2012-12-02T08:49:38Z</time>
      </trkpt>
      <trkpt lat="43.51703" lon="6.31923">
        <ele>318</ele>
        <time>2012-12-02T08:49:39Z</time>
      </trkpt>
      <trkpt lat="43.51706" lon="6.31912">
        <ele>318</ele>
        <time>2012-12-02T08:49:40Z</time>
      </trkpt>
      <trkpt lat="43.51708" lon="6.31902">
        <ele>317</ele>
        <time>2012-12-02T08:49:41Z</time>
      </trkpt>
      <trkpt lat="43.51709" lon="6.31891">
        <ele>316</ele>
        <time>2012-12-02T08:49:42Z</time>
      </trkpt>
      <trkpt lat="43.51711" lon="6.3188">
        <ele>316</ele>
        <time>2012-12-02T08:49:43Z</time>
      </trkpt>
      <trkpt lat="43.51712" lon="6.31868">
        <ele>314</ele>
        <time>2012-12-02T08:49:44Z</time>
      </trkpt>
      <trkpt lat="43.51713" lon="6.31856">
        <ele>313</ele>
        <time>2012-12-02T08:49:45Z</time>
      </trkpt>
      <trkpt lat="43.51715" lon="6.31845">
        <ele>313</ele>
        <time>2012-12-02T08:49:46Z</time>
      </trkpt>
      <trkpt lat="43.51716" lon="6.31834">
        <ele>312</ele>
        <time>2012-12-02T08:49:47Z</time>
      </trkpt>
      <trkpt lat="43.51717" lon="6.31823">
        <ele>311</ele>
        <time>2012-12-02T08:49:48Z</time>
      </trkpt>
      <trkpt lat="43.51718" lon="6.31812">
        <ele>310</ele>
        <time>2012-12-02T08:49:49Z</time>
      </trkpt>
      <trkpt lat="43.51719" lon="6.31803">
        <ele>310</ele>
        <time>2012-12-02T08:49:50Z</time>
      </trkpt>
      <trkpt lat="43.5172" lon="6.31795">
        <ele>309</ele>
        <time>2012-12-02T08:49:51Z</time>
      </trkpt>
      <trkpt lat="43.51721" lon="6.31787">
        <ele>309</ele>
        <time>2012-12-02T08:49:52Z</time>
      </trkpt>
      <trkpt lat="43.51721" lon="6.31779">
        <ele>308</ele>
        <time>2012-12-02T08:49:53Z</time>
      </trkpt>
      <trkpt lat="43.51721" lon="6.31774">
        <ele>308</ele>
        <time>2012-12-02T08:49:54Z</time>
      </trkpt>
      <trkpt lat="43.51721" lon="6.31767">
        <ele>308</ele>
        <time>2012-12-02T08:49:55Z</time>
      </trkpt>
      <trkpt lat="43.51722" lon="6.31748">
        <ele>308</ele>
        <time>2012-12-02T08:49:58Z</time>
      </trkpt>
      <trkpt lat="43.51721" lon="6.31735">
        <ele>308</ele>
        <time>2012-12-02T08:50:00Z</time>
      </trkpt>
      <trkpt lat="43.51722" lon="6.31727">
        <ele>308</ele>
        <time>2012-12-02T08:50:01Z</time>
      </trkpt>
      <trkpt lat="43.51723" lon="6.31703">
        <ele>308</ele>
        <time>2012-12-02T08:50:04Z</time>
      </trkpt>
      <trkpt lat="43.51724" lon="6.31695">
        <ele>308</ele>
        <time>2012-12-02T08:50:05Z</time>
      </trkpt>
      <trkpt lat="43.51724" lon="6.31658">
        <ele>307</ele>
        <time>2012-12-02T08:50:09Z</time>
      </trkpt>
      <trkpt lat="43.51725" lon="6.31649">
        <ele>307</ele>
        <time>2012-12-02T08:50:10Z</time>
      </trkpt>
      <trkpt lat="43.51724" lon="6.31641">
        <ele>306</ele>
        <time>2012-12-02T08:50:11Z</time>
      </trkpt>
      <trkpt lat="43.51723" lon="6.31634">
        <ele>306</ele>
        <time>2012-12-02T08:50:12Z</time>
      </trkpt>
      <trkpt lat="43.51722" lon="6.31629">
        <ele>305</ele>
        <time>2012-12-02T08:50:13Z</time>
      </trkpt>
      <trkpt lat="43.51721" lon="6.31624">
        <ele>304</ele>
        <time>2012-12-02T08:50:14Z</time>
      </trkpt>
      <trkpt lat="43.51719" lon="6.31618">
        <ele>303</ele>
        <time>2012-12-02T08:50:15Z</time>
      </trkpt>
      <trkpt lat="43.51717" lon="6.31611">
        <ele>302</ele>
        <time>2012-12-02T08:50:16Z</time>
      </trkpt>
      <trkpt lat="43.51714" lon="6.31605">
        <ele>301</ele>
        <time>2012-12-02T08:50:17Z</time>
      </trkpt>
      <trkpt lat="43.5171" lon="6.316">
        <ele>300</ele>
        <time>2012-12-02T08:50:18Z</time>
      </trkpt>
      <trkpt lat="43.51707" lon="6.31595">
        <ele>300</ele>
        <time>2012-12-02T08:50:19Z</time>
      </trkpt>
      <trkpt lat="43.51692" lon="6.31571">
        <ele>300</ele>
        <time>2012-12-02T08:50:25Z</time>
      </trkpt>
      <trkpt lat="43.51692" lon="6.31561">
        <ele>300</ele>
        <time>2012-12-02T08:50:28Z</time>
      </trkpt>
      <trkpt lat="43.51695" lon="6.31556">
        <ele>300</ele>
        <time>2012-12-02T08:50:30Z</time>
      </trkpt>
      <trkpt lat="43.51699" lon="6.31551">
        <ele>300</ele>
        <time>2012-12-02T08:50:32Z</time>
      </trkpt>
      <trkpt lat="43.51704" lon="6.31546">
        <ele>301</ele>
        <time>2012-12-02T08:50:34Z</time>
      </trkpt>
      <trkpt lat="43.51706" lon="6.31543">
        <ele>301</ele>
        <time>2012-12-02T08:50:35Z</time>
      </trkpt>
      <trkpt lat="43.51707" lon="6.31539">
        <ele>302</ele>
        <time>2012-12-02T08:50:36Z</time>
      </trkpt>
      <trkpt lat="43.51708" lon="6.31535">
        <ele>302</ele>
        <time>2012-12-02T08:50:37Z</time>
      </trkpt>
      <trkpt lat="43.51709" lon="6.31532">
        <ele>302</ele>
        <time>2012-12-02T08:50:38Z</time>
      </trkpt>
      <trkpt lat="43.51712" lon="6.31519">
        <ele>302</ele>
        <time>2012-12-02T08:50:42Z</time>
      </trkpt>
      <trkpt lat="43.51716" lon="6.31507">
        <ele>302</ele>
        <time>2012-12-02T08:50:45Z</time>
      </trkpt>
      <trkpt lat="43.51717" lon="6.31505">
        <ele>302</ele>
        <time>2012-12-02T08:50:46Z</time>
      </trkpt>
      <trkpt lat="43.51718" lon="6.31501">
        <ele>301</ele>
        <time>2012-12-02T08:50:47Z</time>
      </trkpt>
      <trkpt lat="43.5172" lon="6.31498">
        <ele>301</ele>
        <time>2012-12-02T08:50:48Z</time>
      </trkpt>
      <trkpt lat="43.51721" lon="6.31494">
        <ele>300</ele>
        <time>2012-12-02T08:50:49Z</time>
      </trkpt>
      <trkpt lat="43.51727" lon="6.31475">
        <ele>300</ele>
        <time>2012-12-02T08:50:54Z</time>
      </trkpt>
      <trkpt lat="43.51734" lon="6.31455">
        <ele>300</ele>
        <time>2012-12-02T08:50:59Z</time>
      </trkpt>
      <trkpt lat="43.51746" lon="6.31426">
        <ele>300</ele>
        <time>2012-12-02T08:51:05Z</time>
      </trkpt>
      <trkpt lat="43.51757" lon="6.31401">
        <ele>300</ele>
        <time>2012-12-02T08:51:10Z</time>
      </trkpt>
      <trkpt lat="43.51768" lon="6.31372">
        <ele>300</ele>
        <time>2012-12-02T08:51:16Z</time>
      </trkpt>
      <trkpt lat="43.51771" lon="6.31362">
        <ele>300</ele>
        <time>2012-12-02T08:51:18Z</time>
      </trkpt>
      <trkpt lat="43.51773" lon="6.31346">
        <ele>300</ele>
        <time>2012-12-02T08:51:21Z</time>
      </trkpt>
      <trkpt lat="43.51777" lon="6.31324">
        <ele>300</ele>
        <time>2012-12-02T08:51:26Z</time>
      </trkpt>
      <trkpt lat="43.51782" lon="6.31313">
        <ele>300</ele>
        <time>2012-12-02T08:51:29Z</time>
      </trkpt>
      <trkpt lat="43.51783" lon="6.3131">
        <ele>300</ele>
        <time>2012-12-02T08:51:30Z</time>
      </trkpt>
      <trkpt lat="43.51784" lon="6.31305">
        <ele>299</ele>
        <time>2012-12-02T08:51:31Z</time>
      </trkpt>
      <trkpt lat="43.51785" lon="6.31301">
        <ele>299</ele>
        <time>2012-12-02T08:51:32Z</time>
      </trkpt>
      <trkpt lat="43.51786" lon="6.31297">
        <ele>298</ele>
        <time>2012-12-02T08:51:33Z</time>
      </trkpt>
      <trkpt lat="43.51796" lon="6.31269">
        <ele>298</ele>
        <time>2012-12-02T08:51:39Z</time>
      </trkpt>
      <trkpt lat="43.51803" lon="6.31244">
        <ele>298</ele>
        <time>2012-12-02T08:51:45Z</time>
      </trkpt>
      <trkpt lat="43.51805" lon="6.3123">
        <ele>298</ele>
        <time>2012-12-02T08:51:50Z</time>
      </trkpt>
      <trkpt lat="43.51808" lon="6.31226">
        <ele>298</ele>
        <time>2012-12-02T08:51:54Z</time>
      </trkpt>
      <trkpt lat="43.51811" lon="6.31221">
        <ele>296</ele>
        <time>2012-12-02T08:53:26Z</time>
      </trkpt>
      <trkpt lat="43.51816" lon="6.31217">
        <ele>296</ele>
        <time>2012-12-02T08:53:29Z</time>
      </trkpt>
      <trkpt lat="43.51818" lon="6.31215">
        <ele>296</ele>
        <time>2012-12-02T08:53:30Z</time>
      </trkpt>
      <trkpt lat="43.51829" lon="6.31217">
        <ele>296</ele>
        <time>2012-12-02T08:53:34Z</time>
      </trkpt>
      <trkpt lat="43.51841" lon="6.31223">
        <ele>296</ele>
        <time>2012-12-02T08:53:40Z</time>
      </trkpt>
      <trkpt lat="43.51856" lon="6.31228">
        <ele>296</ele>
        <time>2012-12-02T08:53:46Z</time>
      </trkpt>
      <trkpt lat="43.51858" lon="6.31228">
        <ele>297</ele>
        <time>2012-12-02T08:53:47Z</time>
      </trkpt>
      <trkpt lat="43.5186" lon="6.31229">
        <ele>297</ele>
        <time>2012-12-02T08:53:48Z</time>
      </trkpt>
      <trkpt lat="43.51863" lon="6.31229">
        <ele>297</ele>
        <time>2012-12-02T08:53:49Z</time>
      </trkpt>
      <trkpt lat="43.51866" lon="6.31229">
        <ele>298</ele>
        <time>2012-12-02T08:53:50Z</time>
      </trkpt>
      <trkpt lat="43.51868" lon="6.31228">
        <ele>298</ele>
        <time>2012-12-02T08:53:51Z</time>
      </trkpt>
      <trkpt lat="43.51871" lon="6.31227">
        <ele>298</ele>
        <time>2012-12-02T08:53:52Z</time>
      </trkpt>
      <trkpt lat="43.5189" lon="6.31226">
        <ele>298</ele>
        <time>2012-12-02T08:53:58Z</time>
      </trkpt>
      <trkpt lat="43.51898" lon="6.31227">
        <ele>299</ele>
        <time>2012-12-02T08:54:00Z</time>
      </trkpt>
      <trkpt lat="43.51902" lon="6.31227">
        <ele>299</ele>
        <time>2012-12-02T08:54:01Z</time>
      </trkpt>
      <trkpt lat="43.51906" lon="6.31227">
        <ele>300</ele>
        <time>2012-12-02T08:54:02Z</time>
      </trkpt>
      <trkpt lat="43.51909" lon="6.31227">
        <ele>300</ele>
        <time>2012-12-02T08:54:03Z</time>
      </trkpt>
      <trkpt lat="43.51913" lon="6.31226">
        <ele>301</ele>
        <time>2012-12-02T08:54:04Z</time>
      </trkpt>
      <trkpt lat="43.51928" lon="6.31225">
        <ele>301</ele>
        <time>2012-12-02T08:54:08Z</time>
      </trkpt>
      <trkpt lat="43.51935" lon="6.31224">
        <ele>301</ele>
        <time>2012-12-02T08:54:10Z</time>
      </trkpt>
      <trkpt lat="43.51938" lon="6.31224">
        <ele>301</ele>
        <time>2012-12-02T08:54:11Z</time>
      </trkpt>
      <trkpt lat="43.51941" lon="6.31224">
        <ele>302</ele>
        <time>2012-12-02T08:54:12Z</time>
      </trkpt>
      <trkpt lat="43.51945" lon="6.31223">
        <ele>302</ele>
        <time>2012-12-02T08:54:13Z</time>
      </trkpt>
      <trkpt lat="43.51948" lon="6.31222">
        <ele>303</ele>
        <time>2012-12-02T08:54:14Z</time>
      </trkpt>
      <trkpt lat="43.51951" lon="6.3122">
        <ele>303</ele>
        <time>2012-12-02T08:54:15Z</time>
      </trkpt>
      <trkpt lat="43.51952" lon="6.31217">
        <ele>304</ele>
        <time>2012-12-02T08:54:16Z</time>
      </trkpt>
      <trkpt lat="43.51954" lon="6.31215">
        <ele>304</ele>
        <time>2012-12-02T08:54:17Z</time>
      </trkpt>
      <trkpt lat="43.51957" lon="6.31214">
        <ele>305</ele>
        <time>2012-12-02T08:54:18Z</time>
      </trkpt>
      <trkpt lat="43.5196" lon="6.31214">
        <ele>305</ele>
        <time>2012-12-02T08:54:19Z</time>
      </trkpt>
      <trkpt lat="43.51963" lon="6.31214">
        <ele>305</ele>
        <time>2012-12-02T08:54:20Z</time>
      </trkpt>
      <trkpt lat="43.51965" lon="6.31213">
        <ele>306</ele>
        <time>2012-12-02T08:54:21Z</time>
      </trkpt>
      <trkpt lat="43.51968" lon="6.31215">
        <ele>306</ele>
        <time>2012-12-02T08:54:22Z</time>
      </trkpt>
      <trkpt lat="43.51971" lon="6.31217">
        <ele>307</ele>
        <time>2012-12-02T08:54:23Z</time>
      </trkpt>
      <trkpt lat="43.51973" lon="6.3122">
        <ele>307</ele>
        <time>2012-12-02T08:54:24Z</time>
      </trkpt>
      <trkpt lat="43.51988" lon="6.3123">
        <ele>307</ele>
        <time>2012-12-02T08:54:29Z</time>
      </trkpt>
      <trkpt lat="43.51999" lon="6.31241">
        <ele>308</ele>
        <time>2012-12-02T08:54:33Z</time>
      </trkpt>
      <trkpt lat="43.52002" lon="6.31243">
        <ele>308</ele>
        <time>2012-12-02T08:54:34Z</time>
      </trkpt>
      <trkpt lat="43.52005" lon="6.31245">
        <ele>308</ele>
        <time>2012-12-02T08:54:35Z</time>
      </trkpt>
      <trkpt lat="43.52008" lon="6.31246">
        <ele>309</ele>
        <time>2012-12-02T08:54:36Z</time>
      </trkpt>
      <trkpt lat="43.52011" lon="6.31247">
        <ele>309</ele>
        <time>2012-12-02T08:54:37Z</time>
      </trkpt>
      <trkpt lat="43.52018" lon="6.31245">
        <ele>309</ele>
        <time>2012-12-02T08:54:40Z</time>
      </trkpt>
      <trkpt lat="43.52027" lon="6.31238">
        <ele>310</ele>
        <time>2012-12-02T08:54:44Z</time>
      </trkpt>
      <trkpt lat="43.52029" lon="6.31237">
        <ele>310</ele>
        <time>2012-12-02T08:54:45Z</time>
      </trkpt>
      <trkpt lat="43.52031" lon="6.31236">
        <ele>311</ele>
        <time>2012-12-02T08:54:46Z</time>
      </trkpt>
      <trkpt lat="43.52032" lon="6.31234">
        <ele>311</ele>
        <time>2012-12-02T08:54:47Z</time>
      </trkpt>
      <trkpt lat="43.52033" lon="6.31232">
        <ele>312</ele>
        <time>2012-12-02T08:54:48Z</time>
      </trkpt>
      <trkpt lat="43.52035" lon="6.3123">
        <ele>312</ele>
        <time>2012-12-02T08:54:49Z</time>
      </trkpt>
      <trkpt lat="43.52036" lon="6.31228">
        <ele>313</ele>
        <time>2012-12-02T08:54:50Z</time>
      </trkpt>
      <trkpt lat="43.52038" lon="6.31226">
        <ele>313</ele>
        <time>2012-12-02T08:54:51Z</time>
      </trkpt>
      <trkpt lat="43.52039" lon="6.31224">
        <ele>314</ele>
        <time>2012-12-02T08:54:52Z</time>
      </trkpt>
      <trkpt lat="43.5204" lon="6.31221">
        <ele>314</ele>
        <time>2012-12-02T08:54:53Z</time>
      </trkpt>
      <trkpt lat="43.52048" lon="6.31206">
        <ele>314</ele>
        <time>2012-12-02T08:55:00Z</time>
      </trkpt>
      <trkpt lat="43.52052" lon="6.31201">
        <ele>314</ele>
        <time>2012-12-02T08:55:03Z</time>
      </trkpt>
      <trkpt lat="43.52054" lon="6.312">
        <ele>315</ele>
        <time>2012-12-02T08:55:04Z</time>
      </trkpt>
      <trkpt lat="43.52055" lon="6.31199">
        <ele>315</ele>
        <time>2012-12-02T08:55:05Z</time>
      </trkpt>
      <trkpt lat="43.52056" lon="6.31199">
        <ele>316</ele>
        <time>2012-12-02T08:55:06Z</time>
      </trkpt>
      <trkpt lat="43.52057" lon="6.31198">
        <ele>316</ele>
        <time>2012-12-02T08:55:07Z</time>
      </trkpt>
      <trkpt lat="43.52058" lon="6.31197">
        <ele>316</ele>
        <time>2012-12-02T08:55:08Z</time>
      </trkpt>
      <trkpt lat="43.52059" lon="6.31194">
        <ele>316</ele>
        <time>2012-12-02T08:55:10Z</time>
      </trkpt>
      <trkpt lat="43.52059" lon="6.31191">
        <ele>316</ele>
        <time>2012-12-02T08:55:12Z</time>
      </trkpt>
      <trkpt lat="43.5206" lon="6.31188">
        <ele>316</ele>
        <time>2012-12-02T08:55:14Z</time>
      </trkpt>
      <trkpt lat="43.52062" lon="6.31185">
        <ele>316</ele>
        <time>2012-12-02T08:55:17Z</time>
      </trkpt>
      <trkpt lat="43.52064" lon="6.31181">
        <ele>316</ele>
        <time>2012-12-02T08:55:20Z</time>
      </trkpt>
      <trkpt lat="43.52064" lon="6.3118">
        <ele>316</ele>
        <time>2012-12-02T08:55:22Z</time>
      </trkpt>
      <trkpt lat="43.52065" lon="6.31174">
        <ele>318</ele>
        <time>2012-12-02T08:55:46Z</time>
      </trkpt>
      <trkpt lat="43.52067" lon="6.31173">
        <ele>318</ele>
        <time>2012-12-02T08:55:47Z</time>
      </trkpt>
      <trkpt lat="43.52073" lon="6.31161">
        <ele>318</ele>
        <time>2012-12-02T08:55:52Z</time>
      </trkpt>
      <trkpt lat="43.52083" lon="6.31146">
        <ele>318</ele>
        <time>2012-12-02T08:55:57Z</time>
      </trkpt>
      <trkpt lat="43.52097" lon="6.31135">
        <ele>318</ele>
        <time>2012-12-02T08:56:03Z</time>
      </trkpt>
      <trkpt lat="43.52099" lon="6.31134">
        <ele>318</ele>
        <time>2012-12-02T08:56:04Z</time>
      </trkpt>
      <trkpt lat="43.52103" lon="6.31132">
        <ele>319</ele>
        <time>2012-12-02T08:56:05Z</time>
      </trkpt>
      <trkpt lat="43.52106" lon="6.3113">
        <ele>319</ele>
        <time>2012-12-02T08:56:06Z</time>
      </trkpt>
      <trkpt lat="43.52109" lon="6.31128">
        <ele>320</ele>
        <time>2012-12-02T08:56:07Z</time>
      </trkpt>
      <trkpt lat="43.52112" lon="6.31126">
        <ele>320</ele>
        <time>2012-12-02T08:56:08Z</time>
      </trkpt>
      <trkpt lat="43.52133" lon="6.31111">
        <ele>320</ele>
        <time>2012-12-02T08:56:16Z</time>
      </trkpt>
      <trkpt lat="43.52144" lon="6.31093">
        <ele>320</ele>
        <time>2012-12-02T08:56:21Z</time>
      </trkpt>
      <trkpt lat="43.52159" lon="6.31077">
        <ele>320</ele>
        <time>2012-12-02T08:56:26Z</time>
      </trkpt>
      <trkpt lat="43.52162" lon="6.31073">
        <ele>320</ele>
        <time>2012-12-02T08:56:27Z</time>
      </trkpt>
      <trkpt lat="43.52177" lon="6.31044">
        <ele>320</ele>
        <time>2012-12-02T08:56:34Z</time>
      </trkpt>
      <trkpt lat="43.5219" lon="6.31017">
        <ele>320</ele>
        <time>2012-12-02T08:56:41Z</time>
      </trkpt>
      <trkpt lat="43.52193" lon="6.31009">
        <ele>320</ele>
        <time>2012-12-02T08:56:43Z</time>
      </trkpt>
      <trkpt lat="43.52204" lon="6.30989">
        <ele>320</ele>
        <time>2012-12-02T08:56:48Z</time>
      </trkpt>
      <trkpt lat="43.52206" lon="6.30985">
        <ele>321</ele>
        <time>2012-12-02T08:56:49Z</time>
      </trkpt>
      <trkpt lat="43.52208" lon="6.30981">
        <ele>321</ele>
        <time>2012-12-02T08:56:50Z</time>
      </trkpt>
      <trkpt lat="43.5221" lon="6.30977">
        <ele>321</ele>
        <time>2012-12-02T08:56:51Z</time>
      </trkpt>
      <trkpt lat="43.52212" lon="6.30973">
        <ele>322</ele>
        <time>2012-12-02T08:56:52Z</time>
      </trkpt>
      <trkpt lat="43.52214" lon="6.30969">
        <ele>322</ele>
        <time>2012-12-02T08:56:53Z</time>
      </trkpt>
      <trkpt lat="43.5223" lon="6.30934">
        <ele>322</ele>
        <time>2012-12-02T08:57:00Z</time>
      </trkpt>
      <trkpt lat="43.52245" lon="6.30903">
        <ele>322</ele>
        <time>2012-12-02T08:57:06Z</time>
      </trkpt>
      <trkpt lat="43.52256" lon="6.3088">
        <ele>322</ele>
        <time>2012-12-02T08:57:10Z</time>
      </trkpt>
      <trkpt lat="43.52258" lon="6.30875">
        <ele>321</ele>
        <time>2012-12-02T08:57:11Z</time>
      </trkpt>
      <trkpt lat="43.52259" lon="6.3087">
        <ele>321</ele>
        <time>2012-12-02T08:57:12Z</time>
      </trkpt>
      <trkpt lat="43.52261" lon="6.30866">
        <ele>321</ele>
        <time>2012-12-02T08:57:13Z</time>
      </trkpt>
      <trkpt lat="43.52262" lon="6.30863">
        <ele>320</ele>
        <time>2012-12-02T08:57:14Z</time>
      </trkpt>
      <trkpt lat="43.52263" lon="6.30861">
        <ele>320</ele>
        <time>2012-12-02T08:57:17Z</time>
      </trkpt>
      <trkpt lat="43.52263" lon="6.3086">
        <ele>320</ele>
        <time>2012-12-02T08:57:18Z</time>
      </trkpt>
      <trkpt lat="43.52263" lon="6.30857">
        <ele>318</ele>
        <time>2012-12-02T08:58:27Z</time>
      </trkpt>
      <trkpt lat="43.52263" lon="6.30853">
        <ele>318</ele>
        <time>2012-12-02T08:58:29Z</time>
      </trkpt>
      <trkpt lat="43.5227" lon="6.30842">
        <ele>318</ele>
        <time>2012-12-02T08:58:33Z</time>
      </trkpt>
      <trkpt lat="43.52281" lon="6.30831">
        <ele>318</ele>
        <time>2012-12-02T08:58:37Z</time>
      </trkpt>
      <trkpt lat="43.52283" lon="6.30829">
        <ele>318</ele>
        <time>2012-12-02T08:58:38Z</time>
      </trkpt>
      <trkpt lat="43.52288" lon="6.30823">
        <ele>318</ele>
        <time>2012-12-02T08:58:40Z</time>
      </trkpt>
      <trkpt lat="43.5229" lon="6.3082">
        <ele>317</ele>
        <time>2012-12-02T08:58:41Z</time>
      </trkpt>
      <trkpt lat="43.52293" lon="6.30816">
        <ele>317</ele>
        <time>2012-12-02T08:58:42Z</time>
      </trkpt>
      <trkpt lat="43.52295" lon="6.30811">
        <ele>317</ele>
        <time>2012-12-02T08:58:43Z</time>
      </trkpt>
      <trkpt lat="43.52296" lon="6.30806">
        <ele>316</ele>
        <time>2012-12-02T08:58:44Z</time>
      </trkpt>
      <trkpt lat="43.52299" lon="6.30799">
        <ele>316</ele>
        <time>2012-12-02T08:58:45Z</time>
      </trkpt>
      <trkpt lat="43.52307" lon="6.30776">
        <ele>316</ele>
        <time>2012-12-02T08:58:50Z</time>
      </trkpt>
      <trkpt lat="43.52316" lon="6.30746">
        <ele>316</ele>
        <time>2012-12-02T08:58:56Z</time>
      </trkpt>
      <trkpt lat="43.52324" lon="6.30714">
        <ele>316</ele>
        <time>2012-12-02T08:59:03Z</time>
      </trkpt>
      <trkpt lat="43.52333" lon="6.30689">
        <ele>316</ele>
        <time>2012-12-02T08:59:09Z</time>
      </trkpt>
      <trkpt lat="43.52336" lon="6.3066">
        <ele>316</ele>
        <time>2012-12-02T08:59:15Z</time>
      </trkpt>
      <trkpt lat="43.52339" lon="6.30636">
        <ele>316</ele>
        <time>2012-12-02T08:59:19Z</time>
      </trkpt>
      <trkpt lat="43.5234" lon="6.3063">
        <ele>315</ele>
        <time>2012-12-02T08:59:20Z</time>
      </trkpt>
      <trkpt lat="43.52341" lon="6.30623">
        <ele>315</ele>
        <time>2012-12-02T08:59:21Z</time>
      </trkpt>
      <trkpt lat="43.52343" lon="6.30617">
        <ele>315</ele>
        <time>2012-12-02T08:59:22Z</time>
      </trkpt>
      <trkpt lat="43.52345" lon="6.3061">
        <ele>314</ele>
        <time>2012-12-02T08:59:23Z</time>
      </trkpt>
      <trkpt lat="43.52348" lon="6.30603">
        <ele>314</ele>
        <time>2012-12-02T08:59:24Z</time>
      </trkpt>
      <trkpt lat="43.52354" lon="6.30592">
        <ele>314</ele>
        <time>2012-12-02T08:59:26Z</time>
      </trkpt>
      <trkpt lat="43.52358" lon="6.30587">
        <ele>314</ele>
        <time>2012-12-02T08:59:27Z</time>
      </trkpt>
      <trkpt lat="43.52363" lon="6.30583">
        <ele>313</ele>
        <time>2012-12-02T08:59:28Z</time>
      </trkpt>
      <trkpt lat="43.52368" lon="6.30578">
        <ele>313</ele>
        <time>2012-12-02T08:59:29Z</time>
      </trkpt>
      <trkpt lat="43.52374" lon="6.30573">
        <ele>312</ele>
        <time>2012-12-02T08:59:30Z</time>
      </trkpt>
      <trkpt lat="43.52379" lon="6.30568">
        <ele>312</ele>
        <time>2012-12-02T08:59:31Z</time>
      </trkpt>
      <trkpt lat="43.52383" lon="6.30561">
        <ele>311</ele>
        <time>2012-12-02T08:59:32Z</time>
      </trkpt>
      <trkpt lat="43.52387" lon="6.30555">
        <ele>311</ele>
        <time>2012-12-02T08:59:33Z</time>
      </trkpt>
      <trkpt lat="43.5239" lon="6.30551">
        <ele>310</ele>
        <time>2012-12-02T08:59:34Z</time>
      </trkpt>
      <trkpt lat="43.52392" lon="6.30547">
        <ele>309</ele>
        <time>2012-12-02T08:59:35Z</time>
      </trkpt>
      <trkpt lat="43.52393" lon="6.30543">
        <ele>309</ele>
        <time>2012-12-02T08:59:36Z</time>
      </trkpt>
      <trkpt lat="43.52393" lon="6.30538">
        <ele>309</ele>
        <time>2012-12-02T08:59:37Z</time>
      </trkpt>
      <trkpt lat="43.52389" lon="6.30531">
        <ele>309</ele>
        <time>2012-12-02T08:59:39Z</time>
      </trkpt>
      <trkpt lat="43.52382" lon="6.30515">
        <ele>309</ele>
        <time>2012-12-02T08:59:42Z</time>
      </trkpt>
      <trkpt lat="43.52382" lon="6.30509">
        <ele>309</ele>
        <time>2012-12-02T08:59:43Z</time>
      </trkpt>
      <trkpt lat="43.52382" lon="6.30504">
        <ele>309</ele>
        <time>2012-12-02T08:59:44Z</time>
      </trkpt>
      <trkpt lat="43.52382" lon="6.30497">
        <ele>308</ele>
        <time>2012-12-02T08:59:45Z</time>
      </trkpt>
      <trkpt lat="43.52382" lon="6.30491">
        <ele>308</ele>
        <time>2012-12-02T08:59:46Z</time>
      </trkpt>
      <trkpt lat="43.52382" lon="6.30486">
        <ele>307</ele>
        <time>2012-12-02T08:59:47Z</time>
      </trkpt>
      <trkpt lat="43.52381" lon="6.3048">
        <ele>307</ele>
        <time>2012-12-02T08:59:48Z</time>
      </trkpt>
      <trkpt lat="43.52382" lon="6.30474">
        <ele>307</ele>
        <time>2012-12-02T08:59:49Z</time>
      </trkpt>
      <trkpt lat="43.52383" lon="6.30459">
        <ele>307</ele>
        <time>2012-12-02T08:59:53Z</time>
      </trkpt>
      <trkpt lat="43.52383" lon="6.30458">
        <ele>307</ele>
        <time>2012-12-02T08:59:54Z</time>
      </trkpt>
      <trkpt lat="43.52383" lon="6.30454">
        <ele>307</ele>
        <time>2012-12-02T08:59:57Z</time>
      </trkpt>
      <trkpt lat="43.52384" lon="6.30453">
        <ele>307</ele>
        <time>2012-12-02T08:59:58Z</time>
      </trkpt>
      <trkpt lat="43.52385" lon="6.30451">
        <ele>307</ele>
        <time>2012-12-02T09:00:00Z</time>
      </trkpt>
      <trkpt lat="43.52387" lon="6.30445">
        <ele>307</ele>
        <time>2012-12-02T09:00:03Z</time>
      </trkpt>
      <trkpt lat="43.52393" lon="6.30439">
        <ele>308</ele>
        <time>2012-12-02T09:00:07Z</time>
      </trkpt>
      <trkpt lat="43.52393" lon="6.30437">
        <ele>308</ele>
        <time>2012-12-02T09:00:08Z</time>
      </trkpt>
      <trkpt lat="43.52395" lon="6.30436">
        <ele>309</ele>
        <time>2012-12-02T09:00:09Z</time>
      </trkpt>
      <trkpt lat="43.52395" lon="6.30434">
        <ele>309</ele>
        <time>2012-12-02T09:00:10Z</time>
      </trkpt>
      <trkpt lat="43.52396" lon="6.30433">
        <ele>310</ele>
        <time>2012-12-02T09:00:11Z</time>
      </trkpt>
      <trkpt lat="43.52398" lon="6.30431">
        <ele>310</ele>
        <time>2012-12-02T09:00:14Z</time>
      </trkpt>
      <trkpt lat="43.5244" lon="6.30354">
        <ele>325</ele>
        <time>2012-12-02T09:01:32Z</time>
      </trkpt>
      <trkpt lat="43.52444" lon="6.30349">
        <ele>325</ele>
        <time>2012-12-02T09:01:37Z</time>
      </trkpt>
      <trkpt lat="43.52446" lon="6.30344">
        <ele>325</ele>
        <time>2012-12-02T09:02:42Z</time>
      </trkpt>
      <trkpt lat="43.52453" lon="6.30336">
        <ele>325</ele>
        <time>2012-12-02T09:02:47Z</time>
      </trkpt>
      <trkpt lat="43.52465" lon="6.30318">
        <ele>325</ele>
        <time>2012-12-02T09:02:52Z</time>
      </trkpt>
      <trkpt lat="43.52473" lon="6.30305">
        <ele>324</ele>
        <time>2012-12-02T09:02:55Z</time>
      </trkpt>
      <trkpt lat="43.52475" lon="6.303">
        <ele>324</ele>
        <time>2012-12-02T09:02:56Z</time>
      </trkpt>
      <trkpt lat="43.52478" lon="6.30296">
        <ele>323</ele>
        <time>2012-12-02T09:02:57Z</time>
      </trkpt>
      <trkpt lat="43.5248" lon="6.30291">
        <ele>323</ele>
        <time>2012-12-02T09:02:58Z</time>
      </trkpt>
      <trkpt lat="43.52483" lon="6.30286">
        <ele>322</ele>
        <time>2012-12-02T09:02:59Z</time>
      </trkpt>
      <trkpt lat="43.52487" lon="6.30281">
        <ele>321</ele>
        <time>2012-12-02T09:03:00Z</time>
      </trkpt>
      <trkpt lat="43.52492" lon="6.30275">
        <ele>321</ele>
        <time>2012-12-02T09:03:01Z</time>
      </trkpt>
      <trkpt lat="43.52496" lon="6.3027">
        <ele>320</ele>
        <time>2012-12-02T09:03:02Z</time>
      </trkpt>
      <trkpt lat="43.525" lon="6.30264">
        <ele>319</ele>
        <time>2012-12-02T09:03:03Z</time>
      </trkpt>
      <trkpt lat="43.52504" lon="6.3026">
        <ele>319</ele>
        <time>2012-12-02T09:03:04Z</time>
      </trkpt>
      <trkpt lat="43.52509" lon="6.30255">
        <ele>318</ele>
        <time>2012-12-02T09:03:05Z</time>
      </trkpt>
      <trkpt lat="43.52513" lon="6.3025">
        <ele>318</ele>
        <time>2012-12-02T09:03:06Z</time>
      </trkpt>
      <trkpt lat="43.52516" lon="6.30247">
        <ele>317</ele>
        <time>2012-12-02T09:03:07Z</time>
      </trkpt>
      <trkpt lat="43.52519" lon="6.30245">
        <ele>316</ele>
        <time>2012-12-02T09:03:08Z</time>
      </trkpt>
      <trkpt lat="43.52522" lon="6.30245">
        <ele>316</ele>
        <time>2012-12-02T09:03:09Z</time>
      </trkpt>
      <trkpt lat="43.52525" lon="6.30246">
        <ele>315</ele>
        <time>2012-12-02T09:03:10Z</time>
      </trkpt>
      <trkpt lat="43.52529" lon="6.30248">
        <ele>315</ele>
        <time>2012-12-02T09:03:11Z</time>
      </trkpt>
      <trkpt lat="43.52532" lon="6.3025">
        <ele>315</ele>
        <time>2012-12-02T09:03:12Z</time>
      </trkpt>
      <trkpt lat="43.52545" lon="6.30255">
        <ele>315</ele>
        <time>2012-12-02T09:03:17Z</time>
      </trkpt>
      <trkpt lat="43.5255" lon="6.30248">
        <ele>315</ele>
        <time>2012-12-02T09:03:20Z</time>
      </trkpt>
      <trkpt lat="43.52547" lon="6.30237">
        <ele>315</ele>
        <time>2012-12-02T09:03:23Z</time>
      </trkpt>
      <trkpt lat="43.52545" lon="6.30233">
        <ele>315</ele>
        <time>2012-12-02T09:03:24Z</time>
      </trkpt>
      <trkpt lat="43.52541" lon="6.30216">
        <ele>315</ele>
        <time>2012-12-02T09:03:28Z</time>
      </trkpt>
      <trkpt lat="43.52537" lon="6.302">
        <ele>315</ele>
        <time>2012-12-02T09:03:31Z</time>
      </trkpt>
      <trkpt lat="43.52529" lon="6.30182">
        <ele>315</ele>
        <time>2012-12-02T09:03:34Z</time>
      </trkpt>
      <trkpt lat="43.52525" lon="6.30162">
        <ele>315</ele>
        <time>2012-12-02T09:03:37Z</time>
      </trkpt>
      <trkpt lat="43.52525" lon="6.30156">
        <ele>315</ele>
        <time>2012-12-02T09:03:38Z</time>
      </trkpt>
      <trkpt lat="43.52527" lon="6.30131">
        <ele>315</ele>
        <time>2012-12-02T09:03:43Z</time>
      </trkpt>
      <trkpt lat="43.52525" lon="6.3011">
        <ele>315</ele>
        <time>2012-12-02T09:03:48Z</time>
      </trkpt>
      <trkpt lat="43.52521" lon="6.30098">
        <ele>315</ele>
        <time>2012-12-02T09:03:50Z</time>
      </trkpt>
      <trkpt lat="43.52514" lon="6.30081">
        <ele>314</ele>
        <time>2012-12-02T09:03:53Z</time>
      </trkpt>
      <trkpt lat="43.52513" lon="6.30075">
        <ele>314</ele>
        <time>2012-12-02T09:03:54Z</time>
      </trkpt>
      <trkpt lat="43.52513" lon="6.30068">
        <ele>313</ele>
        <time>2012-12-02T09:03:55Z</time>
      </trkpt>
      <trkpt lat="43.52514" lon="6.30062">
        <ele>313</ele>
        <time>2012-12-02T09:03:56Z</time>
      </trkpt>
      <trkpt lat="43.52514" lon="6.30055">
        <ele>313</ele>
        <time>2012-12-02T09:03:57Z</time>
      </trkpt>
      <trkpt lat="43.52515" lon="6.30043">
        <ele>312</ele>
        <time>2012-12-02T09:03:59Z</time>
      </trkpt>
      <trkpt lat="43.52516" lon="6.30036">
        <ele>312</ele>
        <time>2012-12-02T09:04:00Z</time>
      </trkpt>
      <trkpt lat="43.52517" lon="6.3003">
        <ele>311</ele>
        <time>2012-12-02T09:04:01Z</time>
      </trkpt>
      <trkpt lat="43.52519" lon="6.30024">
        <ele>311</ele>
        <time>2012-12-02T09:04:02Z</time>
      </trkpt>
      <trkpt lat="43.52522" lon="6.3002">
        <ele>310</ele>
        <time>2012-12-02T09:04:03Z</time>
      </trkpt>
      <trkpt lat="43.52524" lon="6.30015">
        <ele>310</ele>
        <time>2012-12-02T09:04:04Z</time>
      </trkpt>
      <trkpt lat="43.52526" lon="6.3001">
        <ele>309</ele>
        <time>2012-12-02T09:04:05Z</time>
      </trkpt>
      <trkpt lat="43.52529" lon="6.30006">
        <ele>309</ele>
        <time>2012-12-02T09:04:06Z</time>
      </trkpt>
      <trkpt lat="43.52532" lon="6.30001">
        <ele>308</ele>
        <time>2012-12-02T09:04:07Z</time>
      </trkpt>
      <trkpt lat="43.52537" lon="6.29997">
        <ele>308</ele>
        <time>2012-12-02T09:04:08Z</time>
      </trkpt>
      <trkpt lat="43.52555" lon="6.29981">
        <ele>308</ele>
        <time>2012-12-02T09:04:12Z</time>
      </trkpt>
      <trkpt lat="43.52569" lon="6.29973">
        <ele>308</ele>
        <time>2012-12-02T09:04:15Z</time>
      </trkpt>
      <trkpt lat="43.52574" lon="6.29971">
        <ele>308</ele>
        <time>2012-12-02T09:04:16Z</time>
      </trkpt>
      <trkpt lat="43.52588" lon="6.29972">
        <ele>308</ele>
        <time>2012-12-02T09:04:20Z</time>
      </trkpt>
      <trkpt lat="43.52595" lon="6.29973">
        <ele>308</ele>
        <time>2012-12-02T09:04:22Z</time>
      </trkpt>
      <trkpt lat="43.52601" lon="6.29975">
        <ele>309</ele>
        <time>2012-12-02T09:04:24Z</time>
      </trkpt>
      <trkpt lat="43.52605" lon="6.29975">
        <ele>309</ele>
        <time>2012-12-02T09:04:25Z</time>
      </trkpt>
      <trkpt lat="43.52608" lon="6.29975">
        <ele>310</ele>
        <time>2012-12-02T09:04:26Z</time>
      </trkpt>
      <trkpt lat="43.52611" lon="6.29976">
        <ele>310</ele>
        <time>2012-12-02T09:04:27Z</time>
      </trkpt>
      <trkpt lat="43.52614" lon="6.29976">
        <ele>310</ele>
        <time>2012-12-02T09:04:28Z</time>
      </trkpt>
      <trkpt lat="43.5262" lon="6.29976">
        <ele>311</ele>
        <time>2012-12-02T09:04:30Z</time>
      </trkpt>
      <trkpt lat="43.52623" lon="6.29977">
        <ele>311</ele>
        <time>2012-12-02T09:04:31Z</time>
      </trkpt>
      <trkpt lat="43.52627" lon="6.29977">
        <ele>312</ele>
        <time>2012-12-02T09:04:32Z</time>
      </trkpt>
      <trkpt lat="43.5263" lon="6.29977">
        <ele>312</ele>
        <time>2012-12-02T09:04:33Z</time>
      </trkpt>
      <trkpt lat="43.52642" lon="6.29979">
        <ele>312</ele>
        <time>2012-12-02T09:04:38Z</time>
      </trkpt>
      <trkpt lat="43.52648" lon="6.29978">
        <ele>313</ele>
        <time>2012-12-02T09:04:41Z</time>
      </trkpt>
      <trkpt lat="43.5265" lon="6.29979">
        <ele>313</ele>
        <time>2012-12-02T09:04:42Z</time>
      </trkpt>
      <trkpt lat="43.52652" lon="6.29979">
        <ele>314</ele>
        <time>2012-12-02T09:04:43Z</time>
      </trkpt>
      <trkpt lat="43.52654" lon="6.29979">
        <ele>314</ele>
        <time>2012-12-02T09:04:44Z</time>
      </trkpt>
      <trkpt lat="43.52656" lon="6.2998">
        <ele>315</ele>
        <time>2012-12-02T09:04:45Z</time>
      </trkpt>
      <trkpt lat="43.52662" lon="6.29981">
        <ele>315</ele>
        <time>2012-12-02T09:04:49Z</time>
      </trkpt>
      <trkpt lat="43.52666" lon="6.29981">
        <ele>315</ele>
        <time>2012-12-02T09:04:51Z</time>
      </trkpt>
      <trkpt lat="43.52668" lon="6.29981">
        <ele>315</ele>
        <time>2012-12-02T09:04:52Z</time>
      </trkpt>
      <trkpt lat="43.5267" lon="6.29982">
        <ele>316</ele>
        <time>2012-12-02T09:04:53Z</time>
      </trkpt>
      <trkpt lat="43.52672" lon="6.29982">
        <ele>316</ele>
        <time>2012-12-02T09:04:54Z</time>
      </trkpt>
      <trkpt lat="43.52675" lon="6.29983">
        <ele>317</ele>
        <time>2012-12-02T09:04:55Z</time>
      </trkpt>
      <trkpt lat="43.52684" lon="6.29986">
        <ele>317</ele>
        <time>2012-12-02T09:05:00Z</time>
      </trkpt>
      <trkpt lat="43.52696" lon="6.29991">
        <ele>317</ele>
        <time>2012-12-02T09:05:06Z</time>
      </trkpt>
      <trkpt lat="43.527" lon="6.29992">
        <ele>317</ele>
        <time>2012-12-02T09:05:08Z</time>
      </trkpt>
      <trkpt lat="43.52701" lon="6.29993">
        <ele>318</ele>
        <time>2012-12-02T09:05:09Z</time>
      </trkpt>
      <trkpt lat="43.52703" lon="6.29993">
        <ele>318</ele>
        <time>2012-12-02T09:05:10Z</time>
      </trkpt>
      <trkpt lat="43.52705" lon="6.29994">
        <ele>318</ele>
        <time>2012-12-02T09:05:11Z</time>
      </trkpt>
      <trkpt lat="43.52707" lon="6.29995">
        <ele>319</ele>
        <time>2012-12-02T09:05:12Z</time>
      </trkpt>
      <trkpt lat="43.52709" lon="6.29997">
        <ele>319</ele>
        <time>2012-12-02T09:05:13Z</time>
      </trkpt>
      <trkpt lat="43.52711" lon="6.29998">
        <ele>319</ele>
        <time>2012-12-02T09:05:14Z</time>
      </trkpt>
      <trkpt lat="43.52713" lon="6.3">
        <ele>320</ele>
        <time>2012-12-02T09:05:15Z</time>
      </trkpt>
      <trkpt lat="43.52715" lon="6.30002">
        <ele>320</ele>
        <time>2012-12-02T09:05:16Z</time>
      </trkpt>
      <trkpt lat="43.52718" lon="6.30004">
        <ele>320</ele>
        <time>2012-12-02T09:05:17Z</time>
      </trkpt>
      <trkpt lat="43.5272" lon="6.30005">
        <ele>321</ele>
        <time>2012-12-02T09:05:18Z</time>
      </trkpt>
      <trkpt lat="43.52733" lon="6.30013">
        <ele>321</ele>
        <time>2012-12-02T09:05:23Z</time>
      </trkpt>
      <trkpt lat="43.52748" lon="6.3002">
        <ele>321</ele>
        <time>2012-12-02T09:05:28Z</time>
      </trkpt>
      <trkpt lat="43.52759" lon="6.30026">
        <ele>321</ele>
        <time>2012-12-02T09:05:32Z</time>
      </trkpt>
      <trkpt lat="43.52762" lon="6.30027">
        <ele>322</ele>
        <time>2012-12-02T09:05:33Z</time>
      </trkpt>
      <trkpt lat="43.52764" lon="6.3003">
        <ele>322</ele>
        <time>2012-12-02T09:05:34Z</time>
      </trkpt>
      <trkpt lat="43.52766" lon="6.30032">
        <ele>323</ele>
        <time>2012-12-02T09:05:35Z</time>
      </trkpt>
      <trkpt lat="43.52768" lon="6.30034">
        <ele>323</ele>
        <time>2012-12-02T09:05:36Z</time>
      </trkpt>
      <trkpt lat="43.52776" lon="6.30049">
        <ele>323</ele>
        <time>2012-12-02T09:05:41Z</time>
      </trkpt>
      <trkpt lat="43.52777" lon="6.30052">
        <ele>324</ele>
        <time>2012-12-02T09:05:42Z</time>
      </trkpt>
      <trkpt lat="43.52778" lon="6.30055">
        <ele>324</ele>
        <time>2012-12-02T09:05:43Z</time>
      </trkpt>
      <trkpt lat="43.52779" lon="6.30059">
        <ele>325</ele>
        <time>2012-12-02T09:05:44Z</time>
      </trkpt>
      <trkpt lat="43.5278" lon="6.30062">
        <ele>325</ele>
        <time>2012-12-02T09:05:45Z</time>
      </trkpt>
      <trkpt lat="43.52782" lon="6.30067">
        <ele>325</ele>
        <time>2012-12-02T09:05:47Z</time>
      </trkpt>
      <trkpt lat="43.52789" lon="6.30085">
        <ele>325</ele>
        <time>2012-12-02T09:05:52Z</time>
      </trkpt>
      <trkpt lat="43.52802" lon="6.30098">
        <ele>325</ele>
        <time>2012-12-02T09:05:58Z</time>
      </trkpt>
      <trkpt lat="43.52803" lon="6.30099">
        <ele>325</ele>
        <time>2012-12-02T09:05:59Z</time>
      </trkpt>
      <trkpt lat="43.52806" lon="6.301">
        <ele>325</ele>
        <time>2012-12-02T09:06:00Z</time>
      </trkpt>
      <trkpt lat="43.52808" lon="6.30101">
        <ele>326</ele>
        <time>2012-12-02T09:06:01Z</time>
      </trkpt>
      <trkpt lat="43.5281" lon="6.30101">
        <ele>326</ele>
        <time>2012-12-02T09:06:02Z</time>
      </trkpt>
      <trkpt lat="43.52812" lon="6.30102">
        <ele>327</ele>
        <time>2012-12-02T09:06:03Z</time>
      </trkpt>
      <trkpt lat="43.52814" lon="6.30102">
        <ele>327</ele>
        <time>2012-12-02T09:06:04Z</time>
      </trkpt>
      <trkpt lat="43.52819" lon="6.30104">
        <ele>327</ele>
        <time>2012-12-02T09:06:07Z</time>
      </trkpt>
      <trkpt lat="43.52824" lon="6.30104">
        <ele>328</ele>
        <time>2012-12-02T09:06:09Z</time>
      </trkpt>
      <trkpt lat="43.52826" lon="6.30104">
        <ele>328</ele>
        <time>2012-12-02T09:06:10Z</time>
      </trkpt>
      <trkpt lat="43.52829" lon="6.30104">
        <ele>329</ele>
        <time>2012-12-02T09:06:11Z</time>
      </trkpt>
      <trkpt lat="43.52831" lon="6.30104">
        <ele>329</ele>
        <time>2012-12-02T09:06:12Z</time>
      </trkpt>
      <trkpt lat="43.52839" lon="6.30108">
        <ele>330</ele>
        <time>2012-12-02T09:06:16Z</time>
      </trkpt>
      <trkpt lat="43.52841" lon="6.30109">
        <ele>330</ele>
        <time>2012-12-02T09:06:17Z</time>
      </trkpt>
      <trkpt lat="43.52843" lon="6.3011">
        <ele>331</ele>
        <time>2012-12-02T09:06:18Z</time>
      </trkpt>
      <trkpt lat="43.52846" lon="6.30112">
        <ele>331</ele>
        <time>2012-12-02T09:06:19Z</time>
      </trkpt>
      <trkpt lat="43.52848" lon="6.30114">
        <ele>331</ele>
        <time>2012-12-02T09:06:20Z</time>
      </trkpt>
      <trkpt lat="43.52855" lon="6.30119">
        <ele>331</ele>
        <time>2012-12-02T09:06:23Z</time>
      </trkpt>
      <trkpt lat="43.52866" lon="6.30127">
        <ele>331</ele>
        <time>2012-12-02T09:06:28Z</time>
      </trkpt>
      <trkpt lat="43.52873" lon="6.30132">
        <ele>332</ele>
        <time>2012-12-02T09:06:32Z</time>
      </trkpt>
      <trkpt lat="43.52875" lon="6.30134">
        <ele>332</ele>
        <time>2012-12-02T09:06:33Z</time>
      </trkpt>
      <trkpt lat="43.52877" lon="6.30135">
        <ele>333</ele>
        <time>2012-12-02T09:06:34Z</time>
      </trkpt>
      <trkpt lat="43.52879" lon="6.30136">
        <ele>334</ele>
        <time>2012-12-02T09:06:35Z</time>
      </trkpt>
      <trkpt lat="43.52887" lon="6.3014">
        <ele>334</ele>
        <time>2012-12-02T09:06:39Z</time>
      </trkpt>
      <trkpt lat="43.5289" lon="6.30142">
        <ele>334</ele>
        <time>2012-12-02T09:06:40Z</time>
      </trkpt>
      <trkpt lat="43.52893" lon="6.30144">
        <ele>335</ele>
        <time>2012-12-02T09:06:41Z</time>
      </trkpt>
      <trkpt lat="43.52897" lon="6.30147">
        <ele>335</ele>
        <time>2012-12-02T09:06:42Z</time>
      </trkpt>
      <trkpt lat="43.52901" lon="6.3015">
        <ele>336</ele>
        <time>2012-12-02T09:06:43Z</time>
      </trkpt>
      <trkpt lat="43.52911" lon="6.30158">
        <ele>336</ele>
        <time>2012-12-02T09:06:46Z</time>
      </trkpt>
      <trkpt lat="43.52915" lon="6.3016">
        <ele>336</ele>
        <time>2012-12-02T09:06:47Z</time>
      </trkpt>
      <trkpt lat="43.52918" lon="6.30163">
        <ele>336</ele>
        <time>2012-12-02T09:06:48Z</time>
      </trkpt>
      <trkpt lat="43.5292" lon="6.30166">
        <ele>337</ele>
        <time>2012-12-02T09:06:49Z</time>
      </trkpt>
      <trkpt lat="43.52923" lon="6.30169">
        <ele>337</ele>
        <time>2012-12-02T09:06:50Z</time>
      </trkpt>
      <trkpt lat="43.52925" lon="6.30172">
        <ele>338</ele>
        <time>2012-12-02T09:06:51Z</time>
      </trkpt>
      <trkpt lat="43.52928" lon="6.30176">
        <ele>338</ele>
        <time>2012-12-02T09:06:52Z</time>
      </trkpt>
      <trkpt lat="43.5293" lon="6.3018">
        <ele>339</ele>
        <time>2012-12-02T09:06:53Z</time>
      </trkpt>
      <trkpt lat="43.52932" lon="6.30185">
        <ele>339</ele>
        <time>2012-12-02T09:06:54Z</time>
      </trkpt>
      <trkpt lat="43.52933" lon="6.30189">
        <ele>339</ele>
        <time>2012-12-02T09:06:55Z</time>
      </trkpt>
      <trkpt lat="43.52934" lon="6.30193">
        <ele>340</ele>
        <time>2012-12-02T09:06:56Z</time>
      </trkpt>
      <trkpt lat="43.52935" lon="6.30197">
        <ele>340</ele>
        <time>2012-12-02T09:06:57Z</time>
      </trkpt>
      <trkpt lat="43.52936" lon="6.30209">
        <ele>341</ele>
        <time>2012-12-02T09:07:00Z</time>
      </trkpt>
      <trkpt lat="43.52937" lon="6.30212">
        <ele>341</ele>
        <time>2012-12-02T09:07:01Z</time>
      </trkpt>
      <trkpt lat="43.52938" lon="6.30216">
        <ele>342</ele>
        <time>2012-12-02T09:07:02Z</time>
      </trkpt>
      <trkpt lat="43.52938" lon="6.3022">
        <ele>342</ele>
        <time>2012-12-02T09:07:03Z</time>
      </trkpt>
      <trkpt lat="43.52942" lon="6.30239">
        <ele>342</ele>
        <time>2012-12-02T09:07:08Z</time>
      </trkpt>
      <trkpt lat="43.52953" lon="6.30255">
        <ele>342</ele>
        <time>2012-12-02T09:07:12Z</time>
      </trkpt>
      <trkpt lat="43.52964" lon="6.3026">
        <ele>342</ele>
        <time>2012-12-02T09:07:16Z</time>
      </trkpt>
      <trkpt lat="43.52968" lon="6.30261">
        <ele>342</ele>
        <time>2012-12-02T09:07:19Z</time>
      </trkpt>
      <trkpt lat="43.5297" lon="6.3026">
        <ele>342</ele>
        <time>2012-12-02T09:07:25Z</time>
      </trkpt>
      <trkpt lat="43.52979" lon="6.30257">
        <ele>342</ele>
        <time>2012-12-02T09:07:29Z</time>
      </trkpt>
      <trkpt lat="43.52982" lon="6.30255">
        <ele>342</ele>
        <time>2012-12-02T09:07:30Z</time>
      </trkpt>
      <trkpt lat="43.52999" lon="6.30244">
        <ele>342</ele>
        <time>2012-12-02T09:07:35Z</time>
      </trkpt>
      <trkpt lat="43.53008" lon="6.30244">
        <ele>342</ele>
        <time>2012-12-02T09:07:38Z</time>
      </trkpt>
      <trkpt lat="43.53011" lon="6.30246">
        <ele>343</ele>
        <time>2012-12-02T09:07:39Z</time>
      </trkpt>
      <trkpt lat="43.53013" lon="6.30248">
        <ele>343</ele>
        <time>2012-12-02T09:07:40Z</time>
      </trkpt>
      <trkpt lat="43.53016" lon="6.30249">
        <ele>344</ele>
        <time>2012-12-02T09:07:41Z</time>
      </trkpt>
      <trkpt lat="43.53018" lon="6.30251">
        <ele>344</ele>
        <time>2012-12-02T09:07:42Z</time>
      </trkpt>
      <trkpt lat="43.5302" lon="6.30254">
        <ele>345</ele>
        <time>2012-12-02T09:07:43Z</time>
      </trkpt>
      <trkpt lat="43.53022" lon="6.30256">
        <ele>345</ele>
        <time>2012-12-02T09:07:44Z</time>
      </trkpt>
      <trkpt lat="43.53028" lon="6.30261">
        <ele>345</ele>
        <time>2012-12-02T09:07:47Z</time>
      </trkpt>
      <trkpt lat="43.5303" lon="6.30262">
        <ele>345</ele>
        <time>2012-12-02T09:07:48Z</time>
      </trkpt>
      <trkpt lat="43.53032" lon="6.30263">
        <ele>346</ele>
        <time>2012-12-02T09:07:49Z</time>
      </trkpt>
      <trkpt lat="43.53033" lon="6.30264">
        <ele>347</ele>
        <time>2012-12-02T09:07:50Z</time>
      </trkpt>
      <trkpt lat="43.53034" lon="6.30264">
        <ele>347</ele>
        <time>2012-12-02T09:07:52Z</time>
      </trkpt>
      <trkpt lat="43.53036" lon="6.30258">
        <ele>347</ele>
        <time>2012-12-02T09:10:26Z</time>
      </trkpt>
      <trkpt lat="43.53037" lon="6.30257">
        <ele>347</ele>
        <time>2012-12-02T09:10:27Z</time>
      </trkpt>
      <trkpt lat="43.53045" lon="6.30251">
        <ele>347</ele>
        <time>2012-12-02T09:10:31Z</time>
      </trkpt>
      <trkpt lat="43.53053" lon="6.3025">
        <ele>347</ele>
        <time>2012-12-02T09:10:34Z</time>
      </trkpt>
      <trkpt lat="43.53056" lon="6.30251">
        <ele>347</ele>
        <time>2012-12-02T09:10:35Z</time>
      </trkpt>
      <trkpt lat="43.53076" lon="6.30254">
        <ele>347</ele>
        <time>2012-12-02T09:10:40Z</time>
      </trkpt>
      <trkpt lat="43.53081" lon="6.30256">
        <ele>347</ele>
        <time>2012-12-02T09:10:41Z</time>
      </trkpt>
      <trkpt lat="43.53087" lon="6.30257">
        <ele>346</ele>
        <time>2012-12-02T09:10:42Z</time>
      </trkpt>
      <trkpt lat="43.53091" lon="6.30258">
        <ele>346</ele>
        <time>2012-12-02T09:10:43Z</time>
      </trkpt>
      <trkpt lat="43.53095" lon="6.3026">
        <ele>345</ele>
        <time>2012-12-02T09:10:44Z</time>
      </trkpt>
      <trkpt lat="43.531" lon="6.30262">
        <ele>345</ele>
        <time>2012-12-02T09:10:45Z</time>
      </trkpt>
      <trkpt lat="43.53104" lon="6.30263">
        <ele>344</ele>
        <time>2012-12-02T09:10:46Z</time>
      </trkpt>
      <trkpt lat="43.53108" lon="6.30265">
        <ele>344</ele>
        <time>2012-12-02T09:10:47Z</time>
      </trkpt>
      <trkpt lat="43.53112" lon="6.30267">
        <ele>343</ele>
        <time>2012-12-02T09:10:48Z</time>
      </trkpt>
      <trkpt lat="43.53115" lon="6.30268">
        <ele>343</ele>
        <time>2012-12-02T09:10:49Z</time>
      </trkpt>
      <trkpt lat="43.53118" lon="6.30269">
        <ele>342</ele>
        <time>2012-12-02T09:10:50Z</time>
      </trkpt>
      <trkpt lat="43.5312" lon="6.3027">
        <ele>342</ele>
        <time>2012-12-02T09:10:51Z</time>
      </trkpt>
      <trkpt lat="43.53135" lon="6.30277">
        <ele>342</ele>
        <time>2012-12-02T09:10:55Z</time>
      </trkpt>
      <trkpt lat="43.53146" lon="6.30283">
        <ele>342</ele>
        <time>2012-12-02T09:10:58Z</time>
      </trkpt>
      <trkpt lat="43.5315" lon="6.30285">
        <ele>341</ele>
        <time>2012-12-02T09:10:59Z</time>
      </trkpt>
      <trkpt lat="43.53154" lon="6.30287">
        <ele>341</ele>
        <time>2012-12-02T09:11:00Z</time>
      </trkpt>
      <trkpt lat="43.53158" lon="6.30289">
        <ele>340</ele>
        <time>2012-12-02T09:11:01Z</time>
      </trkpt>
      <trkpt lat="43.53162" lon="6.30292">
        <ele>340</ele>
        <time>2012-12-02T09:11:02Z</time>
      </trkpt>
      <trkpt lat="43.53174" lon="6.30304">
        <ele>340</ele>
        <time>2012-12-02T09:11:06Z</time>
      </trkpt>
      <trkpt lat="43.53195" lon="6.30322">
        <ele>340</ele>
        <time>2012-12-02T09:11:13Z</time>
      </trkpt>
      <trkpt lat="43.53197" lon="6.30323">
        <ele>340</ele>
        <time>2012-12-02T09:11:14Z</time>
      </trkpt>
      <trkpt lat="43.53204" lon="6.30324">
        <ele>340</ele>
        <time>2012-12-02T09:11:17Z</time>
      </trkpt>
      <trkpt lat="43.53217" lon="6.30323">
        <ele>340</ele>
        <time>2012-12-02T09:11:21Z</time>
      </trkpt>
      <trkpt lat="43.5322" lon="6.30324">
        <ele>341</ele>
        <time>2012-12-02T09:11:22Z</time>
      </trkpt>
      <trkpt lat="43.53221" lon="6.30324">
        <ele>341</ele>
        <time>2012-12-02T09:11:23Z</time>
      </trkpt>
      <trkpt lat="43.53223" lon="6.30324">
        <ele>342</ele>
        <time>2012-12-02T09:11:24Z</time>
      </trkpt>
      <trkpt lat="43.53225" lon="6.30325">
        <ele>342</ele>
        <time>2012-12-02T09:11:25Z</time>
      </trkpt>
      <trkpt lat="43.53227" lon="6.30324">
        <ele>343</ele>
        <time>2012-12-02T09:11:27Z</time>
      </trkpt>
      <trkpt lat="43.53229" lon="6.30325">
        <ele>343</ele>
        <time>2012-12-02T09:11:28Z</time>
      </trkpt>
      <trkpt lat="43.5323" lon="6.30326">
        <ele>344</ele>
        <time>2012-12-02T09:11:29Z</time>
      </trkpt>
      <trkpt lat="43.53231" lon="6.30327">
        <ele>344</ele>
        <time>2012-12-02T09:11:30Z</time>
      </trkpt>
      <trkpt lat="43.53232" lon="6.30329">
        <ele>344</ele>
        <time>2012-12-02T09:11:31Z</time>
      </trkpt>
      <trkpt lat="43.53235" lon="6.30335">
        <ele>345</ele>
        <time>2012-12-02T09:11:35Z</time>
      </trkpt>
      <trkpt lat="43.53236" lon="6.30338">
        <ele>345</ele>
        <time>2012-12-02T09:11:36Z</time>
      </trkpt>
      <trkpt lat="43.53237" lon="6.30341">
        <ele>346</ele>
        <time>2012-12-02T09:11:37Z</time>
      </trkpt>
      <trkpt lat="43.53237" lon="6.30343">
        <ele>346</ele>
        <time>2012-12-02T09:11:38Z</time>
      </trkpt>
      <trkpt lat="43.53237" lon="6.30346">
        <ele>347</ele>
        <time>2012-12-02T09:11:39Z</time>
      </trkpt>
      <trkpt lat="43.53237" lon="6.30351">
        <ele>347</ele>
        <time>2012-12-02T09:11:41Z</time>
      </trkpt>
      <trkpt lat="43.53237" lon="6.30353">
        <ele>347</ele>
        <time>2012-12-02T09:11:42Z</time>
      </trkpt>
      <trkpt lat="43.53239" lon="6.3036">
        <ele>347</ele>
        <time>2012-12-02T09:11:45Z</time>
      </trkpt>
      <trkpt lat="43.53241" lon="6.30366">
        <ele>347</ele>
        <time>2012-12-02T09:11:48Z</time>
      </trkpt>
      <trkpt lat="43.53241" lon="6.30368">
        <ele>348</ele>
        <time>2012-12-02T09:11:49Z</time>
      </trkpt>
      <trkpt lat="43.53242" lon="6.30371">
        <ele>348</ele>
        <time>2012-12-02T09:11:50Z</time>
      </trkpt>
      <trkpt lat="43.53242" lon="6.30373">
        <ele>349</ele>
        <time>2012-12-02T09:11:51Z</time>
      </trkpt>
      <trkpt lat="43.53242" lon="6.30375">
        <ele>349</ele>
        <time>2012-12-02T09:11:52Z</time>
      </trkpt>
      <trkpt lat="43.53242" lon="6.30382">
        <ele>349</ele>
        <time>2012-12-02T09:11:55Z</time>
      </trkpt>
      <trkpt lat="43.53243" lon="6.30401">
        <ele>349</ele>
        <time>2012-12-02T09:12:01Z</time>
      </trkpt>
      <trkpt lat="43.53246" lon="6.30421">
        <ele>349</ele>
        <time>2012-12-02T09:12:08Z</time>
      </trkpt>
      <trkpt lat="43.53248" lon="6.30437">
        <ele>349</ele>
        <time>2012-12-02T09:12:14Z</time>
      </trkpt>
      <trkpt lat="43.53252" lon="6.30442">
        <ele>349</ele>
        <time>2012-12-02T09:12:19Z</time>
      </trkpt>
      <trkpt lat="43.53253" lon="6.30455">
        <ele>349</ele>
        <time>2012-12-02T09:20:18Z</time>
      </trkpt>
      <trkpt lat="43.53255" lon="6.30462">
        <ele>349</ele>
        <time>2012-12-02T09:20:21Z</time>
      </trkpt>
      <trkpt lat="43.53255" lon="6.30469">
        <ele>349</ele>
        <time>2012-12-02T09:20:24Z</time>
      </trkpt>
      <trkpt lat="43.53256" lon="6.30471">
        <ele>349</ele>
        <time>2012-12-02T09:20:25Z</time>
      </trkpt>
      <trkpt lat="43.53257" lon="6.3048">
        <ele>349</ele>
        <time>2012-12-02T09:20:29Z</time>
      </trkpt>
      <trkpt lat="43.5326" lon="6.30495">
        <ele>349</ele>
        <time>2012-12-02T09:20:35Z</time>
      </trkpt>
      <trkpt lat="43.5326" lon="6.30498">
        <ele>349</ele>
        <time>2012-12-02T09:20:36Z</time>
      </trkpt>
      <trkpt lat="43.5326" lon="6.30502">
        <ele>350</ele>
        <time>2012-12-02T09:20:37Z</time>
      </trkpt>
      <trkpt lat="43.53261" lon="6.30506">
        <ele>350</ele>
        <time>2012-12-02T09:20:38Z</time>
      </trkpt>
      <trkpt lat="43.53262" lon="6.3051">
        <ele>351</ele>
        <time>2012-12-02T09:20:40Z</time>
      </trkpt>
      <trkpt lat="43.53263" lon="6.30513">
        <ele>351</ele>
        <time>2012-12-02T09:20:41Z</time>
      </trkpt>
      <trkpt lat="43.53263" lon="6.30517">
        <ele>351</ele>
        <time>2012-12-02T09:20:42Z</time>
      </trkpt>
      <trkpt lat="43.53268" lon="6.30542">
        <ele>351</ele>
        <time>2012-12-02T09:20:49Z</time>
      </trkpt>
      <trkpt lat="43.53271" lon="6.30563">
        <ele>351</ele>
        <time>2012-12-02T09:20:55Z</time>
      </trkpt>
      <trkpt lat="43.53273" lon="6.30575">
        <ele>352</ele>
        <time>2012-12-02T09:20:58Z</time>
      </trkpt>
      <trkpt lat="43.53272" lon="6.30578">
        <ele>352</ele>
        <time>2012-12-02T09:20:59Z</time>
      </trkpt>
      <trkpt lat="43.53272" lon="6.30582">
        <ele>352</ele>
        <time>2012-12-02T09:21:00Z</time>
      </trkpt>
      <trkpt lat="43.53271" lon="6.30585">
        <ele>353</ele>
        <time>2012-12-02T09:21:01Z</time>
      </trkpt>
      <trkpt lat="43.5327" lon="6.30589">
        <ele>353</ele>
        <time>2012-12-02T09:21:02Z</time>
      </trkpt>
      <trkpt lat="43.53266" lon="6.30613">
        <ele>353</ele>
        <time>2012-12-02T09:21:09Z</time>
      </trkpt>
      <trkpt lat="43.53266" lon="6.30617">
        <ele>354</ele>
        <time>2012-12-02T09:21:10Z</time>
      </trkpt>
      <trkpt lat="43.53265" lon="6.30622">
        <ele>354</ele>
        <time>2012-12-02T09:21:11Z</time>
      </trkpt>
      <trkpt lat="43.53265" lon="6.30626">
        <ele>354</ele>
        <time>2012-12-02T09:21:12Z</time>
      </trkpt>
      <trkpt lat="43.53264" lon="6.3063">
        <ele>355</ele>
        <time>2012-12-02T09:21:13Z</time>
      </trkpt>
      <trkpt lat="43.53264" lon="6.30633">
        <ele>355</ele>
        <time>2012-12-02T09:21:14Z</time>
      </trkpt>
      <trkpt lat="43.53262" lon="6.30641">
        <ele>355</ele>
        <time>2012-12-02T09:21:16Z</time>
      </trkpt>
      <trkpt lat="43.53261" lon="6.30657">
        <ele>355</ele>
        <time>2012-12-02T09:21:22Z</time>
      </trkpt>
      <trkpt lat="43.53262" lon="6.30659">
        <ele>356</ele>
        <time>2012-12-02T09:21:24Z</time>
      </trkpt>
      <trkpt lat="43.53263" lon="6.30659">
        <ele>356</ele>
        <time>2012-12-02T09:21:25Z</time>
      </trkpt>
      <trkpt lat="43.53264" lon="6.3066">
        <ele>357</ele>
        <time>2012-12-02T09:21:26Z</time>
      </trkpt>
      <trkpt lat="43.53265" lon="6.30659">
        <ele>357</ele>
        <time>2012-12-02T09:21:27Z</time>
      </trkpt>
      <trkpt lat="43.53267" lon="6.30655">
        <ele>357</ele>
        <time>2012-12-02T09:21:29Z</time>
      </trkpt>
      <trkpt lat="43.53269" lon="6.30653">
        <ele>357</ele>
        <time>2012-12-02T09:21:30Z</time>
      </trkpt>
      <trkpt lat="43.53271" lon="6.30649">
        <ele>358</ele>
        <time>2012-12-02T09:21:32Z</time>
      </trkpt>
      <trkpt lat="43.53273" lon="6.30647">
        <ele>358</ele>
        <time>2012-12-02T09:21:33Z</time>
      </trkpt>
      <trkpt lat="43.53274" lon="6.30645">
        <ele>359</ele>
        <time>2012-12-02T09:21:34Z</time>
      </trkpt>
      <trkpt lat="43.53276" lon="6.30643">
        <ele>359</ele>
        <time>2012-12-02T09:21:35Z</time>
      </trkpt>
      <trkpt lat="43.53277" lon="6.30642">
        <ele>359</ele>
        <time>2012-12-02T09:21:36Z</time>
      </trkpt>
      <trkpt lat="43.53279" lon="6.3064">
        <ele>359</ele>
        <time>2012-12-02T09:21:37Z</time>
      </trkpt>
      <trkpt lat="43.53292" lon="6.30627">
        <ele>359</ele>
        <time>2012-12-02T09:21:43Z</time>
      </trkpt>
      <trkpt lat="43.53309" lon="6.3061">
        <ele>359</ele>
        <time>2012-12-02T09:21:50Z</time>
      </trkpt>
      <trkpt lat="43.53324" lon="6.30605">
        <ele>359</ele>
        <time>2012-12-02T09:21:56Z</time>
      </trkpt>
      <trkpt lat="43.53328" lon="6.30603">
        <ele>360</ele>
        <time>2012-12-02T09:21:58Z</time>
      </trkpt>
      <trkpt lat="43.5333" lon="6.30602">
        <ele>360</ele>
        <time>2012-12-02T09:21:59Z</time>
      </trkpt>
      <trkpt lat="43.53333" lon="6.30601">
        <ele>361</ele>
        <time>2012-12-02T09:22:00Z</time>
      </trkpt>
      <trkpt lat="43.53335" lon="6.306">
        <ele>361</ele>
        <time>2012-12-02T09:22:01Z</time>
      </trkpt>
      <trkpt lat="43.53338" lon="6.30599">
        <ele>361</ele>
        <time>2012-12-02T09:22:02Z</time>
      </trkpt>
      <trkpt lat="43.53339" lon="6.30598">
        <ele>361</ele>
        <time>2012-12-02T09:22:03Z</time>
      </trkpt>
      <trkpt lat="43.53346" lon="6.30583">
        <ele>362</ele>
        <time>2012-12-02T09:22:09Z</time>
      </trkpt>
      <trkpt lat="43.53346" lon="6.3058">
        <ele>362</ele>
        <time>2012-12-02T09:22:10Z</time>
      </trkpt>
      <trkpt lat="43.53348" lon="6.30577">
        <ele>363</ele>
        <time>2012-12-02T09:22:11Z</time>
      </trkpt>
      <trkpt lat="43.53348" lon="6.30575">
        <ele>363</ele>
        <time>2012-12-02T09:22:12Z</time>
      </trkpt>
      <trkpt lat="43.5335" lon="6.30573">
        <ele>363</ele>
        <time>2012-12-02T09:22:13Z</time>
      </trkpt>
      <trkpt lat="43.53353" lon="6.30568">
        <ele>363</ele>
        <time>2012-12-02T09:22:16Z</time>
      </trkpt>
      <trkpt lat="43.53363" lon="6.30558">
        <ele>363</ele>
        <time>2012-12-02T09:22:21Z</time>
      </trkpt>
      <trkpt lat="43.53373" lon="6.30551">
        <ele>364</ele>
        <time>2012-12-02T09:22:26Z</time>
      </trkpt>
      <trkpt lat="43.53374" lon="6.30549">
        <ele>364</ele>
        <time>2012-12-02T09:22:27Z</time>
      </trkpt>
      <trkpt lat="43.53376" lon="6.30548">
        <ele>365</ele>
        <time>2012-12-02T09:22:28Z</time>
      </trkpt>
      <trkpt lat="43.53377" lon="6.30546">
        <ele>365</ele>
        <time>2012-12-02T09:22:29Z</time>
      </trkpt>
      <trkpt lat="43.53379" lon="6.30545">
        <ele>366</ele>
        <time>2012-12-02T09:22:30Z</time>
      </trkpt>
      <trkpt lat="43.53383" lon="6.30539">
        <ele>366</ele>
        <time>2012-12-02T09:22:33Z</time>
      </trkpt>
      <trkpt lat="43.53389" lon="6.30529">
        <ele>366</ele>
        <time>2012-12-02T09:22:37Z</time>
      </trkpt>
      <trkpt lat="43.5339" lon="6.30527">
        <ele>366</ele>
        <time>2012-12-02T09:22:38Z</time>
      </trkpt>
      <trkpt lat="43.53391" lon="6.30524">
        <ele>367</ele>
        <time>2012-12-02T09:22:39Z</time>
      </trkpt>
      <trkpt lat="43.53393" lon="6.30521">
        <ele>368</ele>
        <time>2012-12-02T09:22:40Z</time>
      </trkpt>
      <trkpt lat="43.53397" lon="6.30508">
        <ele>368</ele>
        <time>2012-12-02T09:22:44Z</time>
      </trkpt>
      <trkpt lat="43.53398" lon="6.30505">
        <ele>369</ele>
        <time>2012-12-02T09:22:45Z</time>
      </trkpt>
      <trkpt lat="43.53399" lon="6.30503">
        <ele>369</ele>
        <time>2012-12-02T09:22:46Z</time>
      </trkpt>
      <trkpt lat="43.534" lon="6.30501">
        <ele>370</ele>
        <time>2012-12-02T09:22:47Z</time>
      </trkpt>
      <trkpt lat="43.53403" lon="6.30499">
        <ele>370</ele>
        <time>2012-12-02T09:22:48Z</time>
      </trkpt>
      <trkpt lat="43.53405" lon="6.30498">
        <ele>370</ele>
        <time>2012-12-02T09:22:49Z</time>
      </trkpt>
      <trkpt lat="43.5341" lon="6.30498">
        <ele>370</ele>
        <time>2012-12-02T09:22:51Z</time>
      </trkpt>
      <trkpt lat="43.53413" lon="6.30497">
        <ele>371</ele>
        <time>2012-12-02T09:22:52Z</time>
      </trkpt>
      <trkpt lat="43.53417" lon="6.30497">
        <ele>371</ele>
        <time>2012-12-02T09:22:53Z</time>
      </trkpt>
      <trkpt lat="43.53421" lon="6.30497">
        <ele>372</ele>
        <time>2012-12-02T09:22:54Z</time>
      </trkpt>
      <trkpt lat="43.53426" lon="6.30497">
        <ele>372</ele>
        <time>2012-12-02T09:22:55Z</time>
      </trkpt>
      <trkpt lat="43.53439" lon="6.30497">
        <ele>372</ele>
        <time>2012-12-02T09:22:59Z</time>
      </trkpt>
      <trkpt lat="43.53447" lon="6.30497">
        <ele>372</ele>
        <time>2012-12-02T09:23:02Z</time>
      </trkpt>
      <trkpt lat="43.5345" lon="6.30496">
        <ele>373</ele>
        <time>2012-12-02T09:23:03Z</time>
      </trkpt>
      <trkpt lat="43.53453" lon="6.30496">
        <ele>374</ele>
        <time>2012-12-02T09:23:04Z</time>
      </trkpt>
      <trkpt lat="43.53455" lon="6.30495">
        <ele>374</ele>
        <time>2012-12-02T09:23:05Z</time>
      </trkpt>
      <trkpt lat="43.53473" lon="6.30492">
        <ele>374</ele>
        <time>2012-12-02T09:23:10Z</time>
      </trkpt>
      <trkpt lat="43.53496" lon="6.30492">
        <ele>374</ele>
        <time>2012-12-02T09:23:15Z</time>
      </trkpt>
      <trkpt lat="43.53501" lon="6.30492">
        <ele>374</ele>
        <time>2012-12-02T09:23:16Z</time>
      </trkpt>
      <trkpt lat="43.53522" lon="6.3049">
        <ele>374</ele>
        <time>2012-12-02T09:23:21Z</time>
      </trkpt>
      <trkpt lat="43.5353" lon="6.30491">
        <ele>374</ele>
        <time>2012-12-02T09:23:23Z</time>
      </trkpt>
      <trkpt lat="43.53536" lon="6.30492">
        <ele>374</ele>
        <time>2012-12-02T09:23:25Z</time>
      </trkpt>
      <trkpt lat="43.53549" lon="6.3049">
        <ele>374</ele>
        <time>2012-12-02T09:23:30Z</time>
      </trkpt>
      <trkpt lat="43.53568" lon="6.30489">
        <ele>374</ele>
        <time>2012-12-02T09:23:35Z</time>
      </trkpt>
      <trkpt lat="43.5359" lon="6.3049">
        <ele>374</ele>
        <time>2012-12-02T09:23:41Z</time>
      </trkpt>
      <trkpt lat="43.53607" lon="6.30488">
        <ele>374</ele>
        <time>2012-12-02T09:23:46Z</time>
      </trkpt>
      <trkpt lat="43.53624" lon="6.30482">
        <ele>374</ele>
        <time>2012-12-02T09:23:52Z</time>
      </trkpt>
      <trkpt lat="43.53633" lon="6.30477">
        <ele>374</ele>
        <time>2012-12-02T09:23:56Z</time>
      </trkpt>
      <trkpt lat="43.53636" lon="6.30475">
        <ele>375</ele>
        <time>2012-12-02T09:23:57Z</time>
      </trkpt>
      <trkpt lat="43.53638" lon="6.30474">
        <ele>375</ele>
        <time>2012-12-02T09:23:58Z</time>
      </trkpt>
      <trkpt lat="43.53641" lon="6.30472">
        <ele>376</ele>
        <time>2012-12-02T09:23:59Z</time>
      </trkpt>
      <trkpt lat="43.53644" lon="6.30471">
        <ele>376</ele>
        <time>2012-12-02T09:24:00Z</time>
      </trkpt>
      <trkpt lat="43.5365" lon="6.30468">
        <ele>376</ele>
        <time>2012-12-02T09:24:03Z</time>
      </trkpt>
      <trkpt lat="43.53663" lon="6.30462">
        <ele>376</ele>
        <time>2012-12-02T09:24:08Z</time>
      </trkpt>
      <trkpt lat="43.53678" lon="6.30454">
        <ele>376</ele>
        <time>2012-12-02T09:24:14Z</time>
      </trkpt>
      <trkpt lat="43.5368" lon="6.30453">
        <ele>377</ele>
        <time>2012-12-02T09:24:15Z</time>
      </trkpt>
      <trkpt lat="43.53683" lon="6.30452">
        <ele>377</ele>
        <time>2012-12-02T09:24:16Z</time>
      </trkpt>
      <trkpt lat="43.53686" lon="6.30452">
        <ele>378</ele>
        <time>2012-12-02T09:24:17Z</time>
      </trkpt>
      <trkpt lat="43.5369" lon="6.30451">
        <ele>378</ele>
        <time>2012-12-02T09:24:18Z</time>
      </trkpt>
      <trkpt lat="43.53694" lon="6.30452">
        <ele>378</ele>
        <time>2012-12-02T09:24:19Z</time>
      </trkpt>
      <trkpt lat="43.53721" lon="6.30454">
        <ele>378</ele>
        <time>2012-12-02T09:24:25Z</time>
      </trkpt>
      <trkpt lat="43.53727" lon="6.30454">
        <ele>377</ele>
        <time>2012-12-02T09:24:26Z</time>
      </trkpt>
      <trkpt lat="43.53732" lon="6.30453">
        <ele>377</ele>
        <time>2012-12-02T09:24:27Z</time>
      </trkpt>
      <trkpt lat="43.53738" lon="6.30452">
        <ele>376</ele>
        <time>2012-12-02T09:24:28Z</time>
      </trkpt>
      <trkpt lat="43.53743" lon="6.30449">
        <ele>376</ele>
        <time>2012-12-02T09:24:29Z</time>
      </trkpt>
      <trkpt lat="43.53747" lon="6.30445">
        <ele>376</ele>
        <time>2012-12-02T09:24:30Z</time>
      </trkpt>
      <trkpt lat="43.53752" lon="6.30441">
        <ele>375</ele>
        <time>2012-12-02T09:24:31Z</time>
      </trkpt>
      <trkpt lat="43.53757" lon="6.30436">
        <ele>375</ele>
        <time>2012-12-02T09:24:32Z</time>
      </trkpt>
      <trkpt lat="43.53763" lon="6.30432">
        <ele>374</ele>
        <time>2012-12-02T09:24:33Z</time>
      </trkpt>
      <trkpt lat="43.53768" lon="6.3043">
        <ele>374</ele>
        <time>2012-12-02T09:24:34Z</time>
      </trkpt>
      <trkpt lat="43.53773" lon="6.30428">
        <ele>373</ele>
        <time>2012-12-02T09:24:35Z</time>
      </trkpt>
      <trkpt lat="43.53788" lon="6.30423">
        <ele>373</ele>
        <time>2012-12-02T09:24:38Z</time>
      </trkpt>
      <trkpt lat="43.53793" lon="6.3042">
        <ele>373</ele>
        <time>2012-12-02T09:24:39Z</time>
      </trkpt>
      <trkpt lat="43.53798" lon="6.30419">
        <ele>373</ele>
        <time>2012-12-02T09:24:40Z</time>
      </trkpt>
      <trkpt lat="43.53802" lon="6.30416">
        <ele>372</ele>
        <time>2012-12-02T09:24:41Z</time>
      </trkpt>
      <trkpt lat="43.53806" lon="6.30415">
        <ele>372</ele>
        <time>2012-12-02T09:24:42Z</time>
      </trkpt>
      <trkpt lat="43.5381" lon="6.30412">
        <ele>371</ele>
        <time>2012-12-02T09:24:43Z</time>
      </trkpt>
      <trkpt lat="43.5382" lon="6.30409">
        <ele>371</ele>
        <time>2012-12-02T09:24:46Z</time>
      </trkpt>
      <trkpt lat="43.53821" lon="6.3041">
        <ele>371</ele>
        <time>2012-12-02T09:24:47Z</time>
      </trkpt>
      <trkpt lat="43.53826" lon="6.30412">
        <ele>371</ele>
        <time>2012-12-02T09:24:49Z</time>
      </trkpt>
      <trkpt lat="43.53837" lon="6.30414">
        <ele>371</ele>
        <time>2012-12-02T09:24:54Z</time>
      </trkpt>
      <trkpt lat="43.53841" lon="6.30415">
        <ele>371</ele>
        <time>2012-12-02T09:24:55Z</time>
      </trkpt>
      <trkpt lat="43.53849" lon="6.30418">
        <ele>371</ele>
        <time>2012-12-02T09:24:58Z</time>
      </trkpt>
      <trkpt lat="43.5386" lon="6.30425">
        <ele>371</ele>
        <time>2012-12-02T09:25:03Z</time>
      </trkpt>
      <trkpt lat="43.53863" lon="6.30424">
        <ele>371</ele>
        <time>2012-12-02T09:25:04Z</time>
      </trkpt>
      <trkpt lat="43.53874" lon="6.30419">
        <ele>371</ele>
        <time>2012-12-02T09:25:07Z</time>
      </trkpt>
      <trkpt lat="43.53878" lon="6.30417">
        <ele>371</ele>
        <time>2012-12-02T09:25:08Z</time>
      </trkpt>
      <trkpt lat="43.53886" lon="6.30414">
        <ele>371</ele>
        <time>2012-12-02T09:25:10Z</time>
      </trkpt>
      <trkpt lat="43.53903" lon="6.30399">
        <ele>371</ele>
        <time>2012-12-02T09:25:16Z</time>
      </trkpt>
      <trkpt lat="43.53917" lon="6.30378">
        <ele>371</ele>
        <time>2012-12-02T09:25:22Z</time>
      </trkpt>
      <trkpt lat="43.53924" lon="6.30364">
        <ele>371</ele>
        <time>2012-12-02T09:25:26Z</time>
      </trkpt>
      <trkpt lat="43.53924" lon="6.30361">
        <ele>371</ele>
        <time>2012-12-02T09:25:27Z</time>
      </trkpt>
      <trkpt lat="43.53924" lon="6.30356">
        <ele>372</ele>
        <time>2012-12-02T09:25:29Z</time>
      </trkpt>
      <trkpt lat="43.53924" lon="6.30353">
        <ele>372</ele>
        <time>2012-12-02T09:25:30Z</time>
      </trkpt>
      <trkpt lat="43.53925" lon="6.3035">
        <ele>372</ele>
        <time>2012-12-02T09:25:31Z</time>
      </trkpt>
      <trkpt lat="43.53926" lon="6.30348">
        <ele>373</ele>
        <time>2012-12-02T09:25:32Z</time>
      </trkpt>
      <trkpt lat="43.53927" lon="6.30344">
        <ele>373</ele>
        <time>2012-12-02T09:25:36Z</time>
      </trkpt>
      <trkpt lat="43.53937" lon="6.30321">
        <ele>375</ele>
        <time>2012-12-02T09:25:58Z</time>
      </trkpt>
      <trkpt lat="43.53938" lon="6.30318">
        <ele>375</ele>
        <time>2012-12-02T09:25:59Z</time>
      </trkpt>
      <trkpt lat="43.53938" lon="6.30306">
        <ele>375</ele>
        <time>2012-12-02T09:26:02Z</time>
      </trkpt>
      <trkpt lat="43.53939" lon="6.30298">
        <ele>376</ele>
        <time>2012-12-02T09:26:04Z</time>
      </trkpt>
      <trkpt lat="43.53939" lon="6.30293">
        <ele>376</ele>
        <time>2012-12-02T09:26:05Z</time>
      </trkpt>
      <trkpt lat="43.5394" lon="6.30289">
        <ele>377</ele>
        <time>2012-12-02T09:26:06Z</time>
      </trkpt>
      <trkpt lat="43.53942" lon="6.30284">
        <ele>377</ele>
        <time>2012-12-02T09:26:07Z</time>
      </trkpt>
      <trkpt lat="43.53943" lon="6.3028">
        <ele>377</ele>
        <time>2012-12-02T09:26:08Z</time>
      </trkpt>
      <trkpt lat="43.53956" lon="6.30264">
        <ele>377</ele>
        <time>2012-12-02T09:26:13Z</time>
      </trkpt>
      <trkpt lat="43.53961" lon="6.3025">
        <ele>377</ele>
        <time>2012-12-02T09:26:17Z</time>
      </trkpt>
      <trkpt lat="43.53966" lon="6.30236">
        <ele>377</ele>
        <time>2012-12-02T09:26:21Z</time>
      </trkpt>
      <trkpt lat="43.53967" lon="6.30233">
        <ele>377</ele>
        <time>2012-12-02T09:26:22Z</time>
      </trkpt>
      <trkpt lat="43.53981" lon="6.3022">
        <ele>377</ele>
        <time>2012-12-02T09:26:27Z</time>
      </trkpt>
      <trkpt lat="43.53997" lon="6.30206">
        <ele>377</ele>
        <time>2012-12-02T09:26:33Z</time>
      </trkpt>
      <trkpt lat="43.54009" lon="6.3019">
        <ele>378</ele>
        <time>2012-12-02T09:26:38Z</time>
      </trkpt>
      <trkpt lat="43.54012" lon="6.30186">
        <ele>378</ele>
        <time>2012-12-02T09:26:39Z</time>
      </trkpt>
      <trkpt lat="43.54015" lon="6.30183">
        <ele>379</ele>
        <time>2012-12-02T09:26:40Z</time>
      </trkpt>
      <trkpt lat="43.54018" lon="6.3018">
        <ele>379</ele>
        <time>2012-12-02T09:26:41Z</time>
      </trkpt>
      <trkpt lat="43.54021" lon="6.30177">
        <ele>379</ele>
        <time>2012-12-02T09:26:42Z</time>
      </trkpt>
      <trkpt lat="43.54028" lon="6.30167">
        <ele>379</ele>
        <time>2012-12-02T09:26:45Z</time>
      </trkpt>
      <trkpt lat="43.54047" lon="6.3014">
        <ele>379</ele>
        <time>2012-12-02T09:26:52Z</time>
      </trkpt>
      <trkpt lat="43.54063" lon="6.3012">
        <ele>379</ele>
        <time>2012-12-02T09:26:58Z</time>
      </trkpt>
      <trkpt lat="43.54065" lon="6.30116">
        <ele>380</ele>
        <time>2012-12-02T09:26:59Z</time>
      </trkpt>
      <trkpt lat="43.54067" lon="6.30112">
        <ele>380</ele>
        <time>2012-12-02T09:27:00Z</time>
      </trkpt>
      <trkpt lat="43.5407" lon="6.30108">
        <ele>381</ele>
        <time>2012-12-02T09:27:01Z</time>
      </trkpt>
      <trkpt lat="43.54072" lon="6.30104">
        <ele>381</ele>
        <time>2012-12-02T09:27:02Z</time>
      </trkpt>
      <trkpt lat="43.54074" lon="6.301">
        <ele>382</ele>
        <time>2012-12-02T09:27:03Z</time>
      </trkpt>
      <trkpt lat="43.5408" lon="6.30092">
        <ele>382</ele>
        <time>2012-12-02T09:27:06Z</time>
      </trkpt>
      <trkpt lat="43.54082" lon="6.3009">
        <ele>382</ele>
        <time>2012-12-02T09:27:07Z</time>
      </trkpt>
      <trkpt lat="43.54084" lon="6.30084">
        <ele>382</ele>
        <time>2012-12-02T09:27:10Z</time>
      </trkpt>
      <trkpt lat="43.54085" lon="6.30082">
        <ele>383</ele>
        <time>2012-12-02T09:27:11Z</time>
      </trkpt>
      <trkpt lat="43.54086" lon="6.30081">
        <ele>383</ele>
        <time>2012-12-02T09:27:12Z</time>
      </trkpt>
      <trkpt lat="43.54087" lon="6.30079">
        <ele>384</ele>
        <time>2012-12-02T09:27:13Z</time>
      </trkpt>
      <trkpt lat="43.54087" lon="6.30078">
        <ele>384</ele>
        <time>2012-12-02T09:27:14Z</time>
      </trkpt>
      <trkpt lat="43.54091" lon="6.30071">
        <ele>384</ele>
        <time>2012-12-02T09:27:18Z</time>
      </trkpt>
      <trkpt lat="43.54092" lon="6.30069">
        <ele>384</ele>
        <time>2012-12-02T09:27:19Z</time>
      </trkpt>
      <trkpt lat="43.54093" lon="6.30067">
        <ele>384</ele>
        <time>2012-12-02T09:27:20Z</time>
      </trkpt>
      <trkpt lat="43.54094" lon="6.30066">
        <ele>385</ele>
        <time>2012-12-02T09:27:21Z</time>
      </trkpt>
      <trkpt lat="43.54094" lon="6.30065">
        <ele>385</ele>
        <time>2012-12-02T09:27:22Z</time>
      </trkpt>
      <trkpt lat="43.54099" lon="6.30053">
        <ele>386</ele>
        <time>2012-12-02T09:27:29Z</time>
      </trkpt>
      <trkpt lat="43.541" lon="6.30051">
        <ele>387</ele>
        <time>2012-12-02T09:27:30Z</time>
      </trkpt>
      <trkpt lat="43.54101" lon="6.30049">
        <ele>387</ele>
        <time>2012-12-02T09:27:31Z</time>
      </trkpt>
      <trkpt lat="43.54102" lon="6.30048">
        <ele>387</ele>
        <time>2012-12-02T09:27:32Z</time>
      </trkpt>
      <trkpt lat="43.54103" lon="6.30045">
        <ele>388</ele>
        <time>2012-12-02T09:27:33Z</time>
      </trkpt>
      <trkpt lat="43.54104" lon="6.30043">
        <ele>388</ele>
        <time>2012-12-02T09:27:34Z</time>
      </trkpt>
      <trkpt lat="43.54107" lon="6.30033">
        <ele>388</ele>
        <time>2012-12-02T09:27:38Z</time>
      </trkpt>
      <trkpt lat="43.54111" lon="6.30028">
        <ele>388</ele>
        <time>2012-12-02T09:27:40Z</time>
      </trkpt>
      <trkpt lat="43.54115" lon="6.30023">
        <ele>388</ele>
        <time>2012-12-02T09:27:42Z</time>
      </trkpt>
      <trkpt lat="43.54119" lon="6.30015">
        <ele>388</ele>
        <time>2012-12-02T09:27:46Z</time>
      </trkpt>
      <trkpt lat="43.5412" lon="6.30012">
        <ele>388</ele>
        <time>2012-12-02T09:27:47Z</time>
      </trkpt>
      <trkpt lat="43.54121" lon="6.30009">
        <ele>389</ele>
        <time>2012-12-02T09:27:48Z</time>
      </trkpt>
      <trkpt lat="43.54123" lon="6.30007">
        <ele>389</ele>
        <time>2012-12-02T09:27:49Z</time>
      </trkpt>
      <trkpt lat="43.54125" lon="6.30004">
        <ele>390</ele>
        <time>2012-12-02T09:27:50Z</time>
      </trkpt>
      <trkpt lat="43.54126" lon="6.30002">
        <ele>390</ele>
        <time>2012-12-02T09:27:51Z</time>
      </trkpt>
      <trkpt lat="43.54126" lon="6.29999">
        <ele>390</ele>
        <time>2012-12-02T09:27:52Z</time>
      </trkpt>
      <trkpt lat="43.54127" lon="6.29997">
        <ele>390</ele>
        <time>2012-12-02T09:27:53Z</time>
      </trkpt>
      <trkpt lat="43.54137" lon="6.29981">
        <ele>390</ele>
        <time>2012-12-02T09:27:59Z</time>
      </trkpt>
      <trkpt lat="43.54145" lon="6.29973">
        <ele>390</ele>
        <time>2012-12-02T09:28:03Z</time>
      </trkpt>
      <trkpt lat="43.54149" lon="6.2997">
        <ele>390</ele>
        <time>2012-12-02T09:28:05Z</time>
      </trkpt>
      <trkpt lat="43.54155" lon="6.2996">
        <ele>390</ele>
        <time>2012-12-02T09:28:09Z</time>
      </trkpt>
      <trkpt lat="43.54157" lon="6.29958">
        <ele>390</ele>
        <time>2012-12-02T09:28:10Z</time>
      </trkpt>
      <trkpt lat="43.54168" lon="6.29937">
        <ele>390</ele>
        <time>2012-12-02T09:28:15Z</time>
      </trkpt>
      <trkpt lat="43.54182" lon="6.29922">
        <ele>390</ele>
        <time>2012-12-02T09:28:19Z</time>
      </trkpt>
      <trkpt lat="43.54198" lon="6.29908">
        <ele>390</ele>
        <time>2012-12-02T09:28:25Z</time>
      </trkpt>
      <trkpt lat="43.54198" lon="6.29907">
        <ele>390</ele>
        <time>2012-12-02T09:28:27Z</time>
      </trkpt>
      <trkpt lat="43.54204" lon="6.29907">
        <ele>388</ele>
        <time>2012-12-02T09:31:49Z</time>
      </trkpt>
      <trkpt lat="43.54206" lon="6.29908">
        <ele>388</ele>
        <time>2012-12-02T09:31:50Z</time>
      </trkpt>
      <trkpt lat="43.54219" lon="6.29913">
        <ele>388</ele>
        <time>2012-12-02T09:31:54Z</time>
      </trkpt>
      <trkpt lat="43.54235" lon="6.29916">
        <ele>388</ele>
        <time>2012-12-02T09:32:00Z</time>
      </trkpt>
      <trkpt lat="43.54247" lon="6.29925">
        <ele>388</ele>
        <time>2012-12-02T09:32:06Z</time>
      </trkpt>
      <trkpt lat="43.54249" lon="6.29927">
        <ele>388</ele>
        <time>2012-12-02T09:32:07Z</time>
      </trkpt>
      <trkpt lat="43.54251" lon="6.2993">
        <ele>389</ele>
        <time>2012-12-02T09:32:08Z</time>
      </trkpt>
      <trkpt lat="43.54252" lon="6.29932">
        <ele>389</ele>
        <time>2012-12-02T09:32:09Z</time>
      </trkpt>
      <trkpt lat="43.54254" lon="6.29934">
        <ele>390</ele>
        <time>2012-12-02T09:32:10Z</time>
      </trkpt>
      <trkpt lat="43.54256" lon="6.29936">
        <ele>390</ele>
        <time>2012-12-02T09:32:11Z</time>
      </trkpt>
      <trkpt lat="43.54257" lon="6.29938">
        <ele>390</ele>
        <time>2012-12-02T09:32:12Z</time>
      </trkpt>
      <trkpt lat="43.54268" lon="6.29951">
        <ele>390</ele>
        <time>2012-12-02T09:32:18Z</time>
      </trkpt>
      <trkpt lat="43.5427" lon="6.29953">
        <ele>391</ele>
        <time>2012-12-02T09:32:19Z</time>
      </trkpt>
      <trkpt lat="43.54271" lon="6.29956">
        <ele>391</ele>
        <time>2012-12-02T09:32:20Z</time>
      </trkpt>
      <trkpt lat="43.54273" lon="6.29958">
        <ele>392</ele>
        <time>2012-12-02T09:32:21Z</time>
      </trkpt>
      <trkpt lat="43.54275" lon="6.2996">
        <ele>392</ele>
        <time>2012-12-02T09:32:22Z</time>
      </trkpt>
      <trkpt lat="43.5428" lon="6.29968">
        <ele>392</ele>
        <time>2012-12-02T09:32:25Z</time>
      </trkpt>
      <trkpt lat="43.54286" lon="6.29975">
        <ele>392</ele>
        <time>2012-12-02T09:32:29Z</time>
      </trkpt>
      <trkpt lat="43.54288" lon="6.29978">
        <ele>393</ele>
        <time>2012-12-02T09:32:30Z</time>
      </trkpt>
      <trkpt lat="43.54289" lon="6.29981">
        <ele>394</ele>
        <time>2012-12-02T09:32:31Z</time>
      </trkpt>
      <trkpt lat="43.54291" lon="6.29983">
        <ele>394</ele>
        <time>2012-12-02T09:32:32Z</time>
      </trkpt>
      <trkpt lat="43.54299" lon="6.29995">
        <ele>394</ele>
        <time>2012-12-02T09:32:37Z</time>
      </trkpt>
      <trkpt lat="43.54306" lon="6.30007">
        <ele>394</ele>
        <time>2012-12-02T09:32:41Z</time>
      </trkpt>
      <trkpt lat="43.54308" lon="6.30009">
        <ele>395</ele>
        <time>2012-12-02T09:32:42Z</time>
      </trkpt>
      <trkpt lat="43.5431" lon="6.30012">
        <ele>395</ele>
        <time>2012-12-02T09:32:43Z</time>
      </trkpt>
      <trkpt lat="43.54313" lon="6.30015">
        <ele>396</ele>
        <time>2012-12-02T09:32:44Z</time>
      </trkpt>
      <trkpt lat="43.54315" lon="6.30017">
        <ele>396</ele>
        <time>2012-12-02T09:32:45Z</time>
      </trkpt>
      <trkpt lat="43.54321" lon="6.3002">
        <ele>396</ele>
        <time>2012-12-02T09:32:48Z</time>
      </trkpt>
      <trkpt lat="43.54322" lon="6.30019">
        <ele>396</ele>
        <time>2012-12-02T09:32:49Z</time>
      </trkpt>
      <trkpt lat="43.54327" lon="6.30012">
        <ele>396</ele>
        <time>2012-12-02T09:32:54Z</time>
      </trkpt>
      <trkpt lat="43.54335" lon="6.29999">
        <ele>396</ele>
        <time>2012-12-02T09:32:59Z</time>
      </trkpt>
      <trkpt lat="43.54337" lon="6.29997">
        <ele>397</ele>
        <time>2012-12-02T09:33:00Z</time>
      </trkpt>
      <trkpt lat="43.54339" lon="6.29995">
        <ele>397</ele>
        <time>2012-12-02T09:33:01Z</time>
      </trkpt>
      <trkpt lat="43.54342" lon="6.29992">
        <ele>397</ele>
        <time>2012-12-02T09:33:02Z</time>
      </trkpt>
      <trkpt lat="43.54345" lon="6.29989">
        <ele>398</ele>
        <time>2012-12-02T09:33:03Z</time>
      </trkpt>
      <trkpt lat="43.54348" lon="6.29988">
        <ele>398</ele>
        <time>2012-12-02T09:33:04Z</time>
      </trkpt>
      <trkpt lat="43.5435" lon="6.29987">
        <ele>398</ele>
        <time>2012-12-02T09:33:05Z</time>
      </trkpt>
      <trkpt lat="43.54368" lon="6.29968">
        <ele>398</ele>
        <time>2012-12-02T09:33:11Z</time>
      </trkpt>
      <trkpt lat="43.54389" lon="6.2994">
        <ele>398</ele>
        <time>2012-12-02T09:33:18Z</time>
      </trkpt>
      <trkpt lat="43.54404" lon="6.29918">
        <ele>398</ele>
        <time>2012-12-02T09:33:24Z</time>
      </trkpt>
      <trkpt lat="43.54422" lon="6.29888">
        <ele>398</ele>
        <time>2012-12-02T09:33:32Z</time>
      </trkpt>
      <trkpt lat="43.54433" lon="6.29866">
        <ele>398</ele>
        <time>2012-12-02T09:33:38Z</time>
      </trkpt>
      <trkpt lat="43.54447" lon="6.29843">
        <ele>398</ele>
        <time>2012-12-02T09:33:45Z</time>
      </trkpt>
      <trkpt lat="43.54448" lon="6.29839">
        <ele>399</ele>
        <time>2012-12-02T09:33:46Z</time>
      </trkpt>
      <trkpt lat="43.54448" lon="6.29836">
        <ele>399</ele>
        <time>2012-12-02T09:33:47Z</time>
      </trkpt>
      <trkpt lat="43.54449" lon="6.29833">
        <ele>400</ele>
        <time>2012-12-02T09:33:48Z</time>
      </trkpt>
      <trkpt lat="43.5445" lon="6.2983">
        <ele>400</ele>
        <time>2012-12-02T09:33:49Z</time>
      </trkpt>
      <trkpt lat="43.54451" lon="6.29827">
        <ele>400</ele>
        <time>2012-12-02T09:33:50Z</time>
      </trkpt>
      <trkpt lat="43.54458" lon="6.29809">
        <ele>400</ele>
        <time>2012-12-02T09:33:56Z</time>
      </trkpt>
      <trkpt lat="43.5447" lon="6.29792">
        <ele>400</ele>
        <time>2012-12-02T09:34:01Z</time>
      </trkpt>
      <trkpt lat="43.54492" lon="6.29763">
        <ele>400</ele>
        <time>2012-12-02T09:34:07Z</time>
      </trkpt>
      <trkpt lat="43.54501" lon="6.29749">
        <ele>400</ele>
        <time>2012-12-02T09:34:10Z</time>
      </trkpt>
      <trkpt lat="43.54508" lon="6.2974">
        <ele>400</ele>
        <time>2012-12-02T09:34:12Z</time>
      </trkpt>
      <trkpt lat="43.54512" lon="6.29736">
        <ele>400</ele>
        <time>2012-12-02T09:34:13Z</time>
      </trkpt>
      <trkpt lat="43.54538" lon="6.29716">
        <ele>400</ele>
        <time>2012-12-02T09:34:19Z</time>
      </trkpt>
      <trkpt lat="43.54542" lon="6.29715">
        <ele>400</ele>
        <time>2012-12-02T09:34:20Z</time>
      </trkpt>
      <trkpt lat="43.54556" lon="6.29708">
        <ele>400</ele>
        <time>2012-12-02T09:34:23Z</time>
      </trkpt>
      <trkpt lat="43.54564" lon="6.29703">
        <ele>400</ele>
        <time>2012-12-02T09:34:25Z</time>
      </trkpt>
      <trkpt lat="43.54585" lon="6.29687">
        <ele>400</ele>
        <time>2012-12-02T09:34:32Z</time>
      </trkpt>
      <trkpt lat="43.54601" lon="6.29674">
        <ele>400</ele>
        <time>2012-12-02T09:34:37Z</time>
      </trkpt>
      <trkpt lat="43.54604" lon="6.29671">
        <ele>400</ele>
        <time>2012-12-02T09:34:38Z</time>
      </trkpt>
      <trkpt lat="43.54616" lon="6.29648">
        <ele>400</ele>
        <time>2012-12-02T09:34:43Z</time>
      </trkpt>
      <trkpt lat="43.54615" lon="6.2963">
        <ele>400</ele>
        <time>2012-12-02T09:34:46Z</time>
      </trkpt>
      <trkpt lat="43.54616" lon="6.29624">
        <ele>400</ele>
        <time>2012-12-02T09:34:47Z</time>
      </trkpt>
      <trkpt lat="43.54617" lon="6.29611">
        <ele>400</ele>
        <time>2012-12-02T09:34:49Z</time>
      </trkpt>
      <trkpt lat="43.54619" lon="6.29605">
        <ele>400</ele>
        <time>2012-12-02T09:34:50Z</time>
      </trkpt>
      <trkpt lat="43.54619" lon="6.29599">
        <ele>399</ele>
        <time>2012-12-02T09:34:51Z</time>
      </trkpt>
      <trkpt lat="43.5462" lon="6.29593">
        <ele>399</ele>
        <time>2012-12-02T09:34:52Z</time>
      </trkpt>
      <trkpt lat="43.54621" lon="6.29587">
        <ele>398</ele>
        <time>2012-12-02T09:34:53Z</time>
      </trkpt>
      <trkpt lat="43.54622" lon="6.29572">
        <ele>398</ele>
        <time>2012-12-02T09:34:56Z</time>
      </trkpt>
      <trkpt lat="43.54625" lon="6.29535">
        <ele>398</ele>
        <time>2012-12-02T09:35:02Z</time>
      </trkpt>
      <trkpt lat="43.54627" lon="6.29509">
        <ele>398</ele>
        <time>2012-12-02T09:35:07Z</time>
      </trkpt>
      <trkpt lat="43.54636" lon="6.29484">
        <ele>398</ele>
        <time>2012-12-02T09:35:12Z</time>
      </trkpt>
      <trkpt lat="43.54653" lon="6.29464">
        <ele>398</ele>
        <time>2012-12-02T09:35:18Z</time>
      </trkpt>
      <trkpt lat="43.54663" lon="6.29448">
        <ele>399</ele>
        <time>2012-12-02T09:35:23Z</time>
      </trkpt>
      <trkpt lat="43.54665" lon="6.29444">
        <ele>399</ele>
        <time>2012-12-02T09:35:24Z</time>
      </trkpt>
      <trkpt lat="43.54667" lon="6.29441">
        <ele>400</ele>
        <time>2012-12-02T09:35:25Z</time>
      </trkpt>
      <trkpt lat="43.54669" lon="6.29437">
        <ele>400</ele>
        <time>2012-12-02T09:35:26Z</time>
      </trkpt>
      <trkpt lat="43.54672" lon="6.29432">
        <ele>400</ele>
        <time>2012-12-02T09:35:28Z</time>
      </trkpt>
      <trkpt lat="43.54684" lon="6.29408">
        <ele>400</ele>
        <time>2012-12-02T09:35:34Z</time>
      </trkpt>
      <trkpt lat="43.54692" lon="6.29393">
        <ele>401</ele>
        <time>2012-12-02T09:35:38Z</time>
      </trkpt>
      <trkpt lat="43.54694" lon="6.29389">
        <ele>401</ele>
        <time>2012-12-02T09:35:39Z</time>
      </trkpt>
      <trkpt lat="43.54696" lon="6.29385">
        <ele>402</ele>
        <time>2012-12-02T09:35:40Z</time>
      </trkpt>
      <trkpt lat="43.54697" lon="6.29382">
        <ele>402</ele>
        <time>2012-12-02T09:35:41Z</time>
      </trkpt>
      <trkpt lat="43.54699" lon="6.29378">
        <ele>402</ele>
        <time>2012-12-02T09:35:42Z</time>
      </trkpt>
      <trkpt lat="43.54705" lon="6.29368">
        <ele>403</ele>
        <time>2012-12-02T09:35:45Z</time>
      </trkpt>
      <trkpt lat="43.54707" lon="6.29365">
        <ele>403</ele>
        <time>2012-12-02T09:35:46Z</time>
      </trkpt>
      <trkpt lat="43.54709" lon="6.29361">
        <ele>404</ele>
        <time>2012-12-02T09:35:47Z</time>
      </trkpt>
      <trkpt lat="43.54711" lon="6.29358">
        <ele>404</ele>
        <time>2012-12-02T09:35:48Z</time>
      </trkpt>
      <trkpt lat="43.54713" lon="6.29353">
        <ele>405</ele>
        <time>2012-12-02T09:35:49Z</time>
      </trkpt>
      <trkpt lat="43.54717" lon="6.2934">
        <ele>405</ele>
        <time>2012-12-02T09:35:52Z</time>
      </trkpt>
      <trkpt lat="43.5472" lon="6.29329">
        <ele>405</ele>
        <time>2012-12-02T09:35:54Z</time>
      </trkpt>
      <trkpt lat="43.54719" lon="6.29316">
        <ele>405</ele>
        <time>2012-12-02T09:35:56Z</time>
      </trkpt>
      <trkpt lat="43.54727" lon="6.29293">
        <ele>405</ele>
        <time>2012-12-02T09:36:00Z</time>
      </trkpt>
      <trkpt lat="43.54736" lon="6.29276">
        <ele>405</ele>
        <time>2012-12-02T09:36:04Z</time>
      </trkpt>
      <trkpt lat="43.54739" lon="6.29259">
        <ele>405</ele>
        <time>2012-12-02T09:36:08Z</time>
      </trkpt>
      <trkpt lat="43.54732" lon="6.2924">
        <ele>405</ele>
        <time>2012-12-02T09:36:13Z</time>
      </trkpt>
      <trkpt lat="43.54726" lon="6.2923">
        <ele>405</ele>
        <time>2012-12-02T09:36:17Z</time>
      </trkpt>
      <trkpt lat="43.54716" lon="6.29224">
        <ele>405</ele>
        <time>2012-12-02T09:36:21Z</time>
      </trkpt>
      <trkpt lat="43.54714" lon="6.29216">
        <ele>405</ele>
        <time>2012-12-02T09:36:24Z</time>
      </trkpt>
      <trkpt lat="43.54717" lon="6.29207">
        <ele>405</ele>
        <time>2012-12-02T09:36:28Z</time>
      </trkpt>
      <trkpt lat="43.54716" lon="6.29186">
        <ele>405</ele>
        <time>2012-12-02T09:36:33Z</time>
      </trkpt>
      <trkpt lat="43.54714" lon="6.29171">
        <ele>405</ele>
        <time>2012-12-02T09:36:37Z</time>
      </trkpt>
      <trkpt lat="43.54714" lon="6.29168">
        <ele>405</ele>
        <time>2012-12-02T09:36:38Z</time>
      </trkpt>
      <trkpt lat="43.54715" lon="6.29156">
        <ele>405</ele>
        <time>2012-12-02T09:36:41Z</time>
      </trkpt>
      <trkpt lat="43.54716" lon="6.29152">
        <ele>405</ele>
        <time>2012-12-02T09:36:42Z</time>
      </trkpt>
      <trkpt lat="43.54716" lon="6.29149">
        <ele>406</ele>
        <time>2012-12-02T09:36:43Z</time>
      </trkpt>
      <trkpt lat="43.54716" lon="6.29146">
        <ele>406</ele>
        <time>2012-12-02T09:36:44Z</time>
      </trkpt>
      <trkpt lat="43.54717" lon="6.29143">
        <ele>407</ele>
        <time>2012-12-02T09:36:45Z</time>
      </trkpt>
      <trkpt lat="43.54718" lon="6.2913">
        <ele>407</ele>
        <time>2012-12-02T09:36:49Z</time>
      </trkpt>
      <trkpt lat="43.54718" lon="6.29128">
        <ele>407</ele>
        <time>2012-12-02T09:36:50Z</time>
      </trkpt>
      <trkpt lat="43.54718" lon="6.29125">
        <ele>408</ele>
        <time>2012-12-02T09:36:51Z</time>
      </trkpt>
      <trkpt lat="43.54718" lon="6.29123">
        <ele>408</ele>
        <time>2012-12-02T09:36:52Z</time>
      </trkpt>
      <trkpt lat="43.54718" lon="6.2912">
        <ele>409</ele>
        <time>2012-12-02T09:36:53Z</time>
      </trkpt>
      <trkpt lat="43.54718" lon="6.29111">
        <ele>409</ele>
        <time>2012-12-02T09:36:56Z</time>
      </trkpt>
      <trkpt lat="43.54718" lon="6.29099">
        <ele>409</ele>
        <time>2012-12-02T09:37:00Z</time>
      </trkpt>
      <trkpt lat="43.54718" lon="6.29096">
        <ele>410</ele>
        <time>2012-12-02T09:37:01Z</time>
      </trkpt>
      <trkpt lat="43.54718" lon="6.29094">
        <ele>410</ele>
        <time>2012-12-02T09:37:02Z</time>
      </trkpt>
      <trkpt lat="43.54719" lon="6.29091">
        <ele>410</ele>
        <time>2012-12-02T09:37:03Z</time>
      </trkpt>
      <trkpt lat="43.5472" lon="6.29088">
        <ele>411</ele>
        <time>2012-12-02T09:37:04Z</time>
      </trkpt>
      <trkpt lat="43.54724" lon="6.29082">
        <ele>411</ele>
        <time>2012-12-02T09:37:06Z</time>
      </trkpt>
      <trkpt lat="43.54733" lon="6.29065">
        <ele>411</ele>
        <time>2012-12-02T09:37:11Z</time>
      </trkpt>
      <trkpt lat="43.54743" lon="6.29039">
        <ele>411</ele>
        <time>2012-12-02T09:37:18Z</time>
      </trkpt>
      <trkpt lat="43.54754" lon="6.29017">
        <ele>411</ele>
        <time>2012-12-02T09:37:25Z</time>
      </trkpt>
      <trkpt lat="43.54764" lon="6.29">
        <ele>411</ele>
        <time>2012-12-02T09:37:30Z</time>
      </trkpt>
      <trkpt lat="43.54766" lon="6.28996">
        <ele>411</ele>
        <time>2012-12-02T09:37:31Z</time>
      </trkpt>
      <trkpt lat="43.54768" lon="6.28993">
        <ele>412</ele>
        <time>2012-12-02T09:37:32Z</time>
      </trkpt>
      <trkpt lat="43.5477" lon="6.28989">
        <ele>412</ele>
        <time>2012-12-02T09:37:33Z</time>
      </trkpt>
      <trkpt lat="43.54771" lon="6.28986">
        <ele>412</ele>
        <time>2012-12-02T09:37:34Z</time>
      </trkpt>
      <trkpt lat="43.54773" lon="6.28981">
        <ele>413</ele>
        <time>2012-12-02T09:37:35Z</time>
      </trkpt>
      <trkpt lat="43.54781" lon="6.28961">
        <ele>413</ele>
        <time>2012-12-02T09:37:40Z</time>
      </trkpt>
      <trkpt lat="43.54784" lon="6.2894">
        <ele>413</ele>
        <time>2012-12-02T09:37:44Z</time>
      </trkpt>
      <trkpt lat="43.54792" lon="6.2892">
        <ele>413</ele>
        <time>2012-12-02T09:37:49Z</time>
      </trkpt>
      <trkpt lat="43.54796" lon="6.28897">
        <ele>413</ele>
        <time>2012-12-02T09:37:54Z</time>
      </trkpt>
      <trkpt lat="43.54802" lon="6.28874">
        <ele>413</ele>
        <time>2012-12-02T09:37:59Z</time>
      </trkpt>
      <trkpt lat="43.54812" lon="6.28841">
        <ele>413</ele>
        <time>2012-12-02T09:38:07Z</time>
      </trkpt>
      <trkpt lat="43.54822" lon="6.28819">
        <ele>413</ele>
        <time>2012-12-02T09:38:12Z</time>
      </trkpt>
      <trkpt lat="43.54829" lon="6.288">
        <ele>413</ele>
        <time>2012-12-02T09:38:18Z</time>
      </trkpt>
      <trkpt lat="43.54837" lon="6.2878">
        <ele>413</ele>
        <time>2012-12-02T09:38:24Z</time>
      </trkpt>
      <trkpt lat="43.5484" lon="6.28774">
        <ele>413</ele>
        <time>2012-12-02T09:38:26Z</time>
      </trkpt>
      <trkpt lat="43.54841" lon="6.28771">
        <ele>414</ele>
        <time>2012-12-02T09:38:27Z</time>
      </trkpt>
      <trkpt lat="43.54842" lon="6.28766">
        <ele>414</ele>
        <time>2012-12-02T09:38:28Z</time>
      </trkpt>
      <trkpt lat="43.54843" lon="6.28763">
        <ele>414</ele>
        <time>2012-12-02T09:38:29Z</time>
      </trkpt>
      <trkpt lat="43.54843" lon="6.2876">
        <ele>415</ele>
        <time>2012-12-02T09:38:30Z</time>
      </trkpt>
      <trkpt lat="43.54848" lon="6.28727">
        <ele>415</ele>
        <time>2012-12-02T09:38:38Z</time>
      </trkpt>
      <trkpt lat="43.54851" lon="6.28702">
        <ele>415</ele>
        <time>2012-12-02T09:38:44Z</time>
      </trkpt>
      <trkpt lat="43.54861" lon="6.28677">
        <ele>415</ele>
        <time>2012-12-02T09:38:49Z</time>
      </trkpt>
      <trkpt lat="43.54874" lon="6.28652">
        <ele>415</ele>
        <time>2012-12-02T09:38:54Z</time>
      </trkpt>
      <trkpt lat="43.54883" lon="6.28632">
        <ele>415</ele>
        <time>2012-12-02T09:38:59Z</time>
      </trkpt>
      <trkpt lat="43.54892" lon="6.28604">
        <ele>415</ele>
        <time>2012-12-02T09:39:05Z</time>
      </trkpt>
      <trkpt lat="43.54903" lon="6.28571">
        <ele>415</ele>
        <time>2012-12-02T09:39:12Z</time>
      </trkpt>
      <trkpt lat="43.54906" lon="6.28555">
        <ele>415</ele>
        <time>2012-12-02T09:39:17Z</time>
      </trkpt>
      <trkpt lat="43.54912" lon="6.28528">
        <ele>415</ele>
        <time>2012-12-02T09:39:23Z</time>
      </trkpt>
      <trkpt lat="43.54915" lon="6.28505">
        <ele>415</ele>
        <time>2012-12-02T09:39:28Z</time>
      </trkpt>
      <trkpt lat="43.54915" lon="6.28501">
        <ele>416</ele>
        <time>2012-12-02T09:39:29Z</time>
      </trkpt>
      <trkpt lat="43.54916" lon="6.28497">
        <ele>416</ele>
        <time>2012-12-02T09:39:30Z</time>
      </trkpt>
      <trkpt lat="43.54916" lon="6.28494">
        <ele>417</ele>
        <time>2012-12-02T09:39:31Z</time>
      </trkpt>
      <trkpt lat="43.54916" lon="6.28489">
        <ele>417</ele>
        <time>2012-12-02T09:39:32Z</time>
      </trkpt>
      <trkpt lat="43.54921" lon="6.28474">
        <ele>417</ele>
        <time>2012-12-02T09:39:36Z</time>
      </trkpt>
      <trkpt lat="43.54925" lon="6.28456">
        <ele>417</ele>
        <time>2012-12-02T09:39:41Z</time>
      </trkpt>
      <trkpt lat="43.54926" lon="6.28435">
        <ele>417</ele>
        <time>2012-12-02T09:39:47Z</time>
      </trkpt>
      <trkpt lat="43.54928" lon="6.28419">
        <ele>417</ele>
        <time>2012-12-02T09:39:52Z</time>
      </trkpt>
      <trkpt lat="43.54932" lon="6.28397">
        <ele>417</ele>
        <time>2012-12-02T09:39:57Z</time>
      </trkpt>
      <trkpt lat="43.54935" lon="6.28372">
        <ele>417</ele>
        <time>2012-12-02T09:40:03Z</time>
      </trkpt>
      <trkpt lat="43.54935" lon="6.28351">
        <ele>417</ele>
        <time>2012-12-02T09:40:08Z</time>
      </trkpt>
      <trkpt lat="43.54935" lon="6.28329">
        <ele>417</ele>
        <time>2012-12-02T09:40:13Z</time>
      </trkpt>
      <trkpt lat="43.54935" lon="6.28301">
        <ele>417</ele>
        <time>2012-12-02T09:40:19Z</time>
      </trkpt>
      <trkpt lat="43.54932" lon="6.28269">
        <ele>417</ele>
        <time>2012-12-02T09:40:26Z</time>
      </trkpt>
      <trkpt lat="43.54933" lon="6.28246">
        <ele>417</ele>
        <time>2012-12-02T09:40:31Z</time>
      </trkpt>
      <trkpt lat="43.54934" lon="6.28214">
        <ele>417</ele>
        <time>2012-12-02T09:40:37Z</time>
      </trkpt>
      <trkpt lat="43.54928" lon="6.28194">
        <ele>417</ele>
        <time>2012-12-02T09:40:42Z</time>
      </trkpt>
      <trkpt lat="43.54924" lon="6.28173">
        <ele>417</ele>
        <time>2012-12-02T09:40:47Z</time>
      </trkpt>
      <trkpt lat="43.54918" lon="6.28148">
        <ele>417</ele>
        <time>2012-12-02T09:40:53Z</time>
      </trkpt>
      <trkpt lat="43.54906" lon="6.28126">
        <ele>417</ele>
        <time>2012-12-02T09:40:59Z</time>
      </trkpt>
      <trkpt lat="43.54904" lon="6.28122">
        <ele>418</ele>
        <time>2012-12-02T09:41:00Z</time>
      </trkpt>
      <trkpt lat="43.54902" lon="6.2812">
        <ele>418</ele>
        <time>2012-12-02T09:41:01Z</time>
      </trkpt>
      <trkpt lat="43.549" lon="6.28118">
        <ele>418</ele>
        <time>2012-12-02T09:41:02Z</time>
      </trkpt>
      <trkpt lat="43.54897" lon="6.28116">
        <ele>419</ele>
        <time>2012-12-02T09:41:03Z</time>
      </trkpt>
      <trkpt lat="43.54895" lon="6.28115">
        <ele>419</ele>
        <time>2012-12-02T09:41:04Z</time>
      </trkpt>
      <trkpt lat="43.54881" lon="6.28107">
        <ele>419</ele>
        <time>2012-12-02T09:41:09Z</time>
      </trkpt>
      <trkpt lat="43.54874" lon="6.28104">
        <ele>420</ele>
        <time>2012-12-02T09:41:12Z</time>
      </trkpt>
      <trkpt lat="43.54872" lon="6.28102">
        <ele>420</ele>
        <time>2012-12-02T09:41:13Z</time>
      </trkpt>
      <trkpt lat="43.5487" lon="6.28099">
        <ele>421</ele>
        <time>2012-12-02T09:41:14Z</time>
      </trkpt>
      <trkpt lat="43.54867" lon="6.28097">
        <ele>421</ele>
        <time>2012-12-02T09:41:15Z</time>
      </trkpt>
      <trkpt lat="43.54866" lon="6.28095">
        <ele>421</ele>
        <time>2012-12-02T09:41:16Z</time>
      </trkpt>
      <trkpt lat="43.54856" lon="6.28086">
        <ele>421</ele>
        <time>2012-12-02T09:41:20Z</time>
      </trkpt>
      <trkpt lat="43.54841" lon="6.28076">
        <ele>421</ele>
        <time>2012-12-02T09:41:25Z</time>
      </trkpt>
      <trkpt lat="43.54821" lon="6.28065">
        <ele>422</ele>
        <time>2012-12-02T09:41:31Z</time>
      </trkpt>
      <trkpt lat="43.54818" lon="6.28063">
        <ele>422</ele>
        <time>2012-12-02T09:41:32Z</time>
      </trkpt>
      <trkpt lat="43.54814" lon="6.28061">
        <ele>423</ele>
        <time>2012-12-02T09:41:33Z</time>
      </trkpt>
      <trkpt lat="43.54811" lon="6.2806">
        <ele>423</ele>
        <time>2012-12-02T09:41:34Z</time>
      </trkpt>
      <trkpt lat="43.54808" lon="6.28058">
        <ele>424</ele>
        <time>2012-12-02T09:41:35Z</time>
      </trkpt>
      <trkpt lat="43.54801" lon="6.28053">
        <ele>424</ele>
        <time>2012-12-02T09:41:37Z</time>
      </trkpt>
      <trkpt lat="43.54787" lon="6.28047">
        <ele>424</ele>
        <time>2012-12-02T09:41:42Z</time>
      </trkpt>
      <trkpt lat="43.54777" lon="6.28045">
        <ele>424</ele>
        <time>2012-12-02T09:41:45Z</time>
      </trkpt>
      <trkpt lat="43.54772" lon="6.28049">
        <ele>424</ele>
        <time>2012-12-02T09:41:47Z</time>
      </trkpt>
      <trkpt lat="43.54769" lon="6.28052">
        <ele>424</ele>
        <time>2012-12-02T09:41:48Z</time>
      </trkpt>
      <trkpt lat="43.54767" lon="6.28055">
        <ele>425</ele>
        <time>2012-12-02T09:41:49Z</time>
      </trkpt>
      <trkpt lat="43.54765" lon="6.28058">
        <ele>425</ele>
        <time>2012-12-02T09:41:50Z</time>
      </trkpt>
      <trkpt lat="43.54762" lon="6.28061">
        <ele>426</ele>
        <time>2012-12-02T09:41:51Z</time>
      </trkpt>
      <trkpt lat="43.54758" lon="6.28065">
        <ele>426</ele>
        <time>2012-12-02T09:41:53Z</time>
      </trkpt>
      <trkpt lat="43.54738" lon="6.28074">
        <ele>426</ele>
        <time>2012-12-02T09:41:59Z</time>
      </trkpt>
      <trkpt lat="43.54719" lon="6.28072">
        <ele>426</ele>
        <time>2012-12-02T09:42:04Z</time>
      </trkpt>
      <trkpt lat="43.54709" lon="6.28073">
        <ele>426</ele>
        <time>2012-12-02T09:42:07Z</time>
      </trkpt>
      <trkpt lat="43.54706" lon="6.28072">
        <ele>426</ele>
        <time>2012-12-02T09:42:08Z</time>
      </trkpt>
      <trkpt lat="43.54702" lon="6.28072">
        <ele>427</ele>
        <time>2012-12-02T09:42:09Z</time>
      </trkpt>
      <trkpt lat="43.54699" lon="6.28072">
        <ele>427</ele>
        <time>2012-12-02T09:42:10Z</time>
      </trkpt>
      <trkpt lat="43.54696" lon="6.28071">
        <ele>428</ele>
        <time>2012-12-02T09:42:11Z</time>
      </trkpt>
      <trkpt lat="43.54688" lon="6.28069">
        <ele>428</ele>
        <time>2012-12-02T09:42:14Z</time>
      </trkpt>
      <trkpt lat="43.54668" lon="6.28063">
        <ele>428</ele>
        <time>2012-12-02T09:42:21Z</time>
      </trkpt>
      <trkpt lat="43.54661" lon="6.2806">
        <ele>428</ele>
        <time>2012-12-02T09:42:23Z</time>
      </trkpt>
      <trkpt lat="43.54658" lon="6.28059">
        <ele>428</ele>
        <time>2012-12-02T09:42:24Z</time>
      </trkpt>
      <trkpt lat="43.54655" lon="6.28058">
        <ele>429</ele>
        <time>2012-12-02T09:42:25Z</time>
      </trkpt>
      <trkpt lat="43.54653" lon="6.28056">
        <ele>430</ele>
        <time>2012-12-02T09:42:26Z</time>
      </trkpt>
      <trkpt lat="43.54644" lon="6.28044">
        <ele>430</ele>
        <time>2012-12-02T09:42:31Z</time>
      </trkpt>
      <trkpt lat="43.54642" lon="6.28041">
        <ele>430</ele>
        <time>2012-12-02T09:42:32Z</time>
      </trkpt>
      <trkpt lat="43.54641" lon="6.28038">
        <ele>431</ele>
        <time>2012-12-02T09:42:33Z</time>
      </trkpt>
      <trkpt lat="43.54639" lon="6.28035">
        <ele>431</ele>
        <time>2012-12-02T09:42:34Z</time>
      </trkpt>
      <trkpt lat="43.54637" lon="6.28033">
        <ele>432</ele>
        <time>2012-12-02T09:42:35Z</time>
      </trkpt>
      <trkpt lat="43.54631" lon="6.28027">
        <ele>432</ele>
        <time>2012-12-02T09:42:38Z</time>
      </trkpt>
      <trkpt lat="43.54627" lon="6.28024">
        <ele>432</ele>
        <time>2012-12-02T09:42:40Z</time>
      </trkpt>
      <trkpt lat="43.54625" lon="6.28023">
        <ele>433</ele>
        <time>2012-12-02T09:42:41Z</time>
      </trkpt>
      <trkpt lat="43.54623" lon="6.28022">
        <ele>433</ele>
        <time>2012-12-02T09:42:42Z</time>
      </trkpt>
      <trkpt lat="43.54621" lon="6.28021">
        <ele>434</ele>
        <time>2012-12-02T09:42:43Z</time>
      </trkpt>
      <trkpt lat="43.54619" lon="6.28021">
        <ele>434</ele>
        <time>2012-12-02T09:42:44Z</time>
      </trkpt>
      <trkpt lat="43.54617" lon="6.2802">
        <ele>434</ele>
        <time>2012-12-02T09:42:45Z</time>
      </trkpt>
      <trkpt lat="43.54613" lon="6.28018">
        <ele>434</ele>
        <time>2012-12-02T09:42:47Z</time>
      </trkpt>
      <trkpt lat="43.54611" lon="6.28018">
        <ele>435</ele>
        <time>2012-12-02T09:42:48Z</time>
      </trkpt>
      <trkpt lat="43.54608" lon="6.28018">
        <ele>435</ele>
        <time>2012-12-02T09:42:49Z</time>
      </trkpt>
      <trkpt lat="43.54605" lon="6.28017">
        <ele>436</ele>
        <time>2012-12-02T09:42:50Z</time>
      </trkpt>
      <trkpt lat="43.54594" lon="6.2801">
        <ele>436</ele>
        <time>2012-12-02T09:42:54Z</time>
      </trkpt>
      <trkpt lat="43.54589" lon="6.28007">
        <ele>436</ele>
        <time>2012-12-02T09:42:56Z</time>
      </trkpt>
      <trkpt lat="43.54583" lon="6.28005">
        <ele>437</ele>
        <time>2012-12-02T09:42:58Z</time>
      </trkpt>
      <trkpt lat="43.5458" lon="6.28004">
        <ele>437</ele>
        <time>2012-12-02T09:42:59Z</time>
      </trkpt>
      <trkpt lat="43.54577" lon="6.28003">
        <ele>437</ele>
        <time>2012-12-02T09:43:00Z</time>
      </trkpt>
      <trkpt lat="43.54574" lon="6.28002">
        <ele>438</ele>
        <time>2012-12-02T09:43:01Z</time>
      </trkpt>
      <trkpt lat="43.54572" lon="6.28001">
        <ele>438</ele>
        <time>2012-12-02T09:43:02Z</time>
      </trkpt>
      <trkpt lat="43.54569" lon="6.28001">
        <ele>438</ele>
        <time>2012-12-02T09:43:03Z</time>
      </trkpt>
      <trkpt lat="43.54557" lon="6.28">
        <ele>438</ele>
        <time>2012-12-02T09:43:08Z</time>
      </trkpt>
      <trkpt lat="43.54544" lon="6.28003">
        <ele>438</ele>
        <time>2012-12-02T09:43:13Z</time>
      </trkpt>
      <trkpt lat="43.54533" lon="6.28006">
        <ele>439</ele>
        <time>2012-12-02T09:43:17Z</time>
      </trkpt>
      <trkpt lat="43.5453" lon="6.28006">
        <ele>439</ele>
        <time>2012-12-02T09:43:18Z</time>
      </trkpt>
      <trkpt lat="43.54527" lon="6.28006">
        <ele>440</ele>
        <time>2012-12-02T09:43:19Z</time>
      </trkpt>
      <trkpt lat="43.54524" lon="6.28007">
        <ele>440</ele>
        <time>2012-12-02T09:43:20Z</time>
      </trkpt>
      <trkpt lat="43.54522" lon="6.28008">
        <ele>440</ele>
        <time>2012-12-02T09:43:21Z</time>
      </trkpt>
      <trkpt lat="43.54509" lon="6.28012">
        <ele>440</ele>
        <time>2012-12-02T09:43:26Z</time>
      </trkpt>
      <trkpt lat="43.54492" lon="6.28013">
        <ele>441</ele>
        <time>2012-12-02T09:43:31Z</time>
      </trkpt>
      <trkpt lat="43.54489" lon="6.28012">
        <ele>441</ele>
        <time>2012-12-02T09:43:32Z</time>
      </trkpt>
      <trkpt lat="43.54485" lon="6.28011">
        <ele>442</ele>
        <time>2012-12-02T09:43:33Z</time>
      </trkpt>
      <trkpt lat="43.54482" lon="6.28011">
        <ele>442</ele>
        <time>2012-12-02T09:43:34Z</time>
      </trkpt>
      <trkpt lat="43.54478" lon="6.2801">
        <ele>443</ele>
        <time>2012-12-02T09:43:35Z</time>
      </trkpt>
      <trkpt lat="43.54472" lon="6.28011">
        <ele>443</ele>
        <time>2012-12-02T09:43:38Z</time>
      </trkpt>
      <trkpt lat="43.5446" lon="6.28012">
        <ele>443</ele>
        <time>2012-12-02T09:43:43Z</time>
      </trkpt>
      <trkpt lat="43.54442" lon="6.28007">
        <ele>443</ele>
        <time>2012-12-02T09:43:49Z</time>
      </trkpt>
      <trkpt lat="43.54428" lon="6.27996">
        <ele>443</ele>
        <time>2012-12-02T09:43:53Z</time>
      </trkpt>
      <trkpt lat="43.54417" lon="6.27989">
        <ele>443</ele>
        <time>2012-12-02T09:43:57Z</time>
      </trkpt>
      <trkpt lat="43.54413" lon="6.27985">
        <ele>443</ele>
        <time>2012-12-02T09:44:01Z</time>
      </trkpt>
      <trkpt lat="43.54409" lon="6.27983">
        <ele>441</ele>
        <time>2012-12-02T09:49:34Z</time>
      </trkpt>
      <trkpt lat="43.54404" lon="6.27981">
        <ele>441</ele>
        <time>2012-12-02T09:49:36Z</time>
      </trkpt>
      <trkpt lat="43.54391" lon="6.27976">
        <ele>440</ele>
        <time>2012-12-02T09:49:40Z</time>
      </trkpt>
      <trkpt lat="43.54387" lon="6.27976">
        <ele>440</ele>
        <time>2012-12-02T09:49:41Z</time>
      </trkpt>
      <trkpt lat="43.54383" lon="6.27974">
        <ele>439</ele>
        <time>2012-12-02T09:49:42Z</time>
      </trkpt>
      <trkpt lat="43.54379" lon="6.27972">
        <ele>439</ele>
        <time>2012-12-02T09:49:43Z</time>
      </trkpt>
      <trkpt lat="43.54375" lon="6.2797">
        <ele>438</ele>
        <time>2012-12-02T09:49:44Z</time>
      </trkpt>
      <trkpt lat="43.54372" lon="6.27966">
        <ele>438</ele>
        <time>2012-12-02T09:49:45Z</time>
      </trkpt>
      <trkpt lat="43.54361" lon="6.27953">
        <ele>438</ele>
        <time>2012-12-02T09:49:49Z</time>
      </trkpt>
      <trkpt lat="43.54357" lon="6.2795">
        <ele>437</ele>
        <time>2012-12-02T09:49:50Z</time>
      </trkpt>
      <trkpt lat="43.54353" lon="6.27947">
        <ele>436</ele>
        <time>2012-12-02T09:49:51Z</time>
      </trkpt>
      <trkpt lat="43.5435" lon="6.27945">
        <ele>436</ele>
        <time>2012-12-02T09:49:52Z</time>
      </trkpt>
      <trkpt lat="43.54347" lon="6.27943">
        <ele>436</ele>
        <time>2012-12-02T09:49:53Z</time>
      </trkpt>
      <trkpt lat="43.54335" lon="6.27923">
        <ele>436</ele>
        <time>2012-12-02T09:49:59Z</time>
      </trkpt>
      <trkpt lat="43.54327" lon="6.27909">
        <ele>436</ele>
        <time>2012-12-02T09:50:03Z</time>
      </trkpt>
      <trkpt lat="43.54325" lon="6.27906">
        <ele>436</ele>
        <time>2012-12-02T09:50:04Z</time>
      </trkpt>
      <trkpt lat="43.54319" lon="6.27899">
        <ele>436</ele>
        <time>2012-12-02T09:50:07Z</time>
      </trkpt>
      <trkpt lat="43.54313" lon="6.27884">
        <ele>436</ele>
        <time>2012-12-02T09:50:11Z</time>
      </trkpt>
      <trkpt lat="43.5431" lon="6.27881">
        <ele>436</ele>
        <time>2012-12-02T09:50:12Z</time>
      </trkpt>
      <trkpt lat="43.54308" lon="6.27878">
        <ele>435</ele>
        <time>2012-12-02T09:50:13Z</time>
      </trkpt>
      <trkpt lat="43.54306" lon="6.27875">
        <ele>434</ele>
        <time>2012-12-02T09:50:14Z</time>
      </trkpt>
      <trkpt lat="43.54304" lon="6.27872">
        <ele>434</ele>
        <time>2012-12-02T09:50:15Z</time>
      </trkpt>
      <trkpt lat="43.54299" lon="6.27865">
        <ele>434</ele>
        <time>2012-12-02T09:50:17Z</time>
      </trkpt>
      <trkpt lat="43.54288" lon="6.27841">
        <ele>434</ele>
        <time>2012-12-02T09:50:22Z</time>
      </trkpt>
      <trkpt lat="43.54284" lon="6.27821">
        <ele>434</ele>
        <time>2012-12-02T09:50:25Z</time>
      </trkpt>
      <trkpt lat="43.54283" lon="6.27814">
        <ele>434</ele>
        <time>2012-12-02T09:50:26Z</time>
      </trkpt>
      <trkpt lat="43.5428" lon="6.27796">
        <ele>434</ele>
        <time>2012-12-02T09:50:29Z</time>
      </trkpt>
      <trkpt lat="43.54278" lon="6.27792">
        <ele>434</ele>
        <time>2012-12-02T09:50:30Z</time>
      </trkpt>
      <trkpt lat="43.54277" lon="6.27777">
        <ele>434</ele>
        <time>2012-12-02T09:50:33Z</time>
      </trkpt>
      <trkpt lat="43.54276" lon="6.27771">
        <ele>434</ele>
        <time>2012-12-02T09:50:34Z</time>
      </trkpt>
      <trkpt lat="43.54273" lon="6.27753">
        <ele>433</ele>
        <time>2012-12-02T09:50:37Z</time>
      </trkpt>
      <trkpt lat="43.54273" lon="6.27747">
        <ele>433</ele>
        <time>2012-12-02T09:50:38Z</time>
      </trkpt>
      <trkpt lat="43.54271" lon="6.2774">
        <ele>432</ele>
        <time>2012-12-02T09:50:39Z</time>
      </trkpt>
      <trkpt lat="43.54271" lon="6.27733">
        <ele>432</ele>
        <time>2012-12-02T09:50:40Z</time>
      </trkpt>
      <trkpt lat="43.54269" lon="6.27724">
        <ele>432</ele>
        <time>2012-12-02T09:50:42Z</time>
      </trkpt>
      <trkpt lat="43.54266" lon="6.27714">
        <ele>432</ele>
        <time>2012-12-02T09:50:45Z</time>
      </trkpt>
      <trkpt lat="43.54266" lon="6.2771">
        <ele>432</ele>
        <time>2012-12-02T09:50:46Z</time>
      </trkpt>
      <trkpt lat="43.54267" lon="6.27702">
        <ele>432</ele>
        <time>2012-12-02T09:50:48Z</time>
      </trkpt>
      <trkpt lat="43.54268" lon="6.27692">
        <ele>432</ele>
        <time>2012-12-02T09:50:50Z</time>
      </trkpt>
      <trkpt lat="43.54271" lon="6.27671">
        <ele>432</ele>
        <time>2012-12-02T09:50:54Z</time>
      </trkpt>
      <trkpt lat="43.54272" lon="6.27666">
        <ele>432</ele>
        <time>2012-12-02T09:50:55Z</time>
      </trkpt>
      <trkpt lat="43.54271" lon="6.27661">
        <ele>431</ele>
        <time>2012-12-02T09:50:56Z</time>
      </trkpt>
      <trkpt lat="43.5427" lon="6.27658">
        <ele>431</ele>
        <time>2012-12-02T09:50:57Z</time>
      </trkpt>
      <trkpt lat="43.54268" lon="6.27656">
        <ele>430</ele>
        <time>2012-12-02T09:50:58Z</time>
      </trkpt>
      <trkpt lat="43.54266" lon="6.27655">
        <ele>430</ele>
        <time>2012-12-02T09:50:59Z</time>
      </trkpt>
      <trkpt lat="43.54264" lon="6.27655">
        <ele>430</ele>
        <time>2012-12-02T09:51:00Z</time>
      </trkpt>
      <trkpt lat="43.5426" lon="6.27656">
        <ele>430</ele>
        <time>2012-12-02T09:51:02Z</time>
      </trkpt>
      <trkpt lat="43.54257" lon="6.27655">
        <ele>430</ele>
        <time>2012-12-02T09:51:03Z</time>
      </trkpt>
      <trkpt lat="43.54255" lon="6.27655">
        <ele>431</ele>
        <time>2012-12-02T09:51:04Z</time>
      </trkpt>
      <trkpt lat="43.54252" lon="6.27655">
        <ele>431</ele>
        <time>2012-12-02T09:51:05Z</time>
      </trkpt>
      <trkpt lat="43.5425" lon="6.27654">
        <ele>432</ele>
        <time>2012-12-02T09:51:06Z</time>
      </trkpt>
      <trkpt lat="43.54247" lon="6.27652">
        <ele>432</ele>
        <time>2012-12-02T09:51:07Z</time>
      </trkpt>
      <trkpt lat="43.54237" lon="6.27651">
        <ele>432</ele>
        <time>2012-12-02T09:51:12Z</time>
      </trkpt>
      <trkpt lat="43.54233" lon="6.27653">
        <ele>432</ele>
        <time>2012-12-02T09:51:14Z</time>
      </trkpt>
      <trkpt lat="43.5423" lon="6.27653">
        <ele>433</ele>
        <time>2012-12-02T09:51:15Z</time>
      </trkpt>
      <trkpt lat="43.54227" lon="6.27653">
        <ele>433</ele>
        <time>2012-12-02T09:51:16Z</time>
      </trkpt>
      <trkpt lat="43.54225" lon="6.27653">
        <ele>434</ele>
        <time>2012-12-02T09:51:17Z</time>
      </trkpt>
      <trkpt lat="43.54222" lon="6.27652">
        <ele>434</ele>
        <time>2012-12-02T09:51:18Z</time>
      </trkpt>
      <trkpt lat="43.54219" lon="6.2765">
        <ele>434</ele>
        <time>2012-12-02T09:51:19Z</time>
      </trkpt>
      <trkpt lat="43.5421" lon="6.27644">
        <ele>434</ele>
        <time>2012-12-02T09:51:22Z</time>
      </trkpt>
      <trkpt lat="43.54195" lon="6.27636">
        <ele>434</ele>
        <time>2012-12-02T09:51:26Z</time>
      </trkpt>
      <trkpt lat="43.54191" lon="6.27633">
        <ele>434</ele>
        <time>2012-12-02T09:51:27Z</time>
      </trkpt>
      <trkpt lat="43.5418" lon="6.2763">
        <ele>433</ele>
        <time>2012-12-02T09:51:29Z</time>
      </trkpt>
      <trkpt lat="43.54174" lon="6.27627">
        <ele>433</ele>
        <time>2012-12-02T09:51:30Z</time>
      </trkpt>
      <trkpt lat="43.5417" lon="6.27623">
        <ele>432</ele>
        <time>2012-12-02T09:51:31Z</time>
      </trkpt>
      <trkpt lat="43.54166" lon="6.27619">
        <ele>432</ele>
        <time>2012-12-02T09:51:32Z</time>
      </trkpt>
      <trkpt lat="43.54161" lon="6.27616">
        <ele>431</ele>
        <time>2012-12-02T09:51:33Z</time>
      </trkpt>
      <trkpt lat="43.54157" lon="6.27614">
        <ele>430</ele>
        <time>2012-12-02T09:51:34Z</time>
      </trkpt>
      <trkpt lat="43.54152" lon="6.27612">
        <ele>429</ele>
        <time>2012-12-02T09:51:35Z</time>
      </trkpt>
      <trkpt lat="43.54148" lon="6.27609">
        <ele>428</ele>
        <time>2012-12-02T09:51:36Z</time>
      </trkpt>
      <trkpt lat="43.54145" lon="6.27605">
        <ele>427</ele>
        <time>2012-12-02T09:51:37Z</time>
      </trkpt>
      <trkpt lat="43.54142" lon="6.27602">
        <ele>426</ele>
        <time>2012-12-02T09:51:38Z</time>
      </trkpt>
      <trkpt lat="43.5414" lon="6.27599">
        <ele>425</ele>
        <time>2012-12-02T09:51:39Z</time>
      </trkpt>
      <trkpt lat="43.54137" lon="6.27596">
        <ele>425</ele>
        <time>2012-12-02T09:51:40Z</time>
      </trkpt>
      <trkpt lat="43.54133" lon="6.27594">
        <ele>424</ele>
        <time>2012-12-02T09:51:41Z</time>
      </trkpt>
      <trkpt lat="43.54129" lon="6.27593">
        <ele>423</ele>
        <time>2012-12-02T09:51:42Z</time>
      </trkpt>
      <trkpt lat="43.54125" lon="6.27593">
        <ele>423</ele>
        <time>2012-12-02T09:51:43Z</time>
      </trkpt>
      <trkpt lat="43.54121" lon="6.27592">
        <ele>422</ele>
        <time>2012-12-02T09:51:44Z</time>
      </trkpt>
      <trkpt lat="43.54118" lon="6.27591">
        <ele>421</ele>
        <time>2012-12-02T09:51:45Z</time>
      </trkpt>
      <trkpt lat="43.54114" lon="6.27591">
        <ele>421</ele>
        <time>2012-12-02T09:51:46Z</time>
      </trkpt>
      <trkpt lat="43.54109" lon="6.27589">
        <ele>420</ele>
        <time>2012-12-02T09:51:47Z</time>
      </trkpt>
      <trkpt lat="43.54105" lon="6.27586">
        <ele>419</ele>
        <time>2012-12-02T09:51:48Z</time>
      </trkpt>
      <trkpt lat="43.54101" lon="6.27583">
        <ele>418</ele>
        <time>2012-12-02T09:51:49Z</time>
      </trkpt>
      <trkpt lat="43.54097" lon="6.27581">
        <ele>418</ele>
        <time>2012-12-02T09:51:50Z</time>
      </trkpt>
      <trkpt lat="43.54093" lon="6.2758">
        <ele>417</ele>
        <time>2012-12-02T09:51:51Z</time>
      </trkpt>
      <trkpt lat="43.54089" lon="6.27581">
        <ele>416</ele>
        <time>2012-12-02T09:51:52Z</time>
      </trkpt>
      <trkpt lat="43.54086" lon="6.27583">
        <ele>416</ele>
        <time>2012-12-02T09:51:53Z</time>
      </trkpt>
      <trkpt lat="43.54081" lon="6.27584">
        <ele>414</ele>
        <time>2012-12-02T09:51:54Z</time>
      </trkpt>
      <trkpt lat="43.54076" lon="6.27584">
        <ele>414</ele>
        <time>2012-12-02T09:51:55Z</time>
      </trkpt>
      <trkpt lat="43.54071" lon="6.27583">
        <ele>413</ele>
        <time>2012-12-02T09:51:56Z</time>
      </trkpt>
      <trkpt lat="43.54067" lon="6.27581">
        <ele>413</ele>
        <time>2012-12-02T09:51:57Z</time>
      </trkpt>
      <trkpt lat="43.54063" lon="6.27578">
        <ele>412</ele>
        <time>2012-12-02T09:51:58Z</time>
      </trkpt>
      <trkpt lat="43.54059" lon="6.27577">
        <ele>411</ele>
        <time>2012-12-02T09:51:59Z</time>
      </trkpt>
      <trkpt lat="43.54055" lon="6.27576">
        <ele>410</ele>
        <time>2012-12-02T09:52:00Z</time>
      </trkpt>
      <trkpt lat="43.54051" lon="6.27575">
        <ele>410</ele>
        <time>2012-12-02T09:52:01Z</time>
      </trkpt>
      <trkpt lat="43.54046" lon="6.27574">
        <ele>409</ele>
        <time>2012-12-02T09:52:02Z</time>
      </trkpt>
      <trkpt lat="43.54042" lon="6.27573">
        <ele>408</ele>
        <time>2012-12-02T09:52:03Z</time>
      </trkpt>
      <trkpt lat="43.54039" lon="6.2757">
        <ele>408</ele>
        <time>2012-12-02T09:52:04Z</time>
      </trkpt>
      <trkpt lat="43.54037" lon="6.27567">
        <ele>407</ele>
        <time>2012-12-02T09:52:05Z</time>
      </trkpt>
      <trkpt lat="43.54035" lon="6.27563">
        <ele>406</ele>
        <time>2012-12-02T09:52:06Z</time>
      </trkpt>
      <trkpt lat="43.54033" lon="6.27559">
        <ele>406</ele>
        <time>2012-12-02T09:52:07Z</time>
      </trkpt>
      <trkpt lat="43.54031" lon="6.27557">
        <ele>405</ele>
        <time>2012-12-02T09:52:08Z</time>
      </trkpt>
      <trkpt lat="43.54027" lon="6.27557">
        <ele>405</ele>
        <time>2012-12-02T09:52:09Z</time>
      </trkpt>
      <trkpt lat="43.54024" lon="6.27557">
        <ele>404</ele>
        <time>2012-12-02T09:52:10Z</time>
      </trkpt>
      <trkpt lat="43.54021" lon="6.27558">
        <ele>403</ele>
        <time>2012-12-02T09:52:11Z</time>
      </trkpt>
      <trkpt lat="43.54017" lon="6.27557">
        <ele>402</ele>
        <time>2012-12-02T09:52:12Z</time>
      </trkpt>
      <trkpt lat="43.54013" lon="6.27555">
        <ele>402</ele>
        <time>2012-12-02T09:52:13Z</time>
      </trkpt>
      <trkpt lat="43.54008" lon="6.27552">
        <ele>401</ele>
        <time>2012-12-02T09:52:14Z</time>
      </trkpt>
      <trkpt lat="43.54004" lon="6.27549">
        <ele>400</ele>
        <time>2012-12-02T09:52:15Z</time>
      </trkpt>
      <trkpt lat="43.54" lon="6.27545">
        <ele>400</ele>
        <time>2012-12-02T09:52:16Z</time>
      </trkpt>
      <trkpt lat="43.53996" lon="6.27542">
        <ele>400</ele>
        <time>2012-12-02T09:52:17Z</time>
      </trkpt>
      <trkpt lat="43.53992" lon="6.2754">
        <ele>399</ele>
        <time>2012-12-02T09:52:18Z</time>
      </trkpt>
      <trkpt lat="43.53987" lon="6.27539">
        <ele>399</ele>
        <time>2012-12-02T09:52:19Z</time>
      </trkpt>
      <trkpt lat="43.53984" lon="6.27541">
        <ele>399</ele>
        <time>2012-12-02T09:52:20Z</time>
      </trkpt>
      <trkpt lat="43.53981" lon="6.27543">
        <ele>398</ele>
        <time>2012-12-02T09:52:21Z</time>
      </trkpt>
      <trkpt lat="43.53978" lon="6.27545">
        <ele>398</ele>
        <time>2012-12-02T09:52:22Z</time>
      </trkpt>
      <trkpt lat="43.53975" lon="6.27547">
        <ele>397</ele>
        <time>2012-12-02T09:52:23Z</time>
      </trkpt>
      <trkpt lat="43.53972" lon="6.27549">
        <ele>397</ele>
        <time>2012-12-02T09:52:24Z</time>
      </trkpt>
      <trkpt lat="43.5397" lon="6.27551">
        <ele>396</ele>
        <time>2012-12-02T09:52:25Z</time>
      </trkpt>
      <trkpt lat="43.5397" lon="6.27552">
        <ele>396</ele>
        <time>2012-12-02T09:52:26Z</time>
      </trkpt>
      <trkpt lat="43.5397" lon="6.27553">
        <ele>396</ele>
        <time>2012-12-02T09:52:27Z</time>
      </trkpt>
      <trkpt lat="43.5397" lon="6.27564">
        <ele>394</ele>
        <time>2012-12-02T09:55:16Z</time>
      </trkpt>
      <trkpt lat="43.5397" lon="6.27567">
        <ele>394</ele>
        <time>2012-12-02T09:55:17Z</time>
      </trkpt>
      <trkpt lat="43.53967" lon="6.27582">
        <ele>394</ele>
        <time>2012-12-02T09:55:22Z</time>
      </trkpt>
      <trkpt lat="43.53965" lon="6.27606">
        <ele>394</ele>
        <time>2012-12-02T09:55:26Z</time>
      </trkpt>
      <trkpt lat="43.53965" lon="6.27614">
        <ele>394</ele>
        <time>2012-12-02T09:55:27Z</time>
      </trkpt>
      <trkpt lat="43.53965" lon="6.27621">
        <ele>394</ele>
        <time>2012-12-02T09:55:28Z</time>
      </trkpt>
      <trkpt lat="43.53965" lon="6.27629">
        <ele>393</ele>
        <time>2012-12-02T09:55:29Z</time>
      </trkpt>
      <trkpt lat="43.53966" lon="6.27636">
        <ele>393</ele>
        <time>2012-12-02T09:55:30Z</time>
      </trkpt>
      <trkpt lat="43.53966" lon="6.27643">
        <ele>392</ele>
        <time>2012-12-02T09:55:31Z</time>
      </trkpt>
      <trkpt lat="43.53968" lon="6.27665">
        <ele>392</ele>
        <time>2012-12-02T09:55:35Z</time>
      </trkpt>
      <trkpt lat="43.53967" lon="6.27671">
        <ele>392</ele>
        <time>2012-12-02T09:55:36Z</time>
      </trkpt>
      <trkpt lat="43.53966" lon="6.27686">
        <ele>392</ele>
        <time>2012-12-02T09:55:39Z</time>
      </trkpt>
      <trkpt lat="43.53966" lon="6.27698">
        <ele>392</ele>
        <time>2012-12-02T09:55:41Z</time>
      </trkpt>
      <trkpt lat="43.53966" lon="6.2771">
        <ele>392</ele>
        <time>2012-12-02T09:55:43Z</time>
      </trkpt>
      <trkpt lat="43.53966" lon="6.27735">
        <ele>392</ele>
        <time>2012-12-02T09:55:47Z</time>
      </trkpt>
      <trkpt lat="43.53965" lon="6.27742">
        <ele>392</ele>
        <time>2012-12-02T09:55:48Z</time>
      </trkpt>
      <trkpt lat="43.53963" lon="6.27762">
        <ele>392</ele>
        <time>2012-12-02T09:55:51Z</time>
      </trkpt>
      <trkpt lat="43.53963" lon="6.27776">
        <ele>392</ele>
        <time>2012-12-02T09:55:53Z</time>
      </trkpt>
      <trkpt lat="43.53963" lon="6.27795">
        <ele>392</ele>
        <time>2012-12-02T09:55:55Z</time>
      </trkpt>
      <trkpt lat="43.53962" lon="6.27823">
        <ele>392</ele>
        <time>2012-12-02T09:55:58Z</time>
      </trkpt>
      <trkpt lat="43.53961" lon="6.27831">
        <ele>392</ele>
        <time>2012-12-02T09:55:59Z</time>
      </trkpt>
      <trkpt lat="43.53959" lon="6.27845">
        <ele>392</ele>
        <time>2012-12-02T09:56:01Z</time>
      </trkpt>
      <trkpt lat="43.53958" lon="6.27852">
        <ele>393</ele>
        <time>2012-12-02T09:56:02Z</time>
      </trkpt>
      <trkpt lat="43.53957" lon="6.27858">
        <ele>393</ele>
        <time>2012-12-02T09:56:03Z</time>
      </trkpt>
      <trkpt lat="43.53955" lon="6.27864">
        <ele>394</ele>
        <time>2012-12-02T09:56:04Z</time>
      </trkpt>
      <trkpt lat="43.53954" lon="6.27871">
        <ele>394</ele>
        <time>2012-12-02T09:56:05Z</time>
      </trkpt>
      <trkpt lat="43.53949" lon="6.27899">
        <ele>394</ele>
        <time>2012-12-02T09:56:10Z</time>
      </trkpt>
      <trkpt lat="43.53942" lon="6.27932">
        <ele>394</ele>
        <time>2012-12-02T09:56:16Z</time>
      </trkpt>
      <trkpt lat="43.53936" lon="6.27966">
        <ele>394</ele>
        <time>2012-12-02T09:56:22Z</time>
      </trkpt>
      <trkpt lat="43.53934" lon="6.27981">
        <ele>395</ele>
        <time>2012-12-02T09:56:25Z</time>
      </trkpt>
      <trkpt lat="43.53933" lon="6.27987">
        <ele>396</ele>
        <time>2012-12-02T09:56:26Z</time>
      </trkpt>
      <trkpt lat="43.53933" lon="6.27993">
        <ele>396</ele>
        <time>2012-12-02T09:56:27Z</time>
      </trkpt>
      <trkpt lat="43.53932" lon="6.27999">
        <ele>396</ele>
        <time>2012-12-02T09:56:28Z</time>
      </trkpt>
      <trkpt lat="43.53923" lon="6.28033">
        <ele>396</ele>
        <time>2012-12-02T09:56:34Z</time>
      </trkpt>
      <trkpt lat="43.53916" lon="6.28069">
        <ele>396</ele>
        <time>2012-12-02T09:56:40Z</time>
      </trkpt>
      <trkpt lat="43.53911" lon="6.28102">
        <ele>396</ele>
        <time>2012-12-02T09:56:46Z</time>
      </trkpt>
      <trkpt lat="43.53904" lon="6.28118">
        <ele>396</ele>
        <time>2012-12-02T09:56:50Z</time>
      </trkpt>
      <trkpt lat="43.53894" lon="6.28128">
        <ele>396</ele>
        <time>2012-12-02T09:56:53Z</time>
      </trkpt>
      <trkpt lat="43.53879" lon="6.28138">
        <ele>396</ele>
        <time>2012-12-02T09:56:56Z</time>
      </trkpt>
      <trkpt lat="43.53872" lon="6.28143">
        <ele>396</ele>
        <time>2012-12-02T09:56:57Z</time>
      </trkpt>
      <trkpt lat="43.53865" lon="6.28148">
        <ele>395</ele>
        <time>2012-12-02T09:56:58Z</time>
      </trkpt>
      <trkpt lat="43.53859" lon="6.28155">
        <ele>395</ele>
        <time>2012-12-02T09:56:59Z</time>
      </trkpt>
      <trkpt lat="43.53853" lon="6.28162">
        <ele>394</ele>
        <time>2012-12-02T09:57:00Z</time>
      </trkpt>
      <trkpt lat="43.53847" lon="6.28168">
        <ele>393</ele>
        <time>2012-12-02T09:57:01Z</time>
      </trkpt>
      <trkpt lat="43.5384" lon="6.28176">
        <ele>393</ele>
        <time>2012-12-02T09:57:02Z</time>
      </trkpt>
      <trkpt lat="43.53834" lon="6.28184">
        <ele>392</ele>
        <time>2012-12-02T09:57:03Z</time>
      </trkpt>
      <trkpt lat="43.53825" lon="6.28198">
        <ele>392</ele>
        <time>2012-12-02T09:57:05Z</time>
      </trkpt>
      <trkpt lat="43.53823" lon="6.28203">
        <ele>392</ele>
        <time>2012-12-02T09:57:06Z</time>
      </trkpt>
      <trkpt lat="43.53821" lon="6.28209">
        <ele>392</ele>
        <time>2012-12-02T09:57:07Z</time>
      </trkpt>
      <trkpt lat="43.53818" lon="6.28217">
        <ele>391</ele>
        <time>2012-12-02T09:57:08Z</time>
      </trkpt>
      <trkpt lat="43.53816" lon="6.28225">
        <ele>391</ele>
        <time>2012-12-02T09:57:09Z</time>
      </trkpt>
      <trkpt lat="43.53814" lon="6.28235">
        <ele>391</ele>
        <time>2012-12-02T09:57:10Z</time>
      </trkpt>
      <trkpt lat="43.5381" lon="6.28245">
        <ele>390</ele>
        <time>2012-12-02T09:57:11Z</time>
      </trkpt>
      <trkpt lat="43.53806" lon="6.28256">
        <ele>390</ele>
        <time>2012-12-02T09:57:12Z</time>
      </trkpt>
      <trkpt lat="43.53802" lon="6.28266">
        <ele>390</ele>
        <time>2012-12-02T09:57:13Z</time>
      </trkpt>
      <trkpt lat="43.53792" lon="6.28285">
        <ele>389</ele>
        <time>2012-12-02T09:57:15Z</time>
      </trkpt>
      <trkpt lat="43.53787" lon="6.28294">
        <ele>388</ele>
        <time>2012-12-02T09:57:16Z</time>
      </trkpt>
      <trkpt lat="43.53783" lon="6.28302">
        <ele>388</ele>
        <time>2012-12-02T09:57:17Z</time>
      </trkpt>
      <trkpt lat="43.53778" lon="6.28309">
        <ele>388</ele>
        <time>2012-12-02T09:57:18Z</time>
      </trkpt>
      <trkpt lat="43.53775" lon="6.28316">
        <ele>388</ele>
        <time>2012-12-02T09:57:19Z</time>
      </trkpt>
      <trkpt lat="43.53772" lon="6.28329">
        <ele>388</ele>
        <time>2012-12-02T09:57:21Z</time>
      </trkpt>
      <trkpt lat="43.53771" lon="6.28342">
        <ele>388</ele>
        <time>2012-12-02T09:57:23Z</time>
      </trkpt>
      <trkpt lat="43.53771" lon="6.28349">
        <ele>388</ele>
        <time>2012-12-02T09:57:24Z</time>
      </trkpt>
      <trkpt lat="43.53774" lon="6.28362">
        <ele>388</ele>
        <time>2012-12-02T09:57:26Z</time>
      </trkpt>
      <trkpt lat="43.53783" lon="6.28385">
        <ele>388</ele>
        <time>2012-12-02T09:57:30Z</time>
      </trkpt>
      <trkpt lat="43.53784" lon="6.2839">
        <ele>388</ele>
        <time>2012-12-02T09:57:31Z</time>
      </trkpt>
      <trkpt lat="43.53794" lon="6.2842">
        <ele>388</ele>
        <time>2012-12-02T09:57:37Z</time>
      </trkpt>
      <trkpt lat="43.53799" lon="6.28427">
        <ele>388</ele>
        <time>2012-12-02T09:57:39Z</time>
      </trkpt>
      <trkpt lat="43.53808" lon="6.28435">
        <ele>387</ele>
        <time>2012-12-02T09:57:41Z</time>
      </trkpt>
      <trkpt lat="43.53812" lon="6.28439">
        <ele>387</ele>
        <time>2012-12-02T09:57:42Z</time>
      </trkpt>
      <trkpt lat="43.53817" lon="6.28443">
        <ele>386</ele>
        <time>2012-12-02T09:57:43Z</time>
      </trkpt>
      <trkpt lat="43.53822" lon="6.28445">
        <ele>386</ele>
        <time>2012-12-02T09:57:44Z</time>
      </trkpt>
      <trkpt lat="43.53826" lon="6.28447">
        <ele>386</ele>
        <time>2012-12-02T09:57:45Z</time>
      </trkpt>
      <trkpt lat="43.53831" lon="6.28449">
        <ele>386</ele>
        <time>2012-12-02T09:57:46Z</time>
      </trkpt>
      <trkpt lat="43.53835" lon="6.28452">
        <ele>386</ele>
        <time>2012-12-02T09:57:47Z</time>
      </trkpt>
      <trkpt lat="43.53845" lon="6.28455">
        <ele>386</ele>
        <time>2012-12-02T09:57:49Z</time>
      </trkpt>
      <trkpt lat="43.53854" lon="6.28456">
        <ele>386</ele>
        <time>2012-12-02T09:57:51Z</time>
      </trkpt>
      <trkpt lat="43.53858" lon="6.28458">
        <ele>386</ele>
        <time>2012-12-02T09:57:52Z</time>
      </trkpt>
      <trkpt lat="43.5388" lon="6.28466">
        <ele>386</ele>
        <time>2012-12-02T09:57:57Z</time>
      </trkpt>
      <trkpt lat="43.53884" lon="6.28469">
        <ele>386</ele>
        <time>2012-12-02T09:57:58Z</time>
      </trkpt>
      <trkpt lat="43.53899" lon="6.28481">
        <ele>386</ele>
        <time>2012-12-02T09:58:01Z</time>
      </trkpt>
      <trkpt lat="43.53919" lon="6.28487">
        <ele>386</ele>
        <time>2012-12-02T09:58:05Z</time>
      </trkpt>
      <trkpt lat="43.53943" lon="6.28504">
        <ele>386</ele>
        <time>2012-12-02T09:58:10Z</time>
      </trkpt>
      <trkpt lat="43.53947" lon="6.28507">
        <ele>386</ele>
        <time>2012-12-02T09:58:11Z</time>
      </trkpt>
      <trkpt lat="43.5396" lon="6.28516">
        <ele>386</ele>
        <time>2012-12-02T09:58:14Z</time>
      </trkpt>
      <trkpt lat="43.53973" lon="6.28523">
        <ele>386</ele>
        <time>2012-12-02T09:58:17Z</time>
      </trkpt>
      <trkpt lat="43.53984" lon="6.28534">
        <ele>386</ele>
        <time>2012-12-02T09:58:20Z</time>
      </trkpt>
      <trkpt lat="43.54004" lon="6.2856">
        <ele>386</ele>
        <time>2012-12-02T09:58:25Z</time>
      </trkpt>
      <trkpt lat="43.54019" lon="6.28575">
        <ele>385</ele>
        <time>2012-12-02T09:58:28Z</time>
      </trkpt>
      <trkpt lat="43.54024" lon="6.28578">
        <ele>385</ele>
        <time>2012-12-02T09:58:29Z</time>
      </trkpt>
      <trkpt lat="43.54029" lon="6.28581">
        <ele>384</ele>
        <time>2012-12-02T09:58:30Z</time>
      </trkpt>
      <trkpt lat="43.54033" lon="6.28585">
        <ele>383</ele>
        <time>2012-12-02T09:58:31Z</time>
      </trkpt>
      <trkpt lat="43.54039" lon="6.28605">
        <ele>383</ele>
        <time>2012-12-02T09:58:34Z</time>
      </trkpt>
      <trkpt lat="43.54037" lon="6.28628">
        <ele>383</ele>
        <time>2012-12-02T09:58:37Z</time>
      </trkpt>
      <trkpt lat="43.54035" lon="6.28634">
        <ele>383</ele>
        <time>2012-12-02T09:58:38Z</time>
      </trkpt>
      <trkpt lat="43.5403" lon="6.28652">
        <ele>383</ele>
        <time>2012-12-02T09:58:42Z</time>
      </trkpt>
      <trkpt lat="43.54023" lon="6.28666">
        <ele>383</ele>
        <time>2012-12-02T09:58:46Z</time>
      </trkpt>
      <trkpt lat="43.54018" lon="6.28676">
        <ele>383</ele>
        <time>2012-12-02T09:58:48Z</time>
      </trkpt>
      <trkpt lat="43.54013" lon="6.28691">
        <ele>383</ele>
        <time>2012-12-02T09:58:51Z</time>
      </trkpt>
      <trkpt lat="43.54014" lon="6.28697">
        <ele>383</ele>
        <time>2012-12-02T09:58:52Z</time>
      </trkpt>
      <trkpt lat="43.54012" lon="6.28715">
        <ele>382</ele>
        <time>2012-12-02T09:58:56Z</time>
      </trkpt>
      <trkpt lat="43.5401" lon="6.28719">
        <ele>382</ele>
        <time>2012-12-02T09:58:57Z</time>
      </trkpt>
      <trkpt lat="43.54009" lon="6.28722">
        <ele>381</ele>
        <time>2012-12-02T09:58:58Z</time>
      </trkpt>
      <trkpt lat="43.54008" lon="6.28726">
        <ele>381</ele>
        <time>2012-12-02T09:58:59Z</time>
      </trkpt>
      <trkpt lat="43.54004" lon="6.28732">
        <ele>381</ele>
        <time>2012-12-02T09:59:02Z</time>
      </trkpt>
      <trkpt lat="43.54003" lon="6.28733">
        <ele>381</ele>
        <time>2012-12-02T09:59:04Z</time>
      </trkpt>
      <trkpt lat="43.53999" lon="6.28739">
        <ele>381</ele>
        <time>2012-12-02T10:00:07Z</time>
      </trkpt>
      <trkpt lat="43.53997" lon="6.28741">
        <ele>381</ele>
        <time>2012-12-02T10:00:08Z</time>
      </trkpt>
      <trkpt lat="43.53986" lon="6.2875">
        <ele>381</ele>
        <time>2012-12-02T10:00:13Z</time>
      </trkpt>
      <trkpt lat="43.53974" lon="6.28759">
        <ele>381</ele>
        <time>2012-12-02T10:00:17Z</time>
      </trkpt>
      <trkpt lat="43.53972" lon="6.28761">
        <ele>380</ele>
        <time>2012-12-02T10:00:18Z</time>
      </trkpt>
      <trkpt lat="43.53969" lon="6.28764">
        <ele>380</ele>
        <time>2012-12-02T10:00:19Z</time>
      </trkpt>
      <trkpt lat="43.53967" lon="6.28765">
        <ele>379</ele>
        <time>2012-12-02T10:00:20Z</time>
      </trkpt>
      <trkpt lat="43.53966" lon="6.28767">
        <ele>379</ele>
        <time>2012-12-02T10:00:21Z</time>
      </trkpt>
      <trkpt lat="43.53964" lon="6.28769">
        <ele>379</ele>
        <time>2012-12-02T10:00:23Z</time>
      </trkpt>
      <trkpt lat="43.53964" lon="6.28769">
        <ele>379</ele>
        <time>2012-12-02T10:00:24Z</time>
      </trkpt>
      <trkpt lat="43.5396" lon="6.28772">
        <ele>379</ele>
        <time>2012-12-02T10:00:37Z</time>
      </trkpt>
      <trkpt lat="43.53955" lon="6.28775">
        <ele>379</ele>
        <time>2012-12-02T10:00:39Z</time>
      </trkpt>
      <trkpt lat="43.53945" lon="6.28777">
        <ele>378</ele>
        <time>2012-12-02T10:00:42Z</time>
      </trkpt>
      <trkpt lat="43.53941" lon="6.28778">
        <ele>378</ele>
        <time>2012-12-02T10:00:43Z</time>
      </trkpt>
      <trkpt lat="43.53937" lon="6.28779">
        <ele>378</ele>
        <time>2012-12-02T10:00:44Z</time>
      </trkpt>
      <trkpt lat="43.53933" lon="6.28779">
        <ele>377</ele>
        <time>2012-12-02T10:00:45Z</time>
      </trkpt>
      <trkpt lat="43.53929" lon="6.28777">
        <ele>377</ele>
        <time>2012-12-02T10:00:46Z</time>
      </trkpt>
      <trkpt lat="43.53921" lon="6.28779">
        <ele>377</ele>
        <time>2012-12-02T10:00:48Z</time>
      </trkpt>
      <trkpt lat="43.53907" lon="6.28789">
        <ele>377</ele>
        <time>2012-12-02T10:00:52Z</time>
      </trkpt>
      <trkpt lat="43.53889" lon="6.288">
        <ele>377</ele>
        <time>2012-12-02T10:00:56Z</time>
      </trkpt>
      <trkpt lat="43.53885" lon="6.28802">
        <ele>376</ele>
        <time>2012-12-02T10:00:57Z</time>
      </trkpt>
      <trkpt lat="43.5388" lon="6.28803">
        <ele>376</ele>
        <time>2012-12-02T10:00:58Z</time>
      </trkpt>
      <trkpt lat="43.53876" lon="6.28804">
        <ele>375</ele>
        <time>2012-12-02T10:00:59Z</time>
      </trkpt>
      <trkpt lat="43.53871" lon="6.28805">
        <ele>375</ele>
        <time>2012-12-02T10:01:00Z</time>
      </trkpt>
      <trkpt lat="43.53854" lon="6.28805">
        <ele>375</ele>
        <time>2012-12-02T10:01:03Z</time>
      </trkpt>
      <trkpt lat="43.53837" lon="6.28809">
        <ele>374</ele>
        <time>2012-12-02T10:01:06Z</time>
      </trkpt>
      <trkpt lat="43.53831" lon="6.28808">
        <ele>374</ele>
        <time>2012-12-02T10:01:07Z</time>
      </trkpt>
      <trkpt lat="43.53826" lon="6.28805">
        <ele>373</ele>
        <time>2012-12-02T10:01:08Z</time>
      </trkpt>
      <trkpt lat="43.53821" lon="6.28801">
        <ele>373</ele>
        <time>2012-12-02T10:01:09Z</time>
      </trkpt>
      <trkpt lat="43.53815" lon="6.28797">
        <ele>372</ele>
        <time>2012-12-02T10:01:10Z</time>
      </trkpt>
      <trkpt lat="43.53804" lon="6.28791">
        <ele>372</ele>
        <time>2012-12-02T10:01:12Z</time>
      </trkpt>
      <trkpt lat="43.53791" lon="6.28788">
        <ele>372</ele>
        <time>2012-12-02T10:01:14Z</time>
      </trkpt>
      <trkpt lat="43.53779" lon="6.28784">
        <ele>372</ele>
        <time>2012-12-02T10:01:16Z</time>
      </trkpt>
      <trkpt lat="43.53773" lon="6.28783">
        <ele>371</ele>
        <time>2012-12-02T10:01:17Z</time>
      </trkpt>
      <trkpt lat="43.53767" lon="6.28782">
        <ele>371</ele>
        <time>2012-12-02T10:01:18Z</time>
      </trkpt>
      <trkpt lat="43.53761" lon="6.28781">
        <ele>371</ele>
        <time>2012-12-02T10:01:19Z</time>
      </trkpt>
      <trkpt lat="43.53755" lon="6.2878">
        <ele>370</ele>
        <time>2012-12-02T10:01:20Z</time>
      </trkpt>
      <trkpt lat="43.53749" lon="6.2878">
        <ele>370</ele>
        <time>2012-12-02T10:01:21Z</time>
      </trkpt>
      <trkpt lat="43.53741" lon="6.28786">
        <ele>370</ele>
        <time>2012-12-02T10:01:23Z</time>
      </trkpt>
      <trkpt lat="43.53737" lon="6.28791">
        <ele>370</ele>
        <time>2012-12-02T10:01:25Z</time>
      </trkpt>
      <trkpt lat="43.53736" lon="6.28792">
        <ele>369</ele>
        <time>2012-12-02T10:01:26Z</time>
      </trkpt>
      <trkpt lat="43.53735" lon="6.28792">
        <ele>369</ele>
        <time>2012-12-02T10:01:27Z</time>
      </trkpt>
      <trkpt lat="43.53734" lon="6.28794">
        <ele>369</ele>
        <time>2012-12-02T10:01:28Z</time>
      </trkpt>
      <trkpt lat="43.53732" lon="6.28796">
        <ele>368</ele>
        <time>2012-12-02T10:01:29Z</time>
      </trkpt>
      <trkpt lat="43.53729" lon="6.28803">
        <ele>368</ele>
        <time>2012-12-02T10:01:31Z</time>
      </trkpt>
      <trkpt lat="43.53728" lon="6.28809">
        <ele>368</ele>
        <time>2012-12-02T10:01:32Z</time>
      </trkpt>
      <trkpt lat="43.53725" lon="6.28828">
        <ele>368</ele>
        <time>2012-12-02T10:01:35Z</time>
      </trkpt>
      <trkpt lat="43.53723" lon="6.28834">
        <ele>368</ele>
        <time>2012-12-02T10:01:36Z</time>
      </trkpt>
      <trkpt lat="43.53716" lon="6.28853">
        <ele>368</ele>
        <time>2012-12-02T10:01:39Z</time>
      </trkpt>
      <trkpt lat="43.53714" lon="6.2886">
        <ele>368</ele>
        <time>2012-12-02T10:01:40Z</time>
      </trkpt>
      <trkpt lat="43.5371" lon="6.28875">
        <ele>368</ele>
        <time>2012-12-02T10:01:42Z</time>
      </trkpt>
      <trkpt lat="43.53699" lon="6.28903">
        <ele>368</ele>
        <time>2012-12-02T10:01:46Z</time>
      </trkpt>
      <trkpt lat="43.53694" lon="6.28918">
        <ele>368</ele>
        <time>2012-12-02T10:01:48Z</time>
      </trkpt>
      <trkpt lat="43.53691" lon="6.28926">
        <ele>368</ele>
        <time>2012-12-02T10:01:49Z</time>
      </trkpt>
      <trkpt lat="43.53686" lon="6.28931">
        <ele>367</ele>
        <time>2012-12-02T10:01:50Z</time>
      </trkpt>
      <trkpt lat="43.53681" lon="6.28933">
        <ele>366</ele>
        <time>2012-12-02T10:01:51Z</time>
      </trkpt>
      <trkpt lat="43.53676" lon="6.28933">
        <ele>366</ele>
        <time>2012-12-02T10:01:52Z</time>
      </trkpt>
      <trkpt lat="43.53672" lon="6.28932">
        <ele>365</ele>
        <time>2012-12-02T10:01:53Z</time>
      </trkpt>
      <trkpt lat="43.5367" lon="6.2893">
        <ele>364</ele>
        <time>2012-12-02T10:01:54Z</time>
      </trkpt>
      <trkpt lat="43.53668" lon="6.28929">
        <ele>363</ele>
        <time>2012-12-02T10:01:55Z</time>
      </trkpt>
      <trkpt lat="43.53666" lon="6.2893">
        <ele>363</ele>
        <time>2012-12-02T10:01:56Z</time>
      </trkpt>
      <trkpt lat="43.53666" lon="6.28932">
        <ele>362</ele>
        <time>2012-12-02T10:01:57Z</time>
      </trkpt>
      <trkpt lat="43.53666" lon="6.28936">
        <ele>361</ele>
        <time>2012-12-02T10:01:58Z</time>
      </trkpt>
      <trkpt lat="43.53667" lon="6.2894">
        <ele>361</ele>
        <time>2012-12-02T10:02:00Z</time>
      </trkpt>
      <trkpt lat="43.53666" lon="6.28941">
        <ele>361</ele>
        <time>2012-12-02T10:02:02Z</time>
      </trkpt>
      <trkpt lat="43.53666" lon="6.28941">
        <ele>360</ele>
        <time>2012-12-02T10:02:03Z</time>
      </trkpt>
      <trkpt lat="43.53667" lon="6.28945">
        <ele>358</ele>
        <time>2012-12-02T10:02:17Z</time>
      </trkpt>
      <trkpt lat="43.53667" lon="6.28949">
        <ele>358</ele>
        <time>2012-12-02T10:02:18Z</time>
      </trkpt>
      <trkpt lat="43.53668" lon="6.28954">
        <ele>359</ele>
        <time>2012-12-02T10:02:19Z</time>
      </trkpt>
      <trkpt lat="43.5367" lon="6.28961">
        <ele>359</ele>
        <time>2012-12-02T10:02:20Z</time>
      </trkpt>
      <trkpt lat="43.53673" lon="6.28975">
        <ele>358</ele>
        <time>2012-12-02T10:02:22Z</time>
      </trkpt>
      <trkpt lat="43.53675" lon="6.28982">
        <ele>358</ele>
        <time>2012-12-02T10:02:23Z</time>
      </trkpt>
      <trkpt lat="43.53677" lon="6.28989">
        <ele>357</ele>
        <time>2012-12-02T10:02:24Z</time>
      </trkpt>
      <trkpt lat="43.5368" lon="6.28996">
        <ele>357</ele>
        <time>2012-12-02T10:02:25Z</time>
      </trkpt>
      <trkpt lat="43.53682" lon="6.29004">
        <ele>357</ele>
        <time>2012-12-02T10:02:26Z</time>
      </trkpt>
      <trkpt lat="43.53687" lon="6.29025">
        <ele>357</ele>
        <time>2012-12-02T10:02:29Z</time>
      </trkpt>
      <trkpt lat="43.53686" lon="6.2903">
        <ele>357</ele>
        <time>2012-12-02T10:02:30Z</time>
      </trkpt>
      <trkpt lat="43.53678" lon="6.29035">
        <ele>357</ele>
        <time>2012-12-02T10:02:32Z</time>
      </trkpt>
      <trkpt lat="43.53665" lon="6.29035">
        <ele>357</ele>
        <time>2012-12-02T10:02:35Z</time>
      </trkpt>
      <trkpt lat="43.53656" lon="6.29035">
        <ele>357</ele>
        <time>2012-12-02T10:02:37Z</time>
      </trkpt>
      <trkpt lat="43.53632" lon="6.29031">
        <ele>356</ele>
        <time>2012-12-02T10:02:42Z</time>
      </trkpt>
      <trkpt lat="43.53627" lon="6.29031">
        <ele>356</ele>
        <time>2012-12-02T10:02:43Z</time>
      </trkpt>
      <trkpt lat="43.53622" lon="6.2903">
        <ele>355</ele>
        <time>2012-12-02T10:02:44Z</time>
      </trkpt>
      <trkpt lat="43.53616" lon="6.29029">
        <ele>355</ele>
        <time>2012-12-02T10:02:45Z</time>
      </trkpt>
      <trkpt lat="43.53611" lon="6.29028">
        <ele>355</ele>
        <time>2012-12-02T10:02:46Z</time>
      </trkpt>
      <trkpt lat="43.53595" lon="6.29027">
        <ele>354</ele>
        <time>2012-12-02T10:02:49Z</time>
      </trkpt>
      <trkpt lat="43.53589" lon="6.29025">
        <ele>354</ele>
        <time>2012-12-02T10:02:50Z</time>
      </trkpt>
      <trkpt lat="43.53583" lon="6.29023">
        <ele>353</ele>
        <time>2012-12-02T10:02:51Z</time>
      </trkpt>
      <trkpt lat="43.53577" lon="6.29022">
        <ele>353</ele>
        <time>2012-12-02T10:02:52Z</time>
      </trkpt>
      <trkpt lat="43.53571" lon="6.29019">
        <ele>352</ele>
        <time>2012-12-02T10:02:53Z</time>
      </trkpt>
      <trkpt lat="43.53565" lon="6.29016">
        <ele>352</ele>
        <time>2012-12-02T10:02:54Z</time>
      </trkpt>
      <trkpt lat="43.53552" lon="6.29012">
        <ele>352</ele>
        <time>2012-12-02T10:02:56Z</time>
      </trkpt>
      <trkpt lat="43.53547" lon="6.29011">
        <ele>352</ele>
        <time>2012-12-02T10:02:57Z</time>
      </trkpt>
      <trkpt lat="43.53542" lon="6.29011">
        <ele>351</ele>
        <time>2012-12-02T10:02:58Z</time>
      </trkpt>
      <trkpt lat="43.53536" lon="6.2901">
        <ele>351</ele>
        <time>2012-12-02T10:02:59Z</time>
      </trkpt>
      <trkpt lat="43.53531" lon="6.29008">
        <ele>350</ele>
        <time>2012-12-02T10:03:00Z</time>
      </trkpt>
      <trkpt lat="43.53525" lon="6.29006">
        <ele>350</ele>
        <time>2012-12-02T10:03:01Z</time>
      </trkpt>
      <trkpt lat="43.53518" lon="6.29004">
        <ele>349</ele>
        <time>2012-12-02T10:03:02Z</time>
      </trkpt>
      <trkpt lat="43.53511" lon="6.29003">
        <ele>349</ele>
        <time>2012-12-02T10:03:03Z</time>
      </trkpt>
      <trkpt lat="43.53504" lon="6.29001">
        <ele>348</ele>
        <time>2012-12-02T10:03:04Z</time>
      </trkpt>
      <trkpt lat="43.53497" lon="6.29">
        <ele>347</ele>
        <time>2012-12-02T10:03:05Z</time>
      </trkpt>
      <trkpt lat="43.53488" lon="6.28999">
        <ele>347</ele>
        <time>2012-12-02T10:03:06Z</time>
      </trkpt>
      <trkpt lat="43.53468" lon="6.29003">
        <ele>347</ele>
        <time>2012-12-02T10:03:09Z</time>
      </trkpt>
      <trkpt lat="43.53461" lon="6.29005">
        <ele>347</ele>
        <time>2012-12-02T10:03:10Z</time>
      </trkpt>
      <trkpt lat="43.5344" lon="6.29015">
        <ele>347</ele>
        <time>2012-12-02T10:03:13Z</time>
      </trkpt>
      <trkpt lat="43.53434" lon="6.29018">
        <ele>347</ele>
        <time>2012-12-02T10:03:14Z</time>
      </trkpt>
      <trkpt lat="43.53427" lon="6.29022">
        <ele>346</ele>
        <time>2012-12-02T10:03:15Z</time>
      </trkpt>
      <trkpt lat="43.53421" lon="6.29026">
        <ele>345</ele>
        <time>2012-12-02T10:03:16Z</time>
      </trkpt>
      <trkpt lat="43.53414" lon="6.29028">
        <ele>345</ele>
        <time>2012-12-02T10:03:17Z</time>
      </trkpt>
      <trkpt lat="43.53402" lon="6.2903">
        <ele>345</ele>
        <time>2012-12-02T10:03:19Z</time>
      </trkpt>
      <trkpt lat="43.5337" lon="6.29039">
        <ele>345</ele>
        <time>2012-12-02T10:03:24Z</time>
      </trkpt>
      <trkpt lat="43.53358" lon="6.29042">
        <ele>345</ele>
        <time>2012-12-02T10:03:26Z</time>
      </trkpt>
      <trkpt lat="43.53341" lon="6.2905">
        <ele>345</ele>
        <time>2012-12-02T10:03:29Z</time>
      </trkpt>
      <trkpt lat="43.53311" lon="6.29073">
        <ele>345</ele>
        <time>2012-12-02T10:03:34Z</time>
      </trkpt>
      <trkpt lat="43.53297" lon="6.29085">
        <ele>345</ele>
        <time>2012-12-02T10:03:36Z</time>
      </trkpt>
      <trkpt lat="43.5329" lon="6.2909">
        <ele>344</ele>
        <time>2012-12-02T10:03:37Z</time>
      </trkpt>
      <trkpt lat="43.53283" lon="6.29095">
        <ele>344</ele>
        <time>2012-12-02T10:03:38Z</time>
      </trkpt>
      <trkpt lat="43.53275" lon="6.291">
        <ele>343</ele>
        <time>2012-12-02T10:03:39Z</time>
      </trkpt>
      <trkpt lat="43.53268" lon="6.29106">
        <ele>343</ele>
        <time>2012-12-02T10:03:40Z</time>
      </trkpt>
      <trkpt lat="43.53246" lon="6.29125">
        <ele>343</ele>
        <time>2012-12-02T10:03:43Z</time>
      </trkpt>
      <trkpt lat="43.53239" lon="6.29131">
        <ele>343</ele>
        <time>2012-12-02T10:03:44Z</time>
      </trkpt>
      <trkpt lat="43.53232" lon="6.29136">
        <ele>342</ele>
        <time>2012-12-02T10:03:45Z</time>
      </trkpt>
      <trkpt lat="43.53225" lon="6.29143">
        <ele>342</ele>
        <time>2012-12-02T10:03:46Z</time>
      </trkpt>
      <trkpt lat="43.53219" lon="6.29149">
        <ele>342</ele>
        <time>2012-12-02T10:03:47Z</time>
      </trkpt>
      <trkpt lat="43.53213" lon="6.29155">
        <ele>341</ele>
        <time>2012-12-02T10:03:48Z</time>
      </trkpt>
      <trkpt lat="43.53208" lon="6.2916">
        <ele>341</ele>
        <time>2012-12-02T10:03:49Z</time>
      </trkpt>
      <trkpt lat="43.53194" lon="6.29179">
        <ele>340</ele>
        <time>2012-12-02T10:03:52Z</time>
      </trkpt>
      <trkpt lat="43.53191" lon="6.29187">
        <ele>340</ele>
        <time>2012-12-02T10:03:53Z</time>
      </trkpt>
      <trkpt lat="43.53188" lon="6.29195">
        <ele>339</ele>
        <time>2012-12-02T10:03:54Z</time>
      </trkpt>
      <trkpt lat="43.53186" lon="6.29204">
        <ele>339</ele>
        <time>2012-12-02T10:03:55Z</time>
      </trkpt>
      <trkpt lat="43.53184" lon="6.29211">
        <ele>338</ele>
        <time>2012-12-02T10:03:56Z</time>
      </trkpt>
      <trkpt lat="43.53183" lon="6.29219">
        <ele>338</ele>
        <time>2012-12-02T10:03:57Z</time>
      </trkpt>
      <trkpt lat="43.53181" lon="6.29226">
        <ele>337</ele>
        <time>2012-12-02T10:03:58Z</time>
      </trkpt>
      <trkpt lat="43.5318" lon="6.29234">
        <ele>337</ele>
        <time>2012-12-02T10:03:59Z</time>
      </trkpt>
      <trkpt lat="43.53178" lon="6.29241">
        <ele>336</ele>
        <time>2012-12-02T10:04:00Z</time>
      </trkpt>
      <trkpt lat="43.53176" lon="6.2925">
        <ele>336</ele>
        <time>2012-12-02T10:04:02Z</time>
      </trkpt>
      <trkpt lat="43.53175" lon="6.29255">
        <ele>336</ele>
        <time>2012-12-02T10:04:03Z</time>
      </trkpt>
      <trkpt lat="43.53173" lon="6.2926">
        <ele>335</ele>
        <time>2012-12-02T10:04:04Z</time>
      </trkpt>
      <trkpt lat="43.53172" lon="6.29264">
        <ele>334</ele>
        <time>2012-12-02T10:04:05Z</time>
      </trkpt>
      <trkpt lat="43.5317" lon="6.29269">
        <ele>334</ele>
        <time>2012-12-02T10:04:06Z</time>
      </trkpt>
      <trkpt lat="43.53165" lon="6.29287">
        <ele>334</ele>
        <time>2012-12-02T10:04:09Z</time>
      </trkpt>
      <trkpt lat="43.53162" lon="6.29298">
        <ele>334</ele>
        <time>2012-12-02T10:04:11Z</time>
      </trkpt>
      <trkpt lat="43.53161" lon="6.29305">
        <ele>334</ele>
        <time>2012-12-02T10:04:12Z</time>
      </trkpt>
      <trkpt lat="43.5316" lon="6.29311">
        <ele>333</ele>
        <time>2012-12-02T10:04:13Z</time>
      </trkpt>
      <trkpt lat="43.5316" lon="6.29318">
        <ele>333</ele>
        <time>2012-12-02T10:04:14Z</time>
      </trkpt>
      <trkpt lat="43.5316" lon="6.29326">
        <ele>332</ele>
        <time>2012-12-02T10:04:15Z</time>
      </trkpt>
      <trkpt lat="43.5316" lon="6.29334">
        <ele>332</ele>
        <time>2012-12-02T10:04:16Z</time>
      </trkpt>
      <trkpt lat="43.53161" lon="6.29342">
        <ele>332</ele>
        <time>2012-12-02T10:04:17Z</time>
      </trkpt>
      <trkpt lat="43.53162" lon="6.29351">
        <ele>332</ele>
        <time>2012-12-02T10:04:18Z</time>
      </trkpt>
      <trkpt lat="43.5317" lon="6.29399">
        <ele>332</ele>
        <time>2012-12-02T10:04:24Z</time>
      </trkpt>
      <trkpt lat="43.53173" lon="6.29416">
        <ele>332</ele>
        <time>2012-12-02T10:04:26Z</time>
      </trkpt>
      <trkpt lat="43.53176" lon="6.29431">
        <ele>332</ele>
        <time>2012-12-02T10:04:28Z</time>
      </trkpt>
      <trkpt lat="43.53179" lon="6.29443">
        <ele>332</ele>
        <time>2012-12-02T10:04:30Z</time>
      </trkpt>
      <trkpt lat="43.53182" lon="6.29465">
        <ele>332</ele>
        <time>2012-12-02T10:04:33Z</time>
      </trkpt>
      <trkpt lat="43.53185" lon="6.2948">
        <ele>332</ele>
        <time>2012-12-02T10:04:35Z</time>
      </trkpt>
      <trkpt lat="43.53191" lon="6.29494">
        <ele>332</ele>
        <time>2012-12-02T10:04:37Z</time>
      </trkpt>
      <trkpt lat="43.53202" lon="6.29527">
        <ele>332</ele>
        <time>2012-12-02T10:04:42Z</time>
      </trkpt>
      <trkpt lat="43.53204" lon="6.29534">
        <ele>332</ele>
        <time>2012-12-02T10:04:43Z</time>
      </trkpt>
      <trkpt lat="43.53206" lon="6.2954">
        <ele>332</ele>
        <time>2012-12-02T10:04:44Z</time>
      </trkpt>
      <trkpt lat="43.53213" lon="6.29565">
        <ele>332</ele>
        <time>2012-12-02T10:04:48Z</time>
      </trkpt>
      <trkpt lat="43.53216" lon="6.29578">
        <ele>332</ele>
        <time>2012-12-02T10:04:50Z</time>
      </trkpt>
      <trkpt lat="43.53222" lon="6.29597">
        <ele>332</ele>
        <time>2012-12-02T10:04:53Z</time>
      </trkpt>
      <trkpt lat="43.53223" lon="6.29603">
        <ele>332</ele>
        <time>2012-12-02T10:04:54Z</time>
      </trkpt>
      <trkpt lat="43.53225" lon="6.29609">
        <ele>331</ele>
        <time>2012-12-02T10:04:55Z</time>
      </trkpt>
      <trkpt lat="43.53227" lon="6.29614">
        <ele>331</ele>
        <time>2012-12-02T10:04:56Z</time>
      </trkpt>
      <trkpt lat="43.53229" lon="6.29619">
        <ele>330</ele>
        <time>2012-12-02T10:04:57Z</time>
      </trkpt>
      <trkpt lat="43.53231" lon="6.29625">
        <ele>330</ele>
        <time>2012-12-02T10:04:58Z</time>
      </trkpt>
      <trkpt lat="43.53232" lon="6.29649">
        <ele>330</ele>
        <time>2012-12-02T10:05:02Z</time>
      </trkpt>
      <trkpt lat="43.53229" lon="6.2969">
        <ele>330</ele>
        <time>2012-12-02T10:05:08Z</time>
      </trkpt>
      <trkpt lat="43.53228" lon="6.29697">
        <ele>330</ele>
        <time>2012-12-02T10:05:09Z</time>
      </trkpt>
      <trkpt lat="43.53227" lon="6.29705">
        <ele>330</ele>
        <time>2012-12-02T10:05:10Z</time>
      </trkpt>
      <trkpt lat="43.53225" lon="6.29738">
        <ele>330</ele>
        <time>2012-12-02T10:05:15Z</time>
      </trkpt>
      <trkpt lat="43.53222" lon="6.29769">
        <ele>330</ele>
        <time>2012-12-02T10:05:20Z</time>
      </trkpt>
      <trkpt lat="43.53218" lon="6.29811">
        <ele>330</ele>
        <time>2012-12-02T10:05:26Z</time>
      </trkpt>
      <trkpt lat="43.53213" lon="6.29847">
        <ele>330</ele>
        <time>2012-12-02T10:05:31Z</time>
      </trkpt>
      <trkpt lat="43.53212" lon="6.29855">
        <ele>330</ele>
        <time>2012-12-02T10:05:32Z</time>
      </trkpt>
      <trkpt lat="43.53212" lon="6.29863">
        <ele>329</ele>
        <time>2012-12-02T10:05:33Z</time>
      </trkpt>
      <trkpt lat="43.53211" lon="6.2987">
        <ele>329</ele>
        <time>2012-12-02T10:05:34Z</time>
      </trkpt>
      <trkpt lat="43.53211" lon="6.29876">
        <ele>328</ele>
        <time>2012-12-02T10:05:35Z</time>
      </trkpt>
      <trkpt lat="43.5321" lon="6.29883">
        <ele>328</ele>
        <time>2012-12-02T10:05:36Z</time>
      </trkpt>
      <trkpt lat="43.53204" lon="6.29907">
        <ele>328</ele>
        <time>2012-12-02T10:05:40Z</time>
      </trkpt>
      <trkpt lat="43.532" lon="6.29917">
        <ele>328</ele>
        <time>2012-12-02T10:05:42Z</time>
      </trkpt>
      <trkpt lat="43.53188" lon="6.29934">
        <ele>328</ele>
        <time>2012-12-02T10:05:46Z</time>
      </trkpt>
      <trkpt lat="43.53184" lon="6.29938">
        <ele>328</ele>
        <time>2012-12-02T10:05:47Z</time>
      </trkpt>
      <trkpt lat="43.53165" lon="6.29962">
        <ele>328</ele>
        <time>2012-12-02T10:05:53Z</time>
      </trkpt>
      <trkpt lat="43.53151" lon="6.29977">
        <ele>328</ele>
        <time>2012-12-02T10:05:58Z</time>
      </trkpt>
      <trkpt lat="43.53137" lon="6.2999">
        <ele>328</ele>
        <time>2012-12-02T10:06:04Z</time>
      </trkpt>
      <trkpt lat="43.53136" lon="6.29991">
        <ele>328</ele>
        <time>2012-12-02T10:06:06Z</time>
      </trkpt>
      <trkpt lat="43.53133" lon="6.29996">
        <ele>328</ele>
        <time>2012-12-02T10:07:26Z</time>
      </trkpt>
      <trkpt lat="43.53131" lon="6.29996">
        <ele>328</ele>
        <time>2012-12-02T10:07:27Z</time>
      </trkpt>
      <trkpt lat="43.53123" lon="6.2999">
        <ele>328</ele>
        <time>2012-12-02T10:07:32Z</time>
      </trkpt>
      <trkpt lat="43.53106" lon="6.29973">
        <ele>327</ele>
        <time>2012-12-02T10:07:38Z</time>
      </trkpt>
      <trkpt lat="43.53102" lon="6.29969">
        <ele>327</ele>
        <time>2012-12-02T10:07:39Z</time>
      </trkpt>
      <trkpt lat="43.53098" lon="6.29965">
        <ele>327</ele>
        <time>2012-12-02T10:07:40Z</time>
      </trkpt>
      <trkpt lat="43.53094" lon="6.29961">
        <ele>326</ele>
        <time>2012-12-02T10:07:41Z</time>
      </trkpt>
      <trkpt lat="43.53091" lon="6.29957">
        <ele>326</ele>
        <time>2012-12-02T10:07:42Z</time>
      </trkpt>
      <trkpt lat="43.53086" lon="6.29953">
        <ele>326</ele>
        <time>2012-12-02T10:07:43Z</time>
      </trkpt>
      <trkpt lat="43.53075" lon="6.29943">
        <ele>326</ele>
        <time>2012-12-02T10:07:46Z</time>
      </trkpt>
      <trkpt lat="43.53068" lon="6.29935">
        <ele>325</ele>
        <time>2012-12-02T10:07:48Z</time>
      </trkpt>
      <trkpt lat="43.53064" lon="6.29931">
        <ele>324</ele>
        <time>2012-12-02T10:07:49Z</time>
      </trkpt>
      <trkpt lat="43.53061" lon="6.29926">
        <ele>324</ele>
        <time>2012-12-02T10:07:50Z</time>
      </trkpt>
      <trkpt lat="43.53057" lon="6.29922">
        <ele>324</ele>
        <time>2012-12-02T10:07:51Z</time>
      </trkpt>
      <trkpt lat="43.53039" lon="6.29905">
        <ele>324</ele>
        <time>2012-12-02T10:07:55Z</time>
      </trkpt>
      <trkpt lat="43.53035" lon="6.299">
        <ele>324</ele>
        <time>2012-12-02T10:07:56Z</time>
      </trkpt>
      <trkpt lat="43.5303" lon="6.29895">
        <ele>323</ele>
        <time>2012-12-02T10:07:57Z</time>
      </trkpt>
      <trkpt lat="43.53026" lon="6.2989">
        <ele>323</ele>
        <time>2012-12-02T10:07:58Z</time>
      </trkpt>
      <trkpt lat="43.53021" lon="6.29885">
        <ele>322</ele>
        <time>2012-12-02T10:07:59Z</time>
      </trkpt>
      <trkpt lat="43.53017" lon="6.2988">
        <ele>322</ele>
        <time>2012-12-02T10:08:00Z</time>
      </trkpt>
      <trkpt lat="43.53012" lon="6.29875">
        <ele>321</ele>
        <time>2012-12-02T10:08:01Z</time>
      </trkpt>
      <trkpt lat="43.53008" lon="6.29869">
        <ele>321</ele>
        <time>2012-12-02T10:08:02Z</time>
      </trkpt>
      <trkpt lat="43.53004" lon="6.29863">
        <ele>320</ele>
        <time>2012-12-02T10:08:03Z</time>
      </trkpt>
      <trkpt lat="43.53" lon="6.29857">
        <ele>320</ele>
        <time>2012-12-02T10:08:04Z</time>
      </trkpt>
      <trkpt lat="43.52997" lon="6.29851">
        <ele>319</ele>
        <time>2012-12-02T10:08:05Z</time>
      </trkpt>
      <trkpt lat="43.52994" lon="6.29844">
        <ele>318</ele>
        <time>2012-12-02T10:08:06Z</time>
      </trkpt>
      <trkpt lat="43.5299" lon="6.29838">
        <ele>318</ele>
        <time>2012-12-02T10:08:07Z</time>
      </trkpt>
      <trkpt lat="43.52986" lon="6.29832">
        <ele>317</ele>
        <time>2012-12-02T10:08:08Z</time>
      </trkpt>
      <trkpt lat="43.52981" lon="6.29828">
        <ele>317</ele>
        <time>2012-12-02T10:08:09Z</time>
      </trkpt>
      <trkpt lat="43.52976" lon="6.29824">
        <ele>316</ele>
        <time>2012-12-02T10:08:10Z</time>
      </trkpt>
      <trkpt lat="43.52971" lon="6.29822">
        <ele>316</ele>
        <time>2012-12-02T10:08:11Z</time>
      </trkpt>
      <trkpt lat="43.52966" lon="6.29819">
        <ele>315</ele>
        <time>2012-12-02T10:08:12Z</time>
      </trkpt>
      <trkpt lat="43.52961" lon="6.29816">
        <ele>314</ele>
        <time>2012-12-02T10:08:13Z</time>
      </trkpt>
      <trkpt lat="43.52946" lon="6.29798">
        <ele>314</ele>
        <time>2012-12-02T10:08:17Z</time>
      </trkpt>
      <trkpt lat="43.5294" lon="6.29788">
        <ele>314</ele>
        <time>2012-12-02T10:08:20Z</time>
      </trkpt>
      <trkpt lat="43.52937" lon="6.29786">
        <ele>314</ele>
        <time>2012-12-02T10:08:21Z</time>
      </trkpt>
      <trkpt lat="43.52925" lon="6.29782">
        <ele>314</ele>
        <time>2012-12-02T10:08:26Z</time>
      </trkpt>
      <trkpt lat="43.52923" lon="6.29779">
        <ele>314</ele>
        <time>2012-12-02T10:08:28Z</time>
      </trkpt>
      <trkpt lat="43.52921" lon="6.29775">
        <ele>314</ele>
        <time>2012-12-02T10:08:31Z</time>
      </trkpt>
      <trkpt lat="43.52919" lon="6.29772">
        <ele>314</ele>
        <time>2012-12-02T10:08:47Z</time>
      </trkpt>
      <trkpt lat="43.52917" lon="6.29767">
        <ele>315</ele>
        <time>2012-12-02T10:08:49Z</time>
      </trkpt>
      <trkpt lat="43.52916" lon="6.29764">
        <ele>315</ele>
        <time>2012-12-02T10:08:50Z</time>
      </trkpt>
      <trkpt lat="43.52915" lon="6.2976">
        <ele>315</ele>
        <time>2012-12-02T10:08:51Z</time>
      </trkpt>
      <trkpt lat="43.52914" lon="6.29757">
        <ele>316</ele>
        <time>2012-12-02T10:08:52Z</time>
      </trkpt>
      <trkpt lat="43.52914" lon="6.29754">
        <ele>316</ele>
        <time>2012-12-02T10:08:53Z</time>
      </trkpt>
      <trkpt lat="43.52909" lon="6.29744">
        <ele>316</ele>
        <time>2012-12-02T10:08:57Z</time>
      </trkpt>
      <trkpt lat="43.52899" lon="6.29727">
        <ele>317</ele>
        <time>2012-12-02T10:09:02Z</time>
      </trkpt>
      <trkpt lat="43.52898" lon="6.29724">
        <ele>317</ele>
        <time>2012-12-02T10:09:03Z</time>
      </trkpt>
      <trkpt lat="43.52897" lon="6.29721">
        <ele>318</ele>
        <time>2012-12-02T10:09:04Z</time>
      </trkpt>
      <trkpt lat="43.52896" lon="6.29718">
        <ele>318</ele>
        <time>2012-12-02T10:09:05Z</time>
      </trkpt>
      <trkpt lat="43.52893" lon="6.29711">
        <ele>318</ele>
        <time>2012-12-02T10:09:08Z</time>
      </trkpt>
      <trkpt lat="43.52892" lon="6.29708">
        <ele>318</ele>
        <time>2012-12-02T10:09:09Z</time>
      </trkpt>
      <trkpt lat="43.52891" lon="6.29706">
        <ele>319</ele>
        <time>2012-12-02T10:09:10Z</time>
      </trkpt>
      <trkpt lat="43.5289" lon="6.29703">
        <ele>319</ele>
        <time>2012-12-02T10:09:11Z</time>
      </trkpt>
      <trkpt lat="43.52889" lon="6.297">
        <ele>320</ele>
        <time>2012-12-02T10:09:12Z</time>
      </trkpt>
      <trkpt lat="43.52888" lon="6.29697">
        <ele>320</ele>
        <time>2012-12-02T10:09:13Z</time>
      </trkpt>
      <trkpt lat="43.52887" lon="6.29695">
        <ele>320</ele>
        <time>2012-12-02T10:09:14Z</time>
      </trkpt>
      <trkpt lat="43.52886" lon="6.29692">
        <ele>320</ele>
        <time>2012-12-02T10:09:15Z</time>
      </trkpt>
      <trkpt lat="43.52883" lon="6.29685">
        <ele>321</ele>
        <time>2012-12-02T10:09:18Z</time>
      </trkpt>
      <trkpt lat="43.52881" lon="6.29683">
        <ele>321</ele>
        <time>2012-12-02T10:09:19Z</time>
      </trkpt>
      <trkpt lat="43.5288" lon="6.29681">
        <ele>322</ele>
        <time>2012-12-02T10:09:20Z</time>
      </trkpt>
      <trkpt lat="43.52879" lon="6.29678">
        <ele>322</ele>
        <time>2012-12-02T10:09:21Z</time>
      </trkpt>
      <trkpt lat="43.52879" lon="6.29676">
        <ele>323</ele>
        <time>2012-12-02T10:09:22Z</time>
      </trkpt>
      <trkpt lat="43.52877" lon="6.29668">
        <ele>323</ele>
        <time>2012-12-02T10:09:25Z</time>
      </trkpt>
      <trkpt lat="43.52876" lon="6.29663">
        <ele>323</ele>
        <time>2012-12-02T10:09:27Z</time>
      </trkpt>
      <trkpt lat="43.52875" lon="6.29658">
        <ele>323</ele>
        <time>2012-12-02T10:09:29Z</time>
      </trkpt>
      <trkpt lat="43.52872" lon="6.29652">
        <ele>323</ele>
        <time>2012-12-02T10:09:32Z</time>
      </trkpt>
      <trkpt lat="43.52871" lon="6.2965">
        <ele>323</ele>
        <time>2012-12-02T10:09:33Z</time>
      </trkpt>
      <trkpt lat="43.52869" lon="6.29648">
        <ele>324</ele>
        <time>2012-12-02T10:09:34Z</time>
      </trkpt>
      <trkpt lat="43.52869" lon="6.29647">
        <ele>324</ele>
        <time>2012-12-02T10:09:35Z</time>
      </trkpt>
      <trkpt lat="43.52868" lon="6.29644">
        <ele>325</ele>
        <time>2012-12-02T10:09:36Z</time>
      </trkpt>
      <trkpt lat="43.52864" lon="6.29635">
        <ele>325</ele>
        <time>2012-12-02T10:09:40Z</time>
      </trkpt>
      <trkpt lat="43.52861" lon="6.2963">
        <ele>325</ele>
        <time>2012-12-02T10:09:42Z</time>
      </trkpt>
      <trkpt lat="43.52857" lon="6.29622">
        <ele>325</ele>
        <time>2012-12-02T10:09:45Z</time>
      </trkpt>
      <trkpt lat="43.52846" lon="6.29603">
        <ele>325</ele>
        <time>2012-12-02T10:09:51Z</time>
      </trkpt>
      <trkpt lat="43.52833" lon="6.29588">
        <ele>325</ele>
        <time>2012-12-02T10:09:57Z</time>
      </trkpt>
      <trkpt lat="43.5283" lon="6.29577">
        <ele>325</ele>
        <time>2012-12-02T10:10:02Z</time>
      </trkpt>
      <trkpt lat="43.52821" lon="6.29555">
        <ele>325</ele>
        <time>2012-12-02T10:10:24Z</time>
      </trkpt>
      <trkpt lat="43.52819" lon="6.29545">
        <ele>325</ele>
        <time>2012-12-02T10:10:27Z</time>
      </trkpt>
      <trkpt lat="43.52812" lon="6.29522">
        <ele>325</ele>
        <time>2012-12-02T10:10:32Z</time>
      </trkpt>
      <trkpt lat="43.52802" lon="6.29502">
        <ele>325</ele>
        <time>2012-12-02T10:10:37Z</time>
      </trkpt>
      <trkpt lat="43.528" lon="6.29492">
        <ele>325</ele>
        <time>2012-12-02T10:10:39Z</time>
      </trkpt>
      <trkpt lat="43.52801" lon="6.29482">
        <ele>325</ele>
        <time>2012-12-02T10:10:41Z</time>
      </trkpt>
      <trkpt lat="43.52796" lon="6.2946">
        <ele>325</ele>
        <time>2012-12-02T10:10:45Z</time>
      </trkpt>
      <trkpt lat="43.52791" lon="6.29433">
        <ele>325</ele>
        <time>2012-12-02T10:10:50Z</time>
      </trkpt>
      <trkpt lat="43.52786" lon="6.29409">
        <ele>325</ele>
        <time>2012-12-02T10:10:55Z</time>
      </trkpt>
      <trkpt lat="43.5278" lon="6.29394">
        <ele>324</ele>
        <time>2012-12-02T10:10:58Z</time>
      </trkpt>
      <trkpt lat="43.52778" lon="6.29389">
        <ele>324</ele>
        <time>2012-12-02T10:10:59Z</time>
      </trkpt>
      <trkpt lat="43.52776" lon="6.29384">
        <ele>323</ele>
        <time>2012-12-02T10:11:00Z</time>
      </trkpt>
      <trkpt lat="43.52774" lon="6.29381">
        <ele>323</ele>
        <time>2012-12-02T10:11:01Z</time>
      </trkpt>
      <trkpt lat="43.52773" lon="6.29378">
        <ele>322</ele>
        <time>2012-12-02T10:11:02Z</time>
      </trkpt>
      <trkpt lat="43.52773" lon="6.29376">
        <ele>322</ele>
        <time>2012-12-02T10:11:03Z</time>
      </trkpt>
      <trkpt lat="43.52771" lon="6.29368">
        <ele>322</ele>
        <time>2012-12-02T10:11:08Z</time>
      </trkpt>
      <trkpt lat="43.5277" lon="6.29366">
        <ele>322</ele>
        <time>2012-12-02T10:11:09Z</time>
      </trkpt>
      <trkpt lat="43.52769" lon="6.29363">
        <ele>322</ele>
        <time>2012-12-02T10:11:10Z</time>
      </trkpt>
      <trkpt lat="43.5277" lon="6.29362">
        <ele>321</ele>
        <time>2012-12-02T10:11:11Z</time>
      </trkpt>
      <trkpt lat="43.5277" lon="6.29361">
        <ele>321</ele>
        <time>2012-12-02T10:11:12Z</time>
      </trkpt>
      <trkpt lat="43.52771" lon="6.29352">
        <ele>318</ele>
        <time>2012-12-02T10:12:17Z</time>
      </trkpt>
      <trkpt lat="43.52769" lon="6.29345">
        <ele>318</ele>
        <time>2012-12-02T10:12:19Z</time>
      </trkpt>
      <trkpt lat="43.52762" lon="6.29319">
        <ele>318</ele>
        <time>2012-12-02T10:12:24Z</time>
      </trkpt>
      <trkpt lat="43.52761" lon="6.29313">
        <ele>317</ele>
        <time>2012-12-02T10:12:25Z</time>
      </trkpt>
      <trkpt lat="43.52759" lon="6.29306">
        <ele>317</ele>
        <time>2012-12-02T10:12:26Z</time>
      </trkpt>
      <trkpt lat="43.52757" lon="6.293">
        <ele>316</ele>
        <time>2012-12-02T10:12:27Z</time>
      </trkpt>
      <trkpt lat="43.52755" lon="6.29293">
        <ele>315</ele>
        <time>2012-12-02T10:12:28Z</time>
      </trkpt>
      <trkpt lat="43.52753" lon="6.29287">
        <ele>315</ele>
        <time>2012-12-02T10:12:29Z</time>
      </trkpt>
      <trkpt lat="43.52745" lon="6.29255">
        <ele>315</ele>
        <time>2012-12-02T10:12:34Z</time>
      </trkpt>
      <trkpt lat="43.52739" lon="6.29242">
        <ele>316</ele>
        <time>2012-12-02T10:12:37Z</time>
      </trkpt>
      <trkpt lat="43.52737" lon="6.29239">
        <ele>316</ele>
        <time>2012-12-02T10:12:38Z</time>
      </trkpt>
      <trkpt lat="43.52735" lon="6.29236">
        <ele>317</ele>
        <time>2012-12-02T10:12:39Z</time>
      </trkpt>
      <trkpt lat="43.52734" lon="6.29233">
        <ele>317</ele>
        <time>2012-12-02T10:12:40Z</time>
      </trkpt>
      <trkpt lat="43.52732" lon="6.2923">
        <ele>318</ele>
        <time>2012-12-02T10:12:41Z</time>
      </trkpt>
      <trkpt lat="43.52731" lon="6.29227">
        <ele>318</ele>
        <time>2012-12-02T10:12:42Z</time>
      </trkpt>
      <trkpt lat="43.5273" lon="6.29224">
        <ele>318</ele>
        <time>2012-12-02T10:12:43Z</time>
      </trkpt>
      <trkpt lat="43.52729" lon="6.29221">
        <ele>319</ele>
        <time>2012-12-02T10:12:44Z</time>
      </trkpt>
      <trkpt lat="43.52728" lon="6.29218">
        <ele>319</ele>
        <time>2012-12-02T10:12:45Z</time>
      </trkpt>
      <trkpt lat="43.52728" lon="6.29214">
        <ele>320</ele>
        <time>2012-12-02T10:12:46Z</time>
      </trkpt>
      <trkpt lat="43.52726" lon="6.29208">
        <ele>320</ele>
        <time>2012-12-02T10:12:48Z</time>
      </trkpt>
      <trkpt lat="43.52726" lon="6.29205">
        <ele>320</ele>
        <time>2012-12-02T10:12:49Z</time>
      </trkpt>
      <trkpt lat="43.52725" lon="6.29201">
        <ele>321</ele>
        <time>2012-12-02T10:12:50Z</time>
      </trkpt>
      <trkpt lat="43.52725" lon="6.29198">
        <ele>321</ele>
        <time>2012-12-02T10:12:51Z</time>
      </trkpt>
      <trkpt lat="43.52724" lon="6.29194">
        <ele>322</ele>
        <time>2012-12-02T10:12:52Z</time>
      </trkpt>
      <trkpt lat="43.5272" lon="6.29182">
        <ele>322</ele>
        <time>2012-12-02T10:12:56Z</time>
      </trkpt>
      <trkpt lat="43.52717" lon="6.29175">
        <ele>322</ele>
        <time>2012-12-02T10:12:58Z</time>
      </trkpt>
      <trkpt lat="43.52715" lon="6.29172">
        <ele>323</ele>
        <time>2012-12-02T10:12:59Z</time>
      </trkpt>
      <trkpt lat="43.52714" lon="6.29169">
        <ele>323</ele>
        <time>2012-12-02T10:13:00Z</time>
      </trkpt>
      <trkpt lat="43.52712" lon="6.29166">
        <ele>324</ele>
        <time>2012-12-02T10:13:01Z</time>
      </trkpt>
      <trkpt lat="43.52711" lon="6.29163">
        <ele>324</ele>
        <time>2012-12-02T10:13:02Z</time>
      </trkpt>
      <trkpt lat="43.52702" lon="6.29139">
        <ele>324</ele>
        <time>2012-12-02T10:13:07Z</time>
      </trkpt>
      <trkpt lat="43.52696" lon="6.29118">
        <ele>324</ele>
        <time>2012-12-02T10:13:12Z</time>
      </trkpt>
      <trkpt lat="43.52692" lon="6.29094">
        <ele>324</ele>
        <time>2012-12-02T10:13:16Z</time>
      </trkpt>
      <trkpt lat="43.52691" lon="6.29087">
        <ele>324</ele>
        <time>2012-12-02T10:13:17Z</time>
      </trkpt>
      <trkpt lat="43.52687" lon="6.29069">
        <ele>324</ele>
        <time>2012-12-02T10:13:20Z</time>
      </trkpt>
      <trkpt lat="43.52684" lon="6.29057">
        <ele>324</ele>
        <time>2012-12-02T10:13:22Z</time>
      </trkpt>
      <trkpt lat="43.52677" lon="6.29028">
        <ele>324</ele>
        <time>2012-12-02T10:13:27Z</time>
      </trkpt>
      <trkpt lat="43.52671" lon="6.29009">
        <ele>324</ele>
        <time>2012-12-02T10:13:30Z</time>
      </trkpt>
      <trkpt lat="43.52665" lon="6.28997">
        <ele>324</ele>
        <time>2012-12-02T10:13:32Z</time>
      </trkpt>
      <trkpt lat="43.52656" lon="6.28975">
        <ele>324</ele>
        <time>2012-12-02T10:13:36Z</time>
      </trkpt>
      <trkpt lat="43.52653" lon="6.2897">
        <ele>323</ele>
        <time>2012-12-02T10:13:37Z</time>
      </trkpt>
      <trkpt lat="43.52651" lon="6.28965">
        <ele>323</ele>
        <time>2012-12-02T10:13:38Z</time>
      </trkpt>
      <trkpt lat="43.52648" lon="6.2896">
        <ele>322</ele>
        <time>2012-12-02T10:13:39Z</time>
      </trkpt>
      <trkpt lat="43.52646" lon="6.28955">
        <ele>322</ele>
        <time>2012-12-02T10:13:40Z</time>
      </trkpt>
      <trkpt lat="43.52645" lon="6.28949">
        <ele>322</ele>
        <time>2012-12-02T10:13:41Z</time>
      </trkpt>
      <trkpt lat="43.52642" lon="6.28928">
        <ele>321</ele>
        <time>2012-12-02T10:13:44Z</time>
      </trkpt>
      <trkpt lat="43.52641" lon="6.28921">
        <ele>321</ele>
        <time>2012-12-02T10:13:45Z</time>
      </trkpt>
      <trkpt lat="43.5264" lon="6.28915">
        <ele>321</ele>
        <time>2012-12-02T10:13:46Z</time>
      </trkpt>
      <trkpt lat="43.52637" lon="6.2891">
        <ele>320</ele>
        <time>2012-12-02T10:13:47Z</time>
      </trkpt>
      <trkpt lat="43.52634" lon="6.28905">
        <ele>320</ele>
        <time>2012-12-02T10:13:48Z</time>
      </trkpt>
      <trkpt lat="43.52631" lon="6.289">
        <ele>320</ele>
        <time>2012-12-02T10:13:49Z</time>
      </trkpt>
      <trkpt lat="43.52628" lon="6.28894">
        <ele>319</ele>
        <time>2012-12-02T10:13:50Z</time>
      </trkpt>
      <trkpt lat="43.52625" lon="6.28889">
        <ele>319</ele>
        <time>2012-12-02T10:13:51Z</time>
      </trkpt>
      <trkpt lat="43.52621" lon="6.28883">
        <ele>318</ele>
        <time>2012-12-02T10:13:52Z</time>
      </trkpt>
      <trkpt lat="43.52618" lon="6.28877">
        <ele>318</ele>
        <time>2012-12-02T10:13:53Z</time>
      </trkpt>
      <trkpt lat="43.52614" lon="6.28871">
        <ele>317</ele>
        <time>2012-12-02T10:13:54Z</time>
      </trkpt>
      <trkpt lat="43.5261" lon="6.28864">
        <ele>317</ele>
        <time>2012-12-02T10:13:55Z</time>
      </trkpt>
      <trkpt lat="43.52606" lon="6.28857">
        <ele>316</ele>
        <time>2012-12-02T10:13:56Z</time>
      </trkpt>
      <trkpt lat="43.52603" lon="6.28851">
        <ele>315</ele>
        <time>2012-12-02T10:13:57Z</time>
      </trkpt>
      <trkpt lat="43.526" lon="6.28844">
        <ele>315</ele>
        <time>2012-12-02T10:13:58Z</time>
      </trkpt>
      <trkpt lat="43.52597" lon="6.28837">
        <ele>314</ele>
        <time>2012-12-02T10:13:59Z</time>
      </trkpt>
      <trkpt lat="43.52594" lon="6.2883">
        <ele>314</ele>
        <time>2012-12-02T10:14:00Z</time>
      </trkpt>
      <trkpt lat="43.52592" lon="6.28823">
        <ele>313</ele>
        <time>2012-12-02T10:14:01Z</time>
      </trkpt>
      <trkpt lat="43.5259" lon="6.28816">
        <ele>312</ele>
        <time>2012-12-02T10:14:02Z</time>
      </trkpt>
      <trkpt lat="43.52587" lon="6.2881">
        <ele>312</ele>
        <time>2012-12-02T10:14:03Z</time>
      </trkpt>
      <trkpt lat="43.52584" lon="6.28803">
        <ele>311</ele>
        <time>2012-12-02T10:14:04Z</time>
      </trkpt>
      <trkpt lat="43.52582" lon="6.28798">
        <ele>311</ele>
        <time>2012-12-02T10:14:05Z</time>
      </trkpt>
      <trkpt lat="43.52581" lon="6.28793">
        <ele>310</ele>
        <time>2012-12-02T10:14:06Z</time>
      </trkpt>
      <trkpt lat="43.52579" lon="6.28788">
        <ele>310</ele>
        <time>2012-12-02T10:14:07Z</time>
      </trkpt>
      <trkpt lat="43.52579" lon="6.28785">
        <ele>309</ele>
        <time>2012-12-02T10:14:08Z</time>
      </trkpt>
      <trkpt lat="43.52578" lon="6.28781">
        <ele>308</ele>
        <time>2012-12-02T10:14:09Z</time>
      </trkpt>
      <trkpt lat="43.52577" lon="6.28778">
        <ele>308</ele>
        <time>2012-12-02T10:14:10Z</time>
      </trkpt>
      <trkpt lat="43.52578" lon="6.28775">
        <ele>307</ele>
        <time>2012-12-02T10:14:11Z</time>
      </trkpt>
      <trkpt lat="43.52579" lon="6.2877">
        <ele>307</ele>
        <time>2012-12-02T10:14:12Z</time>
      </trkpt>
      <trkpt lat="43.52579" lon="6.28766">
        <ele>306</ele>
        <time>2012-12-02T10:14:13Z</time>
      </trkpt>
      <trkpt lat="43.52579" lon="6.28761">
        <ele>306</ele>
        <time>2012-12-02T10:14:14Z</time>
      </trkpt>
      <trkpt lat="43.52579" lon="6.28755">
        <ele>306</ele>
        <time>2012-12-02T10:14:15Z</time>
      </trkpt>
      <trkpt lat="43.52578" lon="6.28749">
        <ele>306</ele>
        <time>2012-12-02T10:14:16Z</time>
      </trkpt>
      <trkpt lat="43.52577" lon="6.28742">
        <ele>305</ele>
        <time>2012-12-02T10:14:17Z</time>
      </trkpt>
      <trkpt lat="43.52577" lon="6.28736">
        <ele>304</ele>
        <time>2012-12-02T10:14:18Z</time>
      </trkpt>
      <trkpt lat="43.52577" lon="6.28729">
        <ele>304</ele>
        <time>2012-12-02T10:14:19Z</time>
      </trkpt>
      <trkpt lat="43.52576" lon="6.28723">
        <ele>303</ele>
        <time>2012-12-02T10:14:20Z</time>
      </trkpt>
      <trkpt lat="43.52576" lon="6.28717">
        <ele>302</ele>
        <time>2012-12-02T10:14:21Z</time>
      </trkpt>
      <trkpt lat="43.52576" lon="6.28712">
        <ele>301</ele>
        <time>2012-12-02T10:14:22Z</time>
      </trkpt>
      <trkpt lat="43.52577" lon="6.28708">
        <ele>301</ele>
        <time>2012-12-02T10:14:23Z</time>
      </trkpt>
      <trkpt lat="43.52578" lon="6.28704">
        <ele>300</ele>
        <time>2012-12-02T10:14:24Z</time>
      </trkpt>
      <trkpt lat="43.52577" lon="6.287">
        <ele>299</ele>
        <time>2012-12-02T10:14:25Z</time>
      </trkpt>
      <trkpt lat="43.52578" lon="6.28695">
        <ele>299</ele>
        <time>2012-12-02T10:14:26Z</time>
      </trkpt>
      <trkpt lat="43.52579" lon="6.2869">
        <ele>298</ele>
        <time>2012-12-02T10:14:27Z</time>
      </trkpt>
      <trkpt lat="43.52579" lon="6.28684">
        <ele>298</ele>
        <time>2012-12-02T10:14:28Z</time>
      </trkpt>
      <trkpt lat="43.5258" lon="6.28679">
        <ele>298</ele>
        <time>2012-12-02T10:14:29Z</time>
      </trkpt>
      <trkpt lat="43.5258" lon="6.28674">
        <ele>297</ele>
        <time>2012-12-02T10:14:30Z</time>
      </trkpt>
      <trkpt lat="43.52581" lon="6.28669">
        <ele>297</ele>
        <time>2012-12-02T10:14:31Z</time>
      </trkpt>
      <trkpt lat="43.52581" lon="6.28658">
        <ele>296</ele>
        <time>2012-12-02T10:14:33Z</time>
      </trkpt>
      <trkpt lat="43.52582" lon="6.28653">
        <ele>296</ele>
        <time>2012-12-02T10:14:34Z</time>
      </trkpt>
      <trkpt lat="43.52584" lon="6.28647">
        <ele>295</ele>
        <time>2012-12-02T10:14:35Z</time>
      </trkpt>
      <trkpt lat="43.52585" lon="6.28642">
        <ele>295</ele>
        <time>2012-12-02T10:14:36Z</time>
      </trkpt>
      <trkpt lat="43.52588" lon="6.28637">
        <ele>295</ele>
        <time>2012-12-02T10:14:37Z</time>
      </trkpt>
      <trkpt lat="43.52591" lon="6.28631">
        <ele>295</ele>
        <time>2012-12-02T10:14:38Z</time>
      </trkpt>
      <trkpt lat="43.52595" lon="6.28626">
        <ele>294</ele>
        <time>2012-12-02T10:14:39Z</time>
      </trkpt>
      <trkpt lat="43.52599" lon="6.28621">
        <ele>294</ele>
        <time>2012-12-02T10:14:40Z</time>
      </trkpt>
      <trkpt lat="43.52602" lon="6.28616">
        <ele>293</ele>
        <time>2012-12-02T10:14:41Z</time>
      </trkpt>
      <trkpt lat="43.52605" lon="6.28612">
        <ele>293</ele>
        <time>2012-12-02T10:14:42Z</time>
      </trkpt>
      <trkpt lat="43.52608" lon="6.28606">
        <ele>292</ele>
        <time>2012-12-02T10:14:43Z</time>
      </trkpt>
      <trkpt lat="43.52616" lon="6.28592">
        <ele>292</ele>
        <time>2012-12-02T10:14:46Z</time>
      </trkpt>
      <trkpt lat="43.52621" lon="6.28582">
        <ele>290</ele>
        <time>2012-12-02T10:16:10Z</time>
      </trkpt>
      <trkpt lat="43.52623" lon="6.28573">
        <ele>290</ele>
        <time>2012-12-02T10:16:12Z</time>
      </trkpt>
      <trkpt lat="43.52627" lon="6.28545">
        <ele>290</ele>
        <time>2012-12-02T10:16:17Z</time>
      </trkpt>
      <trkpt lat="43.52627" lon="6.28524">
        <ele>290</ele>
        <time>2012-12-02T10:16:20Z</time>
      </trkpt>
      <trkpt lat="43.52627" lon="6.28509">
        <ele>290</ele>
        <time>2012-12-02T10:16:22Z</time>
      </trkpt>
      <trkpt lat="43.52626" lon="6.28494">
        <ele>290</ele>
        <time>2012-12-02T10:16:24Z</time>
      </trkpt>
      <trkpt lat="43.52624" lon="6.28472">
        <ele>290</ele>
        <time>2012-12-02T10:16:27Z</time>
      </trkpt>
      <trkpt lat="43.52622" lon="6.28466">
        <ele>289</ele>
        <time>2012-12-02T10:16:28Z</time>
      </trkpt>
      <trkpt lat="43.5262" lon="6.28459">
        <ele>289</ele>
        <time>2012-12-02T10:16:29Z</time>
      </trkpt>
      <trkpt lat="43.52618" lon="6.28453">
        <ele>289</ele>
        <time>2012-12-02T10:16:30Z</time>
      </trkpt>
      <trkpt lat="43.52616" lon="6.28447">
        <ele>288</ele>
        <time>2012-12-02T10:16:31Z</time>
      </trkpt>
      <trkpt lat="43.52608" lon="6.28429">
        <ele>288</ele>
        <time>2012-12-02T10:16:34Z</time>
      </trkpt>
      <trkpt lat="43.52604" lon="6.28424">
        <ele>288</ele>
        <time>2012-12-02T10:16:35Z</time>
      </trkpt>
      <trkpt lat="43.526" lon="6.28419">
        <ele>287</ele>
        <time>2012-12-02T10:16:36Z</time>
      </trkpt>
      <trkpt lat="43.52594" lon="6.28414">
        <ele>287</ele>
        <time>2012-12-02T10:16:37Z</time>
      </trkpt>
      <trkpt lat="43.52589" lon="6.2841">
        <ele>286</ele>
        <time>2012-12-02T10:16:38Z</time>
      </trkpt>
      <trkpt lat="43.52582" lon="6.28404">
        <ele>286</ele>
        <time>2012-12-02T10:16:39Z</time>
      </trkpt>
      <trkpt lat="43.52575" lon="6.28398">
        <ele>285</ele>
        <time>2012-12-02T10:16:40Z</time>
      </trkpt>
      <trkpt lat="43.52569" lon="6.28391">
        <ele>285</ele>
        <time>2012-12-02T10:16:41Z</time>
      </trkpt>
      <trkpt lat="43.52563" lon="6.28383">
        <ele>285</ele>
        <time>2012-12-02T10:16:42Z</time>
      </trkpt>
      <trkpt lat="43.52558" lon="6.28374">
        <ele>284</ele>
        <time>2012-12-02T10:16:43Z</time>
      </trkpt>
      <trkpt lat="43.52554" lon="6.28366">
        <ele>284</ele>
        <time>2012-12-02T10:16:44Z</time>
      </trkpt>
      <trkpt lat="43.52552" lon="6.28358">
        <ele>283</ele>
        <time>2012-12-02T10:16:45Z</time>
      </trkpt>
      <trkpt lat="43.52551" lon="6.2835">
        <ele>282</ele>
        <time>2012-12-02T10:16:46Z</time>
      </trkpt>
      <trkpt lat="43.5255" lon="6.28343">
        <ele>282</ele>
        <time>2012-12-02T10:16:47Z</time>
      </trkpt>
      <trkpt lat="43.52549" lon="6.28337">
        <ele>281</ele>
        <time>2012-12-02T10:16:48Z</time>
      </trkpt>
      <trkpt lat="43.52543" lon="6.2833">
        <ele>281</ele>
        <time>2012-12-02T10:16:50Z</time>
      </trkpt>
      <trkpt lat="43.52539" lon="6.28328">
        <ele>280</ele>
        <time>2012-12-02T10:16:51Z</time>
      </trkpt>
      <trkpt lat="43.52535" lon="6.28325">
        <ele>280</ele>
        <time>2012-12-02T10:16:52Z</time>
      </trkpt>
      <trkpt lat="43.52531" lon="6.28323">
        <ele>279</ele>
        <time>2012-12-02T10:16:53Z</time>
      </trkpt>
      <trkpt lat="43.52527" lon="6.28321">
        <ele>279</ele>
        <time>2012-12-02T10:16:54Z</time>
      </trkpt>
      <trkpt lat="43.52523" lon="6.2832">
        <ele>279</ele>
        <time>2012-12-02T10:16:55Z</time>
      </trkpt>
      <trkpt lat="43.52514" lon="6.28321">
        <ele>279</ele>
        <time>2012-12-02T10:16:57Z</time>
      </trkpt>
      <trkpt lat="43.52489" lon="6.2833">
        <ele>279</ele>
        <time>2012-12-02T10:17:03Z</time>
      </trkpt>
      <trkpt lat="43.52476" lon="6.28349">
        <ele>279</ele>
        <time>2012-12-02T10:17:08Z</time>
      </trkpt>
      <trkpt lat="43.52462" lon="6.28375">
        <ele>279</ele>
        <time>2012-12-02T10:17:15Z</time>
      </trkpt>
      <trkpt lat="43.5246" lon="6.28378">
        <ele>279</ele>
        <time>2012-12-02T10:17:16Z</time>
      </trkpt>
      <trkpt lat="43.52458" lon="6.28382">
        <ele>280</ele>
        <time>2012-12-02T10:17:17Z</time>
      </trkpt>
      <trkpt lat="43.52455" lon="6.28385">
        <ele>280</ele>
        <time>2012-12-02T10:17:18Z</time>
      </trkpt>
      <trkpt lat="43.52453" lon="6.28388">
        <ele>281</ele>
        <time>2012-12-02T10:17:19Z</time>
      </trkpt>
      <trkpt lat="43.52451" lon="6.28391">
        <ele>281</ele>
        <time>2012-12-02T10:17:20Z</time>
      </trkpt>
      <trkpt lat="43.52442" lon="6.28402">
        <ele>281</ele>
        <time>2012-12-02T10:17:24Z</time>
      </trkpt>
      <trkpt lat="43.5244" lon="6.28404">
        <ele>282</ele>
        <time>2012-12-02T10:17:25Z</time>
      </trkpt>
      <trkpt lat="43.52438" lon="6.28407">
        <ele>282</ele>
        <time>2012-12-02T10:17:26Z</time>
      </trkpt>
      <trkpt lat="43.52436" lon="6.2841">
        <ele>283</ele>
        <time>2012-12-02T10:17:27Z</time>
      </trkpt>
      <trkpt lat="43.52434" lon="6.28414">
        <ele>283</ele>
        <time>2012-12-02T10:17:28Z</time>
      </trkpt>
      <trkpt lat="43.52426" lon="6.28424">
        <ele>284</ele>
        <time>2012-12-02T10:17:32Z</time>
      </trkpt>
      <trkpt lat="43.52424" lon="6.28427">
        <ele>284</ele>
        <time>2012-12-02T10:17:33Z</time>
      </trkpt>
      <trkpt lat="43.52422" lon="6.28431">
        <ele>284</ele>
        <time>2012-12-02T10:17:34Z</time>
      </trkpt>
      <trkpt lat="43.52421" lon="6.28434">
        <ele>285</ele>
        <time>2012-12-02T10:17:35Z</time>
      </trkpt>
      <trkpt lat="43.5242" lon="6.28438">
        <ele>285</ele>
        <time>2012-12-02T10:17:36Z</time>
      </trkpt>
      <trkpt lat="43.52417" lon="6.28447">
        <ele>285</ele>
        <time>2012-12-02T10:17:38Z</time>
      </trkpt>
      <trkpt lat="43.52413" lon="6.28459">
        <ele>286</ele>
        <time>2012-12-02T10:17:41Z</time>
      </trkpt>
      <trkpt lat="43.52412" lon="6.28464">
        <ele>286</ele>
        <time>2012-12-02T10:17:42Z</time>
      </trkpt>
      <trkpt lat="43.52411" lon="6.28469">
        <ele>287</ele>
        <time>2012-12-02T10:17:43Z</time>
      </trkpt>
      <trkpt lat="43.5241" lon="6.28475">
        <ele>287</ele>
        <time>2012-12-02T10:17:44Z</time>
      </trkpt>
      <trkpt lat="43.52408" lon="6.28482">
        <ele>288</ele>
        <time>2012-12-02T10:17:45Z</time>
      </trkpt>
      <trkpt lat="43.52402" lon="6.28509">
        <ele>288</ele>
        <time>2012-12-02T10:17:49Z</time>
      </trkpt>
      <trkpt lat="43.524" lon="6.28516">
        <ele>288</ele>
        <time>2012-12-02T10:17:50Z</time>
      </trkpt>
      <trkpt lat="43.52399" lon="6.28522">
        <ele>289</ele>
        <time>2012-12-02T10:17:51Z</time>
      </trkpt>
      <trkpt lat="43.52397" lon="6.28529">
        <ele>289</ele>
        <time>2012-12-02T10:17:52Z</time>
      </trkpt>
      <trkpt lat="43.52396" lon="6.28535">
        <ele>290</ele>
        <time>2012-12-02T10:17:53Z</time>
      </trkpt>
      <trkpt lat="43.52392" lon="6.28551">
        <ele>290</ele>
        <time>2012-12-02T10:17:56Z</time>
      </trkpt>
      <trkpt lat="43.52381" lon="6.28581">
        <ele>290</ele>
        <time>2012-12-02T10:18:03Z</time>
      </trkpt>
      <trkpt lat="43.52373" lon="6.28599">
        <ele>290</ele>
        <time>2012-12-02T10:18:08Z</time>
      </trkpt>
      <trkpt lat="43.52367" lon="6.28611">
        <ele>290</ele>
        <time>2012-12-02T10:18:13Z</time>
      </trkpt>
      <trkpt lat="43.52366" lon="6.28612">
        <ele>290</ele>
        <time>2012-12-02T10:18:15Z</time>
      </trkpt>
      <trkpt lat="43.52366" lon="6.28614">
        <ele>290</ele>
        <time>2012-12-02T10:18:39Z</time>
      </trkpt>
      <trkpt lat="43.52365" lon="6.28616">
        <ele>290</ele>
        <time>2012-12-02T10:18:40Z</time>
      </trkpt>
      <trkpt lat="43.52364" lon="6.28626">
        <ele>289</ele>
        <time>2012-12-02T10:18:43Z</time>
      </trkpt>
      <trkpt lat="43.52362" lon="6.2863">
        <ele>289</ele>
        <time>2012-12-02T10:18:44Z</time>
      </trkpt>
      <trkpt lat="43.5236" lon="6.28634">
        <ele>289</ele>
        <time>2012-12-02T10:18:45Z</time>
      </trkpt>
      <trkpt lat="43.52358" lon="6.2864">
        <ele>288</ele>
        <time>2012-12-02T10:18:46Z</time>
      </trkpt>
      <trkpt lat="43.52355" lon="6.28646">
        <ele>288</ele>
        <time>2012-12-02T10:18:47Z</time>
      </trkpt>
      <trkpt lat="43.52351" lon="6.28652">
        <ele>287</ele>
        <time>2012-12-02T10:18:48Z</time>
      </trkpt>
      <trkpt lat="43.52348" lon="6.28658">
        <ele>287</ele>
        <time>2012-12-02T10:18:50Z</time>
      </trkpt>
      <trkpt lat="43.52344" lon="6.28664">
        <ele>286</ele>
        <time>2012-12-02T10:18:51Z</time>
      </trkpt>
      <trkpt lat="43.52341" lon="6.28671">
        <ele>286</ele>
        <time>2012-12-02T10:18:52Z</time>
      </trkpt>
      <trkpt lat="43.52336" lon="6.28677">
        <ele>286</ele>
        <time>2012-12-02T10:18:53Z</time>
      </trkpt>
      <trkpt lat="43.52332" lon="6.28684">
        <ele>285</ele>
        <time>2012-12-02T10:18:54Z</time>
      </trkpt>
      <trkpt lat="43.52327" lon="6.28691">
        <ele>285</ele>
        <time>2012-12-02T10:18:55Z</time>
      </trkpt>
      <trkpt lat="43.52323" lon="6.28697">
        <ele>284</ele>
        <time>2012-12-02T10:18:56Z</time>
      </trkpt>
      <trkpt lat="43.52318" lon="6.28702">
        <ele>283</ele>
        <time>2012-12-02T10:18:57Z</time>
      </trkpt>
      <trkpt lat="43.52314" lon="6.28708">
        <ele>283</ele>
        <time>2012-12-02T10:18:58Z</time>
      </trkpt>
      <trkpt lat="43.5231" lon="6.28714">
        <ele>282</ele>
        <time>2012-12-02T10:18:59Z</time>
      </trkpt>
      <trkpt lat="43.52305" lon="6.28719">
        <ele>282</ele>
        <time>2012-12-02T10:19:00Z</time>
      </trkpt>
      <trkpt lat="43.52301" lon="6.28725">
        <ele>281</ele>
        <time>2012-12-02T10:19:01Z</time>
      </trkpt>
      <trkpt lat="43.52297" lon="6.2873">
        <ele>281</ele>
        <time>2012-12-02T10:19:02Z</time>
      </trkpt>
      <trkpt lat="43.52292" lon="6.28735">
        <ele>280</ele>
        <time>2012-12-02T10:19:03Z</time>
      </trkpt>
      <trkpt lat="43.52289" lon="6.28739">
        <ele>280</ele>
        <time>2012-12-02T10:19:04Z</time>
      </trkpt>
      <trkpt lat="43.52284" lon="6.28743">
        <ele>279</ele>
        <time>2012-12-02T10:19:05Z</time>
      </trkpt>
      <trkpt lat="43.52281" lon="6.28748">
        <ele>279</ele>
        <time>2012-12-02T10:19:06Z</time>
      </trkpt>
      <trkpt lat="43.52277" lon="6.28752">
        <ele>278</ele>
        <time>2012-12-02T10:19:07Z</time>
      </trkpt>
      <trkpt lat="43.52274" lon="6.28756">
        <ele>277</ele>
        <time>2012-12-02T10:19:08Z</time>
      </trkpt>
      <trkpt lat="43.5227" lon="6.28761">
        <ele>277</ele>
        <time>2012-12-02T10:19:09Z</time>
      </trkpt>
      <trkpt lat="43.52267" lon="6.28765">
        <ele>276</ele>
        <time>2012-12-02T10:19:10Z</time>
      </trkpt>
      <trkpt lat="43.52264" lon="6.2877">
        <ele>276</ele>
        <time>2012-12-02T10:19:11Z</time>
      </trkpt>
      <trkpt lat="43.52262" lon="6.28773">
        <ele>275</ele>
        <time>2012-12-02T10:19:12Z</time>
      </trkpt>
      <trkpt lat="43.52259" lon="6.28776">
        <ele>275</ele>
        <time>2012-12-02T10:19:13Z</time>
      </trkpt>
      <trkpt lat="43.52256" lon="6.28779">
        <ele>274</ele>
        <time>2012-12-02T10:19:14Z</time>
      </trkpt>
      <trkpt lat="43.52253" lon="6.28783">
        <ele>273</ele>
        <time>2012-12-02T10:19:15Z</time>
      </trkpt>
      <trkpt lat="43.5225" lon="6.28786">
        <ele>273</ele>
        <time>2012-12-02T10:19:16Z</time>
      </trkpt>
      <trkpt lat="43.52247" lon="6.2879">
        <ele>272</ele>
        <time>2012-12-02T10:19:17Z</time>
      </trkpt>
      <trkpt lat="43.52244" lon="6.28794">
        <ele>271</ele>
        <time>2012-12-02T10:19:18Z</time>
      </trkpt>
      <trkpt lat="43.5224" lon="6.28799">
        <ele>271</ele>
        <time>2012-12-02T10:19:19Z</time>
      </trkpt>
      <trkpt lat="43.52236" lon="6.28805">
        <ele>270</ele>
        <time>2012-12-02T10:19:20Z</time>
      </trkpt>
      <trkpt lat="43.52232" lon="6.28812">
        <ele>269</ele>
        <time>2012-12-02T10:19:21Z</time>
      </trkpt>
      <trkpt lat="43.52227" lon="6.28818">
        <ele>269</ele>
        <time>2012-12-02T10:19:22Z</time>
      </trkpt>
      <trkpt lat="43.52223" lon="6.28824">
        <ele>268</ele>
        <time>2012-12-02T10:19:23Z</time>
      </trkpt>
      <trkpt lat="43.52218" lon="6.2883">
        <ele>267</ele>
        <time>2012-12-02T10:19:24Z</time>
      </trkpt>
      <trkpt lat="43.52214" lon="6.28836">
        <ele>267</ele>
        <time>2012-12-02T10:19:25Z</time>
      </trkpt>
      <trkpt lat="43.5221" lon="6.28842">
        <ele>266</ele>
        <time>2012-12-02T10:19:26Z</time>
      </trkpt>
      <trkpt lat="43.52206" lon="6.28849">
        <ele>265</ele>
        <time>2012-12-02T10:19:27Z</time>
      </trkpt>
      <trkpt lat="43.52201" lon="6.28856">
        <ele>265</ele>
        <time>2012-12-02T10:19:28Z</time>
      </trkpt>
      <trkpt lat="43.52196" lon="6.28861">
        <ele>264</ele>
        <time>2012-12-02T10:19:29Z</time>
      </trkpt>
      <trkpt lat="43.52191" lon="6.28866">
        <ele>264</ele>
        <time>2012-12-02T10:19:30Z</time>
      </trkpt>
      <trkpt lat="43.52185" lon="6.2887">
        <ele>264</ele>
        <time>2012-12-02T10:19:31Z</time>
      </trkpt>
      <trkpt lat="43.52179" lon="6.28873">
        <ele>263</ele>
        <time>2012-12-02T10:19:32Z</time>
      </trkpt>
      <trkpt lat="43.52173" lon="6.28876">
        <ele>262</ele>
        <time>2012-12-02T10:19:33Z</time>
      </trkpt>
      <trkpt lat="43.52167" lon="6.28879">
        <ele>262</ele>
        <time>2012-12-02T10:19:34Z</time>
      </trkpt>
      <trkpt lat="43.52162" lon="6.28881">
        <ele>261</ele>
        <time>2012-12-02T10:19:35Z</time>
      </trkpt>
      <trkpt lat="43.52156" lon="6.28885">
        <ele>261</ele>
        <time>2012-12-02T10:19:36Z</time>
      </trkpt>
      <trkpt lat="43.52151" lon="6.2889">
        <ele>260</ele>
        <time>2012-12-02T10:19:37Z</time>
      </trkpt>
      <trkpt lat="43.52145" lon="6.28895">
        <ele>260</ele>
        <time>2012-12-02T10:19:38Z</time>
      </trkpt>
      <trkpt lat="43.52139" lon="6.289">
        <ele>259</ele>
        <time>2012-12-02T10:19:39Z</time>
      </trkpt>
      <trkpt lat="43.5213" lon="6.28905">
        <ele>259</ele>
        <time>2012-12-02T10:19:40Z</time>
      </trkpt>
      <trkpt lat="43.52121" lon="6.28911">
        <ele>258</ele>
        <time>2012-12-02T10:19:41Z</time>
      </trkpt>
      <trkpt lat="43.52113" lon="6.28916">
        <ele>258</ele>
        <time>2012-12-02T10:19:42Z</time>
      </trkpt>
      <trkpt lat="43.52106" lon="6.28919">
        <ele>257</ele>
        <time>2012-12-02T10:19:43Z</time>
      </trkpt>
      <trkpt lat="43.521" lon="6.2892">
        <ele>256</ele>
        <time>2012-12-02T10:19:44Z</time>
      </trkpt>
      <trkpt lat="43.52094" lon="6.28921">
        <ele>256</ele>
        <time>2012-12-02T10:19:45Z</time>
      </trkpt>
      <trkpt lat="43.52088" lon="6.28921">
        <ele>255</ele>
        <time>2012-12-02T10:19:46Z</time>
      </trkpt>
      <trkpt lat="43.52083" lon="6.28922">
        <ele>255</ele>
        <time>2012-12-02T10:19:47Z</time>
      </trkpt>
      <trkpt lat="43.52079" lon="6.28921">
        <ele>254</ele>
        <time>2012-12-02T10:19:48Z</time>
      </trkpt>
      <trkpt lat="43.52076" lon="6.28921">
        <ele>254</ele>
        <time>2012-12-02T10:19:49Z</time>
      </trkpt>
      <trkpt lat="43.52072" lon="6.28921">
        <ele>253</ele>
        <time>2012-12-02T10:19:50Z</time>
      </trkpt>
      <trkpt lat="43.52069" lon="6.28921">
        <ele>253</ele>
        <time>2012-12-02T10:19:51Z</time>
      </trkpt>
      <trkpt lat="43.52067" lon="6.2892">
        <ele>252</ele>
        <time>2012-12-02T10:19:52Z</time>
      </trkpt>
      <trkpt lat="43.52064" lon="6.2892">
        <ele>252</ele>
        <time>2012-12-02T10:19:53Z</time>
      </trkpt>
      <trkpt lat="43.52062" lon="6.2892">
        <ele>251</ele>
        <time>2012-12-02T10:19:54Z</time>
      </trkpt>
      <trkpt lat="43.52061" lon="6.28921">
        <ele>250</ele>
        <time>2012-12-02T10:19:55Z</time>
      </trkpt>
      <trkpt lat="43.52061" lon="6.28921">
        <ele>250</ele>
        <time>2012-12-02T10:19:56Z</time>
      </trkpt>
      <trkpt lat="43.5206" lon="6.28926">
        <ele>249</ele>
        <time>2012-12-02T10:20:58Z</time>
      </trkpt>
      <trkpt lat="43.52061" lon="6.28927">
        <ele>249</ele>
        <time>2012-12-02T10:20:59Z</time>
      </trkpt>
      <trkpt lat="43.52071" lon="6.28938">
        <ele>249</ele>
        <time>2012-12-02T10:21:05Z</time>
      </trkpt>
      <trkpt lat="43.52082" lon="6.28942">
        <ele>249</ele>
        <time>2012-12-02T10:21:10Z</time>
      </trkpt>
      <trkpt lat="43.5209" lon="6.28946">
        <ele>249</ele>
        <time>2012-12-02T10:21:14Z</time>
      </trkpt>
      <trkpt lat="43.52095" lon="6.28948">
        <ele>250</ele>
        <time>2012-12-02T10:21:17Z</time>
      </trkpt>
      <trkpt lat="43.52097" lon="6.2895">
        <ele>250</ele>
        <time>2012-12-02T10:21:18Z</time>
      </trkpt>
      <trkpt lat="43.52099" lon="6.28951">
        <ele>251</ele>
        <time>2012-12-02T10:21:19Z</time>
      </trkpt>
      <trkpt lat="43.52102" lon="6.28952">
        <ele>251</ele>
        <time>2012-12-02T10:21:20Z</time>
      </trkpt>
      <trkpt lat="43.52104" lon="6.28954">
        <ele>252</ele>
        <time>2012-12-02T10:21:21Z</time>
      </trkpt>
      <trkpt lat="43.52118" lon="6.28965">
        <ele>252</ele>
        <time>2012-12-02T10:21:25Z</time>
      </trkpt>
      <trkpt lat="43.52126" lon="6.2897">
        <ele>252</ele>
        <time>2012-12-02T10:21:27Z</time>
      </trkpt>
      <trkpt lat="43.5213" lon="6.28973">
        <ele>252</ele>
        <time>2012-12-02T10:21:28Z</time>
      </trkpt>
      <trkpt lat="43.52134" lon="6.28975">
        <ele>253</ele>
        <time>2012-12-02T10:21:29Z</time>
      </trkpt>
      <trkpt lat="43.52137" lon="6.28978">
        <ele>253</ele>
        <time>2012-12-02T10:21:30Z</time>
      </trkpt>
      <trkpt lat="43.52141" lon="6.28981">
        <ele>254</ele>
        <time>2012-12-02T10:21:31Z</time>
      </trkpt>
      <trkpt lat="43.52157" lon="6.29003">
        <ele>254</ele>
        <time>2012-12-02T10:21:37Z</time>
      </trkpt>
      <trkpt lat="43.52162" lon="6.29021">
        <ele>254</ele>
        <time>2012-12-02T10:21:40Z</time>
      </trkpt>
      <trkpt lat="43.52165" lon="6.29027">
        <ele>255</ele>
        <time>2012-12-02T10:21:41Z</time>
      </trkpt>
      <trkpt lat="43.52168" lon="6.29033">
        <ele>255</ele>
        <time>2012-12-02T10:21:42Z</time>
      </trkpt>
      <trkpt lat="43.52171" lon="6.29039">
        <ele>255</ele>
        <time>2012-12-02T10:21:43Z</time>
      </trkpt>
      <trkpt lat="43.52173" lon="6.29047">
        <ele>256</ele>
        <time>2012-12-02T10:21:44Z</time>
      </trkpt>
      <trkpt lat="43.5218" lon="6.2906">
        <ele>256</ele>
        <time>2012-12-02T10:21:46Z</time>
      </trkpt>
      <trkpt lat="43.52185" lon="6.29072">
        <ele>256</ele>
        <time>2012-12-02T10:21:48Z</time>
      </trkpt>
      <trkpt lat="43.52186" lon="6.29076">
        <ele>257</ele>
        <time>2012-12-02T10:21:49Z</time>
      </trkpt>
      <trkpt lat="43.52188" lon="6.2908">
        <ele>257</ele>
        <time>2012-12-02T10:21:50Z</time>
      </trkpt>
      <trkpt lat="43.52189" lon="6.29083">
        <ele>257</ele>
        <time>2012-12-02T10:21:51Z</time>
      </trkpt>
      <trkpt lat="43.5219" lon="6.29085">
        <ele>258</ele>
        <time>2012-12-02T10:21:52Z</time>
      </trkpt>
      <trkpt lat="43.52191" lon="6.2909">
        <ele>258</ele>
        <time>2012-12-02T10:21:54Z</time>
      </trkpt>
      <trkpt lat="43.52191" lon="6.29093">
        <ele>258</ele>
        <time>2012-12-02T10:21:55Z</time>
      </trkpt>
      <trkpt lat="43.52192" lon="6.29095">
        <ele>258</ele>
        <time>2012-12-02T10:21:56Z</time>
      </trkpt>
      <trkpt lat="43.52197" lon="6.29103">
        <ele>258</ele>
        <time>2012-12-02T10:22:00Z</time>
      </trkpt>
      <trkpt lat="43.52198" lon="6.29105">
        <ele>259</ele>
        <time>2012-12-02T10:22:01Z</time>
      </trkpt>
      <trkpt lat="43.522" lon="6.29107">
        <ele>259</ele>
        <time>2012-12-02T10:22:02Z</time>
      </trkpt>
      <trkpt lat="43.52202" lon="6.29108">
        <ele>259</ele>
        <time>2012-12-02T10:22:03Z</time>
      </trkpt>
      <trkpt lat="43.52204" lon="6.2911">
        <ele>260</ele>
        <time>2012-12-02T10:22:04Z</time>
      </trkpt>
      <trkpt lat="43.5221" lon="6.29112">
        <ele>260</ele>
        <time>2012-12-02T10:22:06Z</time>
      </trkpt>
      <trkpt lat="43.52222" lon="6.29121">
        <ele>260</ele>
        <time>2012-12-02T10:22:11Z</time>
      </trkpt>
      <trkpt lat="43.52225" lon="6.29122">
        <ele>260</ele>
        <time>2012-12-02T10:22:12Z</time>
      </trkpt>
      <trkpt lat="43.52228" lon="6.29124">
        <ele>261</ele>
        <time>2012-12-02T10:22:13Z</time>
      </trkpt>
      <trkpt lat="43.5223" lon="6.29126">
        <ele>261</ele>
        <time>2012-12-02T10:22:14Z</time>
      </trkpt>
      <trkpt lat="43.52232" lon="6.29127">
        <ele>261</ele>
        <time>2012-12-02T10:22:15Z</time>
      </trkpt>
      <trkpt lat="43.52234" lon="6.29129">
        <ele>262</ele>
        <time>2012-12-02T10:22:16Z</time>
      </trkpt>
      <trkpt lat="43.52236" lon="6.29131">
        <ele>262</ele>
        <time>2012-12-02T10:22:17Z</time>
      </trkpt>
      <trkpt lat="43.52248" lon="6.2914">
        <ele>262</ele>
        <time>2012-12-02T10:22:22Z</time>
      </trkpt>
      <trkpt lat="43.52253" lon="6.29143">
        <ele>262</ele>
        <time>2012-12-02T10:22:24Z</time>
      </trkpt>
      <trkpt lat="43.52255" lon="6.29145">
        <ele>263</ele>
        <time>2012-12-02T10:22:25Z</time>
      </trkpt>
      <trkpt lat="43.52257" lon="6.29146">
        <ele>263</ele>
        <time>2012-12-02T10:22:26Z</time>
      </trkpt>
      <trkpt lat="43.52259" lon="6.29146">
        <ele>264</ele>
        <time>2012-12-02T10:22:27Z</time>
      </trkpt>
      <trkpt lat="43.52261" lon="6.29147">
        <ele>264</ele>
        <time>2012-12-02T10:22:28Z</time>
      </trkpt>
      <trkpt lat="43.52268" lon="6.29151">
        <ele>264</ele>
        <time>2012-12-02T10:22:32Z</time>
      </trkpt>
      <trkpt lat="43.52269" lon="6.29152">
        <ele>265</ele>
        <time>2012-12-02T10:22:33Z</time>
      </trkpt>
      <trkpt lat="43.5227" lon="6.29154">
        <ele>265</ele>
        <time>2012-12-02T10:22:34Z</time>
      </trkpt>
      <trkpt lat="43.52272" lon="6.29156">
        <ele>266</ele>
        <time>2012-12-02T10:22:35Z</time>
      </trkpt>
      <trkpt lat="43.52273" lon="6.29157">
        <ele>266</ele>
        <time>2012-12-02T10:22:36Z</time>
      </trkpt>
      <trkpt lat="43.52276" lon="6.29161">
        <ele>267</ele>
        <time>2012-12-02T10:22:38Z</time>
      </trkpt>
      <trkpt lat="43.52278" lon="6.29162">
        <ele>267</ele>
        <time>2012-12-02T10:22:39Z</time>
      </trkpt>
      <trkpt lat="43.5228" lon="6.29164">
        <ele>267</ele>
        <time>2012-12-02T10:22:40Z</time>
      </trkpt>
      <trkpt lat="43.52282" lon="6.29166">
        <ele>268</ele>
        <time>2012-12-02T10:22:41Z</time>
      </trkpt>
      <trkpt lat="43.52285" lon="6.29168">
        <ele>268</ele>
        <time>2012-12-02T10:22:42Z</time>
      </trkpt>
      <trkpt lat="43.52286" lon="6.2917">
        <ele>268</ele>
        <time>2012-12-02T10:22:43Z</time>
      </trkpt>
      <trkpt lat="43.52287" lon="6.29172">
        <ele>268</ele>
        <time>2012-12-02T10:22:44Z</time>
      </trkpt>
      <trkpt lat="43.52298" lon="6.29179">
        <ele>269</ele>
        <time>2012-12-02T10:22:49Z</time>
      </trkpt>
      <trkpt lat="43.523" lon="6.29181">
        <ele>269</ele>
        <time>2012-12-02T10:22:50Z</time>
      </trkpt>
      <trkpt lat="43.52303" lon="6.29183">
        <ele>270</ele>
        <time>2012-12-02T10:22:51Z</time>
      </trkpt>
      <trkpt lat="43.52305" lon="6.29184">
        <ele>270</ele>
        <time>2012-12-02T10:22:52Z</time>
      </trkpt>
      <trkpt lat="43.52307" lon="6.29186">
        <ele>270</ele>
        <time>2012-12-02T10:22:53Z</time>
      </trkpt>
      <trkpt lat="43.5231" lon="6.29187">
        <ele>270</ele>
        <time>2012-12-02T10:22:55Z</time>
      </trkpt>
      <trkpt lat="43.52316" lon="6.29189">
        <ele>271</ele>
        <time>2012-12-02T10:22:58Z</time>
      </trkpt>
      <trkpt lat="43.52318" lon="6.2919">
        <ele>271</ele>
        <time>2012-12-02T10:22:59Z</time>
      </trkpt>
      <trkpt lat="43.5232" lon="6.29191">
        <ele>272</ele>
        <time>2012-12-02T10:23:00Z</time>
      </trkpt>
      <trkpt lat="43.52322" lon="6.29193">
        <ele>273</ele>
        <time>2012-12-02T10:23:01Z</time>
      </trkpt>
      <trkpt lat="43.52324" lon="6.29194">
        <ele>273</ele>
        <time>2012-12-02T10:23:02Z</time>
      </trkpt>
      <trkpt lat="43.52326" lon="6.29197">
        <ele>273</ele>
        <time>2012-12-02T10:23:04Z</time>
      </trkpt>
      <trkpt lat="43.52329" lon="6.29199">
        <ele>273</ele>
        <time>2012-12-02T10:23:05Z</time>
      </trkpt>
      <trkpt lat="43.52331" lon="6.29201">
        <ele>274</ele>
        <time>2012-12-02T10:23:06Z</time>
      </trkpt>
      <trkpt lat="43.52333" lon="6.29202">
        <ele>274</ele>
        <time>2012-12-02T10:23:07Z</time>
      </trkpt>
      <trkpt lat="43.52336" lon="6.29203">
        <ele>275</ele>
        <time>2012-12-02T10:23:08Z</time>
      </trkpt>
      <trkpt lat="43.52342" lon="6.29206">
        <ele>275</ele>
        <time>2012-12-02T10:23:11Z</time>
      </trkpt>
      <trkpt lat="43.52344" lon="6.29207">
        <ele>276</ele>
        <time>2012-12-02T10:23:12Z</time>
      </trkpt>
      <trkpt lat="43.52346" lon="6.29208">
        <ele>276</ele>
        <time>2012-12-02T10:23:13Z</time>
      </trkpt>
      <trkpt lat="43.52349" lon="6.2921">
        <ele>276</ele>
        <time>2012-12-02T10:23:14Z</time>
      </trkpt>
      <trkpt lat="43.52351" lon="6.29211">
        <ele>277</ele>
        <time>2012-12-02T10:23:15Z</time>
      </trkpt>
      <trkpt lat="43.52358" lon="6.29217">
        <ele>277</ele>
        <time>2012-12-02T10:23:18Z</time>
      </trkpt>
      <trkpt lat="43.52372" lon="6.29236">
        <ele>277</ele>
        <time>2012-12-02T10:23:26Z</time>
      </trkpt>
      <trkpt lat="43.52377" lon="6.29245">
        <ele>277</ele>
        <time>2012-12-02T10:23:29Z</time>
      </trkpt>
      <trkpt lat="43.52378" lon="6.29247">
        <ele>278</ele>
        <time>2012-12-02T10:23:30Z</time>
      </trkpt>
      <trkpt lat="43.5238" lon="6.2925">
        <ele>278</ele>
        <time>2012-12-02T10:23:31Z</time>
      </trkpt>
      <trkpt lat="43.52381" lon="6.29253">
        <ele>279</ele>
        <time>2012-12-02T10:23:32Z</time>
      </trkpt>
      <trkpt lat="43.52381" lon="6.29254">
        <ele>279</ele>
        <time>2012-12-02T10:23:33Z</time>
      </trkpt>
      <trkpt lat="43.52384" lon="6.29263">
        <ele>279</ele>
        <time>2012-12-02T10:23:37Z</time>
      </trkpt>
      <trkpt lat="43.52385" lon="6.29265">
        <ele>279</ele>
        <time>2012-12-02T10:23:38Z</time>
      </trkpt>
      <trkpt lat="43.52388" lon="6.29271">
        <ele>279</ele>
        <time>2012-12-02T10:23:40Z</time>
      </trkpt>
      <trkpt lat="43.52393" lon="6.29278">
        <ele>279</ele>
        <time>2012-12-02T10:23:43Z</time>
      </trkpt>
      <trkpt lat="43.52398" lon="6.29287">
        <ele>280</ele>
        <time>2012-12-02T10:23:46Z</time>
      </trkpt>
      <trkpt lat="43.52399" lon="6.29289">
        <ele>280</ele>
        <time>2012-12-02T10:23:47Z</time>
      </trkpt>
      <trkpt lat="43.524" lon="6.29292">
        <ele>280</ele>
        <time>2012-12-02T10:23:48Z</time>
      </trkpt>
      <trkpt lat="43.52401" lon="6.29293">
        <ele>281</ele>
        <time>2012-12-02T10:23:49Z</time>
      </trkpt>
      <trkpt lat="43.52402" lon="6.29295">
        <ele>281</ele>
        <time>2012-12-02T10:23:50Z</time>
      </trkpt>
      <trkpt lat="43.52408" lon="6.29302">
        <ele>281</ele>
        <time>2012-12-02T10:23:55Z</time>
      </trkpt>
      <trkpt lat="43.5241" lon="6.29305">
        <ele>282</ele>
        <time>2012-12-02T10:23:56Z</time>
      </trkpt>
      <trkpt lat="43.52412" lon="6.29307">
        <ele>282</ele>
        <time>2012-12-02T10:23:57Z</time>
      </trkpt>
      <trkpt lat="43.52413" lon="6.29309">
        <ele>283</ele>
        <time>2012-12-02T10:23:58Z</time>
      </trkpt>
      <trkpt lat="43.52415" lon="6.29312">
        <ele>283</ele>
        <time>2012-12-02T10:23:59Z</time>
      </trkpt>
      <trkpt lat="43.52416" lon="6.29314">
        <ele>283</ele>
        <time>2012-12-02T10:24:00Z</time>
      </trkpt>
      <trkpt lat="43.52417" lon="6.29316">
        <ele>283</ele>
        <time>2012-12-02T10:24:01Z</time>
      </trkpt>
      <trkpt lat="43.52424" lon="6.29332">
        <ele>283</ele>
        <time>2012-12-02T10:24:06Z</time>
      </trkpt>
      <trkpt lat="43.52423" lon="6.29338">
        <ele>283</ele>
        <time>2012-12-02T10:24:08Z</time>
      </trkpt>
      <trkpt lat="43.52417" lon="6.2935">
        <ele>283</ele>
        <time>2012-12-02T10:24:11Z</time>
      </trkpt>
      <trkpt lat="43.52413" lon="6.29362">
        <ele>284</ele>
        <time>2012-12-02T10:24:15Z</time>
      </trkpt>
      <trkpt lat="43.52413" lon="6.29364">
        <ele>284</ele>
        <time>2012-12-02T10:24:16Z</time>
      </trkpt>
      <trkpt lat="43.52413" lon="6.29368">
        <ele>285</ele>
        <time>2012-12-02T10:24:17Z</time>
      </trkpt>
      <trkpt lat="43.52413" lon="6.29371">
        <ele>285</ele>
        <time>2012-12-02T10:24:18Z</time>
      </trkpt>
      <trkpt lat="43.52413" lon="6.29374">
        <ele>285</ele>
        <time>2012-12-02T10:24:19Z</time>
      </trkpt>
      <trkpt lat="43.52415" lon="6.29384">
        <ele>285</ele>
        <time>2012-12-02T10:24:23Z</time>
      </trkpt>
      <trkpt lat="43.52415" lon="6.29387">
        <ele>285</ele>
        <time>2012-12-02T10:24:24Z</time>
      </trkpt>
      <trkpt lat="43.52417" lon="6.29403">
        <ele>285</ele>
        <time>2012-12-02T10:24:30Z</time>
      </trkpt>
      <trkpt lat="43.52418" lon="6.29416">
        <ele>286</ele>
        <time>2012-12-02T10:24:34Z</time>
      </trkpt>
      <trkpt lat="43.52418" lon="6.29419">
        <ele>286</ele>
        <time>2012-12-02T10:24:35Z</time>
      </trkpt>
      <trkpt lat="43.52419" lon="6.29423">
        <ele>287</ele>
        <time>2012-12-02T10:24:36Z</time>
      </trkpt>
      <trkpt lat="43.52419" lon="6.29426">
        <ele>287</ele>
        <time>2012-12-02T10:24:37Z</time>
      </trkpt>
      <trkpt lat="43.5242" lon="6.2943">
        <ele>287</ele>
        <time>2012-12-02T10:24:38Z</time>
      </trkpt>
      <trkpt lat="43.52423" lon="6.2944">
        <ele>287</ele>
        <time>2012-12-02T10:24:41Z</time>
      </trkpt>
      <trkpt lat="43.52426" lon="6.29457">
        <ele>288</ele>
        <time>2012-12-02T10:24:46Z</time>
      </trkpt>
      <trkpt lat="43.52426" lon="6.29459">
        <ele>288</ele>
        <time>2012-12-02T10:24:47Z</time>
      </trkpt>
      <trkpt lat="43.52427" lon="6.29463">
        <ele>289</ele>
        <time>2012-12-02T10:24:48Z</time>
      </trkpt>
      <trkpt lat="43.52427" lon="6.29466">
        <ele>289</ele>
        <time>2012-12-02T10:24:49Z</time>
      </trkpt>
      <trkpt lat="43.52428" lon="6.29469">
        <ele>290</ele>
        <time>2012-12-02T10:24:50Z</time>
      </trkpt>
      <trkpt lat="43.5243" lon="6.29475">
        <ele>290</ele>
        <time>2012-12-02T10:24:52Z</time>
      </trkpt>
      <trkpt lat="43.52433" lon="6.29485">
        <ele>290</ele>
        <time>2012-12-02T10:24:55Z</time>
      </trkpt>
      <trkpt lat="43.52434" lon="6.29489">
        <ele>290</ele>
        <time>2012-12-02T10:24:56Z</time>
      </trkpt>
      <trkpt lat="43.52434" lon="6.29493">
        <ele>291</ele>
        <time>2012-12-02T10:24:57Z</time>
      </trkpt>
      <trkpt lat="43.52435" lon="6.29496">
        <ele>291</ele>
        <time>2012-12-02T10:24:58Z</time>
      </trkpt>
      <trkpt lat="43.52435" lon="6.29499">
        <ele>292</ele>
        <time>2012-12-02T10:24:59Z</time>
      </trkpt>
      <trkpt lat="43.52437" lon="6.29512">
        <ele>292</ele>
        <time>2012-12-02T10:25:03Z</time>
      </trkpt>
      <trkpt lat="43.52438" lon="6.29517">
        <ele>293</ele>
        <time>2012-12-02T10:25:05Z</time>
      </trkpt>
      <trkpt lat="43.52439" lon="6.2952">
        <ele>293</ele>
        <time>2012-12-02T10:25:06Z</time>
      </trkpt>
      <trkpt lat="43.5244" lon="6.29523">
        <ele>293</ele>
        <time>2012-12-02T10:25:07Z</time>
      </trkpt>
      <trkpt lat="43.5244" lon="6.29526">
        <ele>294</ele>
        <time>2012-12-02T10:25:08Z</time>
      </trkpt>
      <trkpt lat="43.52441" lon="6.29531">
        <ele>294</ele>
        <time>2012-12-02T10:25:10Z</time>
      </trkpt>
      <trkpt lat="43.52442" lon="6.29542">
        <ele>294</ele>
        <time>2012-12-02T10:25:14Z</time>
      </trkpt>
      <trkpt lat="43.52442" lon="6.29545">
        <ele>295</ele>
        <time>2012-12-02T10:25:15Z</time>
      </trkpt>
      <trkpt lat="43.52442" lon="6.29549">
        <ele>295</ele>
        <time>2012-12-02T10:25:16Z</time>
      </trkpt>
      <trkpt lat="43.52442" lon="6.29553">
        <ele>296</ele>
        <time>2012-12-02T10:25:17Z</time>
      </trkpt>
      <trkpt lat="43.52441" lon="6.29557">
        <ele>296</ele>
        <time>2012-12-02T10:25:18Z</time>
      </trkpt>
      <trkpt lat="43.5244" lon="6.29569">
        <ele>296</ele>
        <time>2012-12-02T10:25:22Z</time>
      </trkpt>
      <trkpt lat="43.5244" lon="6.29572">
        <ele>297</ele>
        <time>2012-12-02T10:25:23Z</time>
      </trkpt>
      <trkpt lat="43.52439" lon="6.29575">
        <ele>297</ele>
        <time>2012-12-02T10:25:24Z</time>
      </trkpt>
      <trkpt lat="43.52439" lon="6.29577">
        <ele>298</ele>
        <time>2012-12-02T10:25:25Z</time>
      </trkpt>
      <trkpt lat="43.52439" lon="6.29579">
        <ele>298</ele>
        <time>2012-12-02T10:25:26Z</time>
      </trkpt>
      <trkpt lat="43.52439" lon="6.29586">
        <ele>299</ele>
        <time>2012-12-02T10:25:29Z</time>
      </trkpt>
      <trkpt lat="43.5244" lon="6.29589">
        <ele>299</ele>
        <time>2012-12-02T10:25:30Z</time>
      </trkpt>
      <trkpt lat="43.5244" lon="6.29593">
        <ele>300</ele>
        <time>2012-12-02T10:25:31Z</time>
      </trkpt>
      <trkpt lat="43.52439" lon="6.29596">
        <ele>300</ele>
        <time>2012-12-02T10:25:32Z</time>
      </trkpt>
      <trkpt lat="43.52438" lon="6.29602">
        <ele>300</ele>
        <time>2012-12-02T10:25:34Z</time>
      </trkpt>
      <trkpt lat="43.52439" lon="6.29608">
        <ele>301</ele>
        <time>2012-12-02T10:25:36Z</time>
      </trkpt>
      <trkpt lat="43.52439" lon="6.29612">
        <ele>301</ele>
        <time>2012-12-02T10:25:37Z</time>
      </trkpt>
      <trkpt lat="43.52439" lon="6.29615">
        <ele>301</ele>
        <time>2012-12-02T10:25:38Z</time>
      </trkpt>
      <trkpt lat="43.52438" lon="6.29619">
        <ele>302</ele>
        <time>2012-12-02T10:25:39Z</time>
      </trkpt>
      <trkpt lat="43.52438" lon="6.29622">
        <ele>302</ele>
        <time>2012-12-02T10:25:40Z</time>
      </trkpt>
      <trkpt lat="43.52439" lon="6.29638">
        <ele>302</ele>
        <time>2012-12-02T10:25:46Z</time>
      </trkpt>
      <trkpt lat="43.5244" lon="6.29648">
        <ele>303</ele>
        <time>2012-12-02T10:25:49Z</time>
      </trkpt>
      <trkpt lat="43.5244" lon="6.29651">
        <ele>303</ele>
        <time>2012-12-02T10:25:50Z</time>
      </trkpt>
      <trkpt lat="43.52439" lon="6.29653">
        <ele>304</ele>
        <time>2012-12-02T10:25:51Z</time>
      </trkpt>
      <trkpt lat="43.52438" lon="6.29656">
        <ele>304</ele>
        <time>2012-12-02T10:25:52Z</time>
      </trkpt>
      <trkpt lat="43.52438" lon="6.29659">
        <ele>304</ele>
        <time>2012-12-02T10:25:53Z</time>
      </trkpt>
      <trkpt lat="43.52435" lon="6.2967">
        <ele>305</ele>
        <time>2012-12-02T10:25:57Z</time>
      </trkpt>
      <trkpt lat="43.52435" lon="6.29672">
        <ele>305</ele>
        <time>2012-12-02T10:25:58Z</time>
      </trkpt>
      <trkpt lat="43.52435" lon="6.29675">
        <ele>306</ele>
        <time>2012-12-02T10:25:59Z</time>
      </trkpt>
      <trkpt lat="43.52435" lon="6.29678">
        <ele>306</ele>
        <time>2012-12-02T10:26:00Z</time>
      </trkpt>
      <trkpt lat="43.52435" lon="6.29681">
        <ele>306</ele>
        <time>2012-12-02T10:26:01Z</time>
      </trkpt>
      <trkpt lat="43.52435" lon="6.29692">
        <ele>306</ele>
        <time>2012-12-02T10:26:05Z</time>
      </trkpt>
      <trkpt lat="43.52438" lon="6.297">
        <ele>307</ele>
        <time>2012-12-02T10:26:08Z</time>
      </trkpt>
      <trkpt lat="43.52438" lon="6.29702">
        <ele>307</ele>
        <time>2012-12-02T10:26:09Z</time>
      </trkpt>
      <trkpt lat="43.52439" lon="6.29704">
        <ele>308</ele>
        <time>2012-12-02T10:26:10Z</time>
      </trkpt>
      <trkpt lat="43.5244" lon="6.29707">
        <ele>308</ele>
        <time>2012-12-02T10:26:11Z</time>
      </trkpt>
      <trkpt lat="43.52441" lon="6.29708">
        <ele>308</ele>
        <time>2012-12-02T10:26:12Z</time>
      </trkpt>
      <trkpt lat="43.52444" lon="6.29714">
        <ele>308</ele>
        <time>2012-12-02T10:26:15Z</time>
      </trkpt>
      <trkpt lat="43.52448" lon="6.2972">
        <ele>308</ele>
        <time>2012-12-02T10:26:20Z</time>
      </trkpt>
      <trkpt lat="43.52448" lon="6.29722">
        <ele>308</ele>
        <time>2012-12-02T10:26:21Z</time>
      </trkpt>
      <trkpt lat="43.52449" lon="6.29724">
        <ele>308</ele>
        <time>2012-12-02T10:26:22Z</time>
      </trkpt>
      <trkpt lat="43.52448" lon="6.2973">
        <ele>308</ele>
        <time>2012-12-02T10:26:27Z</time>
      </trkpt>
      <trkpt lat="43.52452" lon="6.29737">
        <ele>308</ele>
        <time>2012-12-02T10:29:37Z</time>
      </trkpt>
      <trkpt lat="43.52455" lon="6.29742">
        <ele>308</ele>
        <time>2012-12-02T10:29:39Z</time>
      </trkpt>
      <trkpt lat="43.52466" lon="6.29762">
        <ele>308</ele>
        <time>2012-12-02T10:29:45Z</time>
      </trkpt>
      <trkpt lat="43.52469" lon="6.29767">
        <ele>308</ele>
        <time>2012-12-02T10:29:46Z</time>
      </trkpt>
      <trkpt lat="43.52471" lon="6.29771">
        <ele>308</ele>
        <time>2012-12-02T10:29:47Z</time>
      </trkpt>
      <trkpt lat="43.52473" lon="6.29775">
        <ele>307</ele>
        <time>2012-12-02T10:29:48Z</time>
      </trkpt>
      <trkpt lat="43.52474" lon="6.2978">
        <ele>307</ele>
        <time>2012-12-02T10:29:49Z</time>
      </trkpt>
      <trkpt lat="43.52474" lon="6.29786">
        <ele>306</ele>
        <time>2012-12-02T10:29:50Z</time>
      </trkpt>
      <trkpt lat="43.52469" lon="6.29803">
        <ele>306</ele>
        <time>2012-12-02T10:29:53Z</time>
      </trkpt>
      <trkpt lat="43.52466" lon="6.29806">
        <ele>305</ele>
        <time>2012-12-02T10:29:54Z</time>
      </trkpt>
      <trkpt lat="43.52461" lon="6.2981">
        <ele>305</ele>
        <time>2012-12-02T10:29:55Z</time>
      </trkpt>
      <trkpt lat="43.52457" lon="6.29813">
        <ele>304</ele>
        <time>2012-12-02T10:29:56Z</time>
      </trkpt>
      <trkpt lat="43.52453" lon="6.29817">
        <ele>304</ele>
        <time>2012-12-02T10:29:57Z</time>
      </trkpt>
      <trkpt lat="43.52445" lon="6.29822">
        <ele>304</ele>
        <time>2012-12-02T10:29:59Z</time>
      </trkpt>
      <trkpt lat="43.52435" lon="6.29829">
        <ele>304</ele>
        <time>2012-12-02T10:30:01Z</time>
      </trkpt>
      <trkpt lat="43.52424" lon="6.29842">
        <ele>304</ele>
        <time>2012-12-02T10:30:04Z</time>
      </trkpt>
      <trkpt lat="43.52417" lon="6.29853">
        <ele>304</ele>
        <time>2012-12-02T10:30:06Z</time>
      </trkpt>
      <trkpt lat="43.52407" lon="6.29867">
        <ele>304</ele>
        <time>2012-12-02T10:30:09Z</time>
      </trkpt>
      <trkpt lat="43.52404" lon="6.2987">
        <ele>304</ele>
        <time>2012-12-02T10:30:10Z</time>
      </trkpt>
      <trkpt lat="43.52386" lon="6.29876">
        <ele>304</ele>
        <time>2012-12-02T10:30:14Z</time>
      </trkpt>
      <trkpt lat="43.52374" lon="6.29881">
        <ele>304</ele>
        <time>2012-12-02T10:30:17Z</time>
      </trkpt>
      <trkpt lat="43.52365" lon="6.29887">
        <ele>304</ele>
        <time>2012-12-02T10:30:19Z</time>
      </trkpt>
      <trkpt lat="43.52361" lon="6.29891">
        <ele>304</ele>
        <time>2012-12-02T10:30:20Z</time>
      </trkpt>
      <trkpt lat="43.5234" lon="6.29911">
        <ele>304</ele>
        <time>2012-12-02T10:30:25Z</time>
      </trkpt>
      <trkpt lat="43.52336" lon="6.29915">
        <ele>304</ele>
        <time>2012-12-02T10:30:26Z</time>
      </trkpt>
      <trkpt lat="43.52331" lon="6.2992">
        <ele>303</ele>
        <time>2012-12-02T10:30:27Z</time>
      </trkpt>
      <trkpt lat="43.52326" lon="6.29924">
        <ele>303</ele>
        <time>2012-12-02T10:30:28Z</time>
      </trkpt>
      <trkpt lat="43.52322" lon="6.29928">
        <ele>302</ele>
        <time>2012-12-02T10:30:29Z</time>
      </trkpt>
      <trkpt lat="43.52317" lon="6.29932">
        <ele>302</ele>
        <time>2012-12-02T10:30:30Z</time>
      </trkpt>
      <trkpt lat="43.52308" lon="6.29937">
        <ele>302</ele>
        <time>2012-12-02T10:30:32Z</time>
      </trkpt>
      <trkpt lat="43.52299" lon="6.29939">
        <ele>302</ele>
        <time>2012-12-02T10:30:34Z</time>
      </trkpt>
      <trkpt lat="43.52281" lon="6.29941">
        <ele>302</ele>
        <time>2012-12-02T10:30:38Z</time>
      </trkpt>
      <trkpt lat="43.52276" lon="6.29942">
        <ele>301</ele>
        <time>2012-12-02T10:30:39Z</time>
      </trkpt>
      <trkpt lat="43.52271" lon="6.29945">
        <ele>301</ele>
        <time>2012-12-02T10:30:40Z</time>
      </trkpt>
      <trkpt lat="43.52266" lon="6.29948">
        <ele>301</ele>
        <time>2012-12-02T10:30:41Z</time>
      </trkpt>
      <trkpt lat="43.52261" lon="6.29952">
        <ele>300</ele>
        <time>2012-12-02T10:30:42Z</time>
      </trkpt>
      <trkpt lat="43.52257" lon="6.29955">
        <ele>300</ele>
        <time>2012-12-02T10:30:43Z</time>
      </trkpt>
      <trkpt lat="43.52241" lon="6.29964">
        <ele>299</ele>
        <time>2012-12-02T10:30:46Z</time>
      </trkpt>
      <trkpt lat="43.52236" lon="6.29966">
        <ele>299</ele>
        <time>2012-12-02T10:30:47Z</time>
      </trkpt>
      <trkpt lat="43.52231" lon="6.29967">
        <ele>298</ele>
        <time>2012-12-02T10:30:48Z</time>
      </trkpt>
      <trkpt lat="43.52227" lon="6.29968">
        <ele>298</ele>
        <time>2012-12-02T10:30:49Z</time>
      </trkpt>
      <trkpt lat="43.52222" lon="6.29968">
        <ele>298</ele>
        <time>2012-12-02T10:30:50Z</time>
      </trkpt>
      <trkpt lat="43.52207" lon="6.29967">
        <ele>298</ele>
        <time>2012-12-02T10:30:53Z</time>
      </trkpt>
      <trkpt lat="43.52201" lon="6.29966">
        <ele>298</ele>
        <time>2012-12-02T10:30:54Z</time>
      </trkpt>
      <trkpt lat="43.5218" lon="6.29961">
        <ele>297</ele>
        <time>2012-12-02T10:30:58Z</time>
      </trkpt>
      <trkpt lat="43.52175" lon="6.29959">
        <ele>297</ele>
        <time>2012-12-02T10:30:59Z</time>
      </trkpt>
      <trkpt lat="43.52169" lon="6.29957">
        <ele>296</ele>
        <time>2012-12-02T10:31:00Z</time>
      </trkpt>
      <trkpt lat="43.52163" lon="6.29954">
        <ele>296</ele>
        <time>2012-12-02T10:31:01Z</time>
      </trkpt>
      <trkpt lat="43.52157" lon="6.29952">
        <ele>295</ele>
        <time>2012-12-02T10:31:02Z</time>
      </trkpt>
      <trkpt lat="43.52151" lon="6.2995">
        <ele>295</ele>
        <time>2012-12-02T10:31:03Z</time>
      </trkpt>
      <trkpt lat="43.52146" lon="6.29948">
        <ele>294</ele>
        <time>2012-12-02T10:31:04Z</time>
      </trkpt>
      <trkpt lat="43.5214" lon="6.29946">
        <ele>294</ele>
        <time>2012-12-02T10:31:05Z</time>
      </trkpt>
      <trkpt lat="43.52134" lon="6.29944">
        <ele>293</ele>
        <time>2012-12-02T10:31:06Z</time>
      </trkpt>
      <trkpt lat="43.52128" lon="6.29942">
        <ele>293</ele>
        <time>2012-12-02T10:31:07Z</time>
      </trkpt>
      <trkpt lat="43.52123" lon="6.29941">
        <ele>293</ele>
        <time>2012-12-02T10:31:08Z</time>
      </trkpt>
      <trkpt lat="43.52111" lon="6.2994">
        <ele>292</ele>
        <time>2012-12-02T10:31:10Z</time>
      </trkpt>
      <trkpt lat="43.52105" lon="6.29939">
        <ele>292</ele>
        <time>2012-12-02T10:31:11Z</time>
      </trkpt>
      <trkpt lat="43.521" lon="6.29937">
        <ele>291</ele>
        <time>2012-12-02T10:31:12Z</time>
      </trkpt>
      <trkpt lat="43.52095" lon="6.29935">
        <ele>290</ele>
        <time>2012-12-02T10:31:13Z</time>
      </trkpt>
      <trkpt lat="43.52091" lon="6.29935">
        <ele>290</ele>
        <time>2012-12-02T10:31:14Z</time>
      </trkpt>
      <trkpt lat="43.52088" lon="6.29936">
        <ele>289</ele>
        <time>2012-12-02T10:31:15Z</time>
      </trkpt>
      <trkpt lat="43.52084" lon="6.29941">
        <ele>288</ele>
        <time>2012-12-02T10:31:16Z</time>
      </trkpt>
      <trkpt lat="43.52083" lon="6.29948">
        <ele>287</ele>
        <time>2012-12-02T10:31:17Z</time>
      </trkpt>
      <trkpt lat="43.52081" lon="6.29956">
        <ele>286</ele>
        <time>2012-12-02T10:31:18Z</time>
      </trkpt>
      <trkpt lat="43.5208" lon="6.29965">
        <ele>285</ele>
        <time>2012-12-02T10:31:19Z</time>
      </trkpt>
      <trkpt lat="43.52081" lon="6.29973">
        <ele>284</ele>
        <time>2012-12-02T10:31:20Z</time>
      </trkpt>
      <trkpt lat="43.52081" lon="6.2998">
        <ele>282</ele>
        <time>2012-12-02T10:31:21Z</time>
      </trkpt>
      <trkpt lat="43.52079" lon="6.29987">
        <ele>281</ele>
        <time>2012-12-02T10:31:22Z</time>
      </trkpt>
      <trkpt lat="43.52078" lon="6.29993">
        <ele>281</ele>
        <time>2012-12-02T10:31:23Z</time>
      </trkpt>
      <trkpt lat="43.52078" lon="6.3">
        <ele>280</ele>
        <time>2012-12-02T10:31:24Z</time>
      </trkpt>
      <trkpt lat="43.52079" lon="6.30004">
        <ele>279</ele>
        <time>2012-12-02T10:31:25Z</time>
      </trkpt>
      <trkpt lat="43.52081" lon="6.30008">
        <ele>278</ele>
        <time>2012-12-02T10:31:26Z</time>
      </trkpt>
      <trkpt lat="43.52083" lon="6.30012">
        <ele>277</ele>
        <time>2012-12-02T10:31:27Z</time>
      </trkpt>
      <trkpt lat="43.52087" lon="6.30016">
        <ele>276</ele>
        <time>2012-12-02T10:31:28Z</time>
      </trkpt>
      <trkpt lat="43.52091" lon="6.30022">
        <ele>276</ele>
        <time>2012-12-02T10:31:29Z</time>
      </trkpt>
      <trkpt lat="43.52095" lon="6.30028">
        <ele>275</ele>
        <time>2012-12-02T10:31:30Z</time>
      </trkpt>
      <trkpt lat="43.52099" lon="6.30034">
        <ele>275</ele>
        <time>2012-12-02T10:31:31Z</time>
      </trkpt>
      <trkpt lat="43.52104" lon="6.30041">
        <ele>274</ele>
        <time>2012-12-02T10:31:32Z</time>
      </trkpt>
      <trkpt lat="43.52109" lon="6.30046">
        <ele>274</ele>
        <time>2012-12-02T10:31:33Z</time>
      </trkpt>
      <trkpt lat="43.52112" lon="6.3005">
        <ele>273</ele>
        <time>2012-12-02T10:31:34Z</time>
      </trkpt>
      <trkpt lat="43.52113" lon="6.30056">
        <ele>273</ele>
        <time>2012-12-02T10:31:35Z</time>
      </trkpt>
      <trkpt lat="43.5211" lon="6.30061">
        <ele>272</ele>
        <time>2012-12-02T10:31:36Z</time>
      </trkpt>
      <trkpt lat="43.52108" lon="6.30065">
        <ele>272</ele>
        <time>2012-12-02T10:31:37Z</time>
      </trkpt>
      <trkpt lat="43.52104" lon="6.30069">
        <ele>271</ele>
        <time>2012-12-02T10:31:38Z</time>
      </trkpt>
      <trkpt lat="43.52099" lon="6.30071">
        <ele>271</ele>
        <time>2012-12-02T10:31:39Z</time>
      </trkpt>
      <trkpt lat="43.52095" lon="6.30071">
        <ele>270</ele>
        <time>2012-12-02T10:31:40Z</time>
      </trkpt>
      <trkpt lat="43.52092" lon="6.3007">
        <ele>269</ele>
        <time>2012-12-02T10:31:41Z</time>
      </trkpt>
      <trkpt lat="43.5209" lon="6.3007">
        <ele>268</ele>
        <time>2012-12-02T10:31:42Z</time>
      </trkpt>
      <trkpt lat="43.52088" lon="6.30072">
        <ele>268</ele>
        <time>2012-12-02T10:31:43Z</time>
      </trkpt>
      <trkpt lat="43.52087" lon="6.30072">
        <ele>267</ele>
        <time>2012-12-02T10:31:44Z</time>
      </trkpt>
      <trkpt lat="43.52086" lon="6.30071">
        <ele>267</ele>
        <time>2012-12-02T10:31:45Z</time>
      </trkpt>
      <trkpt lat="43.52086" lon="6.30072">
        <ele>267</ele>
        <time>2012-12-02T10:31:46Z</time>
      </trkpt>
      <trkpt lat="43.52084" lon="6.30071">
        <ele>267</ele>
        <time>2012-12-02T10:31:52Z</time>
      </trkpt>
      <trkpt lat="43.52065" lon="6.30066">
        <ele>267</ele>
        <time>2012-12-02T10:31:57Z</time>
      </trkpt>
      <trkpt lat="43.5206" lon="6.30066">
        <ele>267</ele>
        <time>2012-12-02T10:31:58Z</time>
      </trkpt>
      <trkpt lat="43.52049" lon="6.30061">
        <ele>266</ele>
        <time>2012-12-02T10:32:00Z</time>
      </trkpt>
      <trkpt lat="43.52043" lon="6.30057">
        <ele>266</ele>
        <time>2012-12-02T10:32:01Z</time>
      </trkpt>
      <trkpt lat="43.52037" lon="6.30054">
        <ele>265</ele>
        <time>2012-12-02T10:32:02Z</time>
      </trkpt>
      <trkpt lat="43.52032" lon="6.3005">
        <ele>265</ele>
        <time>2012-12-02T10:32:03Z</time>
      </trkpt>
      <trkpt lat="43.52027" lon="6.30045">
        <ele>264</ele>
        <time>2012-12-02T10:32:04Z</time>
      </trkpt>
      <trkpt lat="43.52016" lon="6.30038">
        <ele>264</ele>
        <time>2012-12-02T10:32:06Z</time>
      </trkpt>
      <trkpt lat="43.52009" lon="6.30034">
        <ele>263</ele>
        <time>2012-12-02T10:32:07Z</time>
      </trkpt>
      <trkpt lat="43.52003" lon="6.30029">
        <ele>263</ele>
        <time>2012-12-02T10:32:08Z</time>
      </trkpt>
      <trkpt lat="43.51996" lon="6.30023">
        <ele>263</ele>
        <time>2012-12-02T10:32:09Z</time>
      </trkpt>
      <trkpt lat="43.5199" lon="6.30018">
        <ele>262</ele>
        <time>2012-12-02T10:32:10Z</time>
      </trkpt>
      <trkpt lat="43.51977" lon="6.30009">
        <ele>262</ele>
        <time>2012-12-02T10:32:12Z</time>
      </trkpt>
      <trkpt lat="43.51943" lon="6.29984">
        <ele>262</ele>
        <time>2012-12-02T10:32:17Z</time>
      </trkpt>
      <trkpt lat="43.51909" lon="6.29973">
        <ele>263</ele>
        <time>2012-12-02T10:32:22Z</time>
      </trkpt>
      <trkpt lat="43.51902" lon="6.2997">
        <ele>263</ele>
        <time>2012-12-02T10:32:23Z</time>
      </trkpt>
      <trkpt lat="43.51893" lon="6.29968">
        <ele>263</ele>
        <time>2012-12-02T10:32:24Z</time>
      </trkpt>
      <trkpt lat="43.51886" lon="6.29966">
        <ele>264</ele>
        <time>2012-12-02T10:32:25Z</time>
      </trkpt>
      <trkpt lat="43.51878" lon="6.29965">
        <ele>264</ele>
        <time>2012-12-02T10:32:26Z</time>
      </trkpt>
      <trkpt lat="43.51863" lon="6.29963">
        <ele>264</ele>
        <time>2012-12-02T10:32:28Z</time>
      </trkpt>
      <trkpt lat="43.51819" lon="6.29956">
        <ele>264</ele>
        <time>2012-12-02T10:32:34Z</time>
      </trkpt>
      <trkpt lat="43.5181" lon="6.29957">
        <ele>264</ele>
        <time>2012-12-02T10:32:35Z</time>
      </trkpt>
      <trkpt lat="43.51802" lon="6.29957">
        <ele>263</ele>
        <time>2012-12-02T10:32:36Z</time>
      </trkpt>
      <trkpt lat="43.51793" lon="6.29956">
        <ele>263</ele>
        <time>2012-12-02T10:32:37Z</time>
      </trkpt>
      <trkpt lat="43.51785" lon="6.29952">
        <ele>262</ele>
        <time>2012-12-02T10:32:38Z</time>
      </trkpt>
      <trkpt lat="43.51777" lon="6.29948">
        <ele>261</ele>
        <time>2012-12-02T10:32:39Z</time>
      </trkpt>
      <trkpt lat="43.51768" lon="6.29943">
        <ele>260</ele>
        <time>2012-12-02T10:32:40Z</time>
      </trkpt>
      <trkpt lat="43.5176" lon="6.29938">
        <ele>260</ele>
        <time>2012-12-02T10:32:41Z</time>
      </trkpt>
      <trkpt lat="43.51751" lon="6.29934">
        <ele>259</ele>
        <time>2012-12-02T10:32:42Z</time>
      </trkpt>
      <trkpt lat="43.51743" lon="6.2993">
        <ele>258</ele>
        <time>2012-12-02T10:32:43Z</time>
      </trkpt>
      <trkpt lat="43.51735" lon="6.29926">
        <ele>257</ele>
        <time>2012-12-02T10:32:44Z</time>
      </trkpt>
      <trkpt lat="43.51727" lon="6.29922">
        <ele>257</ele>
        <time>2012-12-02T10:32:45Z</time>
      </trkpt>
      <trkpt lat="43.51719" lon="6.2992">
        <ele>256</ele>
        <time>2012-12-02T10:32:46Z</time>
      </trkpt>
      <trkpt lat="43.5171" lon="6.29918">
        <ele>256</ele>
        <time>2012-12-02T10:32:47Z</time>
      </trkpt>
      <trkpt lat="43.51701" lon="6.29915">
        <ele>255</ele>
        <time>2012-12-02T10:32:48Z</time>
      </trkpt>
      <trkpt lat="43.51692" lon="6.29913">
        <ele>255</ele>
        <time>2012-12-02T10:32:49Z</time>
      </trkpt>
      <trkpt lat="43.51684" lon="6.29909">
        <ele>255</ele>
        <time>2012-12-02T10:32:50Z</time>
      </trkpt>
      <trkpt lat="43.51676" lon="6.29905">
        <ele>254</ele>
        <time>2012-12-02T10:32:51Z</time>
      </trkpt>
      <trkpt lat="43.51669" lon="6.299">
        <ele>254</ele>
        <time>2012-12-02T10:32:52Z</time>
      </trkpt>
      <trkpt lat="43.51662" lon="6.29896">
        <ele>253</ele>
        <time>2012-12-02T10:32:53Z</time>
      </trkpt>
      <trkpt lat="43.51656" lon="6.2989">
        <ele>253</ele>
        <time>2012-12-02T10:32:54Z</time>
      </trkpt>
      <trkpt lat="43.51639" lon="6.29868">
        <ele>253</ele>
        <time>2012-12-02T10:32:57Z</time>
      </trkpt>
      <trkpt lat="43.5161" lon="6.29838">
        <ele>252</ele>
        <time>2012-12-02T10:33:02Z</time>
      </trkpt>
      <trkpt lat="43.51607" lon="6.29834">
        <ele>252</ele>
        <time>2012-12-02T10:33:03Z</time>
      </trkpt>
      <trkpt lat="43.51603" lon="6.29831">
        <ele>251</ele>
        <time>2012-12-02T10:33:04Z</time>
      </trkpt>
      <trkpt lat="43.51601" lon="6.29828">
        <ele>251</ele>
        <time>2012-12-02T10:33:05Z</time>
      </trkpt>
      <trkpt lat="43.51599" lon="6.29828">
        <ele>250</ele>
        <time>2012-12-02T10:33:06Z</time>
      </trkpt>
      <trkpt lat="43.51595" lon="6.29829">
        <ele>250</ele>
        <time>2012-12-02T10:33:09Z</time>
      </trkpt>
      <trkpt lat="43.51594" lon="6.2983">
        <ele>250</ele>
        <time>2012-12-02T10:33:10Z</time>
      </trkpt>
      <trkpt lat="43.51593" lon="6.2983">
        <ele>250</ele>
        <time>2012-12-02T10:33:13Z</time>
      </trkpt>
      <trkpt lat="43.51589" lon="6.29836">
        <ele>250</ele>
        <time>2012-12-02T10:34:21Z</time>
      </trkpt>
      <trkpt lat="43.51587" lon="6.29837">
        <ele>250</ele>
        <time>2012-12-02T10:34:22Z</time>
      </trkpt>
      <trkpt lat="43.51586" lon="6.2984">
        <ele>250</ele>
        <time>2012-12-02T10:34:23Z</time>
      </trkpt>
      <trkpt lat="43.51579" lon="6.29848">
        <ele>250</ele>
        <time>2012-12-02T10:34:26Z</time>
      </trkpt>
      <trkpt lat="43.51563" lon="6.29862">
        <ele>250</ele>
        <time>2012-12-02T10:34:32Z</time>
      </trkpt>
      <trkpt lat="43.51546" lon="6.29873">
        <ele>250</ele>
        <time>2012-12-02T10:34:38Z</time>
      </trkpt>
      <trkpt lat="43.5154" lon="6.29877">
        <ele>250</ele>
        <time>2012-12-02T10:34:40Z</time>
      </trkpt>
      <trkpt lat="43.51521" lon="6.29887">
        <ele>250</ele>
        <time>2012-12-02T10:34:46Z</time>
      </trkpt>
      <trkpt lat="43.51498" lon="6.29895">
        <ele>250</ele>
        <time>2012-12-02T10:34:52Z</time>
      </trkpt>
      <trkpt lat="43.51484" lon="6.29904">
        <ele>250</ele>
        <time>2012-12-02T10:34:57Z</time>
      </trkpt>
      <trkpt lat="43.51464" lon="6.29915">
        <ele>250</ele>
        <time>2012-12-02T10:35:02Z</time>
      </trkpt>
      <trkpt lat="43.51444" lon="6.2993">
        <ele>250</ele>
        <time>2012-12-02T10:35:08Z</time>
      </trkpt>
      <trkpt lat="43.51427" lon="6.29947">
        <ele>250</ele>
        <time>2012-12-02T10:35:13Z</time>
      </trkpt>
      <trkpt lat="43.5141" lon="6.29973">
        <ele>250</ele>
        <time>2012-12-02T10:35:19Z</time>
      </trkpt>
      <trkpt lat="43.51393" lon="6.30005">
        <ele>250</ele>
        <time>2012-12-02T10:35:26Z</time>
      </trkpt>
      <trkpt lat="43.51379" lon="6.30031">
        <ele>250</ele>
        <time>2012-12-02T10:35:32Z</time>
      </trkpt>
      <trkpt lat="43.51365" lon="6.30058">
        <ele>250</ele>
        <time>2012-12-02T10:35:38Z</time>
      </trkpt>
      <trkpt lat="43.51352" lon="6.30085">
        <ele>250</ele>
        <time>2012-12-02T10:35:44Z</time>
      </trkpt>
      <trkpt lat="43.51336" lon="6.30118">
        <ele>251</ele>
        <time>2012-12-02T10:35:51Z</time>
      </trkpt>
      <trkpt lat="43.51334" lon="6.30122">
        <ele>251</ele>
        <time>2012-12-02T10:35:52Z</time>
      </trkpt>
      <trkpt lat="43.51332" lon="6.30126">
        <ele>252</ele>
        <time>2012-12-02T10:35:53Z</time>
      </trkpt>
      <trkpt lat="43.51329" lon="6.3013">
        <ele>252</ele>
        <time>2012-12-02T10:35:54Z</time>
      </trkpt>
      <trkpt lat="43.51327" lon="6.30135">
        <ele>252</ele>
        <time>2012-12-02T10:35:55Z</time>
      </trkpt>
      <trkpt lat="43.51323" lon="6.30144">
        <ele>252</ele>
        <time>2012-12-02T10:35:57Z</time>
      </trkpt>
      <trkpt lat="43.51307" lon="6.30176">
        <ele>252</ele>
        <time>2012-12-02T10:36:04Z</time>
      </trkpt>
      <trkpt lat="43.51291" lon="6.30202">
        <ele>252</ele>
        <time>2012-12-02T10:36:10Z</time>
      </trkpt>
      <trkpt lat="43.51283" lon="6.30216">
        <ele>252</ele>
        <time>2012-12-02T10:36:13Z</time>
      </trkpt>
      <trkpt lat="43.51277" lon="6.30225">
        <ele>252</ele>
        <time>2012-12-02T10:36:15Z</time>
      </trkpt>
      <trkpt lat="43.51253" lon="6.30254">
        <ele>252</ele>
        <time>2012-12-02T10:36:22Z</time>
      </trkpt>
      <trkpt lat="43.5125" lon="6.30257">
        <ele>252</ele>
        <time>2012-12-02T10:36:23Z</time>
      </trkpt>
      <trkpt lat="43.51233" lon="6.30276">
        <ele>252</ele>
        <time>2012-12-02T10:36:28Z</time>
      </trkpt>
      <trkpt lat="43.51207" lon="6.30299">
        <ele>252</ele>
        <time>2012-12-02T10:36:35Z</time>
      </trkpt>
      <trkpt lat="43.51182" lon="6.30323">
        <ele>252</ele>
        <time>2012-12-02T10:36:42Z</time>
      </trkpt>
      <trkpt lat="43.51175" lon="6.30331">
        <ele>253</ele>
        <time>2012-12-02T10:36:44Z</time>
      </trkpt>
      <trkpt lat="43.51172" lon="6.30335">
        <ele>253</ele>
        <time>2012-12-02T10:36:45Z</time>
      </trkpt>
      <trkpt lat="43.51168" lon="6.30339">
        <ele>254</ele>
        <time>2012-12-02T10:36:46Z</time>
      </trkpt>
      <trkpt lat="43.51164" lon="6.30342">
        <ele>254</ele>
        <time>2012-12-02T10:36:47Z</time>
      </trkpt>
      <trkpt lat="43.5116" lon="6.30346">
        <ele>254</ele>
        <time>2012-12-02T10:36:48Z</time>
      </trkpt>
      <trkpt lat="43.51157" lon="6.3035">
        <ele>254</ele>
        <time>2012-12-02T10:36:49Z</time>
      </trkpt>
      <trkpt lat="43.51136" lon="6.30379">
        <ele>254</ele>
        <time>2012-12-02T10:36:55Z</time>
      </trkpt>
      <trkpt lat="43.51116" lon="6.30406">
        <ele>254</ele>
        <time>2012-12-02T10:37:01Z</time>
      </trkpt>
      <trkpt lat="43.51109" lon="6.30416">
        <ele>254</ele>
        <time>2012-12-02T10:37:03Z</time>
      </trkpt>
      <trkpt lat="43.511" lon="6.3043">
        <ele>254</ele>
        <time>2012-12-02T10:37:06Z</time>
      </trkpt>
      <trkpt lat="43.51079" lon="6.30458">
        <ele>254</ele>
        <time>2012-12-02T10:37:12Z</time>
      </trkpt>
      <trkpt lat="43.51076" lon="6.30463">
        <ele>254</ele>
        <time>2012-12-02T10:37:13Z</time>
      </trkpt>
      <trkpt lat="43.51065" lon="6.30478">
        <ele>254</ele>
        <time>2012-12-02T10:37:17Z</time>
      </trkpt>
      <trkpt lat="43.51049" lon="6.30501">
        <ele>254</ele>
        <time>2012-12-02T10:37:22Z</time>
      </trkpt>
      <trkpt lat="43.51043" lon="6.30509">
        <ele>254</ele>
        <time>2012-12-02T10:37:24Z</time>
      </trkpt>
      <trkpt lat="43.51022" lon="6.30534">
        <ele>254</ele>
        <time>2012-12-02T10:37:30Z</time>
      </trkpt>
      <trkpt lat="43.51005" lon="6.30559">
        <ele>254</ele>
        <time>2012-12-02T10:37:35Z</time>
      </trkpt>
      <trkpt lat="43.50989" lon="6.30582">
        <ele>255</ele>
        <time>2012-12-02T10:37:40Z</time>
      </trkpt>
      <trkpt lat="43.50987" lon="6.30586">
        <ele>255</ele>
        <time>2012-12-02T10:37:41Z</time>
      </trkpt>
      <trkpt lat="43.50984" lon="6.3059">
        <ele>256</ele>
        <time>2012-12-02T10:37:42Z</time>
      </trkpt>
      <trkpt lat="43.50981" lon="6.30595">
        <ele>256</ele>
        <time>2012-12-02T10:37:43Z</time>
      </trkpt>
      <trkpt lat="43.50978" lon="6.30599">
        <ele>256</ele>
        <time>2012-12-02T10:37:44Z</time>
      </trkpt>
      <trkpt lat="43.50975" lon="6.30604">
        <ele>256</ele>
        <time>2012-12-02T10:37:45Z</time>
      </trkpt>
      <trkpt lat="43.5097" lon="6.30616">
        <ele>256</ele>
        <time>2012-12-02T10:37:47Z</time>
      </trkpt>
      <trkpt lat="43.50946" lon="6.30671">
        <ele>256</ele>
        <time>2012-12-02T10:37:55Z</time>
      </trkpt>
      <trkpt lat="43.50933" lon="6.30705">
        <ele>256</ele>
        <time>2012-12-02T10:38:00Z</time>
      </trkpt>
      <trkpt lat="43.50931" lon="6.30711">
        <ele>256</ele>
        <time>2012-12-02T10:38:01Z</time>
      </trkpt>
      <trkpt lat="43.50922" lon="6.30735">
        <ele>256</ele>
        <time>2012-12-02T10:38:05Z</time>
      </trkpt>
      <trkpt lat="43.50919" lon="6.30739">
        <ele>256</ele>
        <time>2012-12-02T10:38:06Z</time>
      </trkpt>
      <trkpt lat="43.50915" lon="6.30758">
        <ele>256</ele>
        <time>2012-12-02T10:38:10Z</time>
      </trkpt>
      <trkpt lat="43.50916" lon="6.3077">
        <ele>257</ele>
        <time>2012-12-02T10:38:14Z</time>
      </trkpt>
      <trkpt lat="43.50915" lon="6.30773">
        <ele>257</ele>
        <time>2012-12-02T10:38:15Z</time>
      </trkpt>
      <trkpt lat="43.50913" lon="6.30777">
        <ele>258</ele>
        <time>2012-12-02T10:38:16Z</time>
      </trkpt>
      <trkpt lat="43.50911" lon="6.30782">
        <ele>258</ele>
        <time>2012-12-02T10:38:17Z</time>
      </trkpt>
      <trkpt lat="43.50909" lon="6.30787">
        <ele>259</ele>
        <time>2012-12-02T10:38:18Z</time>
      </trkpt>
      <trkpt lat="43.50907" lon="6.30794">
        <ele>259</ele>
        <time>2012-12-02T10:38:19Z</time>
      </trkpt>
      <trkpt lat="43.50903" lon="6.30805">
        <ele>259</ele>
        <time>2012-12-02T10:38:21Z</time>
      </trkpt>
      <trkpt lat="43.50894" lon="6.30829">
        <ele>259</ele>
        <time>2012-12-02T10:38:25Z</time>
      </trkpt>
      <trkpt lat="43.50888" lon="6.30842">
        <ele>259</ele>
        <time>2012-12-02T10:38:27Z</time>
      </trkpt>
      <trkpt lat="43.50879" lon="6.30864">
        <ele>259</ele>
        <time>2012-12-02T10:38:31Z</time>
      </trkpt>
      <trkpt lat="43.50868" lon="6.30896">
        <ele>259</ele>
        <time>2012-12-02T10:38:37Z</time>
      </trkpt>
      <trkpt lat="43.50865" lon="6.30901">
        <ele>259</ele>
        <time>2012-12-02T10:38:38Z</time>
      </trkpt>
      <trkpt lat="43.5086" lon="6.3092">
        <ele>259</ele>
        <time>2012-12-02T10:38:41Z</time>
      </trkpt>
      <trkpt lat="43.50856" lon="6.30932">
        <ele>259</ele>
        <time>2012-12-02T10:38:43Z</time>
      </trkpt>
      <trkpt lat="43.50848" lon="6.30953">
        <ele>259</ele>
        <time>2012-12-02T10:38:47Z</time>
      </trkpt>
      <trkpt lat="43.50839" lon="6.30975">
        <ele>259</ele>
        <time>2012-12-02T10:38:52Z</time>
      </trkpt>
      <trkpt lat="43.50832" lon="6.3099">
        <ele>259</ele>
        <time>2012-12-02T10:38:55Z</time>
      </trkpt>
      <trkpt lat="43.50825" lon="6.31002">
        <ele>259</ele>
        <time>2012-12-02T10:38:57Z</time>
      </trkpt>
      <trkpt lat="43.50804" lon="6.31044">
        <ele>259</ele>
        <time>2012-12-02T10:39:03Z</time>
      </trkpt>
      <trkpt lat="43.50785" lon="6.31081">
        <ele>259</ele>
        <time>2012-12-02T10:39:09Z</time>
      </trkpt>
      <trkpt lat="43.5078" lon="6.31093">
        <ele>259</ele>
        <time>2012-12-02T10:39:11Z</time>
      </trkpt>
      <trkpt lat="43.50773" lon="6.31109">
        <ele>259</ele>
        <time>2012-12-02T10:39:14Z</time>
      </trkpt>
      <trkpt lat="43.50762" lon="6.31124">
        <ele>259</ele>
        <time>2012-12-02T10:39:18Z</time>
      </trkpt>
      <trkpt lat="43.5076" lon="6.3113">
        <ele>259</ele>
        <time>2012-12-02T10:39:19Z</time>
      </trkpt>
      <trkpt lat="43.50756" lon="6.31142">
        <ele>259</ele>
        <time>2012-12-02T10:39:21Z</time>
      </trkpt>
      <trkpt lat="43.50745" lon="6.31159">
        <ele>259</ele>
        <time>2012-12-02T10:39:25Z</time>
      </trkpt>
      <trkpt lat="43.50733" lon="6.31179">
        <ele>259</ele>
        <time>2012-12-02T10:39:30Z</time>
      </trkpt>
      <trkpt lat="43.50723" lon="6.31195">
        <ele>259</ele>
        <time>2012-12-02T10:39:35Z</time>
      </trkpt>
      <trkpt lat="43.50721" lon="6.31197">
        <ele>259</ele>
        <time>2012-12-02T10:39:36Z</time>
      </trkpt>
      <trkpt lat="43.50716" lon="6.31203">
        <ele>259</ele>
        <time>2012-12-02T10:39:40Z</time>
      </trkpt>
      <trkpt lat="43.50714" lon="6.31205">
        <ele>259</ele>
        <time>2012-12-02T10:39:44Z</time>
      </trkpt>
      <trkpt lat="43.50707" lon="6.31214">
        <ele>259</ele>
        <time>2012-12-02T10:39:48Z</time>
      </trkpt>
      <trkpt lat="43.50693" lon="6.31232">
        <ele>259</ele>
        <time>2012-12-02T10:39:53Z</time>
      </trkpt>
      <trkpt lat="43.5069" lon="6.31237">
        <ele>259</ele>
        <time>2012-12-02T10:39:54Z</time>
      </trkpt>
      <trkpt lat="43.50681" lon="6.31251">
        <ele>259</ele>
        <time>2012-12-02T10:39:57Z</time>
      </trkpt>
      <trkpt lat="43.50678" lon="6.31255">
        <ele>259</ele>
        <time>2012-12-02T10:39:58Z</time>
      </trkpt>
      <trkpt lat="43.50656" lon="6.31296">
        <ele>259</ele>
        <time>2012-12-02T10:40:05Z</time>
      </trkpt>
      <trkpt lat="43.5065" lon="6.3131">
        <ele>259</ele>
        <time>2012-12-02T10:40:07Z</time>
      </trkpt>
      <trkpt lat="43.50644" lon="6.31331">
        <ele>259</ele>
        <time>2012-12-02T10:40:10Z</time>
      </trkpt>
      <trkpt lat="43.50634" lon="6.31379">
        <ele>259</ele>
        <time>2012-12-02T10:40:16Z</time>
      </trkpt>
      <trkpt lat="43.50632" lon="6.31403">
        <ele>258</ele>
        <time>2012-12-02T10:40:19Z</time>
      </trkpt>
      <trkpt lat="43.50631" lon="6.31411">
        <ele>258</ele>
        <time>2012-12-02T10:40:20Z</time>
      </trkpt>
      <trkpt lat="43.5063" lon="6.31418">
        <ele>257</ele>
        <time>2012-12-02T10:40:21Z</time>
      </trkpt>
      <trkpt lat="43.50629" lon="6.31424">
        <ele>257</ele>
        <time>2012-12-02T10:40:22Z</time>
      </trkpt>
      <trkpt lat="43.50628" lon="6.31445">
        <ele>257</ele>
        <time>2012-12-02T10:40:26Z</time>
      </trkpt>
      <trkpt lat="43.50628" lon="6.31466">
        <ele>257</ele>
        <time>2012-12-02T10:40:31Z</time>
      </trkpt>
      <trkpt lat="43.50625" lon="6.31489">
        <ele>257</ele>
        <time>2012-12-02T10:40:36Z</time>
      </trkpt>
      <trkpt lat="43.50624" lon="6.31493">
        <ele>257</ele>
        <time>2012-12-02T10:40:37Z</time>
      </trkpt>
      <trkpt lat="43.50624" lon="6.31497">
        <ele>257</ele>
        <time>2012-12-02T10:40:38Z</time>
      </trkpt>
      <trkpt lat="43.50623" lon="6.31501">
        <ele>258</ele>
        <time>2012-12-02T10:40:39Z</time>
      </trkpt>
      <trkpt lat="43.50622" lon="6.31506">
        <ele>258</ele>
        <time>2012-12-02T10:40:40Z</time>
      </trkpt>
      <trkpt lat="43.50621" lon="6.31511">
        <ele>259</ele>
        <time>2012-12-02T10:40:41Z</time>
      </trkpt>
      <trkpt lat="43.50618" lon="6.31523">
        <ele>259</ele>
        <time>2012-12-02T10:40:44Z</time>
      </trkpt>
      <trkpt lat="43.50617" lon="6.31525">
        <ele>260</ele>
        <time>2012-12-02T10:40:45Z</time>
      </trkpt>
      <trkpt lat="43.50616" lon="6.31527">
        <ele>260</ele>
        <time>2012-12-02T10:40:46Z</time>
      </trkpt>
      <trkpt lat="43.50616" lon="6.31529">
        <ele>261</ele>
        <time>2012-12-02T10:40:47Z</time>
      </trkpt>
      <trkpt lat="43.50617" lon="6.3154">
        <ele>261</ele>
        <time>2012-12-02T10:40:51Z</time>
      </trkpt>
      <trkpt lat="43.50617" lon="6.31543">
        <ele>262</ele>
        <time>2012-12-02T10:40:52Z</time>
      </trkpt>
      <trkpt lat="43.50617" lon="6.31546">
        <ele>262</ele>
        <time>2012-12-02T10:40:53Z</time>
      </trkpt>
      <trkpt lat="43.50617" lon="6.31549">
        <ele>263</ele>
        <time>2012-12-02T10:40:54Z</time>
      </trkpt>
      <trkpt lat="43.50616" lon="6.31552">
        <ele>263</ele>
        <time>2012-12-02T10:40:55Z</time>
      </trkpt>
      <trkpt lat="43.50614" lon="6.31558">
        <ele>263</ele>
        <time>2012-12-02T10:40:57Z</time>
      </trkpt>
      <trkpt lat="43.50614" lon="6.31561">
        <ele>264</ele>
        <time>2012-12-02T10:40:58Z</time>
      </trkpt>
      <trkpt lat="43.50613" lon="6.31564">
        <ele>264</ele>
        <time>2012-12-02T10:40:59Z</time>
      </trkpt>
      <trkpt lat="43.50613" lon="6.31567">
        <ele>265</ele>
        <time>2012-12-02T10:41:00Z</time>
      </trkpt>
      <trkpt lat="43.50614" lon="6.31571">
        <ele>265</ele>
        <time>2012-12-02T10:41:01Z</time>
      </trkpt>
      <trkpt lat="43.50614" lon="6.31574">
        <ele>265</ele>
        <time>2012-12-02T10:41:02Z</time>
      </trkpt>
      <trkpt lat="43.50615" lon="6.31579">
        <ele>265</ele>
        <time>2012-12-02T10:41:04Z</time>
      </trkpt>
      <trkpt lat="43.50615" lon="6.31582">
        <ele>266</ele>
        <time>2012-12-02T10:41:05Z</time>
      </trkpt>
      <trkpt lat="43.50616" lon="6.31585">
        <ele>266</ele>
        <time>2012-12-02T10:41:06Z</time>
      </trkpt>
      <trkpt lat="43.50616" lon="6.31588">
        <ele>267</ele>
        <time>2012-12-02T10:41:07Z</time>
      </trkpt>
      <trkpt lat="43.50615" lon="6.31591">
        <ele>267</ele>
        <time>2012-12-02T10:41:08Z</time>
      </trkpt>
      <trkpt lat="43.50612" lon="6.31606">
        <ele>267</ele>
        <time>2012-12-02T10:41:13Z</time>
      </trkpt>
      <trkpt lat="43.50609" lon="6.31624">
        <ele>267</ele>
        <time>2012-12-02T10:41:19Z</time>
      </trkpt>
      <trkpt lat="43.50609" lon="6.31633">
        <ele>268</ele>
        <time>2012-12-02T10:41:22Z</time>
      </trkpt>
      <trkpt lat="43.50609" lon="6.31636">
        <ele>268</ele>
        <time>2012-12-02T10:41:23Z</time>
      </trkpt>
      <trkpt lat="43.50608" lon="6.31639">
        <ele>268</ele>
        <time>2012-12-02T10:41:24Z</time>
      </trkpt>
      <trkpt lat="43.50608" lon="6.31642">
        <ele>269</ele>
        <time>2012-12-02T10:41:25Z</time>
      </trkpt>
      <trkpt lat="43.50608" lon="6.31645">
        <ele>269</ele>
        <time>2012-12-02T10:41:26Z</time>
      </trkpt>
      <trkpt lat="43.50606" lon="6.31651">
        <ele>269</ele>
        <time>2012-12-02T10:41:29Z</time>
      </trkpt>
      <trkpt lat="43.50604" lon="6.31653">
        <ele>269</ele>
        <time>2012-12-02T10:41:30Z</time>
      </trkpt>
      <trkpt lat="43.50593" lon="6.31664">
        <ele>269</ele>
        <time>2012-12-02T10:41:34Z</time>
      </trkpt>
      <trkpt lat="43.50591" lon="6.31667">
        <ele>269</ele>
        <time>2012-12-02T10:41:35Z</time>
      </trkpt>
      <trkpt lat="43.50584" lon="6.31677">
        <ele>269</ele>
        <time>2012-12-02T10:41:37Z</time>
      </trkpt>
      <trkpt lat="43.50581" lon="6.31682">
        <ele>268</ele>
        <time>2012-12-02T10:41:38Z</time>
      </trkpt>
      <trkpt lat="43.50578" lon="6.31685">
        <ele>268</ele>
        <time>2012-12-02T10:41:39Z</time>
      </trkpt>
      <trkpt lat="43.50574" lon="6.31688">
        <ele>268</ele>
        <time>2012-12-02T10:41:40Z</time>
      </trkpt>
      <trkpt lat="43.50571" lon="6.3169">
        <ele>267</ele>
        <time>2012-12-02T10:41:41Z</time>
      </trkpt>
      <trkpt lat="43.50567" lon="6.31693">
        <ele>267</ele>
        <time>2012-12-02T10:41:42Z</time>
      </trkpt>
      <trkpt lat="43.50563" lon="6.31692">
        <ele>266</ele>
        <time>2012-12-02T10:41:43Z</time>
      </trkpt>
      <trkpt lat="43.50558" lon="6.3169">
        <ele>266</ele>
        <time>2012-12-02T10:41:44Z</time>
      </trkpt>
      <trkpt lat="43.50553" lon="6.31688">
        <ele>265</ele>
        <time>2012-12-02T10:41:45Z</time>
      </trkpt>
      <trkpt lat="43.50548" lon="6.31685">
        <ele>264</ele>
        <time>2012-12-02T10:41:46Z</time>
      </trkpt>
      <trkpt lat="43.50544" lon="6.31684">
        <ele>264</ele>
        <time>2012-12-02T10:41:47Z</time>
      </trkpt>
      <trkpt lat="43.50541" lon="6.31685">
        <ele>263</ele>
        <time>2012-12-02T10:41:48Z</time>
      </trkpt>
      <trkpt lat="43.50538" lon="6.31687">
        <ele>262</ele>
        <time>2012-12-02T10:41:49Z</time>
      </trkpt>
      <trkpt lat="43.50535" lon="6.31691">
        <ele>262</ele>
        <time>2012-12-02T10:41:50Z</time>
      </trkpt>
      <trkpt lat="43.50532" lon="6.31695">
        <ele>261</ele>
        <time>2012-12-02T10:41:51Z</time>
      </trkpt>
      <trkpt lat="43.5053" lon="6.31699">
        <ele>260</ele>
        <time>2012-12-02T10:41:52Z</time>
      </trkpt>
      <trkpt lat="43.50527" lon="6.31706">
        <ele>259</ele>
        <time>2012-12-02T10:41:53Z</time>
      </trkpt>
      <trkpt lat="43.50524" lon="6.31712">
        <ele>259</ele>
        <time>2012-12-02T10:41:54Z</time>
      </trkpt>
      <trkpt lat="43.50519" lon="6.31717">
        <ele>258</ele>
        <time>2012-12-02T10:41:55Z</time>
      </trkpt>
      <trkpt lat="43.50509" lon="6.3172">
        <ele>258</ele>
        <time>2012-12-02T10:41:57Z</time>
      </trkpt>
      <trkpt lat="43.50506" lon="6.31721">
        <ele>257</ele>
        <time>2012-12-02T10:41:58Z</time>
      </trkpt>
      <trkpt lat="43.50503" lon="6.31723">
        <ele>257</ele>
        <time>2012-12-02T10:41:59Z</time>
      </trkpt>
      <trkpt lat="43.50502" lon="6.31725">
        <ele>256</ele>
        <time>2012-12-02T10:42:00Z</time>
      </trkpt>
      <trkpt lat="43.50501" lon="6.31728">
        <ele>256</ele>
        <time>2012-12-02T10:42:01Z</time>
      </trkpt>
      <trkpt lat="43.50493" lon="6.31737">
        <ele>256</ele>
        <time>2012-12-02T10:42:06Z</time>
      </trkpt>
      <trkpt lat="43.50492" lon="6.31739">
        <ele>256</ele>
        <time>2012-12-02T10:42:07Z</time>
      </trkpt>
      <trkpt lat="43.5049" lon="6.31744">
        <ele>256</ele>
        <time>2012-12-02T10:42:10Z</time>
      </trkpt>
      <trkpt lat="43.50487" lon="6.31747">
        <ele>256</ele>
        <time>2012-12-02T10:42:12Z</time>
      </trkpt>
      <trkpt lat="43.50486" lon="6.31748">
        <ele>256</ele>
        <time>2012-12-02T10:42:13Z</time>
      </trkpt>
      <trkpt lat="43.50486" lon="6.31749">
        <ele>255</ele>
        <time>2012-12-02T10:42:14Z</time>
      </trkpt>
      <trkpt lat="43.50485" lon="6.3175">
        <ele>257</ele>
        <time>2012-12-02T10:42:46Z</time>
      </trkpt>
      <trkpt lat="43.50484" lon="6.31752">
        <ele>257</ele>
        <time>2012-12-02T10:42:47Z</time>
      </trkpt>
      <trkpt lat="43.50481" lon="6.31754">
        <ele>256</ele>
        <time>2012-12-02T10:42:48Z</time>
      </trkpt>
      <trkpt lat="43.50478" lon="6.31757">
        <ele>256</ele>
        <time>2012-12-02T10:42:49Z</time>
      </trkpt>
      <trkpt lat="43.50476" lon="6.3176">
        <ele>256</ele>
        <time>2012-12-02T10:42:50Z</time>
      </trkpt>
      <trkpt lat="43.5047" lon="6.31769">
        <ele>256</ele>
        <time>2012-12-02T10:42:53Z</time>
      </trkpt>
      <trkpt lat="43.50465" lon="6.31773">
        <ele>256</ele>
        <time>2012-12-02T10:42:55Z</time>
      </trkpt>
      <trkpt lat="43.50456" lon="6.31782">
        <ele>256</ele>
        <time>2012-12-02T10:42:58Z</time>
      </trkpt>
      <trkpt lat="43.5045" lon="6.31789">
        <ele>256</ele>
        <time>2012-12-02T10:43:00Z</time>
      </trkpt>
      <trkpt lat="43.50444" lon="6.31797">
        <ele>256</ele>
        <time>2012-12-02T10:43:02Z</time>
      </trkpt>
      <trkpt lat="43.5043" lon="6.31815">
        <ele>256</ele>
        <time>2012-12-02T10:43:06Z</time>
      </trkpt>
      <trkpt lat="43.50413" lon="6.31843">
        <ele>256</ele>
        <time>2012-12-02T10:43:12Z</time>
      </trkpt>
      <trkpt lat="43.50395" lon="6.31878">
        <ele>256</ele>
        <time>2012-12-02T10:43:18Z</time>
      </trkpt>
      <trkpt lat="43.5038" lon="6.31916">
        <ele>256</ele>
        <time>2012-12-02T10:43:24Z</time>
      </trkpt>
      <trkpt lat="43.50367" lon="6.31968">
        <ele>256</ele>
        <time>2012-12-02T10:43:31Z</time>
      </trkpt>
      <trkpt lat="43.5036" lon="6.32025">
        <ele>256</ele>
        <time>2012-12-02T10:43:38Z</time>
      </trkpt>
      <trkpt lat="43.5036" lon="6.32068">
        <ele>256</ele>
        <time>2012-12-02T10:43:43Z</time>
      </trkpt>
      <trkpt lat="43.5036" lon="6.32077">
        <ele>256</ele>
        <time>2012-12-02T10:43:44Z</time>
      </trkpt>
      <trkpt lat="43.50365" lon="6.3213">
        <ele>256</ele>
        <time>2012-12-02T10:43:50Z</time>
      </trkpt>
      <trkpt lat="43.50366" lon="6.32139">
        <ele>256</ele>
        <time>2012-12-02T10:43:51Z</time>
      </trkpt>
      <trkpt lat="43.50369" lon="6.32163">
        <ele>256</ele>
        <time>2012-12-02T10:43:54Z</time>
      </trkpt>
      <trkpt lat="43.5037" lon="6.32171">
        <ele>256</ele>
        <time>2012-12-02T10:43:55Z</time>
      </trkpt>
      <trkpt lat="43.5037" lon="6.32214">
        <ele>256</ele>
        <time>2012-12-02T10:44:00Z</time>
      </trkpt>
      <trkpt lat="43.50369" lon="6.32222">
        <ele>257</ele>
        <time>2012-12-02T10:44:01Z</time>
      </trkpt>
      <trkpt lat="43.50369" lon="6.32231">
        <ele>257</ele>
        <time>2012-12-02T10:44:02Z</time>
      </trkpt>
      <trkpt lat="43.50368" lon="6.3224">
        <ele>258</ele>
        <time>2012-12-02T10:44:03Z</time>
      </trkpt>
      <trkpt lat="43.50366" lon="6.32248">
        <ele>258</ele>
        <time>2012-12-02T10:44:04Z</time>
      </trkpt>
      <trkpt lat="43.50365" lon="6.32256">
        <ele>258</ele>
        <time>2012-12-02T10:44:05Z</time>
      </trkpt>
      <trkpt lat="43.50362" lon="6.32264">
        <ele>257</ele>
        <time>2012-12-02T10:44:06Z</time>
      </trkpt>
      <trkpt lat="43.5036" lon="6.32272">
        <ele>257</ele>
        <time>2012-12-02T10:44:07Z</time>
      </trkpt>
      <trkpt lat="43.50357" lon="6.3228">
        <ele>256</ele>
        <time>2012-12-02T10:44:08Z</time>
      </trkpt>
      <trkpt lat="43.50353" lon="6.32287">
        <ele>256</ele>
        <time>2012-12-02T10:44:09Z</time>
      </trkpt>
      <trkpt lat="43.5034" lon="6.32319">
        <ele>256</ele>
        <time>2012-12-02T10:44:13Z</time>
      </trkpt>
      <trkpt lat="43.5032" lon="6.32368">
        <ele>256</ele>
        <time>2012-12-02T10:44:19Z</time>
      </trkpt>
      <trkpt lat="43.503" lon="6.32413">
        <ele>256</ele>
        <time>2012-12-02T10:44:25Z</time>
      </trkpt>
      <trkpt lat="43.50296" lon="6.3242">
        <ele>256</ele>
        <time>2012-12-02T10:44:26Z</time>
      </trkpt>
      <trkpt lat="43.50277" lon="6.32468">
        <ele>256</ele>
        <time>2012-12-02T10:44:32Z</time>
      </trkpt>
      <trkpt lat="43.5025" lon="6.32527">
        <ele>256</ele>
        <time>2012-12-02T10:44:39Z</time>
      </trkpt>
      <trkpt lat="43.50229" lon="6.32588">
        <ele>256</ele>
        <time>2012-12-02T10:44:46Z</time>
      </trkpt>
      <trkpt lat="43.50222" lon="6.32646">
        <ele>256</ele>
        <time>2012-12-02T10:44:52Z</time>
      </trkpt>
      <trkpt lat="43.5022" lon="6.32705">
        <ele>256</ele>
        <time>2012-12-02T10:44:58Z</time>
      </trkpt>
      <trkpt lat="43.50219" lon="6.32771">
        <ele>256</ele>
        <time>2012-12-02T10:45:05Z</time>
      </trkpt>
      <trkpt lat="43.50213" lon="6.3284">
        <ele>256</ele>
        <time>2012-12-02T10:45:12Z</time>
      </trkpt>
      <trkpt lat="43.50212" lon="6.32851">
        <ele>255</ele>
        <time>2012-12-02T10:45:13Z</time>
      </trkpt>
      <trkpt lat="43.5021" lon="6.32862">
        <ele>255</ele>
        <time>2012-12-02T10:45:14Z</time>
      </trkpt>
      <trkpt lat="43.50208" lon="6.32873">
        <ele>254</ele>
        <time>2012-12-02T10:45:15Z</time>
      </trkpt>
      <trkpt lat="43.50206" lon="6.32884">
        <ele>254</ele>
        <time>2012-12-02T10:45:16Z</time>
      </trkpt>
      <trkpt lat="43.502" lon="6.3292">
        <ele>254</ele>
        <time>2012-12-02T10:45:19Z</time>
      </trkpt>
      <trkpt lat="43.50188" lon="6.32994">
        <ele>254</ele>
        <time>2012-12-02T10:45:25Z</time>
      </trkpt>
      <trkpt lat="43.50184" lon="6.3302">
        <ele>254</ele>
        <time>2012-12-02T10:45:27Z</time>
      </trkpt>
      <trkpt lat="43.50171" lon="6.33101">
        <ele>254</ele>
        <time>2012-12-02T10:45:33Z</time>
      </trkpt>
      <trkpt lat="43.50169" lon="6.33115">
        <ele>254</ele>
        <time>2012-12-02T10:45:34Z</time>
      </trkpt>
      <trkpt lat="43.50165" lon="6.33152">
        <ele>254</ele>
        <time>2012-12-02T10:45:37Z</time>
      </trkpt>
      <trkpt lat="43.50165" lon="6.33164">
        <ele>255</ele>
        <time>2012-12-02T10:45:38Z</time>
      </trkpt>
      <trkpt lat="43.50165" lon="6.33176">
        <ele>255</ele>
        <time>2012-12-02T10:45:39Z</time>
      </trkpt>
      <trkpt lat="43.50166" lon="6.33187">
        <ele>256</ele>
        <time>2012-12-02T10:45:40Z</time>
      </trkpt>
      <trkpt lat="43.50168" lon="6.33198">
        <ele>256</ele>
        <time>2012-12-02T10:45:41Z</time>
      </trkpt>
      <trkpt lat="43.50169" lon="6.33209">
        <ele>256</ele>
        <time>2012-12-02T10:45:42Z</time>
      </trkpt>
      <trkpt lat="43.50171" lon="6.33219">
        <ele>255</ele>
        <time>2012-12-02T10:45:43Z</time>
      </trkpt>
      <trkpt lat="43.50173" lon="6.33229">
        <ele>255</ele>
        <time>2012-12-02T10:45:44Z</time>
      </trkpt>
      <trkpt lat="43.50174" lon="6.33238">
        <ele>254</ele>
        <time>2012-12-02T10:45:45Z</time>
      </trkpt>
      <trkpt lat="43.50178" lon="6.33257">
        <ele>254</ele>
        <time>2012-12-02T10:45:47Z</time>
      </trkpt>
      <trkpt lat="43.50189" lon="6.33311">
        <ele>254</ele>
        <time>2012-12-02T10:45:53Z</time>
      </trkpt>
      <trkpt lat="43.50194" lon="6.33337">
        <ele>254</ele>
        <time>2012-12-02T10:45:56Z</time>
      </trkpt>
      <trkpt lat="43.50196" lon="6.33346">
        <ele>253</ele>
        <time>2012-12-02T10:45:57Z</time>
      </trkpt>
      <trkpt lat="43.50197" lon="6.33355">
        <ele>253</ele>
        <time>2012-12-02T10:45:58Z</time>
      </trkpt>
      <trkpt lat="43.50198" lon="6.33364">
        <ele>252</ele>
        <time>2012-12-02T10:45:59Z</time>
      </trkpt>
      <trkpt lat="43.50198" lon="6.33373">
        <ele>252</ele>
        <time>2012-12-02T10:46:00Z</time>
      </trkpt>
      <trkpt lat="43.50196" lon="6.33423">
        <ele>252</ele>
        <time>2012-12-02T10:46:06Z</time>
      </trkpt>
      <trkpt lat="43.50192" lon="6.33454">
        <ele>252</ele>
        <time>2012-12-02T10:46:10Z</time>
      </trkpt>
      <trkpt lat="43.50188" lon="6.33468">
        <ele>252</ele>
        <time>2012-12-02T10:46:12Z</time>
      </trkpt>
      <trkpt lat="43.50176" lon="6.33511">
        <ele>252</ele>
        <time>2012-12-02T10:46:18Z</time>
      </trkpt>
      <trkpt lat="43.50159" lon="6.33566">
        <ele>252</ele>
        <time>2012-12-02T10:46:25Z</time>
      </trkpt>
      <trkpt lat="43.50141" lon="6.33623">
        <ele>252</ele>
        <time>2012-12-02T10:46:32Z</time>
      </trkpt>
      <trkpt lat="43.50128" lon="6.33676">
        <ele>252</ele>
        <time>2012-12-02T10:46:38Z</time>
      </trkpt>
      <trkpt lat="43.50125" lon="6.33695">
        <ele>252</ele>
        <time>2012-12-02T10:46:40Z</time>
      </trkpt>
      <trkpt lat="43.50123" lon="6.33704">
        <ele>251</ele>
        <time>2012-12-02T10:46:41Z</time>
      </trkpt>
      <trkpt lat="43.50122" lon="6.33713">
        <ele>251</ele>
        <time>2012-12-02T10:46:42Z</time>
      </trkpt>
      <trkpt lat="43.50121" lon="6.33723">
        <ele>250</ele>
        <time>2012-12-02T10:46:43Z</time>
      </trkpt>
      <trkpt lat="43.5012" lon="6.33732">
        <ele>250</ele>
        <time>2012-12-02T10:46:44Z</time>
      </trkpt>
      <trkpt lat="43.50114" lon="6.33788">
        <ele>250</ele>
        <time>2012-12-02T10:46:50Z</time>
      </trkpt>
      <trkpt lat="43.50108" lon="6.33843">
        <ele>250</ele>
        <time>2012-12-02T10:46:56Z</time>
      </trkpt>
      <trkpt lat="43.50107" lon="6.33852">
        <ele>250</ele>
        <time>2012-12-02T10:46:57Z</time>
      </trkpt>
      <trkpt lat="43.50107" lon="6.33892">
        <ele>250</ele>
        <time>2012-12-02T10:47:01Z</time>
      </trkpt>
      <trkpt lat="43.50106" lon="6.33964">
        <ele>250</ele>
        <time>2012-12-02T10:47:08Z</time>
      </trkpt>
      <trkpt lat="43.50105" lon="6.34014">
        <ele>250</ele>
        <time>2012-12-02T10:47:13Z</time>
      </trkpt>
      <trkpt lat="43.50104" lon="6.34062">
        <ele>250</ele>
        <time>2012-12-02T10:47:18Z</time>
      </trkpt>
      <trkpt lat="43.50103" lon="6.3412">
        <ele>250</ele>
        <time>2012-12-02T10:47:23Z</time>
      </trkpt>
      <trkpt lat="43.50103" lon="6.34133">
        <ele>250</ele>
        <time>2012-12-02T10:47:24Z</time>
      </trkpt>
      <trkpt lat="43.50102" lon="6.34147">
        <ele>249</ele>
        <time>2012-12-02T10:47:25Z</time>
      </trkpt>
      <trkpt lat="43.50102" lon="6.34161">
        <ele>249</ele>
        <time>2012-12-02T10:47:26Z</time>
      </trkpt>
      <trkpt lat="43.50101" lon="6.34175">
        <ele>248</ele>
        <time>2012-12-02T10:47:27Z</time>
      </trkpt>
      <trkpt lat="43.50101" lon="6.34188">
        <ele>248</ele>
        <time>2012-12-02T10:47:28Z</time>
      </trkpt>
      <trkpt lat="43.50099" lon="6.34214">
        <ele>248</ele>
        <time>2012-12-02T10:47:30Z</time>
      </trkpt>
      <trkpt lat="43.50093" lon="6.3425">
        <ele>248</ele>
        <time>2012-12-02T10:47:33Z</time>
      </trkpt>
      <trkpt lat="43.50081" lon="6.34296">
        <ele>248</ele>
        <time>2012-12-02T10:47:37Z</time>
      </trkpt>
      <trkpt lat="43.50058" lon="6.34357">
        <ele>248</ele>
        <time>2012-12-02T10:47:42Z</time>
      </trkpt>
      <trkpt lat="43.50027" lon="6.34412">
        <ele>248</ele>
        <time>2012-12-02T10:47:47Z</time>
      </trkpt>
      <trkpt lat="43.50021" lon="6.34422">
        <ele>248</ele>
        <time>2012-12-02T10:47:48Z</time>
      </trkpt>
      <trkpt lat="43.50008" lon="6.34439">
        <ele>248</ele>
        <time>2012-12-02T10:47:50Z</time>
      </trkpt>
      <trkpt lat="43.50002" lon="6.34446">
        <ele>247</ele>
        <time>2012-12-02T10:47:51Z</time>
      </trkpt>
      <trkpt lat="43.49996" lon="6.34453">
        <ele>247</ele>
        <time>2012-12-02T10:47:52Z</time>
      </trkpt>
      <trkpt lat="43.4999" lon="6.3446">
        <ele>246</ele>
        <time>2012-12-02T10:47:53Z</time>
      </trkpt>
      <trkpt lat="43.49984" lon="6.34467">
        <ele>246</ele>
        <time>2012-12-02T10:47:54Z</time>
      </trkpt>
      <trkpt lat="43.49961" lon="6.34493">
        <ele>246</ele>
        <time>2012-12-02T10:47:58Z</time>
      </trkpt>
      <trkpt lat="43.49927" lon="6.34542">
        <ele>246</ele>
        <time>2012-12-02T10:48:05Z</time>
      </trkpt>
      <trkpt lat="43.49903" lon="6.3459">
        <ele>246</ele>
        <time>2012-12-02T10:48:11Z</time>
      </trkpt>
      <trkpt lat="43.49889" lon="6.34622">
        <ele>246</ele>
        <time>2012-12-02T10:48:15Z</time>
      </trkpt>
      <trkpt lat="43.49886" lon="6.34631">
        <ele>246</ele>
        <time>2012-12-02T10:48:16Z</time>
      </trkpt>
      <trkpt lat="43.49884" lon="6.3464">
        <ele>246</ele>
        <time>2012-12-02T10:48:17Z</time>
      </trkpt>
      <trkpt lat="43.49877" lon="6.34678">
        <ele>246</ele>
        <time>2012-12-02T10:48:21Z</time>
      </trkpt>
      <trkpt lat="43.4987" lon="6.34727">
        <ele>246</ele>
        <time>2012-12-02T10:48:26Z</time>
      </trkpt>
      <trkpt lat="43.49869" lon="6.34782">
        <ele>246</ele>
        <time>2012-12-02T10:48:32Z</time>
      </trkpt>
      <trkpt lat="43.4987" lon="6.34822">
        <ele>245</ele>
        <time>2012-12-02T10:48:36Z</time>
      </trkpt>
      <trkpt lat="43.49871" lon="6.34832">
        <ele>245</ele>
        <time>2012-12-02T10:48:37Z</time>
      </trkpt>
      <trkpt lat="43.49872" lon="6.34844">
        <ele>244</ele>
        <time>2012-12-02T10:48:38Z</time>
      </trkpt>
      <trkpt lat="43.49873" lon="6.34857">
        <ele>244</ele>
        <time>2012-12-02T10:48:39Z</time>
      </trkpt>
      <trkpt lat="43.49878" lon="6.34914">
        <ele>244</ele>
        <time>2012-12-02T10:48:43Z</time>
      </trkpt>
      <trkpt lat="43.49886" lon="6.34998">
        <ele>243</ele>
        <time>2012-12-02T10:48:49Z</time>
      </trkpt>
      <trkpt lat="43.49887" lon="6.35011">
        <ele>243</ele>
        <time>2012-12-02T10:48:50Z</time>
      </trkpt>
      <trkpt lat="43.49888" lon="6.35024">
        <ele>243</ele>
        <time>2012-12-02T10:48:51Z</time>
      </trkpt>
      <trkpt lat="43.49888" lon="6.35036">
        <ele>242</ele>
        <time>2012-12-02T10:48:52Z</time>
      </trkpt>
      <trkpt lat="43.49888" lon="6.35049">
        <ele>242</ele>
        <time>2012-12-02T10:48:53Z</time>
      </trkpt>
      <trkpt lat="43.49888" lon="6.35085">
        <ele>242</ele>
        <time>2012-12-02T10:48:56Z</time>
      </trkpt>
      <trkpt lat="43.49885" lon="6.3515">
        <ele>242</ele>
        <time>2012-12-02T10:49:02Z</time>
      </trkpt>
      <trkpt lat="43.49883" lon="6.35187">
        <ele>242</ele>
        <time>2012-12-02T10:49:06Z</time>
      </trkpt>
      <trkpt lat="43.49884" lon="6.35196">
        <ele>242</ele>
        <time>2012-12-02T10:49:07Z</time>
      </trkpt>
      <trkpt lat="43.49883" lon="6.35204">
        <ele>242</ele>
        <time>2012-12-02T10:49:08Z</time>
      </trkpt>
      <trkpt lat="43.49877" lon="6.35227">
        <ele>242</ele>
        <time>2012-12-02T10:49:11Z</time>
      </trkpt>
      <trkpt lat="43.49873" lon="6.35235">
        <ele>242</ele>
        <time>2012-12-02T10:49:12Z</time>
      </trkpt>
      <trkpt lat="43.49857" lon="6.35268">
        <ele>241</ele>
        <time>2012-12-02T10:49:16Z</time>
      </trkpt>
      <trkpt lat="43.49851" lon="6.35276">
        <ele>241</ele>
        <time>2012-12-02T10:49:17Z</time>
      </trkpt>
      <trkpt lat="43.49845" lon="6.35283">
        <ele>241</ele>
        <time>2012-12-02T10:49:18Z</time>
      </trkpt>
      <trkpt lat="43.49839" lon="6.35289">
        <ele>240</ele>
        <time>2012-12-02T10:49:19Z</time>
      </trkpt>
      <trkpt lat="43.49831" lon="6.35294">
        <ele>240</ele>
        <time>2012-12-02T10:49:20Z</time>
      </trkpt>
      <trkpt lat="43.49816" lon="6.35303">
        <ele>240</ele>
        <time>2012-12-02T10:49:22Z</time>
      </trkpt>
      <trkpt lat="43.49807" lon="6.35307">
        <ele>240</ele>
        <time>2012-12-02T10:49:23Z</time>
      </trkpt>
      <trkpt lat="43.49782" lon="6.3532">
        <ele>239</ele>
        <time>2012-12-02T10:49:26Z</time>
      </trkpt>
      <trkpt lat="43.49773" lon="6.35324">
        <ele>239</ele>
        <time>2012-12-02T10:49:27Z</time>
      </trkpt>
      <trkpt lat="43.49765" lon="6.35328">
        <ele>238</ele>
        <time>2012-12-02T10:49:28Z</time>
      </trkpt>
      <trkpt lat="43.49756" lon="6.35332">
        <ele>238</ele>
        <time>2012-12-02T10:49:29Z</time>
      </trkpt>
      <trkpt lat="43.49747" lon="6.35336">
        <ele>238</ele>
        <time>2012-12-02T10:49:30Z</time>
      </trkpt>
      <trkpt lat="43.49706" lon="6.35356">
        <ele>237</ele>
        <time>2012-12-02T10:49:34Z</time>
      </trkpt>
      <trkpt lat="43.49694" lon="6.35361">
        <ele>237</ele>
        <time>2012-12-02T10:49:35Z</time>
      </trkpt>
      <trkpt lat="43.49684" lon="6.35367">
        <ele>236</ele>
        <time>2012-12-02T10:49:36Z</time>
      </trkpt>
      <trkpt lat="43.49673" lon="6.35372">
        <ele>236</ele>
        <time>2012-12-02T10:49:37Z</time>
      </trkpt>
      <trkpt lat="43.49662" lon="6.35378">
        <ele>235</ele>
        <time>2012-12-02T10:49:38Z</time>
      </trkpt>
      <trkpt lat="43.49651" lon="6.35383">
        <ele>235</ele>
        <time>2012-12-02T10:49:39Z</time>
      </trkpt>
      <trkpt lat="43.4964" lon="6.35388">
        <ele>234</ele>
        <time>2012-12-02T10:49:40Z</time>
      </trkpt>
      <trkpt lat="43.49629" lon="6.35393">
        <ele>234</ele>
        <time>2012-12-02T10:49:41Z</time>
      </trkpt>
      <trkpt lat="43.49618" lon="6.35399">
        <ele>234</ele>
        <time>2012-12-02T10:49:42Z</time>
      </trkpt>
      <trkpt lat="43.49608" lon="6.35404">
        <ele>233</ele>
        <time>2012-12-02T10:49:43Z</time>
      </trkpt>
      <trkpt lat="43.49589" lon="6.35415">
        <ele>233</ele>
        <time>2012-12-02T10:49:45Z</time>
      </trkpt>
      <trkpt lat="43.49572" lon="6.35432">
        <ele>233</ele>
        <time>2012-12-02T10:49:47Z</time>
      </trkpt>
      <trkpt lat="43.49556" lon="6.35446">
        <ele>233</ele>
        <time>2012-12-02T10:49:49Z</time>
      </trkpt>
      <trkpt lat="43.49547" lon="6.35449">
        <ele>232</ele>
        <time>2012-12-02T10:49:50Z</time>
      </trkpt>
      <trkpt lat="43.49539" lon="6.35447">
        <ele>231</ele>
        <time>2012-12-02T10:49:51Z</time>
      </trkpt>
      <trkpt lat="43.4953" lon="6.35444">
        <ele>231</ele>
        <time>2012-12-02T10:49:52Z</time>
      </trkpt>
      <trkpt lat="43.49522" lon="6.35444">
        <ele>231</ele>
        <time>2012-12-02T10:49:53Z</time>
      </trkpt>
      <trkpt lat="43.49515" lon="6.35448">
        <ele>231</ele>
        <time>2012-12-02T10:49:54Z</time>
      </trkpt>
      <trkpt lat="43.4951" lon="6.35456">
        <ele>231</ele>
        <time>2012-12-02T10:49:55Z</time>
      </trkpt>
      <trkpt lat="43.49508" lon="6.35467">
        <ele>230</ele>
        <time>2012-12-02T10:49:56Z</time>
      </trkpt>
      <trkpt lat="43.49506" lon="6.35477">
        <ele>230</ele>
        <time>2012-12-02T10:49:57Z</time>
      </trkpt>
      <trkpt lat="43.49503" lon="6.35488">
        <ele>229</ele>
        <time>2012-12-02T10:49:58Z</time>
      </trkpt>
      <trkpt lat="43.49499" lon="6.35498">
        <ele>229</ele>
        <time>2012-12-02T10:49:59Z</time>
      </trkpt>
      <trkpt lat="43.49495" lon="6.35507">
        <ele>229</ele>
        <time>2012-12-02T10:50:00Z</time>
      </trkpt>
      <trkpt lat="43.49473" lon="6.35539">
        <ele>229</ele>
        <time>2012-12-02T10:50:04Z</time>
      </trkpt>
      <trkpt lat="43.49467" lon="6.35547">
        <ele>229</ele>
        <time>2012-12-02T10:50:05Z</time>
      </trkpt>
      <trkpt lat="43.49455" lon="6.35562">
        <ele>229</ele>
        <time>2012-12-02T10:50:07Z</time>
      </trkpt>
      <trkpt lat="43.49442" lon="6.35578">
        <ele>229</ele>
        <time>2012-12-02T10:50:09Z</time>
      </trkpt>
      <trkpt lat="43.49435" lon="6.35586">
        <ele>229</ele>
        <time>2012-12-02T10:50:10Z</time>
      </trkpt>
      <trkpt lat="43.49429" lon="6.35595">
        <ele>228</ele>
        <time>2012-12-02T10:50:11Z</time>
      </trkpt>
      <trkpt lat="43.49422" lon="6.35603">
        <ele>228</ele>
        <time>2012-12-02T10:50:12Z</time>
      </trkpt>
      <trkpt lat="43.49415" lon="6.35612">
        <ele>227</ele>
        <time>2012-12-02T10:50:13Z</time>
      </trkpt>
      <trkpt lat="43.49408" lon="6.3562">
        <ele>227</ele>
        <time>2012-12-02T10:50:14Z</time>
      </trkpt>
      <trkpt lat="43.49396" lon="6.35637">
        <ele>227</ele>
        <time>2012-12-02T10:50:16Z</time>
      </trkpt>
      <trkpt lat="43.49389" lon="6.35646">
        <ele>226</ele>
        <time>2012-12-02T10:50:17Z</time>
      </trkpt>
      <trkpt lat="43.49382" lon="6.35653">
        <ele>226</ele>
        <time>2012-12-02T10:50:18Z</time>
      </trkpt>
      <trkpt lat="43.49376" lon="6.3566">
        <ele>226</ele>
        <time>2012-12-02T10:50:19Z</time>
      </trkpt>
      <trkpt lat="43.49371" lon="6.35667">
        <ele>225</ele>
        <time>2012-12-02T10:50:20Z</time>
      </trkpt>
      <trkpt lat="43.49366" lon="6.35673">
        <ele>224</ele>
        <time>2012-12-02T10:50:21Z</time>
      </trkpt>
      <trkpt lat="43.49362" lon="6.35678">
        <ele>224</ele>
        <time>2012-12-02T10:50:22Z</time>
      </trkpt>
      <trkpt lat="43.49357" lon="6.35683">
        <ele>223</ele>
        <time>2012-12-02T10:50:23Z</time>
      </trkpt>
      <trkpt lat="43.49352" lon="6.35686">
        <ele>222</ele>
        <time>2012-12-02T10:50:24Z</time>
      </trkpt>
      <trkpt lat="43.49332" lon="6.35697">
        <ele>222</ele>
        <time>2012-12-02T10:50:28Z</time>
      </trkpt>
      <trkpt lat="43.49328" lon="6.35701">
        <ele>222</ele>
        <time>2012-12-02T10:50:29Z</time>
      </trkpt>
      <trkpt lat="43.49325" lon="6.35707">
        <ele>222</ele>
        <time>2012-12-02T10:50:30Z</time>
      </trkpt>
      <trkpt lat="43.49322" lon="6.35713">
        <ele>222</ele>
        <time>2012-12-02T10:50:31Z</time>
      </trkpt>
      <trkpt lat="43.4932" lon="6.3572">
        <ele>221</ele>
        <time>2012-12-02T10:50:32Z</time>
      </trkpt>
      <trkpt lat="43.4932" lon="6.35726">
        <ele>221</ele>
        <time>2012-12-02T10:50:33Z</time>
      </trkpt>
      <trkpt lat="43.49319" lon="6.35733">
        <ele>220</ele>
        <time>2012-12-02T10:50:34Z</time>
      </trkpt>
      <trkpt lat="43.49319" lon="6.3574">
        <ele>220</ele>
        <time>2012-12-02T10:50:35Z</time>
      </trkpt>
      <trkpt lat="43.49319" lon="6.35748">
        <ele>219</ele>
        <time>2012-12-02T10:50:36Z</time>
      </trkpt>
      <trkpt lat="43.49319" lon="6.35756">
        <ele>219</ele>
        <time>2012-12-02T10:50:37Z</time>
      </trkpt>
      <trkpt lat="43.49319" lon="6.35763">
        <ele>218</ele>
        <time>2012-12-02T10:50:38Z</time>
      </trkpt>
      <trkpt lat="43.49318" lon="6.3577">
        <ele>218</ele>
        <time>2012-12-02T10:50:39Z</time>
      </trkpt>
      <trkpt lat="43.49318" lon="6.35778">
        <ele>218</ele>
        <time>2012-12-02T10:50:40Z</time>
      </trkpt>
      <trkpt lat="43.49317" lon="6.35794">
        <ele>218</ele>
        <time>2012-12-02T10:50:42Z</time>
      </trkpt>
      <trkpt lat="43.49317" lon="6.35803">
        <ele>217</ele>
        <time>2012-12-02T10:50:43Z</time>
      </trkpt>
      <trkpt lat="43.49317" lon="6.35813">
        <ele>217</ele>
        <time>2012-12-02T10:50:44Z</time>
      </trkpt>
      <trkpt lat="43.49317" lon="6.35822">
        <ele>216</ele>
        <time>2012-12-02T10:50:45Z</time>
      </trkpt>
      <trkpt lat="43.49316" lon="6.35832">
        <ele>216</ele>
        <time>2012-12-02T10:50:46Z</time>
      </trkpt>
      <trkpt lat="43.49316" lon="6.35862">
        <ele>216</ele>
        <time>2012-12-02T10:50:49Z</time>
      </trkpt>
      <trkpt lat="43.49315" lon="6.35872">
        <ele>215</ele>
        <time>2012-12-02T10:50:50Z</time>
      </trkpt>
      <trkpt lat="43.49314" lon="6.35882">
        <ele>215</ele>
        <time>2012-12-02T10:50:51Z</time>
      </trkpt>
      <trkpt lat="43.49313" lon="6.35891">
        <ele>214</ele>
        <time>2012-12-02T10:50:52Z</time>
      </trkpt>
      <trkpt lat="43.49313" lon="6.35901">
        <ele>214</ele>
        <time>2012-12-02T10:50:53Z</time>
      </trkpt>
      <trkpt lat="43.49313" lon="6.3591">
        <ele>213</ele>
        <time>2012-12-02T10:50:54Z</time>
      </trkpt>
      <trkpt lat="43.49313" lon="6.35919">
        <ele>213</ele>
        <time>2012-12-02T10:50:55Z</time>
      </trkpt>
      <trkpt lat="43.49312" lon="6.35927">
        <ele>212</ele>
        <time>2012-12-02T10:50:56Z</time>
      </trkpt>
      <trkpt lat="43.49311" lon="6.35935">
        <ele>212</ele>
        <time>2012-12-02T10:50:57Z</time>
      </trkpt>
      <trkpt lat="43.49311" lon="6.35942">
        <ele>212</ele>
        <time>2012-12-02T10:50:58Z</time>
      </trkpt>
      <trkpt lat="43.4931" lon="6.35966">
        <ele>212</ele>
        <time>2012-12-02T10:51:01Z</time>
      </trkpt>
      <trkpt lat="43.4931" lon="6.35982">
        <ele>212</ele>
        <time>2012-12-02T10:51:04Z</time>
      </trkpt>
      <trkpt lat="43.49311" lon="6.35993">
        <ele>212</ele>
        <time>2012-12-02T10:51:10Z</time>
      </trkpt>
      <trkpt lat="43.49311" lon="6.35998">
        <ele>212</ele>
        <time>2012-12-02T10:54:02Z</time>
      </trkpt>
      <trkpt lat="43.49311" lon="6.36005">
        <ele>212</ele>
        <time>2012-12-02T10:54:05Z</time>
      </trkpt>
      <trkpt lat="43.4931" lon="6.36025">
        <ele>212</ele>
        <time>2012-12-02T10:54:10Z</time>
      </trkpt>
      <trkpt lat="43.49306" lon="6.36056">
        <ele>212</ele>
        <time>2012-12-02T10:54:17Z</time>
      </trkpt>
      <trkpt lat="43.49306" lon="6.36071">
        <ele>212</ele>
        <time>2012-12-02T10:54:21Z</time>
      </trkpt>
      <trkpt lat="43.49305" lon="6.36096">
        <ele>212</ele>
        <time>2012-12-02T10:54:29Z</time>
      </trkpt>
      <trkpt lat="43.49305" lon="6.36096">
        <ele>212</ele>
        <time>2012-12-02T10:54:30Z</time>
      </trkpt>
      <trkpt lat="43.4931" lon="6.36101">
        <ele>213</ele>
        <time>2012-12-02T11:41:39Z</time>
      </trkpt>
      <trkpt lat="43.4931" lon="6.36102">
        <ele>213</ele>
        <time>2012-12-02T11:41:40Z</time>
      </trkpt>
      <trkpt lat="43.49311" lon="6.36104">
        <ele>213</ele>
        <time>2012-12-02T11:41:45Z</time>
      </trkpt>
      <trkpt lat="43.49311" lon="6.3611">
        <ele>213</ele>
        <time>2012-12-02T11:41:48Z</time>
      </trkpt>
      <trkpt lat="43.49312" lon="6.36129">
        <ele>213</ele>
        <time>2012-12-02T11:41:54Z</time>
      </trkpt>
      <trkpt lat="43.49311" lon="6.36148">
        <ele>213</ele>
        <time>2012-12-02T11:41:59Z</time>
      </trkpt>
      <trkpt lat="43.4931" lon="6.3615">
        <ele>213</ele>
        <time>2012-12-02T11:42:00Z</time>
      </trkpt>
      <trkpt lat="43.49302" lon="6.36154">
        <ele>212</ele>
        <time>2012-12-02T11:42:03Z</time>
      </trkpt>
      <trkpt lat="43.49298" lon="6.36155">
        <ele>211</ele>
        <time>2012-12-02T11:42:04Z</time>
      </trkpt>
      <trkpt lat="43.49293" lon="6.36156">
        <ele>211</ele>
        <time>2012-12-02T11:42:05Z</time>
      </trkpt>
      <trkpt lat="43.49288" lon="6.36156">
        <ele>210</ele>
        <time>2012-12-02T11:42:06Z</time>
      </trkpt>
      <trkpt lat="43.49283" lon="6.36157">
        <ele>210</ele>
        <time>2012-12-02T11:42:07Z</time>
      </trkpt>
      <trkpt lat="43.49276" lon="6.3616">
        <ele>209</ele>
        <time>2012-12-02T11:42:08Z</time>
      </trkpt>
      <trkpt lat="43.49268" lon="6.36161">
        <ele>209</ele>
        <time>2012-12-02T11:42:09Z</time>
      </trkpt>
      <trkpt lat="43.49259" lon="6.36162">
        <ele>208</ele>
        <time>2012-12-02T11:42:10Z</time>
      </trkpt>
      <trkpt lat="43.4925" lon="6.36163">
        <ele>208</ele>
        <time>2012-12-02T11:42:11Z</time>
      </trkpt>
      <trkpt lat="43.49242" lon="6.36164">
        <ele>207</ele>
        <time>2012-12-02T11:42:12Z</time>
      </trkpt>
      <trkpt lat="43.49235" lon="6.36164">
        <ele>206</ele>
        <time>2012-12-02T11:42:13Z</time>
      </trkpt>
      <trkpt lat="43.49228" lon="6.36164">
        <ele>205</ele>
        <time>2012-12-02T11:42:14Z</time>
      </trkpt>
      <trkpt lat="43.49224" lon="6.36165">
        <ele>205</ele>
        <time>2012-12-02T11:42:15Z</time>
      </trkpt>
      <trkpt lat="43.4922" lon="6.36168">
        <ele>204</ele>
        <time>2012-12-02T11:42:16Z</time>
      </trkpt>
      <trkpt lat="43.49218" lon="6.3617">
        <ele>203</ele>
        <time>2012-12-02T11:42:17Z</time>
      </trkpt>
      <trkpt lat="43.49217" lon="6.36172">
        <ele>203</ele>
        <time>2012-12-02T11:42:18Z</time>
      </trkpt>
      <trkpt lat="43.49214" lon="6.36174">
        <ele>202</ele>
        <time>2012-12-02T11:42:19Z</time>
      </trkpt>
      <trkpt lat="43.49213" lon="6.36177">
        <ele>201</ele>
        <time>2012-12-02T11:42:20Z</time>
      </trkpt>
      <trkpt lat="43.4921" lon="6.36185">
        <ele>201</ele>
        <time>2012-12-02T11:42:22Z</time>
      </trkpt>
      <trkpt lat="43.49208" lon="6.36207">
        <ele>201</ele>
        <time>2012-12-02T11:42:27Z</time>
      </trkpt>
      <trkpt lat="43.49203" lon="6.3624">
        <ele>201</ele>
        <time>2012-12-02T11:42:34Z</time>
      </trkpt>
      <trkpt lat="43.49199" lon="6.36266">
        <ele>201</ele>
        <time>2012-12-02T11:42:39Z</time>
      </trkpt>
      <trkpt lat="43.49197" lon="6.36279">
        <ele>201</ele>
        <time>2012-12-02T11:42:42Z</time>
      </trkpt>
      <trkpt lat="43.49194" lon="6.36282">
        <ele>201</ele>
        <time>2012-12-02T11:42:43Z</time>
      </trkpt>
      <trkpt lat="43.49174" lon="6.36297">
        <ele>201</ele>
        <time>2012-12-02T11:42:47Z</time>
      </trkpt>
      <trkpt lat="43.49164" lon="6.36305">
        <ele>201</ele>
        <time>2012-12-02T11:42:49Z</time>
      </trkpt>
      <trkpt lat="43.49159" lon="6.3631">
        <ele>201</ele>
        <time>2012-12-02T11:42:50Z</time>
      </trkpt>
      <trkpt lat="43.49155" lon="6.36317">
        <ele>200</ele>
        <time>2012-12-02T11:42:51Z</time>
      </trkpt>
      <trkpt lat="43.49152" lon="6.36326">
        <ele>200</ele>
        <time>2012-12-02T11:42:52Z</time>
      </trkpt>
      <trkpt lat="43.49149" lon="6.36337">
        <ele>199</ele>
        <time>2012-12-02T11:42:53Z</time>
      </trkpt>
      <trkpt lat="43.49145" lon="6.36347">
        <ele>198</ele>
        <time>2012-12-02T11:42:54Z</time>
      </trkpt>
      <trkpt lat="43.4914" lon="6.36357">
        <ele>197</ele>
        <time>2012-12-02T11:42:55Z</time>
      </trkpt>
      <trkpt lat="43.49135" lon="6.36365">
        <ele>197</ele>
        <time>2012-12-02T11:42:56Z</time>
      </trkpt>
      <trkpt lat="43.49128" lon="6.36371">
        <ele>196</ele>
        <time>2012-12-02T11:42:57Z</time>
      </trkpt>
      <trkpt lat="43.4912" lon="6.36376">
        <ele>195</ele>
        <time>2012-12-02T11:42:58Z</time>
      </trkpt>
      <trkpt lat="43.49111" lon="6.3638">
        <ele>195</ele>
        <time>2012-12-02T11:42:59Z</time>
      </trkpt>
      <trkpt lat="43.49101" lon="6.36383">
        <ele>194</ele>
        <time>2012-12-02T11:43:00Z</time>
      </trkpt>
      <trkpt lat="43.49092" lon="6.36387">
        <ele>193</ele>
        <time>2012-12-02T11:43:01Z</time>
      </trkpt>
      <trkpt lat="43.49082" lon="6.36391">
        <ele>193</ele>
        <time>2012-12-02T11:43:02Z</time>
      </trkpt>
      <trkpt lat="43.49073" lon="6.36394">
        <ele>192</ele>
        <time>2012-12-02T11:43:03Z</time>
      </trkpt>
      <trkpt lat="43.49064" lon="6.36398">
        <ele>192</ele>
        <time>2012-12-02T11:43:04Z</time>
      </trkpt>
      <trkpt lat="43.49055" lon="6.36401">
        <ele>191</ele>
        <time>2012-12-02T11:43:05Z</time>
      </trkpt>
      <trkpt lat="43.49048" lon="6.36403">
        <ele>190</ele>
        <time>2012-12-02T11:43:06Z</time>
      </trkpt>
      <trkpt lat="43.49042" lon="6.36405">
        <ele>190</ele>
        <time>2012-12-02T11:43:07Z</time>
      </trkpt>
      <trkpt lat="43.49036" lon="6.36403">
        <ele>189</ele>
        <time>2012-12-02T11:43:09Z</time>
      </trkpt>
      <trkpt lat="43.49034" lon="6.36402">
        <ele>189</ele>
        <time>2012-12-02T11:43:10Z</time>
      </trkpt>
      <trkpt lat="43.49032" lon="6.36401">
        <ele>188</ele>
        <time>2012-12-02T11:43:11Z</time>
      </trkpt>
      <trkpt lat="43.4903" lon="6.36399">
        <ele>188</ele>
        <time>2012-12-02T11:43:12Z</time>
      </trkpt>
      <trkpt lat="43.49029" lon="6.36395">
        <ele>188</ele>
        <time>2012-12-02T11:43:13Z</time>
      </trkpt>
      <trkpt lat="43.49022" lon="6.3638">
        <ele>188</ele>
        <time>2012-12-02T11:43:16Z</time>
      </trkpt>
      <trkpt lat="43.49018" lon="6.36376">
        <ele>188</ele>
        <time>2012-12-02T11:43:17Z</time>
      </trkpt>
      <trkpt lat="43.49002" lon="6.36373">
        <ele>188</ele>
        <time>2012-12-02T11:43:20Z</time>
      </trkpt>
      <trkpt lat="43.48988" lon="6.36387">
        <ele>188</ele>
        <time>2012-12-02T11:43:23Z</time>
      </trkpt>
      <trkpt lat="43.48983" lon="6.36402">
        <ele>188</ele>
        <time>2012-12-02T11:43:25Z</time>
      </trkpt>
      <trkpt lat="43.48977" lon="6.36417">
        <ele>188</ele>
        <time>2012-12-02T11:43:27Z</time>
      </trkpt>
      <trkpt lat="43.48959" lon="6.36432">
        <ele>188</ele>
        <time>2012-12-02T11:43:30Z</time>
      </trkpt>
      <trkpt lat="43.48953" lon="6.36436">
        <ele>188</ele>
        <time>2012-12-02T11:43:31Z</time>
      </trkpt>
      <trkpt lat="43.48946" lon="6.36441">
        <ele>187</ele>
        <time>2012-12-02T11:43:32Z</time>
      </trkpt>
      <trkpt lat="43.48939" lon="6.36445">
        <ele>187</ele>
        <time>2012-12-02T11:43:33Z</time>
      </trkpt>
      <trkpt lat="43.48932" lon="6.36449">
        <ele>186</ele>
        <time>2012-12-02T11:43:34Z</time>
      </trkpt>
      <trkpt lat="43.48925" lon="6.36453">
        <ele>186</ele>
        <time>2012-12-02T11:43:35Z</time>
      </trkpt>
      <trkpt lat="43.48918" lon="6.36457">
        <ele>185</ele>
        <time>2012-12-02T11:43:36Z</time>
      </trkpt>
      <trkpt lat="43.48911" lon="6.3646">
        <ele>185</ele>
        <time>2012-12-02T11:43:37Z</time>
      </trkpt>
      <trkpt lat="43.48866" lon="6.36492">
        <ele>185</ele>
        <time>2012-12-02T11:43:44Z</time>
      </trkpt>
      <trkpt lat="43.48855" lon="6.36513">
        <ele>185</ele>
        <time>2012-12-02T11:43:47Z</time>
      </trkpt>
      <trkpt lat="43.48852" lon="6.36519">
        <ele>185</ele>
        <time>2012-12-02T11:43:48Z</time>
      </trkpt>
      <trkpt lat="43.48844" lon="6.36529">
        <ele>185</ele>
        <time>2012-12-02T11:43:50Z</time>
      </trkpt>
      <trkpt lat="43.48839" lon="6.36533">
        <ele>185</ele>
        <time>2012-12-02T11:43:51Z</time>
      </trkpt>
      <trkpt lat="43.4882" lon="6.3654">
        <ele>185</ele>
        <time>2012-12-02T11:43:55Z</time>
      </trkpt>
      <trkpt lat="43.48815" lon="6.3654">
        <ele>185</ele>
        <time>2012-12-02T11:43:56Z</time>
      </trkpt>
      <trkpt lat="43.48805" lon="6.36542">
        <ele>185</ele>
        <time>2012-12-02T11:43:58Z</time>
      </trkpt>
      <trkpt lat="43.48795" lon="6.36548">
        <ele>185</ele>
        <time>2012-12-02T11:44:00Z</time>
      </trkpt>
      <trkpt lat="43.48776" lon="6.36564">
        <ele>185</ele>
        <time>2012-12-02T11:44:04Z</time>
      </trkpt>
      <trkpt lat="43.4877" lon="6.36574">
        <ele>185</ele>
        <time>2012-12-02T11:44:06Z</time>
      </trkpt>
      <trkpt lat="43.48769" lon="6.36596">
        <ele>185</ele>
        <time>2012-12-02T11:44:09Z</time>
      </trkpt>
      <trkpt lat="43.4877" lon="6.36603">
        <ele>185</ele>
        <time>2012-12-02T11:44:10Z</time>
      </trkpt>
      <trkpt lat="43.4877" lon="6.36618">
        <ele>185</ele>
        <time>2012-12-02T11:44:12Z</time>
      </trkpt>
      <trkpt lat="43.48766" lon="6.3663">
        <ele>185</ele>
        <time>2012-12-02T11:44:14Z</time>
      </trkpt>
      <trkpt lat="43.48758" lon="6.36642">
        <ele>185</ele>
        <time>2012-12-02T11:44:16Z</time>
      </trkpt>
      <trkpt lat="43.48748" lon="6.36653">
        <ele>185</ele>
        <time>2012-12-02T11:44:18Z</time>
      </trkpt>
      <trkpt lat="43.48737" lon="6.36665">
        <ele>185</ele>
        <time>2012-12-02T11:44:20Z</time>
      </trkpt>
      <trkpt lat="43.48725" lon="6.36674">
        <ele>185</ele>
        <time>2012-12-02T11:44:22Z</time>
      </trkpt>
      <trkpt lat="43.48718" lon="6.3668">
        <ele>185</ele>
        <time>2012-12-02T11:44:23Z</time>
      </trkpt>
      <trkpt lat="43.48712" lon="6.36685">
        <ele>184</ele>
        <time>2012-12-02T11:44:24Z</time>
      </trkpt>
      <trkpt lat="43.48707" lon="6.36691">
        <ele>184</ele>
        <time>2012-12-02T11:44:25Z</time>
      </trkpt>
      <trkpt lat="43.48701" lon="6.36698">
        <ele>183</ele>
        <time>2012-12-02T11:44:26Z</time>
      </trkpt>
      <trkpt lat="43.48697" lon="6.36705">
        <ele>183</ele>
        <time>2012-12-02T11:44:27Z</time>
      </trkpt>
      <trkpt lat="43.48683" lon="6.36728">
        <ele>183</ele>
        <time>2012-12-02T11:44:30Z</time>
      </trkpt>
      <trkpt lat="43.48679" lon="6.36735">
        <ele>183</ele>
        <time>2012-12-02T11:44:31Z</time>
      </trkpt>
      <trkpt lat="43.48674" lon="6.36743">
        <ele>182</ele>
        <time>2012-12-02T11:44:32Z</time>
      </trkpt>
      <trkpt lat="43.4867" lon="6.3675">
        <ele>181</ele>
        <time>2012-12-02T11:44:33Z</time>
      </trkpt>
      <trkpt lat="43.48661" lon="6.36764">
        <ele>181</ele>
        <time>2012-12-02T11:44:35Z</time>
      </trkpt>
      <trkpt lat="43.48655" lon="6.3677">
        <ele>181</ele>
        <time>2012-12-02T11:44:36Z</time>
      </trkpt>
      <trkpt lat="43.48634" lon="6.36793">
        <ele>181</ele>
        <time>2012-12-02T11:44:40Z</time>
      </trkpt>
      <trkpt lat="43.48609" lon="6.3683">
        <ele>181</ele>
        <time>2012-12-02T11:44:46Z</time>
      </trkpt>
      <trkpt lat="43.48589" lon="6.36869">
        <ele>181</ele>
        <time>2012-12-02T11:44:52Z</time>
      </trkpt>
      <trkpt lat="43.48565" lon="6.36905">
        <ele>181</ele>
        <time>2012-12-02T11:44:58Z</time>
      </trkpt>
      <trkpt lat="43.48561" lon="6.36911">
        <ele>181</ele>
        <time>2012-12-02T11:44:59Z</time>
      </trkpt>
      <trkpt lat="43.4854" lon="6.36942">
        <ele>181</ele>
        <time>2012-12-02T11:45:04Z</time>
      </trkpt>
      <trkpt lat="43.48537" lon="6.36948">
        <ele>181</ele>
        <time>2012-12-02T11:45:05Z</time>
      </trkpt>
      <trkpt lat="43.48534" lon="6.36962">
        <ele>181</ele>
        <time>2012-12-02T11:45:07Z</time>
      </trkpt>
      <trkpt lat="43.48539" lon="6.36985">
        <ele>181</ele>
        <time>2012-12-02T11:45:10Z</time>
      </trkpt>
      <trkpt lat="43.48541" lon="6.36994">
        <ele>180</ele>
        <time>2012-12-02T11:45:11Z</time>
      </trkpt>
      <trkpt lat="43.48544" lon="6.37003">
        <ele>180</ele>
        <time>2012-12-02T11:45:12Z</time>
      </trkpt>
      <trkpt lat="43.48547" lon="6.37012">
        <ele>180</ele>
        <time>2012-12-02T11:45:13Z</time>
      </trkpt>
      <trkpt lat="43.48549" lon="6.37023">
        <ele>179</ele>
        <time>2012-12-02T11:45:14Z</time>
      </trkpt>
      <trkpt lat="43.4855" lon="6.37035">
        <ele>179</ele>
        <time>2012-12-02T11:45:15Z</time>
      </trkpt>
      <trkpt lat="43.4855" lon="6.37047">
        <ele>178</ele>
        <time>2012-12-02T11:45:16Z</time>
      </trkpt>
      <trkpt lat="43.48549" lon="6.3706">
        <ele>178</ele>
        <time>2012-12-02T11:45:17Z</time>
      </trkpt>
      <trkpt lat="43.48548" lon="6.37073">
        <ele>177</ele>
        <time>2012-12-02T11:45:18Z</time>
      </trkpt>
      <trkpt lat="43.48547" lon="6.37086">
        <ele>177</ele>
        <time>2012-12-02T11:45:19Z</time>
      </trkpt>
      <trkpt lat="43.48545" lon="6.37099">
        <ele>176</ele>
        <time>2012-12-02T11:45:20Z</time>
      </trkpt>
      <trkpt lat="43.48542" lon="6.37112">
        <ele>175</ele>
        <time>2012-12-02T11:45:21Z</time>
      </trkpt>
      <trkpt lat="43.48538" lon="6.37124">
        <ele>174</ele>
        <time>2012-12-02T11:45:22Z</time>
      </trkpt>
      <trkpt lat="43.48534" lon="6.37135">
        <ele>173</ele>
        <time>2012-12-02T11:45:23Z</time>
      </trkpt>
      <trkpt lat="43.48528" lon="6.37145">
        <ele>173</ele>
        <time>2012-12-02T11:45:24Z</time>
      </trkpt>
      <trkpt lat="43.48523" lon="6.37155">
        <ele>173</ele>
        <time>2012-12-02T11:45:25Z</time>
      </trkpt>
      <trkpt lat="43.48517" lon="6.37165">
        <ele>173</ele>
        <time>2012-12-02T11:45:26Z</time>
      </trkpt>
      <trkpt lat="43.48489" lon="6.37216">
        <ele>173</ele>
        <time>2012-12-02T11:45:32Z</time>
      </trkpt>
      <trkpt lat="43.4848" lon="6.37231">
        <ele>173</ele>
        <time>2012-12-02T11:45:34Z</time>
      </trkpt>
      <trkpt lat="43.48468" lon="6.37245">
        <ele>173</ele>
        <time>2012-12-02T11:45:36Z</time>
      </trkpt>
      <trkpt lat="43.48462" lon="6.37252">
        <ele>172</ele>
        <time>2012-12-02T11:45:37Z</time>
      </trkpt>
      <trkpt lat="43.48456" lon="6.3726">
        <ele>172</ele>
        <time>2012-12-02T11:45:38Z</time>
      </trkpt>
      <trkpt lat="43.4845" lon="6.37268">
        <ele>171</ele>
        <time>2012-12-02T11:45:39Z</time>
      </trkpt>
      <trkpt lat="43.48445" lon="6.37276">
        <ele>171</ele>
        <time>2012-12-02T11:45:40Z</time>
      </trkpt>
      <trkpt lat="43.4844" lon="6.37284">
        <ele>170</ele>
        <time>2012-12-02T11:45:41Z</time>
      </trkpt>
      <trkpt lat="43.48435" lon="6.37293">
        <ele>170</ele>
        <time>2012-12-02T11:45:42Z</time>
      </trkpt>
      <trkpt lat="43.4843" lon="6.37301">
        <ele>169</ele>
        <time>2012-12-02T11:45:43Z</time>
      </trkpt>
      <trkpt lat="43.48426" lon="6.37309">
        <ele>169</ele>
        <time>2012-12-02T11:45:44Z</time>
      </trkpt>
      <trkpt lat="43.48421" lon="6.37317">
        <ele>168</ele>
        <time>2012-12-02T11:45:45Z</time>
      </trkpt>
      <trkpt lat="43.48413" lon="6.3733">
        <ele>168</ele>
        <time>2012-12-02T11:45:47Z</time>
      </trkpt>
      <trkpt lat="43.48413" lon="6.37338">
        <ele>168</ele>
        <time>2012-12-02T11:45:49Z</time>
      </trkpt>
      <trkpt lat="43.48414" lon="6.3734">
        <ele>168</ele>
        <time>2012-12-02T11:45:50Z</time>
      </trkpt>
      <trkpt lat="43.48415" lon="6.37342">
        <ele>168</ele>
        <time>2012-12-02T11:45:51Z</time>
      </trkpt>
      <trkpt lat="43.48416" lon="6.37343">
        <ele>167</ele>
        <time>2012-12-02T11:45:52Z</time>
      </trkpt>
      <trkpt lat="43.48415" lon="6.37343">
        <ele>167</ele>
        <time>2012-12-02T11:45:53Z</time>
      </trkpt>
      <trkpt lat="43.48417" lon="6.37346">
        <ele>166</ele>
        <time>2012-12-02T11:46:13Z</time>
      </trkpt>
      <trkpt lat="43.48418" lon="6.37344">
        <ele>166</ele>
        <time>2012-12-02T11:46:15Z</time>
      </trkpt>
      <trkpt lat="43.48417" lon="6.37343">
        <ele>166</ele>
        <time>2012-12-02T11:46:17Z</time>
      </trkpt>
      <trkpt lat="43.4842" lon="6.37347">
        <ele>166</ele>
        <time>2012-12-02T11:47:07Z</time>
      </trkpt>
      <trkpt lat="43.48422" lon="6.37349">
        <ele>166</ele>
        <time>2012-12-02T11:47:08Z</time>
      </trkpt>
      <trkpt lat="43.48436" lon="6.37358">
        <ele>166</ele>
        <time>2012-12-02T11:47:13Z</time>
      </trkpt>
      <trkpt lat="43.48453" lon="6.37373">
        <ele>166</ele>
        <time>2012-12-02T11:47:18Z</time>
      </trkpt>
      <trkpt lat="43.48457" lon="6.37376">
        <ele>166</ele>
        <time>2012-12-02T11:47:19Z</time>
      </trkpt>
      <trkpt lat="43.48489" lon="6.374">
        <ele>166</ele>
        <time>2012-12-02T11:47:27Z</time>
      </trkpt>
      <trkpt lat="43.48497" lon="6.37406">
        <ele>166</ele>
        <time>2012-12-02T11:47:29Z</time>
      </trkpt>
      <trkpt lat="43.4851" lon="6.37407">
        <ele>166</ele>
        <time>2012-12-02T11:47:32Z</time>
      </trkpt>
      <trkpt lat="43.48517" lon="6.37392">
        <ele>166</ele>
        <time>2012-12-02T11:47:35Z</time>
      </trkpt>
      <trkpt lat="43.48518" lon="6.37386">
        <ele>166</ele>
        <time>2012-12-02T11:47:36Z</time>
      </trkpt>
      <trkpt lat="43.48524" lon="6.37346">
        <ele>166</ele>
        <time>2012-12-02T11:47:43Z</time>
      </trkpt>
      <trkpt lat="43.48525" lon="6.37341">
        <ele>166</ele>
        <time>2012-12-02T11:47:44Z</time>
      </trkpt>
      <trkpt lat="43.48526" lon="6.37336">
        <ele>165</ele>
        <time>2012-12-02T11:47:45Z</time>
      </trkpt>
      <trkpt lat="43.48527" lon="6.3733">
        <ele>165</ele>
        <time>2012-12-02T11:47:46Z</time>
      </trkpt>
      <trkpt lat="43.48529" lon="6.37325">
        <ele>164</ele>
        <time>2012-12-02T11:47:47Z</time>
      </trkpt>
      <trkpt lat="43.48531" lon="6.37322">
        <ele>164</ele>
        <time>2012-12-02T11:47:48Z</time>
      </trkpt>
      <trkpt lat="43.48534" lon="6.37319">
        <ele>164</ele>
        <time>2012-12-02T11:47:49Z</time>
      </trkpt>
      <trkpt lat="43.48541" lon="6.37316">
        <ele>165</ele>
        <time>2012-12-02T11:47:51Z</time>
      </trkpt>
      <trkpt lat="43.48546" lon="6.37315">
        <ele>165</ele>
        <time>2012-12-02T11:47:52Z</time>
      </trkpt>
      <trkpt lat="43.4855" lon="6.37316">
        <ele>166</ele>
        <time>2012-12-02T11:47:53Z</time>
      </trkpt>
      <trkpt lat="43.48554" lon="6.37316">
        <ele>166</ele>
        <time>2012-12-02T11:47:54Z</time>
      </trkpt>
      <trkpt lat="43.48557" lon="6.37317">
        <ele>166</ele>
        <time>2012-12-02T11:47:55Z</time>
      </trkpt>
      <trkpt lat="43.48566" lon="6.37321">
        <ele>167</ele>
        <time>2012-12-02T11:47:57Z</time>
      </trkpt>
      <trkpt lat="43.4857" lon="6.37322">
        <ele>167</ele>
        <time>2012-12-02T11:47:58Z</time>
      </trkpt>
      <trkpt lat="43.48574" lon="6.37324">
        <ele>167</ele>
        <time>2012-12-02T11:47:59Z</time>
      </trkpt>
      <trkpt lat="43.48577" lon="6.37325">
        <ele>168</ele>
        <time>2012-12-02T11:48:00Z</time>
      </trkpt>
      <trkpt lat="43.48581" lon="6.37326">
        <ele>168</ele>
        <time>2012-12-02T11:48:01Z</time>
      </trkpt>
      <trkpt lat="43.48591" lon="6.37331">
        <ele>168</ele>
        <time>2012-12-02T11:48:04Z</time>
      </trkpt>
      <trkpt lat="43.48606" lon="6.37336">
        <ele>168</ele>
        <time>2012-12-02T11:48:09Z</time>
      </trkpt>
      <trkpt lat="43.48617" lon="6.37341">
        <ele>168</ele>
        <time>2012-12-02T11:48:13Z</time>
      </trkpt>
      <trkpt lat="43.48618" lon="6.37344">
        <ele>167</ele>
        <time>2012-12-02T11:48:14Z</time>
      </trkpt>
      <trkpt lat="43.4862" lon="6.37347">
        <ele>167</ele>
        <time>2012-12-02T11:48:15Z</time>
      </trkpt>
      <trkpt lat="43.4862" lon="6.37351">
        <ele>166</ele>
        <time>2012-12-02T11:48:16Z</time>
      </trkpt>
      <trkpt lat="43.4862" lon="6.37359">
        <ele>166</ele>
        <time>2012-12-02T11:48:18Z</time>
      </trkpt>
      <trkpt lat="43.48617" lon="6.37367">
        <ele>166</ele>
        <time>2012-12-02T11:48:22Z</time>
      </trkpt>
      <trkpt lat="43.48617" lon="6.37368">
        <ele>166</ele>
        <time>2012-12-02T11:48:23Z</time>
      </trkpt>
    </trkseg>
  </trk>
</gpx>